<?xml version='1.0' encoding='UTF-8'?><gpx version="1.1" creator="JPX - https://github.com/jenetics/jpx" xmlns="http://www.topografix.com/GPX/1/1"><trk><trkseg><trkpt lat="45.659024485258215" lon="3.7080915738500626"><ele>614.0</ele><time>2026-05-02T11:43:13.001Z</time></trkpt><trkpt lat="45.65892378174234" lon="3.708067014002778"><ele>614.0</ele><time>2026-05-02T11:43:18.001Z</time></trkpt><trkpt lat="45.65881761163053" lon="3.70790501573984"><ele>614.0</ele><time>2026-05-02T11:43:20.001Z</time></trkpt><trkpt lat="45.6587310361715" lon="3.707774974447669"><ele>614.0</ele><time>2026-05-02T11:43:21.001Z</time></trkpt><trkpt lat="45.65862737599211" lon="3.707687310456383"><ele>611.6666666666666</ele><time>2026-05-02T11:43:22.001Z</time></trkpt><trkpt lat="45.65851660427717" lon="3.7076141808671883"><ele>609.3333333333334</ele><time>2026-05-02T11:43:23.001Z</time></trkpt><trkpt lat="45.65837359754912" lon="3.707509115492148"><ele>607.0</ele><time>2026-05-02T11:43:24.001Z</time></trkpt><trkpt lat="45.65820635437705" lon="3.7074099327611965"><ele>607.0</ele><time>2026-05-02T11:43:25.001Z</time></trkpt><trkpt lat="45.65804193009317" lon="3.707317975235306"><ele>607.0</ele><time>2026-05-02T11:43:26.001Z</time></trkpt><trkpt lat="45.65787814967859" lon="3.707213075340751"><ele>607.0</ele><time>2026-05-02T11:43:27.001Z</time></trkpt><trkpt lat="45.65771580083868" lon="3.7071148354420886"><ele>605.5</ele><time>2026-05-02T11:43:28.001Z</time></trkpt><trkpt lat="45.65758263411966" lon="3.707033367691714"><ele>604.0</ele><time>2026-05-02T11:43:29.001Z</time></trkpt><trkpt lat="45.657467407217226" lon="3.7069565391627695"><ele>602.5</ele><time>2026-05-02T11:43:30Z</time></trkpt><trkpt lat="45.65736466632347" lon="3.706822232882381"><ele>601.0</ele><time>2026-05-02T11:43:31Z</time></trkpt><trkpt lat="45.65720976722107" lon="3.706729545269007"><ele>601.0</ele><time>2026-05-02T11:43:32Z</time></trkpt><trkpt lat="45.65707813312084" lon="3.706566925575544"><ele>601.0</ele><time>2026-05-02T11:43:33Z</time></trkpt><trkpt lat="45.656926679063034" lon="3.7063717706453696"><ele>601.0</ele><time>2026-05-02T11:43:34Z</time></trkpt><trkpt lat="45.656766145477775" lon="3.7061926162796155"><ele>600.6666666666667</ele><time>2026-05-02T11:43:35Z</time></trkpt><trkpt lat="45.6565786184319" lon="3.706025474499156"><ele>600.3333333333334</ele><time>2026-05-02T11:43:36Z</time></trkpt><trkpt lat="45.65640740236478" lon="3.7058902489154777"><ele>600.0</ele><time>2026-05-02T11:43:37Z</time></trkpt><trkpt lat="45.65625154129384" lon="3.7057929580758766"><ele>600.3333333333334</ele><time>2026-05-02T11:43:38Z</time></trkpt><trkpt lat="45.656100328651014" lon="3.7056885732854097"><ele>600.6666666666667</ele><time>2026-05-02T11:43:39Z</time></trkpt><trkpt lat="45.65595416503287" lon="3.705590462055239"><ele>601.0</ele><time>2026-05-02T11:43:40Z</time></trkpt><trkpt lat="45.65582701583879" lon="3.705447924547982"><ele>601.0</ele><time>2026-05-02T11:43:41Z</time></trkpt><trkpt lat="45.655669915860244" lon="3.7053206914730255"><ele>601.0</ele><time>2026-05-02T11:43:42Z</time></trkpt><trkpt lat="45.65551404035223" lon="3.705148920587297"><ele>601.0</ele><time>2026-05-02T11:43:43Z</time></trkpt><trkpt lat="45.655370389769885" lon="3.704944961122839"><ele>602.6666666666667</ele><time>2026-05-02T11:43:44Z</time></trkpt><trkpt lat="45.65523039073159" lon="3.7047502609286505"><ele>604.3333333333334</ele><time>2026-05-02T11:43:45Z</time></trkpt><trkpt lat="45.65510688178098" lon="3.7045599930449216"><ele>606.0</ele><time>2026-05-02T11:43:46Z</time></trkpt><trkpt lat="45.65498902680858" lon="3.704361670117495"><ele>606.0</ele><time>2026-05-02T11:43:47Z</time></trkpt><trkpt lat="45.65489063687441" lon="3.7041779490823576"><ele>606.0</ele><time>2026-05-02T11:43:48Z</time></trkpt><trkpt lat="45.6548135583729" lon="3.70400875676949"><ele>606.0</ele><time>2026-05-02T11:43:49Z</time></trkpt><trkpt lat="45.65474665999434" lon="3.703810412986848"><ele>607.0</ele><time>2026-05-02T11:43:50Z</time></trkpt><trkpt lat="45.65469777388145" lon="3.7035726447894812"><ele>608.0</ele><time>2026-05-02T11:43:51Z</time></trkpt><trkpt lat="45.65465933385564" lon="3.7033173994892077"><ele>609.0</ele><time>2026-05-02T11:43:52Z</time></trkpt><trkpt lat="45.65462411854712" lon="3.7030630967255953"><ele>609.0</ele><time>2026-05-02T11:43:53Z</time></trkpt><trkpt lat="45.65459905088828" lon="3.7028134567903344"><ele>609.0</ele><time>2026-05-02T11:43:54Z</time></trkpt><trkpt lat="45.654574480107264" lon="3.702561130866926"><ele>609.0</ele><time>2026-05-02T11:43:55Z</time></trkpt><trkpt lat="45.65455295694758" lon="3.7022981415562155"><ele>609.3333333333334</ele><time>2026-05-02T11:43:56Z</time></trkpt><trkpt lat="45.65453185919112" lon="3.702035604433918"><ele>609.6666666666667</ele><time>2026-05-02T11:43:57Z</time></trkpt><trkpt lat="45.6545147672838" lon="3.7017695770126586"><ele>610.0</ele><time>2026-05-02T11:43:58Z</time></trkpt><trkpt lat="45.65449936189591" lon="3.7015136371343913"><ele>610.3333333333334</ele><time>2026-05-02T11:43:59Z</time></trkpt><trkpt lat="45.65448721271923" lon="3.701257587846596"><ele>610.6666666666666</ele><time>2026-05-02T11:44:00Z</time></trkpt><trkpt lat="45.65448627611617" lon="3.7010108828076818"><ele>611.0</ele><time>2026-05-02T11:44:01Z</time></trkpt><trkpt lat="45.654492933208665" lon="3.700756591836816"><ele>610.3333333333333</ele><time>2026-05-02T11:44:02Z</time></trkpt><trkpt lat="45.65449284913962" lon="3.7004979888247163"><ele>609.6666666666666</ele><time>2026-05-02T11:44:03Z</time></trkpt><trkpt lat="45.65449287647206" lon="3.7002507664715405"><ele>609.0</ele><time>2026-05-02T11:44:04Z</time></trkpt><trkpt lat="45.65448972550199" lon="3.699999903753865"><ele>606.3333333333334</ele><time>2026-05-02T11:44:05Z</time></trkpt><trkpt lat="45.65448820582196" lon="3.6997639683791106"><ele>603.6666666666667</ele><time>2026-05-02T11:44:06Z</time></trkpt><trkpt lat="45.654494437686125" lon="3.699513980135837"><ele>601.0</ele><time>2026-05-02T11:44:07Z</time></trkpt><trkpt lat="45.65451247179726" lon="3.699253405768177"><ele>600.0</ele><time>2026-05-02T11:44:08Z</time></trkpt><trkpt lat="45.654534117187076" lon="3.699001619699067"><ele>599.0</ele><time>2026-05-02T11:44:09Z</time></trkpt><trkpt lat="45.65456109182278" lon="3.698768148455"><ele>598.0</ele><time>2026-05-02T11:44:10Z</time></trkpt><trkpt lat="45.65457703033191" lon="3.6985328365695853"><ele>598.0</ele><time>2026-05-02T11:44:11Z</time></trkpt><trkpt lat="45.65458999827241" lon="3.6982945673345498"><ele>598.0</ele><time>2026-05-02T11:44:12Z</time></trkpt><trkpt lat="45.654613003726695" lon="3.6980547545401747"><ele>598.0</ele><time>2026-05-02T11:44:13Z</time></trkpt><trkpt lat="45.654646535203504" lon="3.697835937079605"><ele>600.3333333333334</ele><time>2026-05-02T11:44:14Z</time></trkpt><trkpt lat="45.6546748993213" lon="3.6976332852563534"><ele>602.6666666666666</ele><time>2026-05-02T11:44:15Z</time></trkpt><trkpt lat="45.65470447320156" lon="3.6974124364179612"><ele>605.0</ele><time>2026-05-02T11:44:16Z</time></trkpt><trkpt lat="45.65472657914549" lon="3.6971520934758026"><ele>608.0</ele><time>2026-05-02T11:44:17Z</time></trkpt><trkpt lat="45.654734061102914" lon="3.6968744794739288"><ele>611.0</ele><time>2026-05-02T11:44:18Z</time></trkpt><trkpt lat="45.654733642778474" lon="3.696575819626121"><ele>614.0</ele><time>2026-05-02T11:44:19Z</time></trkpt><trkpt lat="45.654735705028585" lon="3.696260249643112"><ele>614.3333333333333</ele><time>2026-05-02T11:44:20Z</time></trkpt><trkpt lat="45.65474777912997" lon="3.6959558229794474"><ele>614.6666666666666</ele><time>2026-05-02T11:44:21Z</time></trkpt><trkpt lat="45.65475904553132" lon="3.695655905240598"><ele>615.0</ele><time>2026-05-02T11:44:22Z</time></trkpt><trkpt lat="45.654769696744346" lon="3.695348447989182"><ele>614.0</ele><time>2026-05-02T11:44:23Z</time></trkpt><trkpt lat="45.65478470036092" lon="3.6950343519245443"><ele>613.0</ele><time>2026-05-02T11:44:24Z</time></trkpt><trkpt lat="45.654797346797906" lon="3.694725067652596"><ele>612.0</ele><time>2026-05-02T11:44:25Z</time></trkpt><trkpt lat="45.65480570687851" lon="3.6944416050191276"><ele>611.0</ele><time>2026-05-02T11:44:26Z</time></trkpt><trkpt lat="45.65482026031907" lon="3.6941614174687456"><ele>610.0</ele><time>2026-05-02T11:44:27Z</time></trkpt><trkpt lat="45.65485229254077" lon="3.6938983556931735"><ele>609.0</ele><time>2026-05-02T11:44:28Z</time></trkpt><trkpt lat="45.654916049234096" lon="3.6936193081428454"><ele>610.6666666666666</ele><time>2026-05-02T11:44:29Z</time></trkpt><trkpt lat="45.65499517662903" lon="3.6933427365010427"><ele>612.3333333333333</ele><time>2026-05-02T11:44:30Z</time></trkpt><trkpt lat="45.65505035801922" lon="3.6930882835435748"><ele>614.0</ele><time>2026-05-02T11:44:31Z</time></trkpt><trkpt lat="45.65510323603636" lon="3.6928677057534074"><ele>614.5</ele><time>2026-05-02T11:44:32Z</time></trkpt><trkpt lat="45.655152850377746" lon="3.692692850472858"><ele>615.0</ele><time>2026-05-02T11:44:33Z</time></trkpt><trkpt lat="45.655172004412094" lon="3.692530277459658"><ele>615.5</ele><time>2026-05-02T11:44:34Z</time></trkpt><trkpt lat="45.65516179667577" lon="3.692362312773789"><ele>616.0</ele><time>2026-05-02T11:44:35Z</time></trkpt><trkpt lat="45.655149827558844" lon="3.692172732703917"><ele>616.0</ele><time>2026-05-02T11:44:36Z</time></trkpt><trkpt lat="45.65513572002476" lon="3.691964134023653"><ele>616.0</ele><time>2026-05-02T11:44:37Z</time></trkpt><trkpt lat="45.65509724749621" lon="3.691757286048442"><ele>616.0</ele><time>2026-05-02T11:44:38Z</time></trkpt><trkpt lat="45.65503752193665" lon="3.69154467006191"><ele>614.0</ele><time>2026-05-02T11:44:39Z</time></trkpt><trkpt lat="45.65495260740658" lon="3.6913512119565994"><ele>612.0</ele><time>2026-05-02T11:44:40Z</time></trkpt><trkpt lat="45.654837284532235" lon="3.691128337279902"><ele>610.0</ele><time>2026-05-02T11:44:41Z</time></trkpt><trkpt lat="45.65475412467926" lon="3.6909417659065222"><ele>609.5</ele><time>2026-05-02T11:44:42Z</time></trkpt><trkpt lat="45.65469657272576" lon="3.69077522070512"><ele>609.0</ele><time>2026-05-02T11:44:43Z</time></trkpt><trkpt lat="45.65465596558641" lon="3.6905822058532305"><ele>608.5</ele><time>2026-05-02T11:44:44Z</time></trkpt><trkpt lat="45.65464662302209" lon="3.6903634838823365"><ele>608.0</ele><time>2026-05-02T11:44:45Z</time></trkpt><trkpt lat="45.65460272422487" lon="3.6901904542130715"><ele>607.5</ele><time>2026-05-02T11:44:46Z</time></trkpt><trkpt lat="45.65453504701464" lon="3.6900331683051064"><ele>607.0</ele><time>2026-05-02T11:44:47Z</time></trkpt><trkpt lat="45.65444900513547" lon="3.6898734544387533"><ele>606.5</ele><time>2026-05-02T11:44:48Z</time></trkpt><trkpt lat="45.654345984082084" lon="3.6897286053382774"><ele>606.0</ele><time>2026-05-02T11:44:49Z</time></trkpt><trkpt lat="45.654233818157586" lon="3.689590703459101"><ele>603.6666666666666</ele><time>2026-05-02T11:44:50Z</time></trkpt><trkpt lat="45.654106249773754" lon="3.689444217472103"><ele>601.3333333333333</ele><time>2026-05-02T11:44:51Z</time></trkpt><trkpt lat="45.65398185660553" lon="3.6892803621194865"><ele>599.0</ele><time>2026-05-02T11:44:52Z</time></trkpt><trkpt lat="45.65386500100627" lon="3.6890869459693247"><ele>598.0</ele><time>2026-05-02T11:44:53Z</time></trkpt><trkpt lat="45.653746561026146" lon="3.688912678558655"><ele>597.0</ele><time>2026-05-02T11:44:54Z</time></trkpt><trkpt lat="45.65363767853432" lon="3.6887782875760493"><ele>596.0</ele><time>2026-05-02T11:44:55Z</time></trkpt><trkpt lat="45.65354860779045" lon="3.6886575295647734"><ele>595.0</ele><time>2026-05-02T11:44:56Z</time></trkpt><trkpt lat="45.653491658541455" lon="3.6885294308583765"><ele>593.0</ele><time>2026-05-02T11:44:57Z</time></trkpt><trkpt lat="45.6534837636694" lon="3.688378272605367"><ele>591.0</ele><time>2026-05-02T11:44:58Z</time></trkpt><trkpt lat="45.65346195865918" lon="3.6882587319033973"><ele>589.0</ele><time>2026-05-02T11:44:59Z</time></trkpt><trkpt lat="45.65346161747786" lon="3.6881573980324984"><ele>587.0</ele><time>2026-05-02T11:45:01Z</time></trkpt><trkpt lat="45.653498873519354" lon="3.688059396125754"><ele>585.0</ele><time>2026-05-02T11:45:03Z</time></trkpt><trkpt lat="45.65354859418237" lon="3.6879856869357717"><ele>583.0</ele><time>2026-05-02T11:45:04Z</time></trkpt><trkpt lat="45.65359566365467" lon="3.687895827646504"><ele>582.5</ele><time>2026-05-02T11:45:05Z</time></trkpt><trkpt lat="45.65365193075893" lon="3.687781068409504"><ele>582.0</ele><time>2026-05-02T11:45:06Z</time></trkpt><trkpt lat="45.65371768831951" lon="3.687654339994128"><ele>581.5</ele><time>2026-05-02T11:45:07Z</time></trkpt><trkpt lat="45.653798856014106" lon="3.6875069283821027"><ele>581.0</ele><time>2026-05-02T11:45:08Z</time></trkpt><trkpt lat="45.65388058276205" lon="3.6873428429342696"><ele>581.0</ele><time>2026-05-02T11:45:09Z</time></trkpt><trkpt lat="45.653957081897765" lon="3.687148158744381"><ele>581.0</ele><time>2026-05-02T11:45:10Z</time></trkpt><trkpt lat="45.65402106839377" lon="3.6869326072156836"><ele>581.0</ele><time>2026-05-02T11:45:11Z</time></trkpt><trkpt lat="45.65406958028506" lon="3.686696647583191"><ele>579.3333333333333</ele><time>2026-05-02T11:45:12Z</time></trkpt><trkpt lat="45.654106046017674" lon="3.686469059158265"><ele>577.6666666666666</ele><time>2026-05-02T11:45:13Z</time></trkpt><trkpt lat="45.654140919762305" lon="3.686248815718299"><ele>576.0</ele><time>2026-05-02T11:45:14Z</time></trkpt><trkpt lat="45.6542027151201" lon="3.686044128041682"><ele>574.6666666666666</ele><time>2026-05-02T11:45:15Z</time></trkpt><trkpt lat="45.65428504323755" lon="3.6858443186439467"><ele>573.3333333333333</ele><time>2026-05-02T11:45:16Z</time></trkpt><trkpt lat="45.654365407692865" lon="3.685630516210276"><ele>572.0</ele><time>2026-05-02T11:45:17Z</time></trkpt><trkpt lat="45.65442779749716" lon="3.6853949451949353"><ele>565.3333333333333</ele><time>2026-05-02T11:45:18Z</time></trkpt><trkpt lat="45.65447605770823" lon="3.6851544880385445"><ele>558.6666666666666</ele><time>2026-05-02T11:45:19Z</time></trkpt><trkpt lat="45.654510378302454" lon="3.6849189662970128"><ele>552.0</ele><time>2026-05-02T11:45:20Z</time></trkpt><trkpt lat="45.65454803445592" lon="3.684693099083823"><ele>552.0</ele><time>2026-05-02T11:45:21Z</time></trkpt><trkpt lat="45.65461009407289" lon="3.6844922480252507"><ele>552.0</ele><time>2026-05-02T11:45:22Z</time></trkpt><trkpt lat="45.65471018178908" lon="3.6843137650198914"><ele>552.0</ele><time>2026-05-02T11:45:23Z</time></trkpt><trkpt lat="45.65483646754418" lon="3.684137207907623"><ele>550.6666666666666</ele><time>2026-05-02T11:45:24Z</time></trkpt><trkpt lat="45.654974534883095" lon="3.683963205488909"><ele>549.3333333333333</ele><time>2026-05-02T11:45:25Z</time></trkpt><trkpt lat="45.655120922389926" lon="3.6838303374701074"><ele>548.0</ele><time>2026-05-02T11:45:26Z</time></trkpt><trkpt lat="45.65528474718573" lon="3.6837525961161504"><ele>545.6666666666666</ele><time>2026-05-02T11:45:27Z</time></trkpt><trkpt lat="45.65545745423081" lon="3.6836977572195253"><ele>543.3333333333334</ele><time>2026-05-02T11:45:28Z</time></trkpt><trkpt lat="45.65563505173253" lon="3.683655669610755"><ele>541.0</ele><time>2026-05-02T11:45:29Z</time></trkpt><trkpt lat="45.655799533969194" lon="3.6836050401767038"><ele>539.3333333333334</ele><time>2026-05-02T11:45:30Z</time></trkpt><trkpt lat="45.65593691552787" lon="3.6835377103996105"><ele>537.6666666666666</ele><time>2026-05-02T11:45:31Z</time></trkpt><trkpt lat="45.656069915970455" lon="3.6834304894026486"><ele>536.0</ele><time>2026-05-02T11:45:32Z</time></trkpt><trkpt lat="45.65620285883068" lon="3.6832717121211256"><ele>533.6666666666666</ele><time>2026-05-02T11:45:33Z</time></trkpt><trkpt lat="45.65633860120505" lon="3.683082016123344"><ele>531.3333333333334</ele><time>2026-05-02T11:45:34.001Z</time></trkpt><trkpt lat="45.6564509379663" lon="3.6828740831226154"><ele>529.0</ele><time>2026-05-02T11:45:35.001Z</time></trkpt><trkpt lat="45.6565535239777" lon="3.6826519460725273"><ele>528.0</ele><time>2026-05-02T11:45:36Z</time></trkpt><trkpt lat="45.656652558526226" lon="3.68245141562531"><ele>527.0</ele><time>2026-05-02T11:45:37Z</time></trkpt><trkpt lat="45.65675853435298" lon="3.682260715322116"><ele>526.0</ele><time>2026-05-02T11:45:38Z</time></trkpt><trkpt lat="45.65685778643549" lon="3.682097740053423"><ele>526.0</ele><time>2026-05-02T11:45:39Z</time></trkpt><trkpt lat="45.65693721468578" lon="3.6819473600554997"><ele>526.0</ele><time>2026-05-02T11:45:40Z</time></trkpt><trkpt lat="45.65699431391794" lon="3.6817725911836714"><ele>526.0</ele><time>2026-05-02T11:45:41Z</time></trkpt><trkpt lat="45.65702933729054" lon="3.681579822955106"><ele>526.0</ele><time>2026-05-02T11:45:42Z</time></trkpt><trkpt lat="45.65706215758965" lon="3.681412029542163"><ele>524.0</ele><time>2026-05-02T11:45:43Z</time></trkpt><trkpt lat="45.65710412987434" lon="3.681283753870629"><ele>522.0</ele><time>2026-05-02T11:45:44Z</time></trkpt><trkpt lat="45.65715930637767" lon="3.6811833181710747"><ele>520.0</ele><time>2026-05-02T11:45:45Z</time></trkpt><trkpt lat="45.65720127643696" lon="3.6810932810901975"><ele>518.0</ele><time>2026-05-02T11:45:46Z</time></trkpt><trkpt lat="45.65732857700492" lon="3.6811006206707577"><ele>516.0</ele><time>2026-05-02T11:45:47Z</time></trkpt><trkpt lat="45.657450847216865" lon="3.681061136760834"><ele>515.25</ele><time>2026-05-02T11:45:48Z</time></trkpt><trkpt lat="45.65759254896579" lon="3.6810291796133225"><ele>514.5</ele><time>2026-05-02T11:45:49Z</time></trkpt><trkpt lat="45.65773547869308" lon="3.680973806811563"><ele>513.75</ele><time>2026-05-02T11:45:50Z</time></trkpt><trkpt lat="45.65785681856405" lon="3.680893384125314"><ele>513.0</ele><time>2026-05-02T11:45:51Z</time></trkpt><trkpt lat="45.657953140648104" lon="3.680774410040139"><ele>513.4</ele><time>2026-05-02T11:45:52Z</time></trkpt><trkpt lat="45.658013924841114" lon="3.680618019001611"><ele>513.8</ele><time>2026-05-02T11:45:53Z</time></trkpt><trkpt lat="45.65806617930787" lon="3.6804760401804493"><ele>514.2</ele><time>2026-05-02T11:45:54Z</time></trkpt><trkpt lat="45.65812306294858" lon="3.6804074024771616"><ele>514.6</ele><time>2026-05-02T11:45:55Z</time></trkpt><trkpt lat="45.658198296288" lon="3.680389138302395"><ele>515.0</ele><time>2026-05-02T11:45:57Z</time></trkpt><trkpt lat="45.65820319798357" lon="3.6802178182535137"><ele>515.0</ele><time>2026-05-02T11:45:59Z</time></trkpt><trkpt lat="45.6581598667453" lon="3.6800896050148104"><ele>515.0</ele><time>2026-05-02T11:46:00Z</time></trkpt><trkpt lat="45.65812686191354" lon="3.6799374804822076"><ele>515.0</ele><time>2026-05-02T11:46:01Z</time></trkpt><trkpt lat="45.658120460334814" lon="3.6797608982951786"><ele>515.0</ele><time>2026-05-02T11:46:02Z</time></trkpt><trkpt lat="45.65811689776778" lon="3.6795636360410913"><ele>513.6666666666666</ele><time>2026-05-02T11:46:03Z</time></trkpt><trkpt lat="45.65811670047971" lon="3.6793524374525477"><ele>512.3333333333334</ele><time>2026-05-02T11:46:04Z</time></trkpt><trkpt lat="45.65811906710596" lon="3.6791300519805605"><ele>511.0</ele><time>2026-05-02T11:46:05Z</time></trkpt><trkpt lat="45.65811735424204" lon="3.678897463341333"><ele>511.0</ele><time>2026-05-02T11:46:06Z</time></trkpt><trkpt lat="45.6581158085092" lon="3.6786484409374283"><ele>511.0</ele><time>2026-05-02T11:46:07Z</time></trkpt><trkpt lat="45.65811800153542" lon="3.6783964216531877"><ele>511.0</ele><time>2026-05-02T11:46:08Z</time></trkpt><trkpt lat="45.65812110881631" lon="3.678138939425207"><ele>511.33333333333337</ele><time>2026-05-02T11:46:09Z</time></trkpt><trkpt lat="45.65811429012182" lon="3.6778705208837037"><ele>511.66666666666663</ele><time>2026-05-02T11:46:10Z</time></trkpt><trkpt lat="45.65811520283529" lon="3.677615001843289"><ele>512.0</ele><time>2026-05-02T11:46:11Z</time></trkpt><trkpt lat="45.658120120564725" lon="3.6773654218993412"><ele>512.0</ele><time>2026-05-02T11:46:12Z</time></trkpt><trkpt lat="45.658154076267685" lon="3.6771278199871946"><ele>512.0</ele><time>2026-05-02T11:46:13Z</time></trkpt><trkpt lat="45.65820244241271" lon="3.6769130591687764"><ele>512.0</ele><time>2026-05-02T11:46:14Z</time></trkpt><trkpt lat="45.65822468290856" lon="3.676678746021024"><ele>513.6666666666666</ele><time>2026-05-02T11:46:15Z</time></trkpt><trkpt lat="45.658219334199494" lon="3.676437776662006"><ele>515.3333333333334</ele><time>2026-05-02T11:46:16Z</time></trkpt><trkpt lat="45.65822144786147" lon="3.676200500373985"><ele>517.0</ele><time>2026-05-02T11:46:17Z</time></trkpt><trkpt lat="45.658248172683344" lon="3.6759928798877826"><ele>517.25</ele><time>2026-05-02T11:46:18Z</time></trkpt><trkpt lat="45.65827024925776" lon="3.6757918547008868"><ele>517.5</ele><time>2026-05-02T11:46:19Z</time></trkpt><trkpt lat="45.65826050991939" lon="3.6755929773588347"><ele>517.75</ele><time>2026-05-02T11:46:20Z</time></trkpt><trkpt lat="45.65821094444871" lon="3.6753876205158584"><ele>518.0</ele><time>2026-05-02T11:46:21Z</time></trkpt><trkpt lat="45.65813287319316" lon="3.6751887202203273"><ele>519.6666666666666</ele><time>2026-05-02T11:46:22Z</time></trkpt><trkpt lat="45.65803279751945" lon="3.674992189425211"><ele>521.3333333333334</ele><time>2026-05-02T11:46:23Z</time></trkpt><trkpt lat="45.65791345051146" lon="3.67477892745623"><ele>523.0</ele><time>2026-05-02T11:46:24Z</time></trkpt><trkpt lat="45.657796101176146" lon="3.674577407956928"><ele>521.3333333333334</ele><time>2026-05-02T11:46:25Z</time></trkpt><trkpt lat="45.657691470610246" lon="3.674423837476161"><ele>519.6666666666666</ele><time>2026-05-02T11:46:26Z</time></trkpt><trkpt lat="45.65757190301496" lon="3.674301946538176"><ele>518.0</ele><time>2026-05-02T11:46:27Z</time></trkpt><trkpt lat="45.65739563321494" lon="3.67426192107664"><ele>518.0</ele><time>2026-05-02T11:46:28Z</time></trkpt><trkpt lat="45.65720848460874" lon="3.6742476306475864"><ele>518.0</ele><time>2026-05-02T11:46:29Z</time></trkpt><trkpt lat="45.65701507013127" lon="3.6742287268692797"><ele>518.0</ele><time>2026-05-02T11:46:30Z</time></trkpt><trkpt lat="45.65682069602029" lon="3.6741799166860627"><ele>517.6666666666666</ele><time>2026-05-02T11:46:31Z</time></trkpt><trkpt lat="45.65662511860716" lon="3.674110733052441"><ele>517.3333333333334</ele><time>2026-05-02T11:46:32Z</time></trkpt><trkpt lat="45.65642836189238" lon="3.674021276935738"><ele>517.0</ele><time>2026-05-02T11:46:33Z</time></trkpt><trkpt lat="45.656228717045" lon="3.6739362262873083"><ele>516.6666666666667</ele><time>2026-05-02T11:46:34Z</time></trkpt><trkpt lat="45.65603316042712" lon="3.6738459012640443"><ele>516.3333333333334</ele><time>2026-05-02T11:46:35Z</time></trkpt><trkpt lat="45.65586346969027" lon="3.673744648787503"><ele>516.0</ele><time>2026-05-02T11:46:36Z</time></trkpt><trkpt lat="45.655694761945384" lon="3.67362191105262"><ele>517.6666666666666</ele><time>2026-05-02T11:46:37Z</time></trkpt><trkpt lat="45.65553532012722" lon="3.6735026608117134"><ele>519.3333333333333</ele><time>2026-05-02T11:46:38Z</time></trkpt><trkpt lat="45.65538539039604" lon="3.6733948632958597"><ele>521.0</ele><time>2026-05-02T11:46:39Z</time></trkpt><trkpt lat="45.655237236951606" lon="3.6732887502173432"><ele>519.75</ele><time>2026-05-02T11:46:40Z</time></trkpt><trkpt lat="45.65510459957676" lon="3.673173272727294"><ele>518.5</ele><time>2026-05-02T11:46:41Z</time></trkpt><trkpt lat="45.65499015375655" lon="3.6730360082893094"><ele>517.25</ele><time>2026-05-02T11:46:42Z</time></trkpt><trkpt lat="45.654895954911666" lon="3.6728817101987916"><ele>516.0</ele><time>2026-05-02T11:46:43Z</time></trkpt><trkpt lat="45.654833430560245" lon="3.672703013097017"><ele>516.0</ele><time>2026-05-02T11:46:44Z</time></trkpt><trkpt lat="45.65478843106492" lon="3.6724954101656007"><ele>516.0</ele><time>2026-05-02T11:46:45Z</time></trkpt><trkpt lat="45.65475255467214" lon="3.6722690226919474"><ele>516.0</ele><time>2026-05-02T11:46:46Z</time></trkpt><trkpt lat="45.65470609277011" lon="3.672039955755978"><ele>517.0</ele><time>2026-05-02T11:46:47Z</time></trkpt><trkpt lat="45.65465841808901" lon="3.6717992891508358"><ele>518.0</ele><time>2026-05-02T11:46:48Z</time></trkpt><trkpt lat="45.654613012996904" lon="3.6715468671050426"><ele>519.0</ele><time>2026-05-02T11:46:49Z</time></trkpt><trkpt lat="45.65457749622116" lon="3.6712929458395505"><ele>519.0</ele><time>2026-05-02T11:46:50Z</time></trkpt><trkpt lat="45.65455541578272" lon="3.671040591647968"><ele>519.0</ele><time>2026-05-02T11:46:51Z</time></trkpt><trkpt lat="45.654555140892825" lon="3.6707947470680167"><ele>519.0</ele><time>2026-05-02T11:46:52Z</time></trkpt><trkpt lat="45.65456696320263" lon="3.6705484208834673"><ele>519.0</ele><time>2026-05-02T11:46:53Z</time></trkpt><trkpt lat="45.6545755434414" lon="3.6702958116906648"><ele>519.0</ele><time>2026-05-02T11:46:54Z</time></trkpt><trkpt lat="45.65457551488869" lon="3.670040233872506"><ele>519.0</ele><time>2026-05-02T11:46:55Z</time></trkpt><trkpt lat="45.65454957611266" lon="3.6697839902779354"><ele>519.6666666666666</ele><time>2026-05-02T11:46:56Z</time></trkpt><trkpt lat="45.65450216609438" lon="3.6695297098517354"><ele>520.3333333333333</ele><time>2026-05-02T11:46:57Z</time></trkpt><trkpt lat="45.6544576780264" lon="3.66928451702593"><ele>521.0</ele><time>2026-05-02T11:46:58Z</time></trkpt><trkpt lat="45.65442287283634" lon="3.6690416044082217"><ele>516.0</ele><time>2026-05-02T11:46:59Z</time></trkpt><trkpt lat="45.65441463900699" lon="3.668802854025968"><ele>511.0</ele><time>2026-05-02T11:47:00Z</time></trkpt><trkpt lat="45.65441967462932" lon="3.668554521891194"><ele>506.0</ele><time>2026-05-02T11:47:01Z</time></trkpt><trkpt lat="45.65443572607432" lon="3.668305058610235"><ele>509.0</ele><time>2026-05-02T11:47:02Z</time></trkpt><trkpt lat="45.65446757379965" lon="3.6680629577315598"><ele>512.0</ele><time>2026-05-02T11:47:03Z</time></trkpt><trkpt lat="45.654507492873144" lon="3.6678182429775776"><ele>515.0</ele><time>2026-05-02T11:47:04Z</time></trkpt><trkpt lat="45.65455134612676" lon="3.667567886097991"><ele>515.0</ele><time>2026-05-02T11:47:05Z</time></trkpt><trkpt lat="45.65460302609972" lon="3.6673223919546922"><ele>515.0</ele><time>2026-05-02T11:47:06Z</time></trkpt><trkpt lat="45.65465845265588" lon="3.6670908657207586"><ele>515.0</ele><time>2026-05-02T11:47:07Z</time></trkpt><trkpt lat="45.654719362704235" lon="3.6668725547236645"><ele>513.3333333333333</ele><time>2026-05-02T11:47:08Z</time></trkpt><trkpt lat="45.654786682222834" lon="3.666662957800996"><ele>511.66666666666663</ele><time>2026-05-02T11:47:09Z</time></trkpt><trkpt lat="45.654860551471366" lon="3.666452523340871"><ele>510.0</ele><time>2026-05-02T11:47:10Z</time></trkpt><trkpt lat="45.654941800601016" lon="3.666247380288123"><ele>506.0</ele><time>2026-05-02T11:47:11Z</time></trkpt><trkpt lat="45.655030527566716" lon="3.6660547817764213"><ele>502.0</ele><time>2026-05-02T11:47:12Z</time></trkpt><trkpt lat="45.65513346132468" lon="3.665879815005675"><ele>498.0</ele><time>2026-05-02T11:47:13Z</time></trkpt><trkpt lat="45.655244543561565" lon="3.6657182972742355"><ele>498.33333333333337</ele><time>2026-05-02T11:47:14Z</time></trkpt><trkpt lat="45.65535460697554" lon="3.6655676730749405"><ele>498.6666666666667</ele><time>2026-05-02T11:47:15Z</time></trkpt><trkpt lat="45.65546676493708" lon="3.6654199250798407"><ele>499.0</ele><time>2026-05-02T11:47:16Z</time></trkpt><trkpt lat="45.655578717058034" lon="3.665269290479322"><ele>499.0</ele><time>2026-05-02T11:47:17Z</time></trkpt><trkpt lat="45.65568809417122" lon="3.6651323190326908"><ele>499.0</ele><time>2026-05-02T11:47:18Z</time></trkpt><trkpt lat="45.655798134835685" lon="3.664999457801569"><ele>499.0</ele><time>2026-05-02T11:47:19Z</time></trkpt><trkpt lat="45.65590352251034" lon="3.6648955447388913"><ele>499.0</ele><time>2026-05-02T11:47:20Z</time></trkpt><trkpt lat="45.656023081068334" lon="3.6647986699161073"><ele>499.0</ele><time>2026-05-02T11:47:21Z</time></trkpt><trkpt lat="45.65614689347807" lon="3.6647222319300474"><ele>499.0</ele><time>2026-05-02T11:47:22Z</time></trkpt><trkpt lat="45.6562660231682" lon="3.6646590680849784"><ele>499.0</ele><time>2026-05-02T11:47:23Z</time></trkpt><trkpt lat="45.656382326868446" lon="3.6645719233159264"><ele>499.0</ele><time>2026-05-02T11:47:24Z</time></trkpt><trkpt lat="45.65648744245487" lon="3.66444673784698"><ele>497.75</ele><time>2026-05-02T11:47:25Z</time></trkpt><trkpt lat="45.65657524190509" lon="3.664292583843789"><ele>496.5</ele><time>2026-05-02T11:47:26Z</time></trkpt><trkpt lat="45.65665079325458" lon="3.6641262839773754"><ele>495.25</ele><time>2026-05-02T11:47:27Z</time></trkpt><trkpt lat="45.65673118510502" lon="3.6639678162484226"><ele>494.0</ele><time>2026-05-02T11:47:28Z</time></trkpt><trkpt lat="45.656825687917305" lon="3.663815557018158"><ele>494.0</ele><time>2026-05-02T11:47:29Z</time></trkpt><trkpt lat="45.65692869890859" lon="3.6636731292139495"><ele>494.0</ele><time>2026-05-02T11:47:30Z</time></trkpt><trkpt lat="45.65703813316499" lon="3.6635384050220705"><ele>494.0</ele><time>2026-05-02T11:47:31Z</time></trkpt><trkpt lat="45.65714503768234" lon="3.6634029174227742"><ele>494.0</ele><time>2026-05-02T11:47:32Z</time></trkpt><trkpt lat="45.65725508325153" lon="3.6632634165725575"><ele>493.0</ele><time>2026-05-02T11:47:33Z</time></trkpt><trkpt lat="45.65737002313086" lon="3.6631243962781275"><ele>492.0</ele><time>2026-05-02T11:47:34Z</time></trkpt><trkpt lat="45.65748784801134" lon="3.662983843249719"><ele>491.0</ele><time>2026-05-02T11:47:35Z</time></trkpt><trkpt lat="45.65760559315655" lon="3.662839835271415"><ele>490.66666666666663</ele><time>2026-05-02T11:47:36Z</time></trkpt><trkpt lat="45.657720604242016" lon="3.6626993606761293"><ele>490.33333333333337</ele><time>2026-05-02T11:47:37Z</time></trkpt><trkpt lat="45.657835937172" lon="3.662558995261285"><ele>490.0</ele><time>2026-05-02T11:47:38Z</time></trkpt><trkpt lat="45.65794768413933" lon="3.662418887253502"><ele>488.5</ele><time>2026-05-02T11:47:39Z</time></trkpt><trkpt lat="45.6580608363183" lon="3.662280017486264"><ele>487.0</ele><time>2026-05-02T11:47:40Z</time></trkpt><trkpt lat="45.658173535658236" lon="3.662144362822898"><ele>485.5</ele><time>2026-05-02T11:47:41Z</time></trkpt><trkpt lat="45.658286167224894" lon="3.6620069999878835"><ele>484.0</ele><time>2026-05-02T11:47:42Z</time></trkpt><trkpt lat="45.65839297507073" lon="3.661870416442664"><ele>483.4</ele><time>2026-05-02T11:47:43Z</time></trkpt><trkpt lat="45.658495145882334" lon="3.661742078950466"><ele>482.79999999999995</ele><time>2026-05-02T11:47:44Z</time></trkpt><trkpt lat="45.658591810467584" lon="3.661617667551146"><ele>482.20000000000005</ele><time>2026-05-02T11:47:45Z</time></trkpt><trkpt lat="45.65866465831957" lon="3.6615174886882347"><ele>481.6</ele><time>2026-05-02T11:47:46Z</time></trkpt><trkpt lat="45.65870600707648" lon="3.661435446780037"><ele>481.0</ele><time>2026-05-02T11:47:47Z</time></trkpt><trkpt lat="45.65876868572421" lon="3.661387980097955"><ele>477.5</ele><time>2026-05-02T11:47:49Z</time></trkpt><trkpt lat="45.65865033224235" lon="3.6611453215467047"><ele>474.0</ele><time>2026-05-02T11:47:51Z</time></trkpt><trkpt lat="45.65890628673715" lon="3.661217742585029"><ele>474.0</ele><time>2026-05-02T11:47:53Z</time></trkpt><trkpt lat="45.658960895207976" lon="3.661150225094904"><ele>474.0</ele><time>2026-05-02T11:47:54Z</time></trkpt><trkpt lat="45.65903477949906" lon="3.6610588799692287"><ele>474.0</ele><time>2026-05-02T11:47:56Z</time></trkpt><trkpt lat="45.65889382161982" lon="3.6608059283108556"><ele>474.0</ele><time>2026-05-02T11:48:10Z</time></trkpt><trkpt lat="45.65896043207276" lon="3.6607273696314597"><ele>473.2</ele><time>2026-05-02T11:52:26Z</time></trkpt><trkpt lat="45.65905615614049" lon="3.6606282424467564"><ele>472.4</ele><time>2026-05-02T11:52:28Z</time></trkpt><trkpt lat="45.65913763124726" lon="3.660620799798885"><ele>471.6</ele><time>2026-05-02T11:52:29Z</time></trkpt><trkpt lat="45.65921746522419" lon="3.660653332865169"><ele>470.8</ele><time>2026-05-02T11:52:30Z</time></trkpt><trkpt lat="45.659330564933924" lon="3.660706528398917"><ele>470.0</ele><time>2026-05-02T11:52:32Z</time></trkpt><trkpt lat="45.65943472629214" lon="3.6606684602822"><ele>470.2</ele><time>2026-05-02T11:52:33Z</time></trkpt><trkpt lat="45.65956105256079" lon="3.6606188758471343"><ele>470.4</ele><time>2026-05-02T11:52:34Z</time></trkpt><trkpt lat="45.65968587152902" lon="3.6605707422734404"><ele>470.6</ele><time>2026-05-02T11:52:35Z</time></trkpt><trkpt lat="45.65977733378781" lon="3.6605349956423714"><ele>470.8</ele><time>2026-05-02T11:52:36Z</time></trkpt><trkpt lat="45.6598451500508" lon="3.6605126082982085"><ele>471.0</ele><time>2026-05-02T11:52:37Z</time></trkpt><trkpt lat="45.65992926420245" lon="3.6604748422499296"><ele>471.0</ele><time>2026-05-02T11:52:39Z</time></trkpt><trkpt lat="45.66001923224061" lon="3.6603729878543225"><ele>471.0</ele><time>2026-05-02T11:52:42Z</time></trkpt><trkpt lat="45.65998003886751" lon="3.66078738299639"><ele>471.0</ele><time>2026-05-02T11:52:43Z</time></trkpt><trkpt lat="45.65997558915908" lon="3.6609313908285586"><ele>471.0</ele><time>2026-05-02T11:52:44Z</time></trkpt><trkpt lat="45.659967769329484" lon="3.661078918804367"><ele>471.0</ele><time>2026-05-02T11:52:45Z</time></trkpt><trkpt lat="45.65995304446689" lon="3.6612334558112645"><ele>471.0</ele><time>2026-05-02T11:52:46Z</time></trkpt><trkpt lat="45.65996622644932" lon="3.661403537387483"><ele>471.0</ele><time>2026-05-02T11:52:47Z</time></trkpt><trkpt lat="45.66000896157819" lon="3.66158274732462"><ele>473.0</ele><time>2026-05-02T11:52:48Z</time></trkpt><trkpt lat="45.660073826259215" lon="3.661759051003193"><ele>475.0</ele><time>2026-05-02T11:52:49Z</time></trkpt><trkpt lat="45.66014329407031" lon="3.661914651702908"><ele>477.0</ele><time>2026-05-02T11:52:50Z</time></trkpt><trkpt lat="45.660203584656564" lon="3.662057591057108"><ele>479.0</ele><time>2026-05-02T11:52:51Z</time></trkpt><trkpt lat="45.66026652673915" lon="3.662192986795635"><ele>479.0</ele><time>2026-05-02T11:52:52Z</time></trkpt><trkpt lat="45.66034094127991" lon="3.6623263371717805"><ele>479.0</ele><time>2026-05-02T11:52:53Z</time></trkpt><trkpt lat="45.660423624244274" lon="3.6624634205573465"><ele>479.0</ele><time>2026-05-02T11:52:54Z</time></trkpt><trkpt lat="45.66052067910087" lon="3.662556102875336"><ele>479.0</ele><time>2026-05-02T11:52:55Z</time></trkpt><trkpt lat="45.6606452835832" lon="3.6626120939927787"><ele>479.0</ele><time>2026-05-02T11:52:56Z</time></trkpt><trkpt lat="45.66078228979076" lon="3.6626347486717163"><ele>479.0</ele><time>2026-05-02T11:52:57Z</time></trkpt><trkpt lat="45.6609082599668" lon="3.6626481994554183"><ele>479.0</ele><time>2026-05-02T11:52:58Z</time></trkpt><trkpt lat="45.6609819188963" lon="3.6626833387379216"><ele>479.0</ele><time>2026-05-02T11:52:59Z</time></trkpt><trkpt lat="45.66103610786099" lon="3.662862281310653"><ele>479.25</ele><time>2026-05-02T11:53:01Z</time></trkpt><trkpt lat="45.661059856996076" lon="3.6630459371904847"><ele>479.5</ele><time>2026-05-02T11:53:02Z</time></trkpt><trkpt lat="45.66109214268188" lon="3.6632561395249414"><ele>479.75</ele><time>2026-05-02T11:53:03Z</time></trkpt><trkpt lat="45.661127966434194" lon="3.663456072650999"><ele>480.0</ele><time>2026-05-02T11:53:04Z</time></trkpt><trkpt lat="45.6611997107296" lon="3.6636113020663443"><ele>480.6</ele><time>2026-05-02T11:53:05Z</time></trkpt><trkpt lat="45.66125935918866" lon="3.6637072535110784"><ele>481.2</ele><time>2026-05-02T11:53:06Z</time></trkpt><trkpt lat="45.66123697234823" lon="3.6637919958521006"><ele>481.79999999999995</ele><time>2026-05-02T11:53:07Z</time></trkpt><trkpt lat="45.66121110475348" lon="3.663911737761122"><ele>482.4</ele><time>2026-05-02T11:53:08Z</time></trkpt><trkpt lat="45.661163521161576" lon="3.66403711637792"><ele>483.0</ele><time>2026-05-02T11:53:09Z</time></trkpt><trkpt lat="45.661098100676654" lon="3.6641679953026776"><ele>486.0</ele><time>2026-05-02T11:53:10Z</time></trkpt><trkpt lat="45.66101948915462" lon="3.6643069076247476"><ele>489.0</ele><time>2026-05-02T11:53:11Z</time></trkpt><trkpt lat="45.66096116960259" lon="3.6644647729939384"><ele>492.0</ele><time>2026-05-02T11:53:12Z</time></trkpt><trkpt lat="45.660906259504614" lon="3.664639277409259"><ele>495.0</ele><time>2026-05-02T11:53:13Z</time></trkpt><trkpt lat="45.66084374010104" lon="3.6648052841288123"><ele>495.0</ele><time>2026-05-02T11:53:14Z</time></trkpt><trkpt lat="45.66078260220563" lon="3.6649520049399507"><ele>495.0</ele><time>2026-05-02T11:53:15Z</time></trkpt><trkpt lat="45.660716984526324" lon="3.665081047405129"><ele>495.0</ele><time>2026-05-02T11:53:16Z</time></trkpt><trkpt lat="45.66067924421919" lon="3.6652011618595366"><ele>495.0</ele><time>2026-05-02T11:53:17Z</time></trkpt><trkpt lat="45.66065874553732" lon="3.665318857515493"><ele>495.0</ele><time>2026-05-02T11:53:18Z</time></trkpt><trkpt lat="45.66065850864759" lon="3.665432214406134"><ele>495.0</ele><time>2026-05-02T11:53:19Z</time></trkpt><trkpt lat="45.66066309665122" lon="3.6655366116145394"><ele>495.0</ele><time>2026-05-02T11:53:20Z</time></trkpt><trkpt lat="45.660650741737236" lon="3.6656495097705455"><ele>495.0</ele><time>2026-05-02T11:53:21Z</time></trkpt><trkpt lat="45.660615990665804" lon="3.6657766293721505"><ele>495.0</ele><time>2026-05-02T11:53:22Z</time></trkpt><trkpt lat="45.66059063238891" lon="3.665905101119968"><ele>495.0</ele><time>2026-05-02T11:53:23Z</time></trkpt><trkpt lat="45.66060675137397" lon="3.666026668310037"><ele>495.0</ele><time>2026-05-02T11:53:24Z</time></trkpt><trkpt lat="45.660646899673566" lon="3.6661402899085993"><ele>496.5</ele><time>2026-05-02T11:53:25Z</time></trkpt><trkpt lat="45.660709302086616" lon="3.6662769464284533"><ele>498.0</ele><time>2026-05-02T11:53:26Z</time></trkpt><trkpt lat="45.66075714143089" lon="3.666404116242386"><ele>499.5</ele><time>2026-05-02T11:53:27Z</time></trkpt><trkpt lat="45.66082069226873" lon="3.6665573473393294"><ele>501.0</ele><time>2026-05-02T11:53:28Z</time></trkpt><trkpt lat="45.66088930045045" lon="3.6667011246092707"><ele>501.0</ele><time>2026-05-02T11:53:29Z</time></trkpt><trkpt lat="45.66091896564466" lon="3.666814475305779"><ele>501.0</ele><time>2026-05-02T11:53:30Z</time></trkpt><trkpt lat="45.6609675951168" lon="3.6669224065827217"><ele>501.0</ele><time>2026-05-02T11:53:31Z</time></trkpt><trkpt lat="45.661052275886234" lon="3.666946241172223"><ele>501.0</ele><time>2026-05-02T11:53:33Z</time></trkpt><trkpt lat="45.66113342312712" lon="3.6668904382594216"><ele>501.0</ele><time>2026-05-02T11:53:34Z</time></trkpt><trkpt lat="45.6612126507388" lon="3.6667944161535106"><ele>500.5</ele><time>2026-05-02T11:53:35Z</time></trkpt><trkpt lat="45.661243619016545" lon="3.6666861714370014"><ele>500.0</ele><time>2026-05-02T11:53:36Z</time></trkpt><trkpt lat="45.6612386590957" lon="3.6665776492653186"><ele>499.5</ele><time>2026-05-02T11:53:37Z</time></trkpt><trkpt lat="45.66123689768868" lon="3.666451488602455"><ele>499.0</ele><time>2026-05-02T11:53:38Z</time></trkpt><trkpt lat="45.661264482551125" lon="3.666318027199764"><ele>498.5</ele><time>2026-05-02T11:53:39Z</time></trkpt><trkpt lat="45.66130853969676" lon="3.6662006813353853"><ele>498.0</ele><time>2026-05-02T11:53:40Z</time></trkpt><trkpt lat="45.66135654275276" lon="3.6660864543229104"><ele>497.5</ele><time>2026-05-02T11:53:41Z</time></trkpt><trkpt lat="45.661418918045484" lon="3.66597224612157"><ele>497.0</ele><time>2026-05-02T11:53:42Z</time></trkpt><trkpt lat="45.6614820840735" lon="3.665847543794943"><ele>496.5</ele><time>2026-05-02T11:53:43Z</time></trkpt><trkpt lat="45.66156026396615" lon="3.66570293450426"><ele>496.0</ele><time>2026-05-02T11:53:44Z</time></trkpt><trkpt lat="45.66163497737922" lon="3.6655557987582483"><ele>496.0</ele><time>2026-05-02T11:53:45Z</time></trkpt><trkpt lat="45.661706498497836" lon="3.6654361166605387"><ele>496.0</ele><time>2026-05-02T11:53:46Z</time></trkpt><trkpt lat="45.6617816827776" lon="3.6653501934752786"><ele>496.0</ele><time>2026-05-02T11:53:47Z</time></trkpt><trkpt lat="45.66185217697464" lon="3.6652926965679353"><ele>496.0</ele><time>2026-05-02T11:53:48Z</time></trkpt><trkpt lat="45.66193066484925" lon="3.6652618723776236"><ele>496.0</ele><time>2026-05-02T11:53:49Z</time></trkpt><trkpt lat="45.662025896767666" lon="3.665279308616913"><ele>498.0</ele><time>2026-05-02T11:53:50Z</time></trkpt><trkpt lat="45.66212716252668" lon="3.6653274386004804"><ele>500.0</ele><time>2026-05-02T11:53:51Z</time></trkpt><trkpt lat="45.662227529867906" lon="3.665395690981211"><ele>502.0</ele><time>2026-05-02T11:53:52Z</time></trkpt><trkpt lat="45.66232694188596" lon="3.665483458830874"><ele>504.0</ele><time>2026-05-02T11:53:53Z</time></trkpt><trkpt lat="45.66241651477567" lon="3.6655874293653112"><ele>504.0</ele><time>2026-05-02T11:53:54Z</time></trkpt><trkpt lat="45.662491825787065" lon="3.6657107391136448"><ele>504.0</ele><time>2026-05-02T11:53:55Z</time></trkpt><trkpt lat="45.66253813104509" lon="3.6658490073191854"><ele>504.0</ele><time>2026-05-02T11:53:56Z</time></trkpt><trkpt lat="45.662564281151326" lon="3.6660076846504355"><ele>504.0</ele><time>2026-05-02T11:53:57Z</time></trkpt><trkpt lat="45.66258611911093" lon="3.6661789035786234"><ele>505.0</ele><time>2026-05-02T11:53:58Z</time></trkpt><trkpt lat="45.662604341560325" lon="3.666365908148798"><ele>506.0</ele><time>2026-05-02T11:53:59Z</time></trkpt><trkpt lat="45.662615778797985" lon="3.666556245712661"><ele>507.0</ele><time>2026-05-02T11:54:00Z</time></trkpt><trkpt lat="45.66262690377834" lon="3.6667319694777634"><ele>508.0</ele><time>2026-05-02T11:54:01Z</time></trkpt><trkpt lat="45.662644857247145" lon="3.6669207404160256"><ele>509.59999999999997</ele><time>2026-05-02T11:54:02Z</time></trkpt><trkpt lat="45.66266290384886" lon="3.6670947678307355"><ele>511.19999999999993</ele><time>2026-05-02T11:54:03Z</time></trkpt><trkpt lat="45.662688434111026" lon="3.6672425006357745"><ele>512.8</ele><time>2026-05-02T11:54:04Z</time></trkpt><trkpt lat="45.66273648202673" lon="3.66735444480445"><ele>514.4</ele><time>2026-05-02T11:54:05Z</time></trkpt><trkpt lat="45.66282629382939" lon="3.6674706948001674"><ele>516.0</ele><time>2026-05-02T11:54:06Z</time></trkpt><trkpt lat="45.66290954453253" lon="3.6675843583038783"><ele>516.6</ele><time>2026-05-02T11:54:07Z</time></trkpt><trkpt lat="45.662962876609406" lon="3.6676843903306597"><ele>517.2</ele><time>2026-05-02T11:54:08Z</time></trkpt><trkpt lat="45.662945647469996" lon="3.667874997682449"><ele>517.8</ele><time>2026-05-02T11:54:10Z</time></trkpt><trkpt lat="45.662885811150915" lon="3.6680052106166876"><ele>518.4</ele><time>2026-05-02T11:54:11Z</time></trkpt><trkpt lat="45.662859168533096" lon="3.668137099936502"><ele>519.0</ele><time>2026-05-02T11:54:12Z</time></trkpt><trkpt lat="45.66286003488076" lon="3.6682493507433467"><ele>519.8</ele><time>2026-05-02T11:54:13Z</time></trkpt><trkpt lat="45.662870821154584" lon="3.6683815404259112"><ele>520.5999999999999</ele><time>2026-05-02T11:54:14Z</time></trkpt><trkpt lat="45.66289961837976" lon="3.66851317827422"><ele>521.4</ele><time>2026-05-02T11:54:15Z</time></trkpt><trkpt lat="45.66294026877666" lon="3.668652366980639"><ele>522.1999999999999</ele><time>2026-05-02T11:54:16Z</time></trkpt><trkpt lat="45.66294213778686" lon="3.6687971502200503"><ele>523.0</ele><time>2026-05-02T11:54:17Z</time></trkpt><trkpt lat="45.662953483189646" lon="3.668930994198595"><ele>524.0</ele><time>2026-05-02T11:54:18Z</time></trkpt><trkpt lat="45.66294130146525" lon="3.6690752426661786"><ele>525.0</ele><time>2026-05-02T11:54:19Z</time></trkpt><trkpt lat="45.66289321423597" lon="3.669207408191429"><ele>526.0</ele><time>2026-05-02T11:54:20Z</time></trkpt><trkpt lat="45.6628646596506" lon="3.6693609700721876"><ele>527.0</ele><time>2026-05-02T11:54:21Z</time></trkpt><trkpt lat="45.66280299778225" lon="3.6695085815457493"><ele>528.0</ele><time>2026-05-02T11:54:22Z</time></trkpt><trkpt lat="45.66272071783288" lon="3.6696105811907174"><ele>529.0</ele><time>2026-05-02T11:54:23Z</time></trkpt><trkpt lat="45.66264148463029" lon="3.6697269015529934"><ele>530.0</ele><time>2026-05-02T11:54:24Z</time></trkpt><trkpt lat="45.662589078269" lon="3.6698482066501166"><ele>531.0</ele><time>2026-05-02T11:54:25Z</time></trkpt><trkpt lat="45.662556143211994" lon="3.669990232869618"><ele>532.0</ele><time>2026-05-02T11:54:26Z</time></trkpt><trkpt lat="45.66252971350873" lon="3.6701609544229834"><ele>533.0</ele><time>2026-05-02T11:54:27Z</time></trkpt><trkpt lat="45.66250143563234" lon="3.6703289303883135"><ele>534.0</ele><time>2026-05-02T11:54:28Z</time></trkpt><trkpt lat="45.66247198597331" lon="3.6704920523101787"><ele>535.0</ele><time>2026-05-02T11:54:29Z</time></trkpt><trkpt lat="45.66244250203727" lon="3.6706488167556692"><ele>536.0</ele><time>2026-05-02T11:54:30Z</time></trkpt><trkpt lat="45.66240712169492" lon="3.6708014862405185"><ele>537.0</ele><time>2026-05-02T11:54:31Z</time></trkpt><trkpt lat="45.66237773663722" lon="3.67094894279413"><ele>537.0</ele><time>2026-05-02T11:54:32Z</time></trkpt><trkpt lat="45.66235019501597" lon="3.6710773397820793"><ele>537.0</ele><time>2026-05-02T11:54:33Z</time></trkpt><trkpt lat="45.662317343037344" lon="3.6712132219747216"><ele>537.0</ele><time>2026-05-02T11:54:34Z</time></trkpt><trkpt lat="45.662288306584784" lon="3.671363145395828"><ele>537.0</ele><time>2026-05-02T11:54:35Z</time></trkpt><trkpt lat="45.66226987853123" lon="3.671510566305871"><ele>537.0</ele><time>2026-05-02T11:54:36Z</time></trkpt><trkpt lat="45.662271601078295" lon="3.671675817322966"><ele>538.0</ele><time>2026-05-02T11:54:37Z</time></trkpt><trkpt lat="45.662277157194204" lon="3.6718550191274826"><ele>539.0</ele><time>2026-05-02T11:54:38Z</time></trkpt><trkpt lat="45.662285050111905" lon="3.6720318030836916"><ele>540.0</ele><time>2026-05-02T11:54:39Z</time></trkpt><trkpt lat="45.66229606226298" lon="3.6722117755590324"><ele>541.0</ele><time>2026-05-02T11:54:40Z</time></trkpt><trkpt lat="45.66230786457676" lon="3.672394437101011"><ele>542.25</ele><time>2026-05-02T11:54:41Z</time></trkpt><trkpt lat="45.66232397955127" lon="3.6725635432077475"><ele>543.5</ele><time>2026-05-02T11:54:42Z</time></trkpt><trkpt lat="45.66232916609435" lon="3.67272787767075"><ele>544.75</ele><time>2026-05-02T11:54:43Z</time></trkpt><trkpt lat="45.66228031957921" lon="3.6728787269564958"><ele>546.0</ele><time>2026-05-02T11:54:44Z</time></trkpt><trkpt lat="45.66223650525355" lon="3.6730562418407535"><ele>547.75</ele><time>2026-05-02T11:54:45Z</time></trkpt><trkpt lat="45.662169028729835" lon="3.6732309994004835"><ele>549.5</ele><time>2026-05-02T11:54:46Z</time></trkpt><trkpt lat="45.66210742811311" lon="3.6734294988520446"><ele>551.25</ele><time>2026-05-02T11:54:47Z</time></trkpt><trkpt lat="45.66204182022275" lon="3.6736327309248265"><ele>553.0</ele><time>2026-05-02T11:54:48Z</time></trkpt><trkpt lat="45.66198117106377" lon="3.6738345091253715"><ele>553.0</ele><time>2026-05-02T11:54:49Z</time></trkpt><trkpt lat="45.66193380601736" lon="3.6740273399447116"><ele>553.0</ele><time>2026-05-02T11:54:50Z</time></trkpt><trkpt lat="45.66189033792685" lon="3.674240850893893"><ele>553.0</ele><time>2026-05-02T11:54:51Z</time></trkpt><trkpt lat="45.66185854857615" lon="3.6744598124230667"><ele>552.25</ele><time>2026-05-02T11:54:52Z</time></trkpt><trkpt lat="45.661821604216904" lon="3.6746663936377066"><ele>551.5</ele><time>2026-05-02T11:54:53Z</time></trkpt><trkpt lat="45.66178305824079" lon="3.6748767598529835"><ele>550.75</ele><time>2026-05-02T11:54:54Z</time></trkpt><trkpt lat="45.661747812017985" lon="3.6750785026635935"><ele>550.0</ele><time>2026-05-02T11:54:55Z</time></trkpt><trkpt lat="45.661716629373444" lon="3.675260572165224"><ele>548.75</ele><time>2026-05-02T11:54:56Z</time></trkpt><trkpt lat="45.66168323299172" lon="3.675457725894788"><ele>547.5</ele><time>2026-05-02T11:54:57Z</time></trkpt><trkpt lat="45.66164866910502" lon="3.6756741330803484"><ele>546.25</ele><time>2026-05-02T11:54:58Z</time></trkpt><trkpt lat="45.66161756277913" lon="3.6758859630627216"><ele>545.0</ele><time>2026-05-02T11:54:59Z</time></trkpt><trkpt lat="45.66158285621087" lon="3.6760809635984955"><ele>544.8</ele><time>2026-05-02T11:55:00Z</time></trkpt><trkpt lat="45.6615489318275" lon="3.6762649419890443"><ele>544.6</ele><time>2026-05-02T11:55:01Z</time></trkpt><trkpt lat="45.66150109885549" lon="3.6764138338667975"><ele>544.4</ele><time>2026-05-02T11:55:02Z</time></trkpt><trkpt lat="45.661475723148484" lon="3.676542964562662"><ele>544.2</ele><time>2026-05-02T11:55:03Z</time></trkpt><trkpt lat="45.661473694493374" lon="3.676661719724168"><ele>544.0</ele><time>2026-05-02T11:55:04Z</time></trkpt><trkpt lat="45.66143614383333" lon="3.67681417695874"><ele>544.0</ele><time>2026-05-02T11:55:06Z</time></trkpt><trkpt lat="45.66143313460942" lon="3.6769073972812523"><ele>544.0</ele><time>2026-05-02T11:55:09Z</time></trkpt><trkpt lat="45.661325845860944" lon="3.676961184335906"><ele>544.0</ele><time>2026-05-02T11:55:48Z</time></trkpt><trkpt lat="45.66124849053668" lon="3.677020057337702"><ele>544.0</ele><time>2026-05-02T11:55:49Z</time></trkpt><trkpt lat="45.661154766773954" lon="3.6770650425541804"><ele>544.0</ele><time>2026-05-02T11:55:50Z</time></trkpt><trkpt lat="45.66105780480879" lon="3.6771376221587917"><ele>543.0</ele><time>2026-05-02T11:55:51Z</time></trkpt><trkpt lat="45.66097256447749" lon="3.677210327589995"><ele>542.0</ele><time>2026-05-02T11:55:52Z</time></trkpt><trkpt lat="45.66089433757726" lon="3.677288677164338"><ele>541.0</ele><time>2026-05-02T11:55:53Z</time></trkpt><trkpt lat="45.660810717776705" lon="3.6773826771877065"><ele>540.0</ele><time>2026-05-02T11:55:54Z</time></trkpt><trkpt lat="45.66072538602113" lon="3.677489128480044"><ele>539.0</ele><time>2026-05-02T11:55:55Z</time></trkpt><trkpt lat="45.66063653962224" lon="3.677607928696232"><ele>539.0</ele><time>2026-05-02T11:55:56Z</time></trkpt><trkpt lat="45.66053365362562" lon="3.677729415916805"><ele>539.0</ele><time>2026-05-02T11:55:57Z</time></trkpt><trkpt lat="45.660424920573185" lon="3.6778568476200726"><ele>539.0</ele><time>2026-05-02T11:55:58Z</time></trkpt><trkpt lat="45.66031041518866" lon="3.677992725865353"><ele>539.0</ele><time>2026-05-02T11:55:59Z</time></trkpt><trkpt lat="45.66018970747352" lon="3.6781326866229054"><ele>535.6666666666666</ele><time>2026-05-02T11:56:00Z</time></trkpt><trkpt lat="45.66006475512192" lon="3.6782789561678837"><ele>532.3333333333334</ele><time>2026-05-02T11:56:01Z</time></trkpt><trkpt lat="45.659939722024895" lon="3.6784259395327608"><ele>529.0</ele><time>2026-05-02T11:56:02Z</time></trkpt><trkpt lat="45.65980946792471" lon="3.678583181281772"><ele>529.3333333333334</ele><time>2026-05-02T11:56:03Z</time></trkpt><trkpt lat="45.65967558405489" lon="3.678745311038554"><ele>529.6666666666666</ele><time>2026-05-02T11:56:04Z</time></trkpt><trkpt lat="45.65954295553589" lon="3.678919080191926"><ele>530.0</ele><time>2026-05-02T11:56:05Z</time></trkpt><trkpt lat="45.65941637755634" lon="3.679098659067733"><ele>526.3333333333333</ele><time>2026-05-02T11:56:06Z</time></trkpt><trkpt lat="45.65929905576137" lon="3.679266850579829"><ele>522.6666666666666</ele><time>2026-05-02T11:56:07Z</time></trkpt><trkpt lat="45.659185249210495" lon="3.679419436979915"><ele>519.0</ele><time>2026-05-02T11:56:08Z</time></trkpt><trkpt lat="45.659067950352956" lon="3.679564380959638"><ele>519.0</ele><time>2026-05-02T11:56:09Z</time></trkpt><trkpt lat="45.65896229815476" lon="3.679694167052325"><ele>519.0</ele><time>2026-05-02T11:56:10Z</time></trkpt><trkpt lat="45.65885421875786" lon="3.6798045787155163"><ele>519.0</ele><time>2026-05-02T11:56:11Z</time></trkpt><trkpt lat="45.65876965979425" lon="3.67993370653261"><ele>519.0</ele><time>2026-05-02T11:56:12Z</time></trkpt><trkpt lat="45.65867469465103" lon="3.6800380003751956"><ele>519.0</ele><time>2026-05-02T11:56:13Z</time></trkpt><trkpt lat="45.65857465165079" lon="3.6801358303147316"><ele>519.0</ele><time>2026-05-02T11:56:14Z</time></trkpt><trkpt lat="45.658467288700564" lon="3.6802051181329545"><ele>519.0</ele><time>2026-05-02T11:56:15Z</time></trkpt><trkpt lat="45.658375211299266" lon="3.680242438338068"><ele>519.0</ele><time>2026-05-02T11:56:16Z</time></trkpt><trkpt lat="45.658287336980365" lon="3.680283809972388"><ele>519.0</ele><time>2026-05-02T11:56:18Z</time></trkpt><trkpt lat="45.658209620436566" lon="3.6803277693382963"><ele>519.0</ele><time>2026-05-02T11:56:20Z</time></trkpt><trkpt lat="45.65814763252553" lon="3.6803641247363954"><ele>519.0</ele><time>2026-05-02T11:56:21Z</time></trkpt><trkpt lat="45.65806677948615" lon="3.680398382450289"><ele>519.0</ele><time>2026-05-02T11:56:22Z</time></trkpt><trkpt lat="45.657995169141735" lon="3.680502672042728"><ele>519.0</ele><time>2026-05-02T11:56:23Z</time></trkpt><trkpt lat="45.65793074303297" lon="3.680641625202974"><ele>519.0</ele><time>2026-05-02T11:56:24Z</time></trkpt><trkpt lat="45.65787870374214" lon="3.6807960679419733"><ele>517.5</ele><time>2026-05-02T11:56:25Z</time></trkpt><trkpt lat="45.65777694723243" lon="3.6809046561303513"><ele>516.0</ele><time>2026-05-02T11:56:26Z</time></trkpt><trkpt lat="45.65764969043649" lon="3.680937281663122"><ele>514.5</ele><time>2026-05-02T11:56:27Z</time></trkpt><trkpt lat="45.65752851847733" lon="3.68099229830539"><ele>513.0</ele><time>2026-05-02T11:56:28Z</time></trkpt><trkpt lat="45.65739958997719" lon="3.681035780301934"><ele>513.0</ele><time>2026-05-02T11:56:29Z</time></trkpt><trkpt lat="45.65729473334732" lon="3.6810761279768833"><ele>513.0</ele><time>2026-05-02T11:56:30Z</time></trkpt><trkpt lat="45.65721165188481" lon="3.681081265705713"><ele>513.0</ele><time>2026-05-02T11:56:31Z</time></trkpt><trkpt lat="45.6571325411781" lon="3.681087697777527"><ele>513.0</ele><time>2026-05-02T11:56:32Z</time></trkpt><trkpt lat="45.65705247095754" lon="3.6813142621788044"><ele>513.0</ele><time>2026-05-02T11:56:33Z</time></trkpt><trkpt lat="45.656997576843736" lon="3.681476348184256"><ele>513.75</ele><time>2026-05-02T11:56:34Z</time></trkpt><trkpt lat="45.65697675558535" lon="3.681663516069341"><ele>514.5</ele><time>2026-05-02T11:56:35Z</time></trkpt><trkpt lat="45.65693883145346" lon="3.6818587655408535"><ele>515.25</ele><time>2026-05-02T11:56:36Z</time></trkpt><trkpt lat="45.65685150704306" lon="3.6820181840887845"><ele>516.0</ele><time>2026-05-02T11:56:37Z</time></trkpt><trkpt lat="45.65674992432632" lon="3.682181465242384"><ele>519.3333333333334</ele><time>2026-05-02T11:56:38Z</time></trkpt><trkpt lat="45.656638828726685" lon="3.6823749830090713"><ele>522.6666666666667</ele><time>2026-05-02T11:56:39Z</time></trkpt><trkpt lat="45.656540050756824" lon="3.682583722893591"><ele>526.0</ele><time>2026-05-02T11:56:40Z</time></trkpt><trkpt lat="45.65643078073274" lon="3.6827999840068255"><ele>527.0</ele><time>2026-05-02T11:56:41Z</time></trkpt><trkpt lat="45.65632545216993" lon="3.6830091119718094"><ele>528.0</ele><time>2026-05-02T11:56:42Z</time></trkpt><trkpt lat="45.65619516431842" lon="3.6831741346842266"><ele>529.0</ele><time>2026-05-02T11:56:43Z</time></trkpt><trkpt lat="45.65608531783866" lon="3.6833529172619124"><ele>531.3333333333334</ele><time>2026-05-02T11:56:44Z</time></trkpt><trkpt lat="45.65593519700805" lon="3.683479766847348"><ele>533.6666666666666</ele><time>2026-05-02T11:56:45Z</time></trkpt><trkpt lat="45.65577751704929" lon="3.6835801159270782"><ele>536.0</ele><time>2026-05-02T11:56:46Z</time></trkpt><trkpt lat="45.65560755464757" lon="3.683625562727036"><ele>537.6666666666666</ele><time>2026-05-02T11:56:47Z</time></trkpt><trkpt lat="45.655429443904666" lon="3.683680831550219"><ele>539.3333333333334</ele><time>2026-05-02T11:56:48Z</time></trkpt><trkpt lat="45.655253260632016" lon="3.68374837716208"><ele>541.0</ele><time>2026-05-02T11:56:49Z</time></trkpt><trkpt lat="45.655101937949894" lon="3.6838326937283083"><ele>543.3333333333334</ele><time>2026-05-02T11:56:50Z</time></trkpt><trkpt lat="45.65496424387143" lon="3.683938322746076"><ele>545.6666666666666</ele><time>2026-05-02T11:56:51Z</time></trkpt><trkpt lat="45.65483509553506" lon="3.684075266721911"><ele>548.0</ele><time>2026-05-02T11:56:52Z</time></trkpt><trkpt lat="45.65472010653835" lon="3.684249996520362"><ele>549.3333333333333</ele><time>2026-05-02T11:56:53Z</time></trkpt><trkpt lat="45.65461109468225" lon="3.6844438294383215"><ele>550.6666666666666</ele><time>2026-05-02T11:56:54Z</time></trkpt><trkpt lat="45.65452494338258" lon="3.684649846941563"><ele>552.0</ele><time>2026-05-02T11:56:55Z</time></trkpt><trkpt lat="45.654474032833946" lon="3.6848725489671885"><ele>556.3333333333334</ele><time>2026-05-02T11:56:56Z</time></trkpt><trkpt lat="45.65441946138571" lon="3.6851022514994733"><ele>560.6666666666667</ele><time>2026-05-02T11:56:57Z</time></trkpt><trkpt lat="45.654371313152055" lon="3.6853379322821054"><ele>565.0</ele><time>2026-05-02T11:56:58Z</time></trkpt><trkpt lat="45.654313500444616" lon="3.6855770542557442"><ele>567.3333333333334</ele><time>2026-05-02T11:56:59Z</time></trkpt><trkpt lat="45.654235600723936" lon="3.6858185297065442"><ele>569.6666666666666</ele><time>2026-05-02T11:57:00Z</time></trkpt><trkpt lat="45.65414866229139" lon="3.686061947783878"><ele>572.0</ele><time>2026-05-02T11:57:01Z</time></trkpt><trkpt lat="45.65409364890766" lon="3.686300110649819"><ele>573.3333333333333</ele><time>2026-05-02T11:57:02Z</time></trkpt><trkpt lat="45.65405272649767" lon="3.686541337972311"><ele>574.6666666666666</ele><time>2026-05-02T11:57:03Z</time></trkpt><trkpt lat="45.65401385728276" lon="3.686789898638933"><ele>576.0</ele><time>2026-05-02T11:57:04Z</time></trkpt><trkpt lat="45.65394591399732" lon="3.6870318991982307"><ele>577.6666666666666</ele><time>2026-05-02T11:57:05Z</time></trkpt><trkpt lat="45.65386296233133" lon="3.6872616023379674"><ele>579.3333333333333</ele><time>2026-05-02T11:57:06Z</time></trkpt><trkpt lat="45.653771708024735" lon="3.6874527970693607"><ele>581.0</ele><time>2026-05-02T11:57:07Z</time></trkpt><trkpt lat="45.65368226660328" lon="3.687623492512542"><ele>581.4</ele><time>2026-05-02T11:57:08Z</time></trkpt><trkpt lat="45.65360758850257" lon="3.687770684249255"><ele>581.8</ele><time>2026-05-02T11:57:09Z</time></trkpt><trkpt lat="45.65354094549465" lon="3.6879016447483566"><ele>582.1999999999999</ele><time>2026-05-02T11:57:10Z</time></trkpt><trkpt lat="45.653482568945414" lon="3.68801753340655"><ele>582.6</ele><time>2026-05-02T11:57:11Z</time></trkpt><trkpt lat="45.65344476197061" lon="3.688117032725742"><ele>583.0</ele><time>2026-05-02T11:57:12Z</time></trkpt><trkpt lat="45.65343747384958" lon="3.688322572965763"><ele>583.0</ele><time>2026-05-02T11:57:14Z</time></trkpt><trkpt lat="45.653457850146076" lon="3.68846457360723"><ele>583.0</ele><time>2026-05-02T11:57:15Z</time></trkpt><trkpt lat="45.65349720924113" lon="3.6886259356313107"><ele>583.0</ele><time>2026-05-02T11:57:16Z</time></trkpt><trkpt lat="45.6535712218814" lon="3.688775648744517"><ele>583.0</ele><time>2026-05-02T11:57:17Z</time></trkpt><trkpt lat="45.653664857218544" lon="3.688904920129954"><ele>586.0</ele><time>2026-05-02T11:57:18Z</time></trkpt><trkpt lat="45.65376370003774" lon="3.6889959187162153"><ele>589.0</ele><time>2026-05-02T11:57:19Z</time></trkpt><trkpt lat="45.65383960379876" lon="3.689100070756143"><ele>592.0</ele><time>2026-05-02T11:57:20Z</time></trkpt><trkpt lat="45.653912781482234" lon="3.689235937708295"><ele>595.0</ele><time>2026-05-02T11:57:21Z</time></trkpt><trkpt lat="45.65400557001493" lon="3.689378687361101"><ele>596.3333333333334</ele><time>2026-05-02T11:57:22Z</time></trkpt><trkpt lat="45.65411372669358" lon="3.689534056185156"><ele>597.6666666666666</ele><time>2026-05-02T11:57:23Z</time></trkpt><trkpt lat="45.65424165964711" lon="3.689681000096949"><ele>599.0</ele><time>2026-05-02T11:57:24Z</time></trkpt><trkpt lat="45.6543697229224" lon="3.6898388737756003"><ele>601.3333333333333</ele><time>2026-05-02T11:57:25Z</time></trkpt><trkpt lat="45.654480163068385" lon="3.690026713744789"><ele>603.6666666666666</ele><time>2026-05-02T11:57:26Z</time></trkpt><trkpt lat="45.65455680603995" lon="3.6901864184344615"><ele>606.0</ele><time>2026-05-02T11:57:27Z</time></trkpt><trkpt lat="45.65460760147456" lon="3.6903857425029414"><ele>606.6666666666666</ele><time>2026-05-02T11:57:28Z</time></trkpt><trkpt lat="45.65462613494664" lon="3.6905997280802394"><ele>607.3333333333333</ele><time>2026-05-02T11:57:29Z</time></trkpt><trkpt lat="45.65467679430821" lon="3.690825028292137"><ele>608.0</ele><time>2026-05-02T11:57:30Z</time></trkpt><trkpt lat="45.65474211824674" lon="3.6910229865488877"><ele>608.6666666666666</ele><time>2026-05-02T11:57:31Z</time></trkpt><trkpt lat="45.65480785766071" lon="3.6912131675991526"><ele>609.3333333333334</ele><time>2026-05-02T11:57:32Z</time></trkpt><trkpt lat="45.654909528726705" lon="3.6914078330008144"><ele>610.0</ele><time>2026-05-02T11:57:33Z</time></trkpt><trkpt lat="45.65500633597559" lon="3.6916148844500274"><ele>610.0</ele><time>2026-05-02T11:57:34Z</time></trkpt><trkpt lat="45.65508211185161" lon="3.6918143218564894"><ele>610.0</ele><time>2026-05-02T11:57:35Z</time></trkpt><trkpt lat="45.65511148351527" lon="3.692003765016075"><ele>610.0</ele><time>2026-05-02T11:57:36Z</time></trkpt><trkpt lat="45.65513743976956" lon="3.6922084900982064"><ele>610.0</ele><time>2026-05-02T11:57:37Z</time></trkpt><trkpt lat="45.65513219964102" lon="3.6924287408169323"><ele>611.0</ele><time>2026-05-02T11:57:38Z</time></trkpt><trkpt lat="45.65510731430432" lon="3.6926219125551083"><ele>612.0</ele><time>2026-05-02T11:57:39Z</time></trkpt><trkpt lat="45.65507437604161" lon="3.692803044325489"><ele>613.0</ele><time>2026-05-02T11:57:40Z</time></trkpt><trkpt lat="45.655025363136886" lon="3.6930087957860502"><ele>614.0</ele><time>2026-05-02T11:57:41Z</time></trkpt><trkpt lat="45.65497839501334" lon="3.693239838904499"><ele>614.0</ele><time>2026-05-02T11:57:42Z</time></trkpt><trkpt lat="45.65491494747147" lon="3.693485871516166"><ele>614.0</ele><time>2026-05-02T11:57:43Z</time></trkpt><trkpt lat="45.65486945378418" lon="3.693732414146414"><ele>614.0</ele><time>2026-05-02T11:57:44Z</time></trkpt><trkpt lat="45.65482275048522" lon="3.693971741606967"><ele>613.3333333333333</ele><time>2026-05-02T11:57:45Z</time></trkpt><trkpt lat="45.65478419753263" lon="3.6942203523531436"><ele>612.6666666666666</ele><time>2026-05-02T11:57:46Z</time></trkpt><trkpt lat="45.654764124643926" lon="3.6945015277181685"><ele>612.0</ele><time>2026-05-02T11:57:47Z</time></trkpt><trkpt lat="45.654758303585794" lon="3.6947963149331007"><ele>612.0</ele><time>2026-05-02T11:57:48Z</time></trkpt><trkpt lat="45.65475099650913" lon="3.695091431832294"><ele>612.0</ele><time>2026-05-02T11:57:49Z</time></trkpt><trkpt lat="45.65474156561547" lon="3.6953809168223986"><ele>612.0</ele><time>2026-05-02T11:57:50Z</time></trkpt><trkpt lat="45.65473171085761" lon="3.695667371393163"><ele>612.6666666666666</ele><time>2026-05-02T11:57:51Z</time></trkpt><trkpt lat="45.65471905352778" lon="3.6959537522139567"><ele>613.3333333333333</ele><time>2026-05-02T11:57:52Z</time></trkpt><trkpt lat="45.654709610441714" lon="3.696234663517836"><ele>614.0</ele><time>2026-05-02T11:57:53Z</time></trkpt><trkpt lat="45.65470689415351" lon="3.6964936394298213"><ele>614.0</ele><time>2026-05-02T11:57:54Z</time></trkpt><trkpt lat="45.65468753230817" lon="3.696726700456919"><ele>614.0</ele><time>2026-05-02T11:57:55Z</time></trkpt><trkpt lat="45.65468262598979" lon="3.6969480054422874"><ele>614.0</ele><time>2026-05-02T11:57:56Z</time></trkpt><trkpt lat="45.65467599910666" lon="3.6971571970283135"><ele>611.75</ele><time>2026-05-02T11:57:57Z</time></trkpt><trkpt lat="45.654665571454395" lon="3.6973566693841566"><ele>609.5</ele><time>2026-05-02T11:57:58Z</time></trkpt><trkpt lat="45.65464301181163" lon="3.6975548704305865"><ele>607.25</ele><time>2026-05-02T11:57:59Z</time></trkpt><trkpt lat="45.65461637236657" lon="3.697758173670873"><ele>605.0</ele><time>2026-05-02T11:58:00Z</time></trkpt><trkpt lat="45.654590196963575" lon="3.697957935489032"><ele>603.25</ele><time>2026-05-02T11:58:01Z</time></trkpt><trkpt lat="45.6545616034414" lon="3.6981545854647515"><ele>601.5</ele><time>2026-05-02T11:58:02Z</time></trkpt><trkpt lat="45.654555541519414" lon="3.698355839026452"><ele>599.75</ele><time>2026-05-02T11:58:03Z</time></trkpt><trkpt lat="45.65454678318755" lon="3.6985528763147073"><ele>598.0</ele><time>2026-05-02T11:58:04Z</time></trkpt><trkpt lat="45.654538978332724" lon="3.6987618430560154"><ele>598.75</ele><time>2026-05-02T11:58:05Z</time></trkpt><trkpt lat="45.65450504304387" lon="3.6989712775851173"><ele>599.5</ele><time>2026-05-02T11:58:06Z</time></trkpt><trkpt lat="45.65450064111808" lon="3.6991802208309044"><ele>600.25</ele><time>2026-05-02T11:58:07Z</time></trkpt><trkpt lat="45.65448434191946" lon="3.699380071122745"><ele>601.0</ele><time>2026-05-02T11:58:08Z</time></trkpt><trkpt lat="45.654471727614066" lon="3.699583238827363"><ele>601.0</ele><time>2026-05-02T11:58:09Z</time></trkpt><trkpt lat="45.65446383677948" lon="3.6997918648382866"><ele>601.0</ele><time>2026-05-02T11:58:10Z</time></trkpt><trkpt lat="45.65446141521678" lon="3.6999966510624906"><ele>601.0</ele><time>2026-05-02T11:58:11Z</time></trkpt><trkpt lat="45.65446533809453" lon="3.700208274969975"><ele>601.0</ele><time>2026-05-02T11:58:12Z</time></trkpt><trkpt lat="45.654466809673764" lon="3.700423709953523"><ele>603.6666666666667</ele><time>2026-05-02T11:58:13Z</time></trkpt><trkpt lat="45.65446574289304" lon="3.700643724345869"><ele>606.3333333333334</ele><time>2026-05-02T11:58:14Z</time></trkpt><trkpt lat="45.65446624793799" lon="3.700869006482674"><ele>609.0</ele><time>2026-05-02T11:58:15Z</time></trkpt><trkpt lat="45.65446644173363" lon="3.7010932775135554"><ele>609.6666666666666</ele><time>2026-05-02T11:58:16Z</time></trkpt><trkpt lat="45.65446387519279" lon="3.7013210194184287"><ele>610.3333333333333</ele><time>2026-05-02T11:58:17Z</time></trkpt><trkpt lat="45.654470291540996" lon="3.7015572041803946"><ele>611.0</ele><time>2026-05-02T11:58:18Z</time></trkpt><trkpt lat="45.65448833263839" lon="3.701790362180025"><ele>610.6666666666666</ele><time>2026-05-02T11:58:19Z</time></trkpt><trkpt lat="45.654506928093554" lon="3.7020258236859362"><ele>610.3333333333334</ele><time>2026-05-02T11:58:20Z</time></trkpt><trkpt lat="45.654521713695495" lon="3.7022574018904297"><ele>610.0</ele><time>2026-05-02T11:58:21Z</time></trkpt><trkpt lat="45.65453922697261" lon="3.7024779082443393"><ele>610.0</ele><time>2026-05-02T11:58:22Z</time></trkpt><trkpt lat="45.654562511346995" lon="3.702705910601027"><ele>610.0</ele><time>2026-05-02T11:58:23Z</time></trkpt><trkpt lat="45.6545842060068" lon="3.702930214140718"><ele>610.0</ele><time>2026-05-02T11:58:24Z</time></trkpt><trkpt lat="45.65461030386759" lon="3.7031504515815294"><ele>609.75</ele><time>2026-05-02T11:58:25Z</time></trkpt><trkpt lat="45.654642132244376" lon="3.7033637178195344"><ele>609.5</ele><time>2026-05-02T11:58:26Z</time></trkpt><trkpt lat="45.65467522428966" lon="3.703556730366646"><ele>609.25</ele><time>2026-05-02T11:58:27Z</time></trkpt><trkpt lat="45.65471135294831" lon="3.7037349375309447"><ele>609.0</ele><time>2026-05-02T11:58:28Z</time></trkpt><trkpt lat="45.65475580900192" lon="3.703910148409072"><ele>608.25</ele><time>2026-05-02T11:58:29Z</time></trkpt><trkpt lat="45.654816498374444" lon="3.7040848524954444"><ele>607.5</ele><time>2026-05-02T11:58:30Z</time></trkpt><trkpt lat="45.654904070144845" lon="3.7042515166540904"><ele>606.75</ele><time>2026-05-02T11:58:31Z</time></trkpt><trkpt lat="45.655008002692135" lon="3.7044233560442303"><ele>606.0</ele><time>2026-05-02T11:58:32Z</time></trkpt><trkpt lat="45.65511397458105" lon="3.704612483720205"><ele>606.0</ele><time>2026-05-02T11:58:33Z</time></trkpt><trkpt lat="45.65523435122562" lon="3.7048027814650846"><ele>606.0</ele><time>2026-05-02T11:58:34Z</time></trkpt><trkpt lat="45.65536994187966" lon="3.704982666508062"><ele>606.0</ele><time>2026-05-02T11:58:35Z</time></trkpt><trkpt lat="45.6555138399986" lon="3.7051550377925673"><ele>604.3333333333334</ele><time>2026-05-02T11:58:36Z</time></trkpt><trkpt lat="45.65566350009298" lon="3.705315386114148"><ele>602.6666666666667</ele><time>2026-05-02T11:58:37Z</time></trkpt><trkpt lat="45.655816336349936" lon="3.705494949472817"><ele>601.0</ele><time>2026-05-02T11:58:38Z</time></trkpt><trkpt lat="45.65597437251082" lon="3.7056444945534546"><ele>600.6666666666667</ele><time>2026-05-02T11:58:39Z</time></trkpt><trkpt lat="45.65614757966334" lon="3.705757399913679"><ele>600.3333333333334</ele><time>2026-05-02T11:58:40Z</time></trkpt><trkpt lat="45.65630324019611" lon="3.7058657853809605"><ele>600.0</ele><time>2026-05-02T11:58:41Z</time></trkpt><trkpt lat="45.656458706502626" lon="3.7059775544073834"><ele>600.6666666666666</ele><time>2026-05-02T11:58:42Z</time></trkpt><trkpt lat="45.656612850180466" lon="3.7061030869185054"><ele>601.3333333333333</ele><time>2026-05-02T11:58:43Z</time></trkpt><trkpt lat="45.65675589422226" lon="3.706235229336965"><ele>602.0</ele><time>2026-05-02T11:58:44Z</time></trkpt><trkpt lat="45.6568811736695" lon="3.7063685760130505"><ele>601.75</ele><time>2026-05-02T11:58:45Z</time></trkpt><trkpt lat="45.65698945385903" lon="3.7064866502007328"><ele>601.5</ele><time>2026-05-02T11:58:46Z</time></trkpt><trkpt lat="45.657081104129865" lon="3.7065925924434517"><ele>601.25</ele><time>2026-05-02T11:58:47Z</time></trkpt><trkpt lat="45.6571626775353" lon="3.7066930634948068"><ele>601.0</ele><time>2026-05-02T11:58:48Z</time></trkpt><trkpt lat="45.65723207713841" lon="3.7067875176052167"><ele>601.0</ele><time>2026-05-02T11:58:49Z</time></trkpt><trkpt lat="45.65729106095961" lon="3.7068797732946797"><ele>601.0</ele><time>2026-05-02T11:58:50Z</time></trkpt><trkpt lat="45.65731254030766" lon="3.7069861219640665"><ele>601.0</ele><time>2026-05-02T11:58:51Z</time></trkpt><trkpt lat="45.65735335145494" lon="3.707087396634472"><ele>601.0</ele><time>2026-05-02T11:58:52Z</time></trkpt><trkpt lat="45.657360710176164" lon="3.707237960838254"><ele>601.0</ele><time>2026-05-02T11:58:53Z</time></trkpt><trkpt lat="45.65738141685274" lon="3.7073994112606177"><ele>601.0</ele><time>2026-05-02T11:58:54Z</time></trkpt><trkpt lat="45.65741935052742" lon="3.707584369903022"><ele>601.0</ele><time>2026-05-02T11:58:55Z</time></trkpt><trkpt lat="45.65745605488165" lon="3.7077865176516074"><ele>601.0</ele><time>2026-05-02T11:58:56Z</time></trkpt><trkpt lat="45.657483644243854" lon="3.7080072197808627"><ele>601.0</ele><time>2026-05-02T11:58:57Z</time></trkpt><trkpt lat="45.65750236667788" lon="3.708226713361577"><ele>601.25</ele><time>2026-05-02T11:58:58Z</time></trkpt><trkpt lat="45.657508494786235" lon="3.7084455293451675"><ele>601.5</ele><time>2026-05-02T11:58:59Z</time></trkpt><trkpt lat="45.657505455340456" lon="3.708663725271903"><ele>601.75</ele><time>2026-05-02T11:59:00Z</time></trkpt><trkpt lat="45.65749872348375" lon="3.7088686305030434"><ele>602.0</ele><time>2026-05-02T11:59:01Z</time></trkpt><trkpt lat="45.65749567599993" lon="3.709046811054181"><ele>601.25</ele><time>2026-05-02T11:59:02Z</time></trkpt><trkpt lat="45.657519110363566" lon="3.7092171065268404"><ele>600.5</ele><time>2026-05-02T11:59:03Z</time></trkpt><trkpt lat="45.65758676841376" lon="3.709389264442131"><ele>599.75</ele><time>2026-05-02T11:59:04Z</time></trkpt><trkpt lat="45.657687762332124" lon="3.709563845544716"><ele>599.0</ele><time>2026-05-02T11:59:05Z</time></trkpt><trkpt lat="45.65780375838171" lon="3.709750566085877"><ele>598.6666666666666</ele><time>2026-05-02T11:59:06Z</time></trkpt><trkpt lat="45.65791144914415" lon="3.7099679763949607"><ele>598.3333333333334</ele><time>2026-05-02T11:59:07Z</time></trkpt><trkpt lat="45.658007274374114" lon="3.710207036152315"><ele>598.0</ele><time>2026-05-02T11:59:08Z</time></trkpt><trkpt lat="45.65809095131221" lon="3.7104343682985164"><ele>595.3333333333334</ele><time>2026-05-02T11:59:09Z</time></trkpt><trkpt lat="45.65815347459765" lon="3.710666903428992"><ele>592.6666666666666</ele><time>2026-05-02T11:59:10Z</time></trkpt><trkpt lat="45.65820532978586" lon="3.710899324402327"><ele>590.0</ele><time>2026-05-02T11:59:11Z</time></trkpt><trkpt lat="45.65825908241029" lon="3.7111125870426687"><ele>588.0</ele><time>2026-05-02T11:59:12Z</time></trkpt><trkpt lat="45.658295699238614" lon="3.711307407501177"><ele>586.0</ele><time>2026-05-02T11:59:13Z</time></trkpt><trkpt lat="45.65835881006629" lon="3.7114793291351496"><ele>584.0</ele><time>2026-05-02T11:59:14Z</time></trkpt><trkpt lat="45.658443605323626" lon="3.7116094055378723"><ele>582.0</ele><time>2026-05-02T11:59:15Z</time></trkpt><trkpt lat="45.65850066644401" lon="3.711727255384004"><ele>582.0</ele><time>2026-05-02T11:59:16Z</time></trkpt><trkpt lat="45.65855380313529" lon="3.711826210180878"><ele>582.0</ele><time>2026-05-02T11:59:17Z</time></trkpt><trkpt lat="45.65857732417721" lon="3.711909829582259"><ele>582.0</ele><time>2026-05-02T11:59:18Z</time></trkpt><trkpt lat="45.658624390267676" lon="3.7120122936848574"><ele>582.0</ele><time>2026-05-02T11:59:21Z</time></trkpt><trkpt lat="45.65900983236381" lon="3.711923695533277"><ele>582.6</ele><time>2026-05-02T11:59:23Z</time></trkpt><trkpt lat="45.65910933009297" lon="3.711931906879405"><ele>583.2</ele><time>2026-05-02T11:59:24Z</time></trkpt><trkpt lat="45.659205890481516" lon="3.7119428408588933"><ele>583.8</ele><time>2026-05-02T11:59:25Z</time></trkpt><trkpt lat="45.65929670354543" lon="3.7119620097845005"><ele>584.4</ele><time>2026-05-02T11:59:26Z</time></trkpt><trkpt lat="45.65938229485264" lon="3.7119666982419304"><ele>585.0</ele><time>2026-05-02T11:59:27Z</time></trkpt><trkpt lat="45.6594758391714" lon="3.7119575606227597"><ele>588.2</ele><time>2026-05-02T11:59:28Z</time></trkpt><trkpt lat="45.659567206137105" lon="3.711954904591488"><ele>591.4</ele><time>2026-05-02T11:59:29Z</time></trkpt><trkpt lat="45.659658906744085" lon="3.711945734845327"><ele>594.6</ele><time>2026-05-02T11:59:30Z</time></trkpt><trkpt lat="45.65975705767046" lon="3.71192901335012"><ele>597.8</ele><time>2026-05-02T11:59:31Z</time></trkpt><trkpt lat="45.659869862877315" lon="3.7119078275240804"><ele>601.0</ele><time>2026-05-02T11:59:32Z</time></trkpt><trkpt lat="45.65997915040646" lon="3.711896190352114"><ele>601.6666666666667</ele><time>2026-05-02T11:59:33Z</time></trkpt><trkpt lat="45.660087324301614" lon="3.7118874797819057"><ele>602.3333333333334</ele><time>2026-05-02T11:59:34Z</time></trkpt><trkpt lat="45.66016628755708" lon="3.711892272799903"><ele>603.0</ele><time>2026-05-02T11:59:35Z</time></trkpt><trkpt lat="45.66028061587694" lon="3.7118617079125817"><ele>603.6666666666666</ele><time>2026-05-02T11:59:37Z</time></trkpt><trkpt lat="45.660349829721405" lon="3.7118566759775424"><ele>604.3333333333333</ele><time>2026-05-02T11:59:38Z</time></trkpt><trkpt lat="45.66042499386089" lon="3.7118494647582922"><ele>605.0</ele><time>2026-05-02T11:59:39Z</time></trkpt><trkpt lat="45.66049927348539" lon="3.7118290608595617"><ele>608.0</ele><time>2026-05-02T11:59:40Z</time></trkpt><trkpt lat="45.66057290246146" lon="3.7118378666943195"><ele>611.0</ele><time>2026-05-02T11:59:41Z</time></trkpt><trkpt lat="45.66069911804401" lon="3.711815553525721"><ele>614.0</ele><time>2026-05-02T11:59:43Z</time></trkpt><trkpt lat="45.660785563467286" lon="3.711813720246993"><ele>617.0</ele><time>2026-05-02T11:59:44Z</time></trkpt><trkpt lat="45.66086250879662" lon="3.711802367473939"><ele>620.0</ele><time>2026-05-02T11:59:45Z</time></trkpt><trkpt lat="45.66096795739177" lon="3.7117929595152543"><ele>620.0</ele><time>2026-05-02T11:59:47Z</time></trkpt><trkpt lat="45.66104147457826" lon="3.7117759803241697"><ele>620.0</ele><time>2026-05-02T11:59:48Z</time></trkpt><trkpt lat="45.66112767792442" lon="3.711777224534499"><ele>620.0</ele><time>2026-05-02T11:59:49Z</time></trkpt><trkpt lat="45.661224010226896" lon="3.7117724234377585"><ele>620.0</ele><time>2026-05-02T11:59:50Z</time></trkpt><trkpt lat="45.66131565142362" lon="3.7117657595762217"><ele>620.0</ele><time>2026-05-02T11:59:51Z</time></trkpt><trkpt lat="45.66138907459488" lon="3.7117641150015106"><ele>620.0</ele><time>2026-05-02T11:59:52Z</time></trkpt><trkpt lat="45.66145519368307" lon="3.7117619079966944"><ele>623.0</ele><time>2026-05-02T11:59:53Z</time></trkpt><trkpt lat="45.66152884790809" lon="3.7117583644554917"><ele>626.0</ele><time>2026-05-02T11:59:55Z</time></trkpt><trkpt lat="45.661563675617735" lon="3.7119555931712895"><ele>629.0</ele><time>2026-05-02T11:59:57Z</time></trkpt><trkpt lat="45.661570393847825" lon="3.7120551157047386"><ele>632.0</ele><time>2026-05-02T11:59:58Z</time></trkpt><trkpt lat="45.661579888962066" lon="3.7121910197710593"><ele>635.0</ele><time>2026-05-02T11:59:59Z</time></trkpt><trkpt lat="45.661582474621575" lon="3.7123532054524584"><ele>636.25</ele><time>2026-05-02T12:00:00Z</time></trkpt><trkpt lat="45.661580818130474" lon="3.7125366178356414"><ele>637.5</ele><time>2026-05-02T12:00:01Z</time></trkpt><trkpt lat="45.6615638962891" lon="3.7127257338813973"><ele>638.75</ele><time>2026-05-02T12:00:02Z</time></trkpt><trkpt lat="45.661551962183474" lon="3.712921264243785"><ele>640.0</ele><time>2026-05-02T12:00:03Z</time></trkpt><trkpt lat="45.66154636542043" lon="3.7131066192079913"><ele>641.4</ele><time>2026-05-02T12:00:04Z</time></trkpt><trkpt lat="45.66155011676532" lon="3.7132573164078644"><ele>642.8</ele><time>2026-05-02T12:00:05Z</time></trkpt><trkpt lat="45.661575946444934" lon="3.7133821783995207"><ele>644.2</ele><time>2026-05-02T12:00:06Z</time></trkpt><trkpt lat="45.661633870299276" lon="3.7134755386058913"><ele>645.6</ele><time>2026-05-02T12:00:07Z</time></trkpt><trkpt lat="45.66172040049737" lon="3.7135368723616597"><ele>647.0</ele><time>2026-05-02T12:00:08Z</time></trkpt><trkpt lat="45.66181330167127" lon="3.713538537928337"><ele>647.0</ele><time>2026-05-02T12:00:09Z</time></trkpt><trkpt lat="45.661900315301324" lon="3.713502430125803"><ele>647.0</ele><time>2026-05-02T12:00:10Z</time></trkpt><trkpt lat="45.661989354056224" lon="3.713439319975603"><ele>647.0</ele><time>2026-05-02T12:00:12Z</time></trkpt><trkpt lat="45.6620221473106" lon="3.7135229262146328"><ele>647.0</ele><time>2026-05-02T12:00:14Z</time></trkpt><trkpt lat="45.66198029858394" lon="3.7136012367818276"><ele>647.0</ele><time>2026-05-02T12:00:16Z</time></trkpt><trkpt lat="45.66203397195566" lon="3.713954517106888"><ele>652.8</ele><time>2026-05-02T12:00:19Z</time></trkpt><trkpt lat="45.66204231992638" lon="3.71405152551339"><ele>658.6</ele><time>2026-05-02T12:00:20Z</time></trkpt><trkpt lat="45.66207514823583" lon="3.7142454328126595"><ele>664.4</ele><time>2026-05-02T12:00:22Z</time></trkpt><trkpt lat="45.662057397001995" lon="3.714417631668978"><ele>670.1999999999999</ele><time>2026-05-02T12:00:24Z</time></trkpt><trkpt lat="45.66207602750987" lon="3.714531497415494"><ele>676.0</ele><time>2026-05-02T12:00:26Z</time></trkpt><trkpt lat="45.662103972159635" lon="3.7146863861560537"><ele>676.0</ele><time>2026-05-02T12:00:28Z</time></trkpt><trkpt lat="45.66215522123934" lon="3.714741062350979"><ele>676.0</ele><time>2026-05-02T12:00:30Z</time></trkpt><trkpt lat="45.66220756706988" lon="3.7146322031354018"><ele>676.0</ele><time>2026-05-02T12:00:33Z</time></trkpt><trkpt lat="45.662196717662475" lon="3.714502703836661"><ele>676.0</ele><time>2026-05-02T12:00:34Z</time></trkpt><trkpt lat="45.66218690081571" lon="3.7143902486246816"><ele>676.0</ele><time>2026-05-02T12:00:35Z</time></trkpt><trkpt lat="45.66222531064408" lon="3.714279944110285"><ele>676.0</ele><time>2026-05-02T12:00:37Z</time></trkpt><trkpt lat="45.6623014725904" lon="3.7143176874025694"><ele>677.3333333333334</ele><time>2026-05-02T12:00:39Z</time></trkpt><trkpt lat="45.6623792271794" lon="3.7144209760479256"><ele>678.6666666666667</ele><time>2026-05-02T12:00:41Z</time></trkpt><trkpt lat="45.6624383059818" lon="3.714475979828425"><ele>680.0</ele><time>2026-05-02T12:00:42Z</time></trkpt><trkpt lat="45.66249087398895" lon="3.7145339524150582"><ele>681.3333333333334</ele><time>2026-05-02T12:00:43Z</time></trkpt><trkpt lat="45.66258730111971" lon="3.714624316162727"><ele>682.6666666666666</ele><time>2026-05-02T12:00:45Z</time></trkpt><trkpt lat="45.662657031536774" lon="3.714702203908145"><ele>684.0</ele><time>2026-05-02T12:00:47Z</time></trkpt><trkpt lat="45.66272267536717" lon="3.71474678492295"><ele>690.0</ele><time>2026-05-02T12:00:49Z</time></trkpt><trkpt lat="45.66278276020794" lon="3.7148348724107847"><ele>696.0</ele><time>2026-05-02T12:00:51Z</time></trkpt><trkpt lat="45.66287237774205" lon="3.7149136470859276"><ele>702.0</ele><time>2026-05-02T12:00:53Z</time></trkpt><trkpt lat="45.66294681645977" lon="3.7150028044682846"><ele>708.0</ele><time>2026-05-02T12:00:55Z</time></trkpt><trkpt lat="45.6630436546395" lon="3.7150436747741704"><ele>714.0</ele><time>2026-05-02T12:00:57Z</time></trkpt><trkpt lat="45.66311943945699" lon="3.7151352242772813"><ele>714.0</ele><time>2026-05-02T12:00:59Z</time></trkpt><trkpt lat="45.66321326599326" lon="3.7151724140303894"><ele>714.0</ele><time>2026-05-02T12:01:01Z</time></trkpt><trkpt lat="45.66330555643706" lon="3.7152515874491456"><ele>714.0</ele><time>2026-05-02T12:01:03Z</time></trkpt><trkpt lat="45.66339542984939" lon="3.7152993117754893"><ele>714.0</ele><time>2026-05-02T12:01:05Z</time></trkpt><trkpt lat="45.6634768216595" lon="3.715295241962365"><ele>714.0</ele><time>2026-05-02T12:01:07Z</time></trkpt><trkpt lat="45.66357279694065" lon="3.715295872950725"><ele>718.6666666666666</ele><time>2026-05-02T12:01:09Z</time></trkpt><trkpt lat="45.66365345639609" lon="3.7152513526232402"><ele>723.3333333333334</ele><time>2026-05-02T12:01:11Z</time></trkpt><trkpt lat="45.66374679734323" lon="3.7152964903770678"><ele>728.0</ele><time>2026-05-02T12:01:13Z</time></trkpt><trkpt lat="45.663822036595235" lon="3.715318336576954"><ele>732.6666666666667</ele><time>2026-05-02T12:01:15Z</time></trkpt><trkpt lat="45.66390185838471" lon="3.715360869628331"><ele>737.3333333333334</ele><time>2026-05-02T12:01:17Z</time></trkpt><trkpt lat="45.663996052019975" lon="3.7154100367192773"><ele>742.0</ele><time>2026-05-02T12:01:20Z</time></trkpt><trkpt lat="45.66406647167873" lon="3.7154786498262684"><ele>742.0</ele><time>2026-05-02T12:01:22Z</time></trkpt><trkpt lat="45.6641237939078" lon="3.715534303725126"><ele>742.0</ele><time>2026-05-02T12:01:24Z</time></trkpt><trkpt lat="45.66419056369439" lon="3.715528497428672"><ele>742.0</ele><time>2026-05-02T12:01:46Z</time></trkpt><trkpt lat="45.66424821481875" lon="3.715619213985881"><ele>742.0</ele><time>2026-05-02T12:02:20Z</time></trkpt><trkpt lat="45.66431459323017" lon="3.715710488641889"><ele>742.0</ele><time>2026-05-02T12:02:44Z</time></trkpt><trkpt lat="45.66437763741299" lon="3.71581434283294"><ele>742.0</ele><time>2026-05-02T12:02:46Z</time></trkpt><trkpt lat="45.664457724311376" lon="3.715928911968311"><ele>744.4000000000001</ele><time>2026-05-02T12:02:48Z</time></trkpt><trkpt lat="45.66447621176855" lon="3.7160440475027983"><ele>746.8000000000001</ele><time>2026-05-02T12:02:50Z</time></trkpt><trkpt lat="45.664468723476176" lon="3.7161859747569284"><ele>749.2</ele><time>2026-05-02T12:02:52Z</time></trkpt><trkpt lat="45.664467849566385" lon="3.716346241462666"><ele>751.6</ele><time>2026-05-02T12:02:54Z</time></trkpt><trkpt lat="45.66454562476772" lon="3.7164794667151395"><ele>754.0</ele><time>2026-05-02T12:02:56Z</time></trkpt><trkpt lat="45.66462749089137" lon="3.7165959070447796"><ele>754.8333333333334</ele><time>2026-05-02T12:02:58Z</time></trkpt><trkpt lat="45.66466700428861" lon="3.716674498741873"><ele>755.6666666666667</ele><time>2026-05-02T12:02:59Z</time></trkpt><trkpt lat="45.66472640694089" lon="3.7167211399491364"><ele>756.5</ele><time>2026-05-02T12:03:00Z</time></trkpt><trkpt lat="45.66478249859434" lon="3.7167702385685737"><ele>757.3333333333334</ele><time>2026-05-02T12:03:01Z</time></trkpt><trkpt lat="45.664870680819625" lon="3.7168688463152284"><ele>758.1666666666666</ele><time>2026-05-02T12:03:03Z</time></trkpt><trkpt lat="45.664957927518714" lon="3.7169321112677767"><ele>759.0</ele><time>2026-05-02T12:03:27Z</time></trkpt><trkpt lat="45.66505630086748" lon="3.7170397454250286"><ele>759.3333333333334</ele><time>2026-05-02T12:03:29Z</time></trkpt><trkpt lat="45.66511897637883" lon="3.717138258467861"><ele>759.6666666666666</ele><time>2026-05-02T12:03:31Z</time></trkpt><trkpt lat="45.66510257923904" lon="3.7172358591544645"><ele>760.0</ele><time>2026-05-02T12:03:34Z</time></trkpt><trkpt lat="45.66499881704039" lon="3.717293179958399"><ele>760.3333333333333</ele><time>2026-05-02T12:03:37Z</time></trkpt><trkpt lat="45.66493736027559" lon="3.717344488423766"><ele>760.6666666666666</ele><time>2026-05-02T12:03:38Z</time></trkpt><trkpt lat="45.664876443041436" lon="3.7174119815857187"><ele>761.0</ele><time>2026-05-02T12:03:39Z</time></trkpt><trkpt lat="45.664812104125595" lon="3.7174947078034823"><ele>761.0</ele><time>2026-05-02T12:03:40Z</time></trkpt><trkpt lat="45.66474994086141" lon="3.717591110880716"><ele>761.0</ele><time>2026-05-02T12:03:41Z</time></trkpt><trkpt lat="45.664698235254185" lon="3.717693723034613"><ele>761.0</ele><time>2026-05-02T12:03:42Z</time></trkpt><trkpt lat="45.66465797851479" lon="3.7178039167118624"><ele>761.0</ele><time>2026-05-02T12:03:43Z</time></trkpt><trkpt lat="45.664627736201396" lon="3.717922058034028"><ele>761.0</ele><time>2026-05-02T12:03:44Z</time></trkpt><trkpt lat="45.66461098709382" lon="3.7180475962233515"><ele>761.0</ele><time>2026-05-02T12:03:45Z</time></trkpt><trkpt lat="45.66460346898279" lon="3.7181516386038362"><ele>762.0</ele><time>2026-05-02T12:03:46Z</time></trkpt><trkpt lat="45.664600400936436" lon="3.718270113589201"><ele>763.0</ele><time>2026-05-02T12:03:47Z</time></trkpt><trkpt lat="45.664613361823484" lon="3.7183940754231957"><ele>764.0</ele><time>2026-05-02T12:03:48Z</time></trkpt><trkpt lat="45.664605805583534" lon="3.7185236906693113"><ele>765.0</ele><time>2026-05-02T12:03:49Z</time></trkpt><trkpt lat="45.66459303829267" lon="3.718644117803178"><ele>766.0</ele><time>2026-05-02T12:03:50Z</time></trkpt><trkpt lat="45.66460396508881" lon="3.71875370183019"><ele>767.0</ele><time>2026-05-02T12:03:51Z</time></trkpt><trkpt lat="45.664631097807295" lon="3.7188509715039"><ele>767.8</ele><time>2026-05-02T12:03:52Z</time></trkpt><trkpt lat="45.66467850178955" lon="3.718963409267659"><ele>768.6</ele><time>2026-05-02T12:03:53Z</time></trkpt><trkpt lat="45.66473272568058" lon="3.7190830406031568"><ele>769.4</ele><time>2026-05-02T12:03:54Z</time></trkpt><trkpt lat="45.664787083582866" lon="3.7192153116826656"><ele>770.1999999999999</ele><time>2026-05-02T12:03:55Z</time></trkpt><trkpt lat="45.66482826467511" lon="3.719370026856701"><ele>771.0</ele><time>2026-05-02T12:03:56Z</time></trkpt><trkpt lat="45.664859213113246" lon="3.71954641424169"><ele>771.0</ele><time>2026-05-02T12:03:57Z</time></trkpt><trkpt lat="45.664879019872444" lon="3.719727493121258"><ele>771.0</ele><time>2026-05-02T12:03:58Z</time></trkpt><trkpt lat="45.66490954304515" lon="3.719922424831634"><ele>771.0</ele><time>2026-05-02T12:03:59Z</time></trkpt><trkpt lat="45.664943897445795" lon="3.7200981263769823"><ele>771.0</ele><time>2026-05-02T12:04:00Z</time></trkpt><trkpt lat="45.66496553742392" lon="3.7202590472711106"><ele>767.25</ele><time>2026-05-02T12:04:01Z</time></trkpt><trkpt lat="45.66497809300489" lon="3.720409958512795"><ele>763.5</ele><time>2026-05-02T12:04:02Z</time></trkpt><trkpt lat="45.665017660137764" lon="3.720555000777063"><ele>759.75</ele><time>2026-05-02T12:04:03Z</time></trkpt><trkpt lat="45.66509866773812" lon="3.7206825283951797"><ele>756.0</ele><time>2026-05-02T12:04:04Z</time></trkpt><trkpt lat="45.665148129102775" lon="3.7208638537040293"><ele>756.0</ele><time>2026-05-02T12:04:05Z</time></trkpt><trkpt lat="45.66517471864864" lon="3.7209997838660938"><ele>756.0</ele><time>2026-05-02T12:04:06Z</time></trkpt><trkpt lat="45.66518925286835" lon="3.721087439556045"><ele>756.0</ele><time>2026-05-02T12:04:07Z</time></trkpt><trkpt lat="45.66519876797329" lon="3.7212045481047906"><ele>756.0</ele><time>2026-05-02T12:04:08Z</time></trkpt><trkpt lat="45.66520155023566" lon="3.721392967996199"><ele>756.0</ele><time>2026-05-02T12:04:09Z</time></trkpt><trkpt lat="45.665210508914626" lon="3.72157470083441"><ele>758.5</ele><time>2026-05-02T12:04:10Z</time></trkpt><trkpt lat="45.665226890676536" lon="3.7217689618918413"><ele>761.0</ele><time>2026-05-02T12:04:11Z</time></trkpt><trkpt lat="45.66525844881382" lon="3.7219479274906657"><ele>763.5</ele><time>2026-05-02T12:04:12Z</time></trkpt><trkpt lat="45.66531498233512" lon="3.7221213893062663"><ele>766.0</ele><time>2026-05-02T12:04:13Z</time></trkpt><trkpt lat="45.6653891756882" lon="3.7222742324188256"><ele>766.0</ele><time>2026-05-02T12:04:14Z</time></trkpt><trkpt lat="45.66544233540678" lon="3.7224134165980485"><ele>766.0</ele><time>2026-05-02T12:04:15Z</time></trkpt><trkpt lat="45.665488032049694" lon="3.7225569179087348"><ele>766.0</ele><time>2026-05-02T12:04:16Z</time></trkpt><trkpt lat="45.66552030980986" lon="3.7227117606130564"><ele>766.0</ele><time>2026-05-02T12:04:17Z</time></trkpt><trkpt lat="45.66556805109245" lon="3.722854358526701"><ele>766.0</ele><time>2026-05-02T12:04:18Z</time></trkpt><trkpt lat="45.66559806014959" lon="3.7229761460479347"><ele>763.8</ele><time>2026-05-02T12:04:19Z</time></trkpt><trkpt lat="45.66561346040546" lon="3.723124764652104"><ele>761.5999999999999</ele><time>2026-05-02T12:04:20Z</time></trkpt><trkpt lat="45.665649856698565" lon="3.7232718536148375"><ele>759.4</ele><time>2026-05-02T12:04:21Z</time></trkpt><trkpt lat="45.665696394335676" lon="3.7233807584016407"><ele>757.2</ele><time>2026-05-02T12:04:22Z</time></trkpt><trkpt lat="45.665713087598185" lon="3.7234783062754513"><ele>755.0</ele><time>2026-05-02T12:04:23Z</time></trkpt><trkpt lat="45.66569309745074" lon="3.7236794411281884"><ele>752.0</ele><time>2026-05-02T12:04:25Z</time></trkpt><trkpt lat="45.665634331119456" lon="3.7238081913749568"><ele>749.0</ele><time>2026-05-02T12:04:26Z</time></trkpt><trkpt lat="45.66567772944783" lon="3.72401605786033"><ele>746.0</ele><time>2026-05-02T12:04:27Z</time></trkpt><trkpt lat="45.66571311853445" lon="3.724207343669102"><ele>743.0</ele><time>2026-05-02T12:04:28Z</time></trkpt><trkpt lat="45.66576253934795" lon="3.7243666481160487"><ele>739.5999999999999</ele><time>2026-05-02T12:04:29Z</time></trkpt><trkpt lat="45.66579830308976" lon="3.724487902324849"><ele>736.1999999999999</ele><time>2026-05-02T12:04:30Z</time></trkpt><trkpt lat="45.6658409582743" lon="3.724576353691189"><ele>732.8</ele><time>2026-05-02T12:04:31Z</time></trkpt><trkpt lat="45.66588785474723" lon="3.7246696439489844"><ele>729.4</ele><time>2026-05-02T12:04:32Z</time></trkpt><trkpt lat="45.66598979970065" lon="3.724733396217005"><ele>726.0</ele><time>2026-05-02T12:04:33Z</time></trkpt><trkpt lat="45.66610055217582" lon="3.7247950543528554"><ele>730.5</ele><time>2026-05-02T12:04:34Z</time></trkpt><trkpt lat="45.666236343562545" lon="3.7248238852512574"><ele>735.0</ele><time>2026-05-02T12:04:35Z</time></trkpt><trkpt lat="45.666374066690175" lon="3.7248787570912723"><ele>739.5</ele><time>2026-05-02T12:04:36Z</time></trkpt><trkpt lat="45.66652108287463" lon="3.7248890735983737"><ele>744.0</ele><time>2026-05-02T12:04:37Z</time></trkpt><trkpt lat="45.66665441943081" lon="3.7248836800214824"><ele>744.0</ele><time>2026-05-02T12:04:38Z</time></trkpt><trkpt lat="45.66678918467626" lon="3.7249339406676527"><ele>744.0</ele><time>2026-05-02T12:04:39Z</time></trkpt><trkpt lat="45.66689557302292" lon="3.7250549345524373"><ele>744.0</ele><time>2026-05-02T12:04:40Z</time></trkpt><trkpt lat="45.666971271583776" lon="3.7252285182435645"><ele>744.0</ele><time>2026-05-02T12:04:41Z</time></trkpt><trkpt lat="45.66704381820735" lon="3.7253762349805943"><ele>746.0</ele><time>2026-05-02T12:04:42Z</time></trkpt><trkpt lat="45.66709062160515" lon="3.725507193237252"><ele>748.0</ele><time>2026-05-02T12:04:43Z</time></trkpt><trkpt lat="45.66710830125966" lon="3.725648156186442"><ele>750.0</ele><time>2026-05-02T12:04:44Z</time></trkpt><trkpt lat="45.66713384403823" lon="3.7257843704856217"><ele>752.0</ele><time>2026-05-02T12:04:45Z</time></trkpt><trkpt lat="45.66713448013991" lon="3.7259433834288385"><ele>754.0</ele><time>2026-05-02T12:04:46Z</time></trkpt><trkpt lat="45.66716192237189" lon="3.7261168940087117"><ele>754.0</ele><time>2026-05-02T12:04:47Z</time></trkpt><trkpt lat="45.667201055575944" lon="3.7263309773614535"><ele>754.0</ele><time>2026-05-02T12:04:48Z</time></trkpt><trkpt lat="45.66725762751526" lon="3.726502649526278"><ele>754.0</ele><time>2026-05-02T12:04:49Z</time></trkpt><trkpt lat="45.667327022175186" lon="3.7267175263986747"><ele>751.0</ele><time>2026-05-02T12:04:50Z</time></trkpt><trkpt lat="45.66737645924231" lon="3.726944928790442"><ele>748.0</ele><time>2026-05-02T12:04:51Z</time></trkpt><trkpt lat="45.667416746189105" lon="3.727131055449068"><ele>745.0</ele><time>2026-05-02T12:04:52Z</time></trkpt><trkpt lat="45.6674395764331" lon="3.727295388431327"><ele>742.0</ele><time>2026-05-02T12:04:53Z</time></trkpt><trkpt lat="45.66748192381586" lon="3.7274365234368423"><ele>742.0</ele><time>2026-05-02T12:04:54Z</time></trkpt><trkpt lat="45.66755226057865" lon="3.7276074941293174"><ele>742.0</ele><time>2026-05-02T12:04:55Z</time></trkpt><trkpt lat="45.66764294445639" lon="3.727780054507181"><ele>742.0</ele><time>2026-05-02T12:04:56Z</time></trkpt><trkpt lat="45.667746424045994" lon="3.7279314678671622"><ele>742.0</ele><time>2026-05-02T12:04:57Z</time></trkpt><trkpt lat="45.66784547809809" lon="3.7281056828716244"><ele>742.75</ele><time>2026-05-02T12:04:58Z</time></trkpt><trkpt lat="45.66794603401715" lon="3.7282878847357956"><ele>743.5</ele><time>2026-05-02T12:04:59Z</time></trkpt><trkpt lat="45.66803708195223" lon="3.728458006680655"><ele>744.25</ele><time>2026-05-02T12:05:00Z</time></trkpt><trkpt lat="45.668112577223496" lon="3.7286004568584943"><ele>745.0</ele><time>2026-05-02T12:05:01Z</time></trkpt><trkpt lat="45.668160479986255" lon="3.7287363062701533"><ele>745.0</ele><time>2026-05-02T12:05:02Z</time></trkpt><trkpt lat="45.668168968608214" lon="3.728896220929646"><ele>745.0</ele><time>2026-05-02T12:05:03Z</time></trkpt><trkpt lat="45.668178877021134" lon="3.729069684416695"><ele>745.0</ele><time>2026-05-02T12:05:04Z</time></trkpt><trkpt lat="45.66817455677881" lon="3.729264219158747"><ele>745.0</ele><time>2026-05-02T12:05:05Z</time></trkpt><trkpt lat="45.66814740072463" lon="3.7294492354173068"><ele>744.25</ele><time>2026-05-02T12:05:06Z</time></trkpt><trkpt lat="45.66809648745182" lon="3.729625155833457"><ele>743.5</ele><time>2026-05-02T12:05:07Z</time></trkpt><trkpt lat="45.66806502754532" lon="3.7297899441108373"><ele>742.75</ele><time>2026-05-02T12:05:08Z</time></trkpt><trkpt lat="45.66806662855656" lon="3.7299335442913324"><ele>742.0</ele><time>2026-05-02T12:05:09Z</time></trkpt><trkpt lat="45.66811255358149" lon="3.7300638619990676"><ele>742.0</ele><time>2026-05-02T12:05:10Z</time></trkpt><trkpt lat="45.66817111164556" lon="3.7302010181949776"><ele>742.0</ele><time>2026-05-02T12:05:11Z</time></trkpt><trkpt lat="45.66822857100812" lon="3.7303378276501356"><ele>742.0</ele><time>2026-05-02T12:05:12Z</time></trkpt><trkpt lat="45.668289159437926" lon="3.730480643917528"><ele>742.0</ele><time>2026-05-02T12:05:13Z</time></trkpt><trkpt lat="45.66827218897016" lon="3.730630541982358"><ele>742.0</ele><time>2026-05-02T12:05:14Z</time></trkpt><trkpt lat="45.66822959355204" lon="3.730721989500563"><ele>742.3333333333334</ele><time>2026-05-02T12:05:15Z</time></trkpt><trkpt lat="45.66819524988661" lon="3.730813014726923"><ele>742.6666666666667</ele><time>2026-05-02T12:05:16Z</time></trkpt><trkpt lat="45.66816216757413" lon="3.7309007322107517"><ele>743.0</ele><time>2026-05-02T12:05:17Z</time></trkpt><trkpt lat="45.668129839149" lon="3.730984776214979"><ele>743.3333333333334</ele><time>2026-05-02T12:05:18Z</time></trkpt><trkpt lat="45.66809319948012" lon="3.731115661236568"><ele>743.6666666666666</ele><time>2026-05-02T12:05:20Z</time></trkpt><trkpt lat="45.66801110619205" lon="3.731076705313702"><ele>744.0</ele><time>2026-05-02T12:05:22Z</time></trkpt><trkpt lat="45.66794543527275" lon="3.7310098982393702"><ele>744.0</ele><time>2026-05-02T12:05:23Z</time></trkpt><trkpt lat="45.66787677144546" lon="3.730963333594153"><ele>744.0</ele><time>2026-05-02T12:05:24Z</time></trkpt><trkpt lat="45.66776265172321" lon="3.73092183739529"><ele>744.0</ele><time>2026-05-02T12:05:26Z</time></trkpt><trkpt lat="45.66763651324322" lon="3.730871327730017"><ele>744.0</ele><time>2026-05-02T12:05:28Z</time></trkpt><trkpt lat="45.66757689850246" lon="3.7308378299614358"><ele>744.0</ele><time>2026-05-02T12:05:29Z</time></trkpt><trkpt lat="45.66751722288496" lon="3.7308008033375555"><ele>742.6666666666666</ele><time>2026-05-02T12:05:30Z</time></trkpt><trkpt lat="45.66745305350745" lon="3.730786411396367"><ele>741.3333333333334</ele><time>2026-05-02T12:05:31Z</time></trkpt><trkpt lat="45.66740475983726" lon="3.730726073740428"><ele>740.0</ele><time>2026-05-02T12:05:32Z</time></trkpt><trkpt lat="45.66733699802358" lon="3.7306362371999477"><ele>738.6666666666667</ele><time>2026-05-02T12:05:34Z</time></trkpt><trkpt lat="45.66726035051019" lon="3.730518440123903"><ele>737.3333333333334</ele><time>2026-05-02T12:05:36Z</time></trkpt><trkpt lat="45.667209238135875" lon="3.730448065362761"><ele>736.0</ele><time>2026-05-02T12:05:37Z</time></trkpt><trkpt lat="45.667128794937454" lon="3.7304180213067695"><ele>736.0</ele><time>2026-05-02T12:05:38Z</time></trkpt><trkpt lat="45.66704028300373" lon="3.7304176595121152"><ele>736.0</ele><time>2026-05-02T12:05:39Z</time></trkpt><trkpt lat="45.66695923855407" lon="3.730409009174124"><ele>736.0</ele><time>2026-05-02T12:05:40Z</time></trkpt><trkpt lat="45.66684943128919" lon="3.7304576444035837"><ele>736.0</ele><time>2026-05-02T12:05:42Z</time></trkpt><trkpt lat="45.66677595483508" lon="3.7305662381980143"><ele>736.0</ele><time>2026-05-02T12:05:44Z</time></trkpt><trkpt lat="45.66666078988716" lon="3.7305073615060897"><ele>733.8333333333334</ele><time>2026-05-02T12:05:46Z</time></trkpt><trkpt lat="45.66657648540539" lon="3.730476671020585"><ele>731.6666666666667</ele><time>2026-05-02T12:05:48Z</time></trkpt><trkpt lat="45.66648717982554" lon="3.7305350241055844"><ele>729.5</ele><time>2026-05-02T12:05:50Z</time></trkpt><trkpt lat="45.6664038952111" lon="3.7305208393397407"><ele>727.3333333333334</ele><time>2026-05-02T12:05:51Z</time></trkpt><trkpt lat="45.66631629841158" lon="3.730426969144358"><ele>725.1666666666666</ele><time>2026-05-02T12:05:53Z</time></trkpt><trkpt lat="45.66628021418265" lon="3.7303492938299723"><ele>723.0</ele><time>2026-05-02T12:05:54Z</time></trkpt><trkpt lat="45.66620613955318" lon="3.7303300037673894"><ele>723.0</ele><time>2026-05-02T12:05:56Z</time></trkpt><trkpt lat="45.66612380281849" lon="3.730477959324543"><ele>723.0</ele><time>2026-05-02T12:05:58Z</time></trkpt><trkpt lat="45.66609611275334" lon="3.7305877733621307"><ele>723.0</ele><time>2026-05-02T12:05:59Z</time></trkpt><trkpt lat="45.666051505942235" lon="3.730729839162326"><ele>723.0</ele><time>2026-05-02T12:06:01Z</time></trkpt><trkpt lat="45.665933414864234" lon="3.7307777739190184"><ele>723.0</ele><time>2026-05-02T12:06:03Z</time></trkpt><trkpt lat="45.665862073934996" lon="3.730831236690864"><ele>721.1666666666666</ele><time>2026-05-02T12:06:04Z</time></trkpt><trkpt lat="45.665802528497075" lon="3.7308899984511763"><ele>719.3333333333334</ele><time>2026-05-02T12:06:05Z</time></trkpt><trkpt lat="45.6657525405484" lon="3.7309620875847362"><ele>717.5</ele><time>2026-05-02T12:06:06Z</time></trkpt><trkpt lat="45.66571788262949" lon="3.73105097001151"><ele>715.6666666666667</ele><time>2026-05-02T12:06:07Z</time></trkpt><trkpt lat="45.665670041201366" lon="3.7311456448332367"><ele>713.8333333333334</ele><time>2026-05-02T12:06:08Z</time></trkpt><trkpt lat="45.665614793904645" lon="3.7312953522034884"><ele>712.0</ele><time>2026-05-02T12:06:10Z</time></trkpt><trkpt lat="45.665518426022146" lon="3.7312864142247752"><ele>712.0</ele><time>2026-05-02T12:06:13Z</time></trkpt><trkpt lat="45.6654130775605" lon="3.7312179490760484"><ele>712.0</ele><time>2026-05-02T12:06:15Z</time></trkpt><trkpt lat="45.665364715159974" lon="3.7311215307988777"><ele>712.0</ele><time>2026-05-02T12:06:17Z</time></trkpt><trkpt lat="45.6653188168665" lon="3.730978852346146"><ele>712.0</ele><time>2026-05-02T12:06:19Z</time></trkpt><trkpt lat="45.665309345022" lon="3.7308545319040785"><ele>712.0</ele><time>2026-05-02T12:06:21Z</time></trkpt><trkpt lat="45.66532564769774" lon="3.7307374021320547"><ele>711.2</ele><time>2026-05-02T12:06:23Z</time></trkpt><trkpt lat="45.66536803971735" lon="3.730664727665702"><ele>710.4000000000001</ele><time>2026-05-02T12:06:24Z</time></trkpt><trkpt lat="45.66537650649457" lon="3.7305111263021864"><ele>709.5999999999999</ele><time>2026-05-02T12:06:26Z</time></trkpt><trkpt lat="45.665339609547125" lon="3.7303507050936964"><ele>708.8</ele><time>2026-05-02T12:06:28Z</time></trkpt><trkpt lat="45.665327625258485" lon="3.730259332056512"><ele>708.0</ele><time>2026-05-02T12:06:29Z</time></trkpt><trkpt lat="45.66526254860058" lon="3.730102843750739"><ele>706.8</ele><time>2026-05-02T12:06:31Z</time></trkpt><trkpt lat="45.66528157240937" lon="3.7299920301246337"><ele>705.5999999999999</ele><time>2026-05-02T12:06:32Z</time></trkpt><trkpt lat="45.665301722015776" lon="3.729857523531102"><ele>704.4000000000001</ele><time>2026-05-02T12:06:33Z</time></trkpt><trkpt lat="45.66530899340444" lon="3.72972311659978"><ele>703.2</ele><time>2026-05-02T12:06:34Z</time></trkpt><trkpt lat="45.66530919295113" lon="3.729576089522756"><ele>702.0</ele><time>2026-05-02T12:06:35Z</time></trkpt><trkpt lat="45.66533783366922" lon="3.7294194099902658"><ele>702.0</ele><time>2026-05-02T12:06:36Z</time></trkpt><trkpt lat="45.66533045721443" lon="3.7292750352739943"><ele>702.0</ele><time>2026-05-02T12:06:37Z</time></trkpt><trkpt lat="45.66534845125561" lon="3.729133870864106"><ele>702.0</ele><time>2026-05-02T12:06:38Z</time></trkpt><trkpt lat="45.66535281225774" lon="3.729010442028035"><ele>702.0</ele><time>2026-05-02T12:06:39Z</time></trkpt><trkpt lat="45.665360766438106" lon="3.7289109851826896"><ele>702.0</ele><time>2026-05-02T12:06:40Z</time></trkpt><trkpt lat="45.66531173383289" lon="3.7287818640685724"><ele>705.2</ele><time>2026-05-02T12:06:42Z</time></trkpt><trkpt lat="45.66523164879614" lon="3.728743073102495"><ele>708.4000000000001</ele><time>2026-05-02T12:06:43Z</time></trkpt><trkpt lat="45.66513469780166" lon="3.7287553802333284"><ele>711.5999999999999</ele><time>2026-05-02T12:06:44Z</time></trkpt><trkpt lat="45.665023111383924" lon="3.7287677898020397"><ele>714.8</ele><time>2026-05-02T12:06:45Z</time></trkpt><trkpt lat="45.664916650835224" lon="3.728774730947793"><ele>718.0</ele><time>2026-05-02T12:06:46Z</time></trkpt><trkpt lat="45.664838342890185" lon="3.7287587553709476"><ele>718.0</ele><time>2026-05-02T12:06:47Z</time></trkpt><trkpt lat="45.664737155610716" lon="3.7287218957169195"><ele>718.0</ele><time>2026-05-02T12:06:48Z</time></trkpt><trkpt lat="45.66462972564219" lon="3.7287223761835424"><ele>718.0</ele><time>2026-05-02T12:06:49Z</time></trkpt><trkpt lat="45.664508111087365" lon="3.7287393822949437"><ele>718.0</ele><time>2026-05-02T12:06:50Z</time></trkpt><trkpt lat="45.66437112181094" lon="3.728781547605789"><ele>719.5</ele><time>2026-05-02T12:06:51Z</time></trkpt><trkpt lat="45.66424238055903" lon="3.7288035268878623"><ele>721.0</ele><time>2026-05-02T12:06:52Z</time></trkpt><trkpt lat="45.66410462285836" lon="3.7288267801132413"><ele>722.5</ele><time>2026-05-02T12:06:53Z</time></trkpt><trkpt lat="45.66397309783602" lon="3.728860670741301"><ele>724.0</ele><time>2026-05-02T12:06:54Z</time></trkpt><trkpt lat="45.663860049924764" lon="3.7288813876232156"><ele>724.0</ele><time>2026-05-02T12:06:55Z</time></trkpt><trkpt lat="45.663726450362326" lon="3.728896058325373"><ele>724.0</ele><time>2026-05-02T12:06:56Z</time></trkpt><trkpt lat="45.663594543448205" lon="3.7289045683386397"><ele>724.0</ele><time>2026-05-02T12:06:57Z</time></trkpt><trkpt lat="45.663448585872544" lon="3.7288680038599704"><ele>724.0</ele><time>2026-05-02T12:06:58Z</time></trkpt><trkpt lat="45.663332553918316" lon="3.728864182046249"><ele>726.0</ele><time>2026-05-02T12:06:59Z</time></trkpt><trkpt lat="45.66321930507564" lon="3.7288780659282197"><ele>728.0</ele><time>2026-05-02T12:07:00Z</time></trkpt><trkpt lat="45.66309011313977" lon="3.728904876986564"><ele>730.0</ele><time>2026-05-02T12:07:01Z</time></trkpt><trkpt lat="45.662974723179374" lon="3.728926863863663"><ele>732.0</ele><time>2026-05-02T12:07:02Z</time></trkpt><trkpt lat="45.662867000316766" lon="3.728947644754548"><ele>734.0</ele><time>2026-05-02T12:07:03Z</time></trkpt><trkpt lat="45.662772493122816" lon="3.728962185097637"><ele>736.0</ele><time>2026-05-02T12:07:04Z</time></trkpt><trkpt lat="45.662694398199456" lon="3.7289306031295815"><ele>738.0</ele><time>2026-05-02T12:07:05Z</time></trkpt><trkpt lat="45.662632560660896" lon="3.7288487469995197"><ele>740.0</ele><time>2026-05-02T12:07:06Z</time></trkpt><trkpt lat="45.66258021392927" lon="3.7287033733824466"><ele>742.0</ele><time>2026-05-02T12:07:07Z</time></trkpt><trkpt lat="45.66253649812583" lon="3.72856134963317"><ele>739.5</ele><time>2026-05-02T12:07:08Z</time></trkpt><trkpt lat="45.66248535953057" lon="3.7284293836809663"><ele>737.0</ele><time>2026-05-02T12:07:09Z</time></trkpt><trkpt lat="45.6624376723022" lon="3.7283144726646573"><ele>734.5</ele><time>2026-05-02T12:07:10Z</time></trkpt><trkpt lat="45.662401984283164" lon="3.728212483277096"><ele>732.0</ele><time>2026-05-02T12:07:11Z</time></trkpt><trkpt lat="45.662356095307" lon="3.7281238882834202"><ele>729.5</ele><time>2026-05-02T12:07:12Z</time></trkpt><trkpt lat="45.662299997254976" lon="3.728050463433658"><ele>727.0</ele><time>2026-05-02T12:07:13Z</time></trkpt><trkpt lat="45.6622286853935" lon="3.727942617482967"><ele>727.0</ele><time>2026-05-02T12:07:15Z</time></trkpt><trkpt lat="45.66217022695697" lon="3.7279072839231095"><ele>727.0</ele><time>2026-05-02T12:08:04Z</time></trkpt><trkpt lat="45.66214213333766" lon="3.7279959168411607"><ele>727.0</ele><time>2026-05-02T12:08:06Z</time></trkpt><trkpt lat="45.6621362111839" lon="3.728089736814425"><ele>727.0</ele><time>2026-05-02T12:08:07Z</time></trkpt><trkpt lat="45.6621267569557" lon="3.7282485341810685"><ele>727.0</ele><time>2026-05-02T12:08:09Z</time></trkpt><trkpt lat="45.66208139258253" lon="3.7283150397316094"><ele>727.0</ele><time>2026-05-02T12:08:10Z</time></trkpt><trkpt lat="45.66207800668131" lon="3.728440940377356"><ele>727.0</ele><time>2026-05-02T12:08:12Z</time></trkpt><trkpt lat="45.66207890600365" lon="3.7285522810288323"><ele>727.0</ele><time>2026-05-02T12:08:14Z</time></trkpt><trkpt lat="45.66208554347105" lon="3.7286695655619706"><ele>727.0</ele><time>2026-05-02T12:08:16Z</time></trkpt><trkpt lat="45.66209816550801" lon="3.728762165721589"><ele>727.0</ele><time>2026-05-02T12:08:18Z</time></trkpt><trkpt lat="45.6620919433395" lon="3.728856026391047"><ele>727.0</ele><time>2026-05-02T12:08:21Z</time></trkpt><trkpt lat="45.662125984661714" lon="3.7289468666780463"><ele>727.0</ele><time>2026-05-02T12:08:22Z</time></trkpt><trkpt lat="45.662135725049296" lon="3.729069993216292"><ele>730.0</ele><time>2026-05-02T12:08:23Z</time></trkpt><trkpt lat="45.66216402901847" lon="3.729180900203936"><ele>733.0</ele><time>2026-05-02T12:08:24Z</time></trkpt><trkpt lat="45.66219667655774" lon="3.7292872501790857"><ele>736.0</ele><time>2026-05-02T12:08:25Z</time></trkpt><trkpt lat="45.662245940314676" lon="3.7294051078871138"><ele>739.0</ele><time>2026-05-02T12:08:26Z</time></trkpt><trkpt lat="45.662320981992714" lon="3.72951270450771"><ele>742.0</ele><time>2026-05-02T12:08:27Z</time></trkpt><trkpt lat="45.662443496944974" lon="3.7295613789220083"><ele>745.0</ele><time>2026-05-02T12:08:28Z</time></trkpt><trkpt lat="45.66258265167486" lon="3.729487730724149"><ele>748.0</ele><time>2026-05-02T12:08:29Z</time></trkpt><trkpt lat="45.662719454491096" lon="3.7294392928742215"><ele>751.0</ele><time>2026-05-02T12:08:30Z</time></trkpt><trkpt lat="45.66286226999727" lon="3.7294289835746497"><ele>754.0</ele><time>2026-05-02T12:08:31Z</time></trkpt><trkpt lat="45.66301131252332" lon="3.7294291337586523"><ele>754.0</ele><time>2026-05-02T12:08:32Z</time></trkpt><trkpt lat="45.66314344748487" lon="3.7294369148946878"><ele>754.0</ele><time>2026-05-02T12:08:33Z</time></trkpt><trkpt lat="45.663277096042336" lon="3.7294465256166682"><ele>754.0</ele><time>2026-05-02T12:08:34Z</time></trkpt><trkpt lat="45.66342392170973" lon="3.729508565559794"><ele>754.0</ele><time>2026-05-02T12:08:35Z</time></trkpt><trkpt lat="45.66357871384279" lon="3.7295827787282883"><ele>750.25</ele><time>2026-05-02T12:08:36Z</time></trkpt><trkpt lat="45.663695117568594" lon="3.7296713131168153"><ele>746.5</ele><time>2026-05-02T12:08:37Z</time></trkpt><trkpt lat="45.663798901425906" lon="3.729761533731437"><ele>742.75</ele><time>2026-05-02T12:08:38Z</time></trkpt><trkpt lat="45.663907888324324" lon="3.7298584041748946"><ele>739.0</ele><time>2026-05-02T12:08:39Z</time></trkpt><trkpt lat="45.66400708375894" lon="3.7299417987406605"><ele>739.0</ele><time>2026-05-02T12:08:40Z</time></trkpt><trkpt lat="45.66408445576185" lon="3.7299951675413077"><ele>739.0</ele><time>2026-05-02T12:08:41Z</time></trkpt><trkpt lat="45.66414907582881" lon="3.730037062915361"><ele>739.0</ele><time>2026-05-02T12:08:42Z</time></trkpt><trkpt lat="45.664213306267094" lon="3.7300787050953916"><ele>739.0</ele><time>2026-05-02T12:08:43Z</time></trkpt><trkpt lat="45.66428102552113" lon="3.730115695325375"><ele>739.0</ele><time>2026-05-02T12:08:44Z</time></trkpt><trkpt lat="45.66433547179003" lon="3.730195408597276"><ele>739.0</ele><time>2026-05-02T12:08:45Z</time></trkpt><trkpt lat="45.66438846218479" lon="3.730314550240888"><ele>735.8000000000001</ele><time>2026-05-02T12:08:46Z</time></trkpt><trkpt lat="45.66445034460678" lon="3.7304461350626705"><ele>732.6</ele><time>2026-05-02T12:08:47Z</time></trkpt><trkpt lat="45.66450117941306" lon="3.73059837370927"><ele>729.4</ele><time>2026-05-02T12:08:48Z</time></trkpt><trkpt lat="45.66455174379124" lon="3.7307167367537533"><ele>726.2</ele><time>2026-05-02T12:08:49Z</time></trkpt><trkpt lat="45.66459832410818" lon="3.7308038302825546"><ele>723.0</ele><time>2026-05-02T12:08:50Z</time></trkpt><trkpt lat="45.66462517247247" lon="3.730888618013168"><ele>723.0</ele><time>2026-05-02T12:08:51Z</time></trkpt><trkpt lat="45.66451026140616" lon="3.7310394703770076"><ele>723.0</ele><time>2026-05-02T12:08:53Z</time></trkpt><trkpt lat="45.66441403128036" lon="3.731119007632263"><ele>723.0</ele><time>2026-05-02T12:08:54Z</time></trkpt><trkpt lat="45.664341570230725" lon="3.7312194118806"><ele>723.0</ele><time>2026-05-02T12:08:55Z</time></trkpt><trkpt lat="45.66430417862191" lon="3.7313201426060725"><ele>723.0</ele><time>2026-05-02T12:08:56Z</time></trkpt><trkpt lat="45.66430025296825" lon="3.7314432196428204"><ele>727.0</ele><time>2026-05-02T12:08:57Z</time></trkpt><trkpt lat="45.66429411850826" lon="3.7315918759692677"><ele>731.0</ele><time>2026-05-02T12:08:58Z</time></trkpt><trkpt lat="45.664315384707635" lon="3.7316954644401656"><ele>735.0</ele><time>2026-05-02T12:08:59Z</time></trkpt><trkpt lat="45.664260318946" lon="3.731880431183258"><ele>739.0</ele><time>2026-05-02T12:09:01Z</time></trkpt><trkpt lat="45.6642205882592" lon="3.7320215141940016"><ele>743.0</ele><time>2026-05-02T12:09:03Z</time></trkpt><trkpt lat="45.66415796689005" lon="3.7320941686597036"><ele>743.0</ele><time>2026-05-02T12:09:04Z</time></trkpt><trkpt lat="45.66412587588623" lon="3.7321874481053987"><ele>743.0</ele><time>2026-05-02T12:09:05Z</time></trkpt><trkpt lat="45.66409725573636" lon="3.7323346468620784"><ele>743.0</ele><time>2026-05-02T12:09:06Z</time></trkpt><trkpt lat="45.66406824497375" lon="3.732447620506633"><ele>743.0</ele><time>2026-05-02T12:09:07Z</time></trkpt><trkpt lat="45.66407908713331" lon="3.732586629741958"><ele>743.0</ele><time>2026-05-02T12:09:08Z</time></trkpt><trkpt lat="45.66407037776396" lon="3.7327092640091424"><ele>743.0</ele><time>2026-05-02T12:09:09Z</time></trkpt><trkpt lat="45.664060693690494" lon="3.7328316847488887"><ele>744.2</ele><time>2026-05-02T12:09:10Z</time></trkpt><trkpt lat="45.66405794181972" lon="3.7330108519544734"><ele>745.4</ele><time>2026-05-02T12:09:12Z</time></trkpt><trkpt lat="45.66413677917988" lon="3.733096877063567"><ele>746.6</ele><time>2026-05-02T12:09:13Z</time></trkpt><trkpt lat="45.66419557544095" lon="3.733149940425455"><ele>747.8000000000001</ele><time>2026-05-02T12:09:14Z</time></trkpt><trkpt lat="45.66421948858761" lon="3.7333136825019073"><ele>749.0</ele><time>2026-05-02T12:09:34Z</time></trkpt><trkpt lat="45.664297367129144" lon="3.733332572640865"><ele>749.0</ele><time>2026-05-02T12:09:36Z</time></trkpt><trkpt lat="45.664373166612435" lon="3.733369078598323"><ele>749.0</ele><time>2026-05-02T12:09:39Z</time></trkpt><trkpt lat="45.66445942922113" lon="3.7333829135643786"><ele>749.0</ele><time>2026-05-02T12:09:43Z</time></trkpt><trkpt lat="45.66452333726314" lon="3.7333933178171503"><ele>749.0</ele><time>2026-05-02T12:09:45Z</time></trkpt><trkpt lat="45.66460293606051" lon="3.7333808640852024"><ele>749.0</ele><time>2026-05-02T12:09:48Z</time></trkpt><trkpt lat="45.66469912317847" lon="3.73341503633463"><ele>749.0</ele><time>2026-05-02T12:09:53Z</time></trkpt><trkpt lat="45.66475881277442" lon="3.7335069855515015"><ele>746.1666666666666</ele><time>2026-05-02T12:09:57Z</time></trkpt><trkpt lat="45.664759719104794" lon="3.7336191656663655"><ele>743.3333333333333</ele><time>2026-05-02T12:09:59Z</time></trkpt><trkpt lat="45.66479084148337" lon="3.7337388136369887"><ele>740.5</ele><time>2026-05-02T12:10:02Z</time></trkpt><trkpt lat="45.66484752013203" lon="3.733823361703633"><ele>737.6666666666666</ele><time>2026-05-02T12:10:05Z</time></trkpt><trkpt lat="45.66490206826557" lon="3.733912193732193"><ele>734.8333333333334</ele><time>2026-05-02T12:10:08Z</time></trkpt><trkpt lat="45.664956317449466" lon="3.733960048360455"><ele>732.0</ele><time>2026-05-02T12:10:11Z</time></trkpt><trkpt lat="45.66502744161168" lon="3.7339112539232886"><ele>732.0</ele><time>2026-05-02T12:10:13Z</time></trkpt><trkpt lat="45.66511331947097" lon="3.7339250257719314"><ele>732.0</ele><time>2026-05-02T12:10:15Z</time></trkpt><trkpt lat="45.665188273414" lon="3.7338811804237246"><ele>732.0</ele><time>2026-05-02T12:10:18Z</time></trkpt><trkpt lat="45.66524366754583" lon="3.7339263948548544"><ele>732.0</ele><time>2026-05-02T12:10:43Z</time></trkpt><trkpt lat="45.66530861768455" lon="3.7338981612155915"><ele>732.0</ele><time>2026-05-02T12:16:16Z</time></trkpt><trkpt lat="45.66522541316792" lon="3.733936524187562"><ele>732.0</ele><time>2026-05-02T12:18:14Z</time></trkpt><trkpt lat="45.66520543890229" lon="3.733840239984784"><ele>732.0</ele><time>2026-05-02T12:20:13Z</time></trkpt><trkpt lat="45.66526854511479" lon="3.7338951109131178"><ele>732.0</ele><time>2026-05-02T12:20:47Z</time></trkpt><trkpt lat="45.66532270273453" lon="3.733813981524341"><ele>732.0</ele><time>2026-05-02T12:23:58Z</time></trkpt><trkpt lat="45.66538170352903" lon="3.7337782229895873"><ele>732.0</ele><time>2026-05-02T12:23:59Z</time></trkpt><trkpt lat="45.66548014165303" lon="3.733777844230291"><ele>732.0</ele><time>2026-05-02T12:24:02Z</time></trkpt><trkpt lat="45.665543514164966" lon="3.73379063363434"><ele>732.0</ele><time>2026-05-02T12:24:04Z</time></trkpt><trkpt lat="45.665612569196064" lon="3.73384329310372"><ele>734.1666666666666</ele><time>2026-05-02T12:24:06Z</time></trkpt><trkpt lat="45.66569776003949" lon="3.73390956216117"><ele>736.3333333333334</ele><time>2026-05-02T12:24:08Z</time></trkpt><trkpt lat="45.66578271647875" lon="3.733947378400554"><ele>738.5</ele><time>2026-05-02T12:24:10Z</time></trkpt><trkpt lat="45.66580659001338" lon="3.734039754002424"><ele>740.6666666666667</ele><time>2026-05-02T12:24:13Z</time></trkpt><trkpt lat="45.665895840169014" lon="3.73413977553971"><ele>742.8333333333334</ele><time>2026-05-02T12:24:17Z</time></trkpt><trkpt lat="45.66594422118144" lon="3.7342186443131067"><ele>745.0</ele><time>2026-05-02T12:24:20Z</time></trkpt><trkpt lat="45.66602954350683" lon="3.73423014892845"><ele>745.0</ele><time>2026-05-02T12:24:28Z</time></trkpt><trkpt lat="45.666082570042384" lon="3.7342810922589424"><ele>745.0</ele><time>2026-05-02T12:24:29Z</time></trkpt><trkpt lat="45.666156894508795" lon="3.7343100086888388"><ele>745.0</ele><time>2026-05-02T12:24:30Z</time></trkpt><trkpt lat="45.666232780393024" lon="3.7343773781486136"><ele>745.0</ele><time>2026-05-02T12:24:31Z</time></trkpt><trkpt lat="45.66630080898105" lon="3.7344384443092546"><ele>745.0</ele><time>2026-05-02T12:24:32Z</time></trkpt><trkpt lat="45.66636402330314" lon="3.7345005930248076"><ele>745.0</ele><time>2026-05-02T12:24:33Z</time></trkpt><trkpt lat="45.666432362581986" lon="3.7345977463668656"><ele>748.6</ele><time>2026-05-02T12:24:34Z</time></trkpt><trkpt lat="45.66653276397345" lon="3.734689230480831"><ele>752.2</ele><time>2026-05-02T12:24:35Z</time></trkpt><trkpt lat="45.66663756532572" lon="3.734790048348653"><ele>755.8</ele><time>2026-05-02T12:24:36Z</time></trkpt><trkpt lat="45.666721659054616" lon="3.7348524578545983"><ele>759.4</ele><time>2026-05-02T12:24:37Z</time></trkpt><trkpt lat="45.66682111834908" lon="3.7348917340561103"><ele>763.0</ele><time>2026-05-02T12:24:38Z</time></trkpt><trkpt lat="45.66691346078153" lon="3.7348951668270987"><ele>763.0</ele><time>2026-05-02T12:24:39Z</time></trkpt><trkpt lat="45.66700655001126" lon="3.734938919219748"><ele>763.0</ele><time>2026-05-02T12:24:40Z</time></trkpt><trkpt lat="45.667108575758704" lon="3.735014331903389"><ele>763.0</ele><time>2026-05-02T12:24:41Z</time></trkpt><trkpt lat="45.667201577653906" lon="3.73505123704212"><ele>763.0</ele><time>2026-05-02T12:24:42.001Z</time></trkpt><trkpt lat="45.667306295275445" lon="3.7350754426749404"><ele>763.0</ele><time>2026-05-02T12:24:43.001Z</time></trkpt><trkpt lat="45.66741004705798" lon="3.7350834329606797"><ele>763.0</ele><time>2026-05-02T12:24:44.001Z</time></trkpt><trkpt lat="45.66750561929182" lon="3.7350739859540583"><ele>763.0</ele><time>2026-05-02T12:24:45.001Z</time></trkpt><trkpt lat="45.6675986887254" lon="3.7350585544867245"><ele>763.0</ele><time>2026-05-02T12:24:46.001Z</time></trkpt><trkpt lat="45.66766922192097" lon="3.7350115731887272"><ele>763.0</ele><time>2026-05-02T12:24:47.001Z</time></trkpt><trkpt lat="45.667732345129934" lon="3.7349619589496785"><ele>763.0</ele><time>2026-05-02T12:24:48.001Z</time></trkpt><trkpt lat="45.66779391053873" lon="3.7349037855595157"><ele>763.0</ele><time>2026-05-02T12:24:49.001Z</time></trkpt><trkpt lat="45.667838503646465" lon="3.734834933738736"><ele>765.4</ele><time>2026-05-02T12:24:50.001Z</time></trkpt><trkpt lat="45.6679045636164" lon="3.7348785257187855"><ele>767.8</ele><time>2026-05-02T12:24:53.001Z</time></trkpt><trkpt lat="45.66787845690509" lon="3.7350261165569294"><ele>770.2</ele><time>2026-05-02T12:24:55.001Z</time></trkpt><trkpt lat="45.667844072850684" lon="3.735141448264931"><ele>772.6</ele><time>2026-05-02T12:24:56.001Z</time></trkpt><trkpt lat="45.667801496660054" lon="3.7352708985551146"><ele>775.0</ele><time>2026-05-02T12:24:57.001Z</time></trkpt><trkpt lat="45.66774403800906" lon="3.7353989613191123"><ele>775.0</ele><time>2026-05-02T12:24:58.001Z</time></trkpt><trkpt lat="45.66766647050836" lon="3.7355348083104047"><ele>775.0</ele><time>2026-05-02T12:24:59.001Z</time></trkpt><trkpt lat="45.667578732317274" lon="3.7356629155399075"><ele>775.0</ele><time>2026-05-02T12:25:00.001Z</time></trkpt><trkpt lat="45.667478418430086" lon="3.7357892187396575"><ele>775.0</ele><time>2026-05-02T12:25:01.001Z</time></trkpt><trkpt lat="45.66736366591976" lon="3.735898119079659"><ele>775.0</ele><time>2026-05-02T12:25:02.001Z</time></trkpt><trkpt lat="45.66725312527277" lon="3.7359781934865035"><ele>775.0</ele><time>2026-05-02T12:25:03.001Z</time></trkpt><trkpt lat="45.66716199252214" lon="3.7360515049337812"><ele>775.0</ele><time>2026-05-02T12:25:04.001Z</time></trkpt><trkpt lat="45.667095657374006" lon="3.7361388068233325"><ele>775.0</ele><time>2026-05-02T12:25:05.001Z</time></trkpt><trkpt lat="45.66705958199651" lon="3.736234972038777"><ele>775.0</ele><time>2026-05-02T12:25:06.001Z</time></trkpt><trkpt lat="45.66704711610325" lon="3.7363337236444507"><ele>777.0</ele><time>2026-05-02T12:25:07.001Z</time></trkpt><trkpt lat="45.66704207998931" lon="3.736459614991926"><ele>779.0</ele><time>2026-05-02T12:25:08.001Z</time></trkpt><trkpt lat="45.66703400609096" lon="3.7365970985942365"><ele>781.0</ele><time>2026-05-02T12:25:09.001Z</time></trkpt><trkpt lat="45.66703558188221" lon="3.736742199146167"><ele>783.0</ele><time>2026-05-02T12:25:10.001Z</time></trkpt><trkpt lat="45.667046026305115" lon="3.7368973872168674"><ele>785.0</ele><time>2026-05-02T12:25:11.001Z</time></trkpt><trkpt lat="45.6670584033735" lon="3.73706204445156"><ele>786.75</ele><time>2026-05-02T12:25:12.001Z</time></trkpt><trkpt lat="45.66704480490634" lon="3.7372273483973526"><ele>788.5</ele><time>2026-05-02T12:25:13.001Z</time></trkpt><trkpt lat="45.66700736230163" lon="3.7374189967905864"><ele>790.25</ele><time>2026-05-02T12:25:14.001Z</time></trkpt><trkpt lat="45.66695032152874" lon="3.7376194831569256"><ele>792.0</ele><time>2026-05-02T12:25:15.001Z</time></trkpt><trkpt lat="45.6668905452456" lon="3.737823674343539"><ele>786.25</ele><time>2026-05-02T12:25:16.001Z</time></trkpt><trkpt lat="45.66682837590938" lon="3.7380215744807117"><ele>780.5</ele><time>2026-05-02T12:25:17.001Z</time></trkpt><trkpt lat="45.66678382259993" lon="3.738190953823766"><ele>774.75</ele><time>2026-05-02T12:25:18.001Z</time></trkpt><trkpt lat="45.66673763586078" lon="3.73834914045908"><ele>769.0</ele><time>2026-05-02T12:25:19.001Z</time></trkpt><trkpt lat="45.6666822866102" lon="3.7384623814329228"><ele>769.25</ele><time>2026-05-02T12:25:20.001Z</time></trkpt><trkpt lat="45.66663290081497" lon="3.7386044807425645"><ele>769.5</ele><time>2026-05-02T12:25:21.001Z</time></trkpt><trkpt lat="45.666576820098186" lon="3.7387658428319415"><ele>769.75</ele><time>2026-05-02T12:25:22.001Z</time></trkpt><trkpt lat="45.666509331679194" lon="3.738960028503481"><ele>770.0</ele><time>2026-05-02T12:25:23.001Z</time></trkpt><trkpt lat="45.66652362298826" lon="3.7392208318408287"><ele>769.3333333333334</ele><time>2026-05-02T12:25:24.001Z</time></trkpt><trkpt lat="45.66651541958541" lon="3.7394669636121773"><ele>768.6666666666667</ele><time>2026-05-02T12:25:25.001Z</time></trkpt><trkpt lat="45.66656313513113" lon="3.739713149706963"><ele>768.0</ele><time>2026-05-02T12:25:26.001Z</time></trkpt><trkpt lat="45.666612615071934" lon="3.7399025394831398"><ele>768.0</ele><time>2026-05-02T12:25:27.001Z</time></trkpt><trkpt lat="45.666642544909514" lon="3.740080092412726"><ele>768.0</ele><time>2026-05-02T12:25:28.001Z</time></trkpt><trkpt lat="45.66667734778404" lon="3.740219268854349"><ele>768.0</ele><time>2026-05-02T12:25:29.001Z</time></trkpt><trkpt lat="45.66672182971871" lon="3.7403548564423654"><ele>768.0</ele><time>2026-05-02T12:25:30Z</time></trkpt><trkpt lat="45.666798385143224" lon="3.740484138239626"><ele>768.25</ele><time>2026-05-02T12:25:31Z</time></trkpt><trkpt lat="45.666873315661626" lon="3.7406155252553965"><ele>768.5</ele><time>2026-05-02T12:25:32Z</time></trkpt><trkpt lat="45.666942738827856" lon="3.7407682881730917"><ele>768.75</ele><time>2026-05-02T12:25:33Z</time></trkpt><trkpt lat="45.66698614276183" lon="3.7409248056866113"><ele>769.0</ele><time>2026-05-02T12:25:34Z</time></trkpt><trkpt lat="45.66698468910663" lon="3.7410518518842624"><ele>769.8000000000001</ele><time>2026-05-02T12:25:35Z</time></trkpt><trkpt lat="45.66697007191316" lon="3.7411956776058495"><ele>770.6</ele><time>2026-05-02T12:25:36Z</time></trkpt><trkpt lat="45.66694598267207" lon="3.7413402270823153"><ele>771.4</ele><time>2026-05-02T12:25:37Z</time></trkpt><trkpt lat="45.666915992859515" lon="3.7414800905616614"><ele>772.2</ele><time>2026-05-02T12:25:38Z</time></trkpt><trkpt lat="45.666876852753724" lon="3.7415901973440815"><ele>773.0</ele><time>2026-05-02T12:25:39Z</time></trkpt><trkpt lat="45.66681946800669" lon="3.741648752514767"><ele>773.0000000000001</ele><time>2026-05-02T12:25:40Z</time></trkpt><trkpt lat="45.666750466753015" lon="3.741672924691326"><ele>773.0</ele><time>2026-05-02T12:25:41Z</time></trkpt><trkpt lat="45.66667613761348" lon="3.741660226587689"><ele>773.0</ele><time>2026-05-02T12:25:42Z</time></trkpt><trkpt lat="45.66657655844505" lon="3.7416326666463835"><ele>773.0</ele><time>2026-05-02T12:25:43Z</time></trkpt><trkpt lat="45.66647759578289" lon="3.741643484456387"><ele>773.0000000000001</ele><time>2026-05-02T12:25:44Z</time></trkpt><trkpt lat="45.66639052467855" lon="3.741635285780166"><ele>773.0</ele><time>2026-05-02T12:25:45Z</time></trkpt><trkpt lat="45.666314671933534" lon="3.7415748335159624"><ele>773.0000000000001</ele><time>2026-05-02T12:25:46Z</time></trkpt><trkpt lat="45.66626435120138" lon="3.7414789034201243"><ele>773.0</ele><time>2026-05-02T12:25:47Z</time></trkpt><trkpt lat="45.66620318824208" lon="3.7413993107222154"><ele>773.0</ele><time>2026-05-02T12:25:48Z</time></trkpt><trkpt lat="45.66612891180176" lon="3.741360149146155"><ele>773.0</ele><time>2026-05-02T12:25:50Z</time></trkpt><trkpt lat="45.66606990866873" lon="3.7414566344949147"><ele>773.0000000000001</ele><time>2026-05-02T12:25:52Z</time></trkpt><trkpt lat="45.66602671941413" lon="3.7415547428145297"><ele>773.0</ele><time>2026-05-02T12:25:53Z</time></trkpt><trkpt lat="45.666003337775734" lon="3.741680019944976"><ele>773.5999999999999</ele><time>2026-05-02T12:25:54Z</time></trkpt><trkpt lat="45.666000036022965" lon="3.741841415238991"><ele>774.1999999999999</ele><time>2026-05-02T12:25:55Z</time></trkpt><trkpt lat="45.666014470899896" lon="3.7419948526075557"><ele>774.8</ele><time>2026-05-02T12:25:56Z</time></trkpt><trkpt lat="45.66607019427855" lon="3.742099898484942"><ele>775.4</ele><time>2026-05-02T12:25:57Z</time></trkpt><trkpt lat="45.66612506141106" lon="3.742205455474509"><ele>776.0</ele><time>2026-05-02T12:25:58Z</time></trkpt><trkpt lat="45.66615658130693" lon="3.7422931976411515"><ele>777.1428571428571</ele><time>2026-05-02T12:25:59Z</time></trkpt><trkpt lat="45.66616875398422" lon="3.7423937878022255"><ele>778.2857142857143</ele><time>2026-05-02T12:26:00Z</time></trkpt><trkpt lat="45.66618179497274" lon="3.742485088016962"><ele>779.4285714285714</ele><time>2026-05-02T12:26:01Z</time></trkpt><trkpt lat="45.66618707974351" lon="3.742594724070753"><ele>780.5714285714286</ele><time>2026-05-02T12:26:02Z</time></trkpt><trkpt lat="45.66623142488894" lon="3.7426864774488453"><ele>781.7142857142858</ele><time>2026-05-02T12:26:04Z</time></trkpt><trkpt lat="45.66629001711593" lon="3.7427385150866863"><ele>782.8571428571429</ele><time>2026-05-02T12:26:06Z</time></trkpt><trkpt lat="45.666305456101604" lon="3.7428576317988655"><ele>784.0</ele><time>2026-05-02T12:26:08Z</time></trkpt><trkpt lat="45.66625433462381" lon="3.7429202809968003"><ele>785.2</ele><time>2026-05-02T12:26:10Z</time></trkpt><trkpt lat="45.6661815413797" lon="3.7431005361418954"><ele>786.4000000000001</ele><time>2026-05-02T12:26:12Z</time></trkpt><trkpt lat="45.666161231403244" lon="3.7432397404883515"><ele>787.6</ele><time>2026-05-02T12:26:13Z</time></trkpt><trkpt lat="45.66615420741657" lon="3.743398654136136"><ele>788.8</ele><time>2026-05-02T12:26:14Z</time></trkpt><trkpt lat="45.666144036945994" lon="3.7435241783381086"><ele>790.0</ele><time>2026-05-02T12:26:15Z</time></trkpt><trkpt lat="45.66613644730939" lon="3.743661575966011"><ele>796.0</ele><time>2026-05-02T12:26:17Z</time></trkpt><trkpt lat="45.66608122796271" lon="3.7437988240284596"><ele>802.0</ele><time>2026-05-02T12:26:19Z</time></trkpt><trkpt lat="45.66607807380543" lon="3.7439839384306444"><ele>808.0</ele><time>2026-05-02T12:26:21Z</time></trkpt><trkpt lat="45.66607676073195" lon="3.7441168348701797"><ele>814.0</ele><time>2026-05-02T12:26:23Z</time></trkpt><trkpt lat="45.66603522016355" lon="3.744187947255678"><ele>820.0</ele><time>2026-05-02T12:26:25Z</time></trkpt><trkpt lat="45.66602733777859" lon="3.7442773265377416"><ele>820.9999999999999</ele><time>2026-05-02T12:26:37Z</time></trkpt><trkpt lat="45.66603803421472" lon="3.7444043164181204"><ele>822.0</ele><time>2026-05-02T12:26:41Z</time></trkpt><trkpt lat="45.66602465082691" lon="3.7445365005525195"><ele>823.0</ele><time>2026-05-02T12:26:43Z</time></trkpt><trkpt lat="45.66600662614563" lon="3.7446269515173047"><ele>824.0</ele><time>2026-05-02T12:26:44Z</time></trkpt><trkpt lat="45.66599814372302" lon="3.744737032495904"><ele>824.9999999999999</ele><time>2026-05-02T12:26:45Z</time></trkpt><trkpt lat="45.66602313560097" lon="3.744903230129235"><ele>826.0</ele><time>2026-05-02T12:26:47Z</time></trkpt><trkpt lat="45.665939637352" lon="3.7450342483787087"><ele>825.9999999999999</ele><time>2026-05-02T12:26:49Z</time></trkpt><trkpt lat="45.66586778621477" lon="3.7451744529158653"><ele>826.0</ele><time>2026-05-02T12:26:51Z</time></trkpt><trkpt lat="45.665845380453035" lon="3.7452747066107452"><ele>826.0</ele><time>2026-05-02T12:26:54Z</time></trkpt><trkpt lat="45.665793673238326" lon="3.745398178729649"><ele>826.0</ele><time>2026-05-02T12:26:57.001Z</time></trkpt><trkpt lat="45.66576644664667" lon="3.7454815713158127"><ele>825.9999999999999</ele><time>2026-05-02T12:26:59.001Z</time></trkpt><trkpt lat="45.665687079094496" lon="3.7455270298915995"><ele>826.0</ele><time>2026-05-02T12:27:01.001Z</time></trkpt><trkpt lat="45.66552941283595" lon="3.7456614467083216"><ele>827.0</ele><time>2026-05-02T12:27:02.001Z</time></trkpt><trkpt lat="45.665418930900614" lon="3.7457224447901107"><ele>828.0</ele><time>2026-05-02T12:27:04.001Z</time></trkpt><trkpt lat="45.665373511591426" lon="3.7458023051026035"><ele>829.0</ele><time>2026-05-02T12:27:34.001Z</time></trkpt><trkpt lat="45.66530164525749" lon="3.7458660863399635"><ele>830.0</ele><time>2026-05-02T12:27:35.001Z</time></trkpt><trkpt lat="45.66521427431197" lon="3.745917604392211"><ele>831.0</ele><time>2026-05-02T12:27:36Z</time></trkpt><trkpt lat="45.66508764310602" lon="3.7458357955516326"><ele>834.0</ele><time>2026-05-02T12:27:37Z</time></trkpt><trkpt lat="45.664979295038414" lon="3.7458468864518646"><ele>837.0</ele><time>2026-05-02T12:27:38Z</time></trkpt><trkpt lat="45.66486223506186" lon="3.746161204769624"><ele>840.0</ele><time>2026-05-02T12:27:39Z</time></trkpt><trkpt lat="45.664740978167025" lon="3.74621636533131"><ele>843.0</ele><time>2026-05-02T12:27:40Z</time></trkpt><trkpt lat="45.66466821402676" lon="3.7462679495882667"><ele>846.0</ele><time>2026-05-02T12:27:41Z</time></trkpt><trkpt lat="45.66459477575547" lon="3.7463320561690057"><ele>849.0</ele><time>2026-05-02T12:27:43Z</time></trkpt><trkpt lat="45.66456966850684" lon="3.7464352143758903"><ele>852.0</ele><time>2026-05-02T12:27:45Z</time></trkpt><trkpt lat="45.66464493150626" lon="3.7465247976085765"><ele>855.0</ele><time>2026-05-02T12:27:47Z</time></trkpt><trkpt lat="45.664632279263515" lon="3.7466659713050574"><ele>858.0</ele><time>2026-05-02T12:27:49Z</time></trkpt><trkpt lat="45.66471383639739" lon="3.746690493592954"><ele>858.0</ele><time>2026-05-02T12:27:50Z</time></trkpt><trkpt lat="45.66484676537999" lon="3.7467315544840143"><ele>858.0</ele><time>2026-05-02T12:27:52Z</time></trkpt><trkpt lat="45.66492515898474" lon="3.7467665352599444"><ele>858.0</ele><time>2026-05-02T12:27:54Z</time></trkpt><trkpt lat="45.66499628779015" lon="3.7468380068277445"><ele>858.0</ele><time>2026-05-02T12:27:56Z</time></trkpt><trkpt lat="45.665087123564426" lon="3.746903006891483"><ele>858.0</ele><time>2026-05-02T12:27:58Z</time></trkpt><trkpt lat="45.665177911388994" lon="3.746996477722304"><ele>861.2</ele><time>2026-05-02T12:28:01Z</time></trkpt><trkpt lat="45.66525459450685" lon="3.747084766187747"><ele>864.4</ele><time>2026-05-02T12:28:03Z</time></trkpt><trkpt lat="45.665326393679415" lon="3.7471827685345023"><ele>867.6000000000001</ele><time>2026-05-02T12:28:05Z</time></trkpt><trkpt lat="45.66537463960088" lon="3.7473040353561085"><ele>870.8000000000001</ele><time>2026-05-02T12:28:07Z</time></trkpt><trkpt lat="45.6654313788429" lon="3.7474413095199317"><ele>874.0</ele><time>2026-05-02T12:28:09Z</time></trkpt><trkpt lat="45.665544239498466" lon="3.7475597686234954"><ele>873.9999999999999</ele><time>2026-05-02T12:28:11Z</time></trkpt><trkpt lat="45.66558951477433" lon="3.747638659210369"><ele>874.0</ele><time>2026-05-02T12:28:12Z</time></trkpt><trkpt lat="45.66563848166338" lon="3.7477030936448292"><ele>874.0</ele><time>2026-05-02T12:28:13Z</time></trkpt><trkpt lat="45.66572352850832" lon="3.747821425415629"><ele>874.0</ele><time>2026-05-02T12:28:15Z</time></trkpt><trkpt lat="45.66580119181063" lon="3.747861714167974"><ele>873.9999999999999</ele><time>2026-05-02T12:28:16Z</time></trkpt><trkpt lat="45.66585768465653" lon="3.7479293036671217"><ele>874.0</ele><time>2026-05-02T12:28:17Z</time></trkpt><trkpt lat="45.66595432399368" lon="3.7480201438734992"><ele>875.8000000000001</ele><time>2026-05-02T12:28:18Z</time></trkpt><trkpt lat="45.66602590066299" lon="3.748130272266194"><ele>877.6000000000001</ele><time>2026-05-02T12:28:19Z</time></trkpt><trkpt lat="45.66610420534705" lon="3.7481684575832768"><ele>879.4</ele><time>2026-05-02T12:28:20Z</time></trkpt><trkpt lat="45.66617822175336" lon="3.7482340921423907"><ele>881.2</ele><time>2026-05-02T12:28:21Z</time></trkpt><trkpt lat="45.66625209825868" lon="3.7483144666809536"><ele>883.0</ele><time>2026-05-02T12:28:22Z</time></trkpt><trkpt lat="45.66633009435399" lon="3.748369420546565"><ele>882.9999999999999</ele><time>2026-05-02T12:28:23Z</time></trkpt><trkpt lat="45.66638910086521" lon="3.748436031712425"><ele>883.0</ele><time>2026-05-02T12:28:24Z</time></trkpt><trkpt lat="45.66645037899391" lon="3.7484878316874983"><ele>883.0</ele><time>2026-05-02T12:28:25Z</time></trkpt><trkpt lat="45.6665034766878" lon="3.748541734886935"><ele>883.0</ele><time>2026-05-02T12:28:26Z</time></trkpt><trkpt lat="45.66655869695874" lon="3.748596533583533"><ele>882.9999999999999</ele><time>2026-05-02T12:28:27Z</time></trkpt><trkpt lat="45.66662987158387" lon="3.7487057849092533"><ele>883.0</ele><time>2026-05-02T12:28:29Z</time></trkpt><trkpt lat="45.66671654567102" lon="3.748740484375406"><ele>884.8333333333333</ele><time>2026-05-02T12:28:31Z</time></trkpt><trkpt lat="45.666778316776906" lon="3.7487769299071476"><ele>886.6666666666666</ele><time>2026-05-02T12:28:32Z</time></trkpt><trkpt lat="45.666862133709145" lon="3.748884226376155"><ele>888.5</ele><time>2026-05-02T12:28:34Z</time></trkpt><trkpt lat="45.66689481592089" lon="3.748970101434369"><ele>890.3333333333333</ele><time>2026-05-02T12:28:36Z</time></trkpt><trkpt lat="45.66695345239949" lon="3.74907346041437"><ele>892.1666666666666</ele><time>2026-05-02T12:28:38Z</time></trkpt><trkpt lat="45.66704098166625" lon="3.7491072595597386"><ele>894.0</ele><time>2026-05-02T12:28:40Z</time></trkpt><trkpt lat="45.66711362793151" lon="3.749227902501524"><ele>894.0</ele><time>2026-05-02T12:28:42Z</time></trkpt><trkpt lat="45.667155814302355" lon="3.7493428330632295"><ele>894.0000000000001</ele><time>2026-05-02T12:28:44Z</time></trkpt><trkpt lat="45.667193401548914" lon="3.749458678820449"><ele>894.0000000000001</ele><time>2026-05-02T12:28:47Z</time></trkpt><trkpt lat="45.667237312776344" lon="3.7496008399486866"><ele>894.0</ele><time>2026-05-02T12:28:49Z</time></trkpt><trkpt lat="45.667259769809164" lon="3.7497009854937953"><ele>894.0</ele><time>2026-05-02T12:28:51Z</time></trkpt><trkpt lat="45.66731379791897" lon="3.7498626091316924"><ele>897.4000000000001</ele><time>2026-05-02T12:28:53Z</time></trkpt><trkpt lat="45.66731327679729" lon="3.750063479124926"><ele>900.8000000000001</ele><time>2026-05-02T12:28:55Z</time></trkpt><trkpt lat="45.66729689356376" lon="3.7501810100271795"><ele>904.1999999999999</ele><time>2026-05-02T12:28:56Z</time></trkpt><trkpt lat="45.667271355690424" lon="3.750266565142534"><ele>907.5999999999999</ele><time>2026-05-02T12:28:57Z</time></trkpt><trkpt lat="45.66723386176745" lon="3.7503767793930796"><ele>911.0</ele><time>2026-05-02T12:28:58Z</time></trkpt><trkpt lat="45.6671970812285" lon="3.7504862804297927"><ele>912.1428571428571</ele><time>2026-05-02T12:28:59Z</time></trkpt><trkpt lat="45.667180449924075" lon="3.750592678913777"><ele>913.2857142857142</ele><time>2026-05-02T12:29:00Z</time></trkpt><trkpt lat="45.66717905174687" lon="3.7506838356829584"><ele>914.4285714285713</ele><time>2026-05-02T12:29:01Z</time></trkpt><trkpt lat="45.6671670247058" lon="3.750778186336525"><ele>915.5714285714286</ele><time>2026-05-02T12:29:02Z</time></trkpt><trkpt lat="45.667167607052825" lon="3.7508821939533203"><ele>916.7142857142856</ele><time>2026-05-02T12:29:03Z</time></trkpt><trkpt lat="45.66717394288937" lon="3.7509925903334986"><ele>917.8571428571428</ele><time>2026-05-02T12:29:04Z</time></trkpt><trkpt lat="45.66715418314245" lon="3.7511022512341428"><ele>919.0</ele><time>2026-05-02T12:29:05Z</time></trkpt><trkpt lat="45.66713084318223" lon="3.751204304238446"><ele>919.0</ele><time>2026-05-02T12:29:06Z</time></trkpt><trkpt lat="45.66711611413208" lon="3.7512984031478913"><ele>919.0000000000001</ele><time>2026-05-02T12:29:07Z</time></trkpt><trkpt lat="45.66710168292937" lon="3.75149350843953"><ele>919.0000000000001</ele><time>2026-05-02T12:29:09Z</time></trkpt><trkpt lat="45.667068470557865" lon="3.751646374521734"><ele>919.0</ele><time>2026-05-02T12:29:10Z</time></trkpt><trkpt lat="45.66703514344823" lon="3.751820999607479"><ele>919.0</ele><time>2026-05-02T12:29:11Z</time></trkpt><trkpt lat="45.66699030401236" lon="3.751958975199576"><ele>917.1666666666666</ele><time>2026-05-02T12:29:12Z</time></trkpt><trkpt lat="45.666970072626405" lon="3.752094104249566"><ele>915.3333333333333</ele><time>2026-05-02T12:29:13Z</time></trkpt><trkpt lat="45.66694716294178" lon="3.752180251961474"><ele>913.5</ele><time>2026-05-02T12:29:14Z</time></trkpt><trkpt lat="45.66691141778615" lon="3.752283740406198"><ele>911.6666666666667</ele><time>2026-05-02T12:29:16Z</time></trkpt><trkpt lat="45.66687384437092" lon="3.7523610315916796"><ele>909.8333333333334</ele><time>2026-05-02T12:29:18Z</time></trkpt><trkpt lat="45.666803840807816" lon="3.75247584607016"><ele>908.0</ele><time>2026-05-02T12:29:20Z</time></trkpt><trkpt lat="45.66673799442694" lon="3.7525958970503797"><ele>911.3333333333334</ele><time>2026-05-02T12:29:22Z</time></trkpt><trkpt lat="45.66667032924749" lon="3.7527462413778667"><ele>914.6666666666667</ele><time>2026-05-02T12:29:24Z</time></trkpt><trkpt lat="45.66661314522157" lon="3.752797437324037"><ele>918.0</ele><time>2026-05-02T12:29:25Z</time></trkpt><trkpt lat="45.66655653557128" lon="3.7528463003138954"><ele>921.3333333333333</ele><time>2026-05-02T12:29:26.001Z</time></trkpt><trkpt lat="45.66648409565012" lon="3.752888620054262"><ele>924.6666666666666</ele><time>2026-05-02T12:29:27.001Z</time></trkpt><trkpt lat="45.6663856494136" lon="3.7529434047699977"><ele>928.0</ele><time>2026-05-02T12:29:28.001Z</time></trkpt><trkpt lat="45.66633580497667" lon="3.753010217937402"><ele>927.9999999999999</ele><time>2026-05-02T12:29:29.001Z</time></trkpt><trkpt lat="45.66628200382768" lon="3.753059447523337"><ele>928.0</ele><time>2026-05-02T12:29:30.001Z</time></trkpt><trkpt lat="45.66623761362717" lon="3.7532544249265127"><ele>928.0</ele><time>2026-05-02T12:29:32.001Z</time></trkpt><trkpt lat="45.66622556460262" lon="3.7533688601366664"><ele>928.0</ele><time>2026-05-02T12:29:33.001Z</time></trkpt><trkpt lat="45.666230680319785" lon="3.7534708777734367"><ele>927.9999999999999</ele><time>2026-05-02T12:29:34.001Z</time></trkpt><trkpt lat="45.66622660588324" lon="3.7535788508748427"><ele>928.0</ele><time>2026-05-02T12:29:35.001Z</time></trkpt><trkpt lat="45.6662312357296" lon="3.7536861827344654"><ele>925.9999999999999</ele><time>2026-05-02T12:29:36.001Z</time></trkpt><trkpt lat="45.66624026068482" lon="3.7537833283694"><ele>924.0</ele><time>2026-05-02T12:29:37.001Z</time></trkpt><trkpt lat="45.666238965571885" lon="3.7539360457726474"><ele>922.0</ele><time>2026-05-02T12:29:39.001Z</time></trkpt><trkpt lat="45.6662200285904" lon="3.7540650718324766"><ele>920.0</ele><time>2026-05-02T12:29:41.001Z</time></trkpt><trkpt lat="45.66622193232196" lon="3.754160816281239"><ele>917.9999999999999</ele><time>2026-05-02T12:29:42Z</time></trkpt><trkpt lat="45.66620156242335" lon="3.7542677764523114"><ele>916.0</ele><time>2026-05-02T12:29:43Z</time></trkpt><trkpt lat="45.66618325447714" lon="3.754368509127302"><ele>917.4999999999999</ele><time>2026-05-02T12:29:44Z</time></trkpt><trkpt lat="45.66615722246201" lon="3.7544723674480105"><ele>919.0</ele><time>2026-05-02T12:29:45Z</time></trkpt><trkpt lat="45.666096205762464" lon="3.7545831057121872"><ele>920.5</ele><time>2026-05-02T12:29:46Z</time></trkpt><trkpt lat="45.66605843573337" lon="3.7546847322741095"><ele>922.0</ele><time>2026-05-02T12:29:47Z</time></trkpt><trkpt lat="45.66602783192671" lon="3.7548223639973957"><ele>923.4999999999999</ele><time>2026-05-02T12:29:48Z</time></trkpt><trkpt lat="45.66603358105489" lon="3.7549182254441185"><ele>925.0</ele><time>2026-05-02T12:29:49Z</time></trkpt><trkpt lat="45.66603891793971" lon="3.7550187908671377"><ele>924.9999999999999</ele><time>2026-05-02T12:29:50Z</time></trkpt><trkpt lat="45.66603268013512" lon="3.755131415239372"><ele>925.0</ele><time>2026-05-02T12:29:51Z</time></trkpt><trkpt lat="45.66601714793434" lon="3.7552414646830843"><ele>925.0</ele><time>2026-05-02T12:29:52Z</time></trkpt><trkpt lat="45.66600782818024" lon="3.75533536921163"><ele>925.0</ele><time>2026-05-02T12:29:53Z</time></trkpt><trkpt lat="45.66597385237864" lon="3.7554565478030573"><ele>924.9999999999999</ele><time>2026-05-02T12:29:55Z</time></trkpt><trkpt lat="45.66598451132874" lon="3.755562508634698"><ele>925.0</ele><time>2026-05-02T12:29:57Z</time></trkpt><trkpt lat="45.66607425043635" lon="3.7556889474498423"><ele>925.0</ele><time>2026-05-02T12:29:59Z</time></trkpt><trkpt lat="45.66611018470762" lon="3.7557781687039644"><ele>925.0</ele><time>2026-05-02T12:30:00Z</time></trkpt><trkpt lat="45.6661445527419" lon="3.755857680953622"><ele>925.0</ele><time>2026-05-02T12:30:01Z</time></trkpt><trkpt lat="45.66622728769095" lon="3.755975069642046"><ele>925.0</ele><time>2026-05-02T12:30:02Z</time></trkpt><trkpt lat="45.66628713412327" lon="3.7561305698743133"><ele>925.0</ele><time>2026-05-02T12:30:03Z</time></trkpt><trkpt lat="45.666320150777715" lon="3.7562461818826907"><ele>919.1666666666666</ele><time>2026-05-02T12:30:04Z</time></trkpt><trkpt lat="45.666323546236654" lon="3.756350172824894"><ele>913.3333333333333</ele><time>2026-05-02T12:30:05Z</time></trkpt><trkpt lat="45.66631704459351" lon="3.756463542338124"><ele>907.5</ele><time>2026-05-02T12:30:06Z</time></trkpt><trkpt lat="45.66629799685972" lon="3.7565789998951753"><ele>901.6666666666667</ele><time>2026-05-02T12:30:07Z</time></trkpt><trkpt lat="45.6662811529391" lon="3.756725684883104"><ele>895.8333333333334</ele><time>2026-05-02T12:30:08Z</time></trkpt><trkpt lat="45.66624677881728" lon="3.7568719981518965"><ele>890.0</ele><time>2026-05-02T12:30:09Z</time></trkpt><trkpt lat="45.6662120214587" lon="3.7570501938121392"><ele>889.6</ele><time>2026-05-02T12:30:10Z</time></trkpt><trkpt lat="45.66619469423709" lon="3.757203996479806"><ele>889.2</ele><time>2026-05-02T12:30:11Z</time></trkpt><trkpt lat="45.66618740070136" lon="3.7573307684011965"><ele>888.8</ele><time>2026-05-02T12:30:12Z</time></trkpt><trkpt lat="45.66620039120826" lon="3.7574447738049366"><ele>888.4</ele><time>2026-05-02T12:30:13Z</time></trkpt><trkpt lat="45.666216969257505" lon="3.757554023846825"><ele>888.0</ele><time>2026-05-02T12:30:14Z</time></trkpt><trkpt lat="45.666253379612364" lon="3.7576993254555737"><ele>889.25</ele><time>2026-05-02T12:30:15Z</time></trkpt><trkpt lat="45.66628258073078" lon="3.757825145043104"><ele>890.5</ele><time>2026-05-02T12:30:16Z</time></trkpt><trkpt lat="45.66631026887058" lon="3.7579432490541897"><ele>891.75</ele><time>2026-05-02T12:30:17Z</time></trkpt><trkpt lat="45.66647657402598" lon="3.7580017410637128"><ele>893.0</ele><time>2026-05-02T12:30:19Z</time></trkpt><trkpt lat="45.666509326086164" lon="3.7581447882418955"><ele>893.0000000000001</ele><time>2026-05-02T12:30:21Z</time></trkpt><trkpt lat="45.66656253553938" lon="3.758196264259039"><ele>893.0</ele><time>2026-05-02T12:30:22Z</time></trkpt><trkpt lat="45.666616523718616" lon="3.758266991429652"><ele>893.0</ele><time>2026-05-02T12:30:23Z</time></trkpt><trkpt lat="45.66669109506923" lon="3.7583439157492142"><ele>893.0</ele><time>2026-05-02T12:30:24Z</time></trkpt><trkpt lat="45.666774064661496" lon="3.7583992949788443"><ele>893.0000000000001</ele><time>2026-05-02T12:30:25Z</time></trkpt><trkpt lat="45.66685027522468" lon="3.758473737377464"><ele>893.0</ele><time>2026-05-02T12:30:26Z</time></trkpt><trkpt lat="45.66693002961462" lon="3.758558919282708"><ele>893.25</ele><time>2026-05-02T12:30:27Z</time></trkpt><trkpt lat="45.66700649999711" lon="3.7586670759826912"><ele>893.5</ele><time>2026-05-02T12:30:28Z</time></trkpt><trkpt lat="45.66709578123299" lon="3.7587899362133905"><ele>893.75</ele><time>2026-05-02T12:30:29Z</time></trkpt><trkpt lat="45.66716606437536" lon="3.758938598582261"><ele>894.0</ele><time>2026-05-02T12:30:30Z</time></trkpt><trkpt lat="45.66725715824307" lon="3.7590933715843575"><ele>894.0</ele><time>2026-05-02T12:30:31Z</time></trkpt><trkpt lat="45.667348922806475" lon="3.759227691544504"><ele>894.0000000000001</ele><time>2026-05-02T12:30:32Z</time></trkpt><trkpt lat="45.66742058858613" lon="3.7593417890622565"><ele>894.0000000000001</ele><time>2026-05-02T12:30:33Z</time></trkpt><trkpt lat="45.66749072317534" lon="3.7594324422045196"><ele>894.0</ele><time>2026-05-02T12:30:34Z</time></trkpt><trkpt lat="45.66756792092195" lon="3.7595145659584643"><ele>894.0</ele><time>2026-05-02T12:30:35Z</time></trkpt><trkpt lat="45.667651495414034" lon="3.759525956182496"><ele>895.6</ele><time>2026-05-02T12:30:36Z</time></trkpt><trkpt lat="45.667718887290484" lon="3.75953110960256"><ele>897.2</ele><time>2026-05-02T12:30:37Z</time></trkpt><trkpt lat="45.66778733026757" lon="3.75955187440068"><ele>898.8000000000001</ele><time>2026-05-02T12:30:38Z</time></trkpt><trkpt lat="45.667852650750945" lon="3.759571691803875"><ele>900.4000000000001</ele><time>2026-05-02T12:30:39Z</time></trkpt><trkpt lat="45.66787724898843" lon="3.7597943250776122"><ele>902.0</ele><time>2026-05-02T12:30:40Z</time></trkpt><trkpt lat="45.6679736290545" lon="3.759801998643363"><ele>902.5000000000001</ele><time>2026-05-02T12:30:42Z</time></trkpt><trkpt lat="45.6680438414965" lon="3.7597733093182466"><ele>903.0</ele><time>2026-05-02T12:30:44Z</time></trkpt><trkpt lat="45.668128423161214" lon="3.759771891175441"><ele>903.5</ele><time>2026-05-02T12:30:46Z</time></trkpt><trkpt lat="45.668189249613846" lon="3.7598361440312114"><ele>904.0</ele><time>2026-05-02T12:30:48Z</time></trkpt><trkpt lat="45.668272779554" lon="3.7599153073915312"><ele>904.5000000000001</ele><time>2026-05-02T12:30:50Z</time></trkpt><trkpt lat="45.668378081363095" lon="3.7599347378262755"><ele>905.0</ele><time>2026-05-02T12:30:52Z</time></trkpt><trkpt lat="45.66843737711603" lon="3.760009593060031"><ele>905.0000000000001</ele><time>2026-05-02T12:30:54Z</time></trkpt><trkpt lat="45.668492272266" lon="3.760096712310543"><ele>905.0</ele><time>2026-05-02T12:30:56Z</time></trkpt><trkpt lat="45.66858510580662" lon="3.7601769993705907"><ele>905.0</ele><time>2026-05-02T12:30:59Z</time></trkpt><trkpt lat="45.66864788862853" lon="3.7602663402556264"><ele>905.0</ele><time>2026-05-02T12:31:03Z</time></trkpt><trkpt lat="45.66870397356582" lon="3.760310187961704"><ele>905.0000000000001</ele><time>2026-05-02T12:31:05Z</time></trkpt><trkpt lat="45.66876562341405" lon="3.760373419190474"><ele>905.0</ele><time>2026-05-02T12:31:09Z</time></trkpt><trkpt lat="45.66882006779612" lon="3.7604212312025096"><ele>907.4285714285713</ele><time>2026-05-02T12:31:17Z</time></trkpt><trkpt lat="45.66888411252536" lon="3.7604739076156473"><ele>909.8571428571428</ele><time>2026-05-02T12:31:55Z</time></trkpt><trkpt lat="45.668917771706305" lon="3.7605658724478026"><ele>912.2857142857142</ele><time>2026-05-02T12:32:42Z</time></trkpt><trkpt lat="45.66897559825061" lon="3.760616548062856"><ele>914.7142857142858</ele><time>2026-05-02T12:32:51Z</time></trkpt><trkpt lat="45.66903084456169" lon="3.7606912632412337"><ele>917.1428571428572</ele><time>2026-05-02T12:33:25Z</time></trkpt><trkpt lat="45.669083087910245" lon="3.760767164835159"><ele>919.5714285714287</ele><time>2026-05-02T12:33:30Z</time></trkpt><trkpt lat="45.66913353501428" lon="3.7608429768998675"><ele>922.0</ele><time>2026-05-02T12:33:32Z</time></trkpt><trkpt lat="45.669189263732385" lon="3.7609212950199873"><ele>922.0</ele><time>2026-05-02T12:33:35Z</time></trkpt><trkpt lat="45.669249352396214" lon="3.7609980799656073"><ele>922.0000000000001</ele><time>2026-05-02T12:33:38Z</time></trkpt><trkpt lat="45.669269661242915" lon="3.7611001604806886"><ele>922.0</ele><time>2026-05-02T12:33:50.001Z</time></trkpt><trkpt lat="45.669307271931906" lon="3.7611817155118765"><ele>922.0</ele><time>2026-05-02T12:33:57Z</time></trkpt><trkpt lat="45.669359688262" lon="3.7612391504634584"><ele>922.0000000000001</ele><time>2026-05-02T12:34:47Z</time></trkpt><trkpt lat="45.66941950906054" lon="3.7612718381546024"><ele>922.0</ele><time>2026-05-02T12:34:56Z</time></trkpt><trkpt lat="45.669483169724806" lon="3.761328452434657"><ele>922.0</ele><time>2026-05-02T12:36:05Z</time></trkpt><trkpt lat="45.66955633906041" lon="3.761371799148737"><ele>924.1666666666666</ele><time>2026-05-02T12:36:08Z</time></trkpt><trkpt lat="45.66960966222323" lon="3.761439891118621"><ele>926.3333333333333</ele><time>2026-05-02T12:36:10Z</time></trkpt><trkpt lat="45.66966948398426" lon="3.7615313621690363"><ele>928.5</ele><time>2026-05-02T12:36:12Z</time></trkpt><trkpt lat="45.66974082364018" lon="3.7615876573116016"><ele>930.6666666666667</ele><time>2026-05-02T12:36:14Z</time></trkpt><trkpt lat="45.669808852386275" lon="3.7616164144144784"><ele>932.8333333333334</ele><time>2026-05-02T12:36:17Z</time></trkpt><trkpt lat="45.66989079034332" lon="3.7616251998523644"><ele>935.0</ele><time>2026-05-02T12:36:19Z</time></trkpt><trkpt lat="45.66997505233332" lon="3.761610113202508"><ele>935.0000000000001</ele><time>2026-05-02T12:36:22Z</time></trkpt><trkpt lat="45.67004076378474" lon="3.761621928627975"><ele>935.0</ele><time>2026-05-02T12:36:24Z</time></trkpt><trkpt lat="45.670137960322506" lon="3.7616348381996025"><ele>935.0</ele><time>2026-05-02T12:36:26Z</time></trkpt><trkpt lat="45.67022294232238" lon="3.7616698842727083"><ele>935.0</ele><time>2026-05-02T12:36:29Z</time></trkpt><trkpt lat="45.670290888414264" lon="3.7616583893259072"><ele>935.0000000000001</ele><time>2026-05-02T12:36:31Z</time></trkpt><trkpt lat="45.670380711294484" lon="3.761648475381533"><ele>935.0</ele><time>2026-05-02T12:36:34Z</time></trkpt><trkpt lat="45.67043630848491" lon="3.7616062170726807"><ele>939.5000000000001</ele><time>2026-05-02T12:36:36Z</time></trkpt><trkpt lat="45.670516274334844" lon="3.7616195781845145"><ele>944.0</ele><time>2026-05-02T12:36:40Z</time></trkpt><trkpt lat="45.670583601249994" lon="3.7616055636028864"><ele>948.5</ele><time>2026-05-02T12:36:44Z</time></trkpt><trkpt lat="45.67065965449585" lon="3.7615952745322723"><ele>953.0</ele><time>2026-05-02T12:36:46Z</time></trkpt><trkpt lat="45.67075672383037" lon="3.7616330993023737"><ele>957.5000000000001</ele><time>2026-05-02T12:37:47Z</time></trkpt><trkpt lat="45.67083138050523" lon="3.761550633886448"><ele>962.0</ele><time>2026-05-02T12:37:50Z</time></trkpt><trkpt lat="45.670925148437234" lon="3.7614478171948433"><ele>962.0</ele><time>2026-05-02T12:37:52Z</time></trkpt><trkpt lat="45.67102798298804" lon="3.76143487164972"><ele>962.0</ele><time>2026-05-02T12:37:54Z</time></trkpt><trkpt lat="45.67110776065966" lon="3.761418334845812"><ele>962.0</ele><time>2026-05-02T12:37:56Z</time></trkpt><trkpt lat="45.67118419237403" lon="3.7613654552457616"><ele>962.0</ele><time>2026-05-02T12:37:58Z</time></trkpt><trkpt lat="45.671264883975475" lon="3.7613557657534793"><ele>962.0</ele><time>2026-05-02T12:38:00Z</time></trkpt><trkpt lat="45.67136616279923" lon="3.7612727467499716"><ele>967.2</ele><time>2026-05-02T12:38:02Z</time></trkpt><trkpt lat="45.67147116782165" lon="3.761235130723184"><ele>972.4000000000001</ele><time>2026-05-02T12:38:04Z</time></trkpt><trkpt lat="45.671589528750694" lon="3.7612087849032405"><ele>977.5999999999999</ele><time>2026-05-02T12:38:06Z</time></trkpt><trkpt lat="45.671663652874635" lon="3.761165833387223"><ele>982.8</ele><time>2026-05-02T12:38:07Z</time></trkpt><trkpt lat="45.67173635947208" lon="3.761144660827851"><ele>988.0</ele><time>2026-05-02T12:38:08Z</time></trkpt><trkpt lat="45.67181079487205" lon="3.761130676036353"><ele>987.9999999999999</ele><time>2026-05-02T12:38:09Z</time></trkpt><trkpt lat="45.671885985684995" lon="3.7611116203641766"><ele>988.0</ele><time>2026-05-02T12:38:10Z</time></trkpt><trkpt lat="45.671971142614034" lon="3.7610706002050334"><ele>988.0</ele><time>2026-05-02T12:38:12Z</time></trkpt><trkpt lat="45.67206040011751" lon="3.76099419641354"><ele>988.0</ele><time>2026-05-02T12:38:14Z</time></trkpt><trkpt lat="45.67213143693699" lon="3.7609569315391216"><ele>987.9999999999999</ele><time>2026-05-02T12:38:15Z</time></trkpt><trkpt lat="45.67220008919303" lon="3.7609395127686294"><ele>988.0</ele><time>2026-05-02T12:38:16Z</time></trkpt><trkpt lat="45.67227233696878" lon="3.7609286335234122"><ele>989.8</ele><time>2026-05-02T12:38:17Z</time></trkpt><trkpt lat="45.672365901754176" lon="3.7608930888150396"><ele>991.5999999999999</ele><time>2026-05-02T12:38:19Z</time></trkpt><trkpt lat="45.67242360260493" lon="3.760794570289311"><ele>993.4000000000001</ele><time>2026-05-02T12:38:21Z</time></trkpt><trkpt lat="45.672457405143746" lon="3.760676336309386"><ele>995.2</ele><time>2026-05-02T12:38:24Z</time></trkpt><trkpt lat="45.672394487638215" lon="3.760577973200049"><ele>997.0</ele><time>2026-05-02T12:38:26Z</time></trkpt><trkpt lat="45.67228443545433" lon="3.7605021391664617"><ele>996.9999999999999</ele><time>2026-05-02T12:38:28Z</time></trkpt><trkpt lat="45.67221147776412" lon="3.7604650168547535"><ele>997.0</ele><time>2026-05-02T12:38:29Z</time></trkpt><trkpt lat="45.67214245513538" lon="3.7604189837259367"><ele>997.0</ele><time>2026-05-02T12:38:30Z</time></trkpt><trkpt lat="45.672058368830854" lon="3.7603143901789475"><ele>997.0</ele><time>2026-05-02T12:38:32Z</time></trkpt><trkpt lat="45.6720301687075" lon="3.7602305902034243"><ele>996.9999999999999</ele><time>2026-05-02T12:38:35Z</time></trkpt><trkpt lat="45.6720400504168" lon="3.7600794963389466"><ele>997.0</ele><time>2026-05-02T12:39:36Z</time></trkpt><trkpt lat="45.67205623331074" lon="3.759991935653235"><ele>996.1666666666666</ele><time>2026-05-02T12:39:37Z</time></trkpt><trkpt lat="45.67207176856667" lon="3.759899678242521"><ele>995.3333333333333</ele><time>2026-05-02T12:39:38Z</time></trkpt><trkpt lat="45.67209791657674" lon="3.759806987460783"><ele>994.5</ele><time>2026-05-02T12:39:39Z</time></trkpt><trkpt lat="45.672152457353725" lon="3.759726232123084"><ele>993.6666666666667</ele><time>2026-05-02T12:39:40Z</time></trkpt><trkpt lat="45.67221662749314" lon="3.7596374993030675"><ele>992.8333333333334</ele><time>2026-05-02T12:39:41Z</time></trkpt><trkpt lat="45.672275010194895" lon="3.759560209288567"><ele>992.0</ele><time>2026-05-02T12:39:42Z</time></trkpt><trkpt lat="45.672339362468485" lon="3.759483282444681"><ele>992.0</ele><time>2026-05-02T12:39:43Z</time></trkpt><trkpt lat="45.6724014187933" lon="3.759384063634933"><ele>992.0</ele><time>2026-05-02T12:39:44Z</time></trkpt><trkpt lat="45.67246440610585" lon="3.7592844900366704"><ele>992.0</ele><time>2026-05-02T12:39:45Z</time></trkpt><trkpt lat="45.672528897932565" lon="3.7591754314494334"><ele>992.0</ele><time>2026-05-02T12:39:46Z</time></trkpt><trkpt lat="45.67259641252917" lon="3.759062146739383"><ele>992.0</ele><time>2026-05-02T12:39:47Z</time></trkpt><trkpt lat="45.672663965204094" lon="3.758965122607276"><ele>991.6666666666667</ele><time>2026-05-02T12:39:48Z</time></trkpt><trkpt lat="45.67273399785113" lon="3.7588671114342613"><ele>991.3333333333334</ele><time>2026-05-02T12:39:49Z</time></trkpt><trkpt lat="45.6727936743703" lon="3.758765553115213"><ele>991.0</ele><time>2026-05-02T12:39:50Z</time></trkpt><trkpt lat="45.67284742465222" lon="3.7586634109525185"><ele>990.6666666666667</ele><time>2026-05-02T12:39:51Z</time></trkpt><trkpt lat="45.67289640366627" lon="3.758566382639698"><ele>990.3333333333334</ele><time>2026-05-02T12:39:52Z</time></trkpt><trkpt lat="45.67294805716835" lon="3.7584755678923756"><ele>990.0</ele><time>2026-05-02T12:39:53Z</time></trkpt><trkpt lat="45.67300583714823" lon="3.7583745693896873"><ele>994.3333333333334</ele><time>2026-05-02T12:39:54Z</time></trkpt><trkpt lat="45.67306014471288" lon="3.7582606278154764"><ele>998.6666666666667</ele><time>2026-05-02T12:39:55Z</time></trkpt><trkpt lat="45.67311695047407" lon="3.75816400983052"><ele>1003.0</ele><time>2026-05-02T12:39:56Z</time></trkpt><trkpt lat="45.67316788372806" lon="3.7580955493660153"><ele>1007.3333333333334</ele><time>2026-05-02T12:39:57Z</time></trkpt><trkpt lat="45.67321179963568" lon="3.7580031895558226"><ele>1011.6666666666667</ele><time>2026-05-02T12:39:59Z</time></trkpt><trkpt lat="45.673160139657064" lon="3.7580646456064217"><ele>1016.0</ele><time>2026-05-02T12:42:36Z</time></trkpt><trkpt lat="45.67306580484624" lon="3.7581341720162844"><ele>1016.0000000000001</ele><time>2026-05-02T12:43:09Z</time></trkpt><trkpt lat="45.67301768823513" lon="3.7582233400728144"><ele>1016.0</ele><time>2026-05-02T12:43:10Z</time></trkpt><trkpt lat="45.67296667745263" lon="3.7583160960529423"><ele>1016.0</ele><time>2026-05-02T12:43:11Z</time></trkpt><trkpt lat="45.67290978389536" lon="3.758421276724596"><ele>1016.0</ele><time>2026-05-02T12:43:12Z</time></trkpt><trkpt lat="45.67286098198704" lon="3.758525363381588"><ele>1016.0000000000001</ele><time>2026-05-02T12:43:13Z</time></trkpt><trkpt lat="45.672817316555346" lon="3.7586180127361755"><ele>1016.0</ele><time>2026-05-02T12:43:14Z</time></trkpt><trkpt lat="45.672774661537055" lon="3.758709462691946"><ele>1010.8</ele><time>2026-05-02T12:43:15Z</time></trkpt><trkpt lat="45.672720178751206" lon="3.7588029536428547"><ele>1005.5999999999999</ele><time>2026-05-02T12:43:16Z</time></trkpt><trkpt lat="45.67265718369015" lon="3.7588973195492246"><ele>1000.4</ele><time>2026-05-02T12:43:17Z</time></trkpt><trkpt lat="45.672581183875145" lon="3.758997805372027"><ele>995.2</ele><time>2026-05-02T12:43:18Z</time></trkpt><trkpt lat="45.672505277587845" lon="3.7591114371211343"><ele>990.0</ele><time>2026-05-02T12:43:19Z</time></trkpt><trkpt lat="45.672432173360455" lon="3.7592372965203844"><ele>990.0</ele><time>2026-05-02T12:43:20Z</time></trkpt><trkpt lat="45.67236098769188" lon="3.759351466321109"><ele>990.0</ele><time>2026-05-02T12:43:21Z</time></trkpt><trkpt lat="45.67229358651251" lon="3.759456171830637"><ele>990.0</ele><time>2026-05-02T12:43:22Z</time></trkpt><trkpt lat="45.67221918180827" lon="3.759532033084686"><ele>990.0</ele><time>2026-05-02T12:43:23Z</time></trkpt><trkpt lat="45.67216226512638" lon="3.7596122317767855"><ele>990.0</ele><time>2026-05-02T12:43:24Z</time></trkpt><trkpt lat="45.67210589623016" lon="3.75969316182807"><ele>990.3333333333334</ele><time>2026-05-02T12:43:25Z</time></trkpt><trkpt lat="45.672038766181544" lon="3.759871910100266"><ele>990.6666666666667</ele><time>2026-05-02T12:43:27Z</time></trkpt><trkpt lat="45.672007023151025" lon="3.759963672868153"><ele>991.0</ele><time>2026-05-02T12:43:28Z</time></trkpt><trkpt lat="45.67200095257501" lon="3.760058900803069"><ele>991.3333333333334</ele><time>2026-05-02T12:43:29Z</time></trkpt><trkpt lat="45.6719875749454" lon="3.7602037530371404"><ele>991.6666666666667</ele><time>2026-05-02T12:43:31Z</time></trkpt><trkpt lat="45.67199066600091" lon="3.7602998145953137"><ele>992.0</ele><time>2026-05-02T12:43:33Z</time></trkpt><trkpt lat="45.67228015969802" lon="3.7604487575060404"><ele>992.8333333333334</ele><time>2026-05-02T12:43:36Z</time></trkpt><trkpt lat="45.67235280774927" lon="3.7604860586888478"><ele>993.6666666666667</ele><time>2026-05-02T12:43:37Z</time></trkpt><trkpt lat="45.67243333863358" lon="3.7605788670073883"><ele>994.5</ele><time>2026-05-02T12:43:39Z</time></trkpt><trkpt lat="45.67246436376503" lon="3.7606625005039933"><ele>995.3333333333333</ele><time>2026-05-02T12:43:41Z</time></trkpt><trkpt lat="45.672437182065416" lon="3.760765974813422"><ele>996.1666666666666</ele><time>2026-05-02T12:43:43Z</time></trkpt><trkpt lat="45.67235143175598" lon="3.7608606572731023"><ele>997.0</ele><time>2026-05-02T12:43:45Z</time></trkpt><trkpt lat="45.67228856837353" lon="3.7609737712758124"><ele>995.2</ele><time>2026-05-02T12:43:47Z</time></trkpt><trkpt lat="45.6722085197618" lon="3.7611055410535736"><ele>993.4000000000001</ele><time>2026-05-02T12:43:49Z</time></trkpt><trkpt lat="45.67212180654243" lon="3.761207380233359"><ele>991.5999999999999</ele><time>2026-05-02T12:43:51Z</time></trkpt><trkpt lat="45.672040639401956" lon="3.76131693285564"><ele>989.8</ele><time>2026-05-02T12:43:53Z</time></trkpt><trkpt lat="45.67197240085453" lon="3.7614154505409663"><ele>988.0</ele><time>2026-05-02T12:43:55Z</time></trkpt><trkpt lat="45.67190385076355" lon="3.7615430352797365"><ele>988.0</ele><time>2026-05-02T12:43:57Z</time></trkpt><trkpt lat="45.67186955255469" lon="3.761666319899951"><ele>988.0</ele><time>2026-05-02T12:43:59Z</time></trkpt><trkpt lat="45.67183211023603" lon="3.7618125928639743"><ele>988.0</ele><time>2026-05-02T12:44:01Z</time></trkpt><trkpt lat="45.671829268357875" lon="3.761987911144574"><ele>988.0</ele><time>2026-05-02T12:44:03Z</time></trkpt><trkpt lat="45.671831158206736" lon="3.7621595173667037"><ele>988.0</ele><time>2026-05-02T12:44:05Z</time></trkpt><trkpt lat="45.67182317463532" lon="3.7623096369857416"><ele>990.8</ele><time>2026-05-02T12:44:07Z</time></trkpt><trkpt lat="45.67179880440259" lon="3.7624806023569475"><ele>993.5999999999999</ele><time>2026-05-02T12:44:09Z</time></trkpt><trkpt lat="45.67184365046526" lon="3.762588502839852"><ele>996.4000000000001</ele><time>2026-05-02T12:44:11Z</time></trkpt><trkpt lat="45.671910685161535" lon="3.7626890510277438"><ele>999.2</ele><time>2026-05-02T12:44:13Z</time></trkpt><trkpt lat="45.67199529249883" lon="3.7626826368130537"><ele>1002.0</ele><time>2026-05-02T12:44:17Z</time></trkpt><trkpt lat="45.67207267939077" lon="3.7628050089535616"><ele>1006.0</ele><time>2026-05-02T12:44:42Z</time></trkpt><trkpt lat="45.67212665586237" lon="3.762891748946278"><ele>1010.0</ele><time>2026-05-02T12:44:44Z</time></trkpt><trkpt lat="45.67220539822234" lon="3.7629917570380855"><ele>1014.0</ele><time>2026-05-02T12:44:46Z</time></trkpt><trkpt lat="45.67231862500639" lon="3.7630173709285915"><ele>1018.0</ele><time>2026-05-02T12:44:48Z</time></trkpt><trkpt lat="45.67238190708019" lon="3.763059794711663"><ele>1022.0</ele><time>2026-05-02T12:44:57Z</time></trkpt><trkpt lat="45.67235687389448" lon="3.7629703641559002"><ele>1026.0</ele><time>2026-05-02T12:45:01Z</time></trkpt><trkpt lat="45.67239404854888" lon="3.762888875193273"><ele>1026.0000000000002</ele><time>2026-05-02T12:45:04Z</time></trkpt><trkpt lat="45.67244740937678" lon="3.7628325501363404"><ele>1026.0</ele><time>2026-05-02T12:45:06Z</time></trkpt><trkpt lat="45.67251578304998" lon="3.7628240451708352"><ele>1026.0</ele><time>2026-05-02T12:45:18Z</time></trkpt><trkpt lat="45.67257948444567" lon="3.7627830335152295"><ele>1026.0</ele><time>2026-05-02T12:45:21Z</time></trkpt><trkpt lat="45.672663469451166" lon="3.7627581405114707"><ele>1026.0</ele><time>2026-05-02T12:45:24Z</time></trkpt><trkpt lat="45.6727285580215" lon="3.7627152414667453"><ele>1026.0000000000002</ele><time>2026-05-02T12:45:26Z</time></trkpt><trkpt lat="45.67280926028076" lon="3.7627113391302145"><ele>1026.0</ele><time>2026-05-02T12:45:28Z</time></trkpt><trkpt lat="45.67287837096322" lon="3.7627580699746757"><ele>1030.1428571428573</ele><time>2026-05-02T12:45:33Z</time></trkpt><trkpt lat="45.6729373840291" lon="3.762804011674681"><ele>1034.2857142857142</ele><time>2026-05-02T12:45:56Z</time></trkpt><trkpt lat="45.67299211586798" lon="3.762862263307777"><ele>1038.4285714285716</ele><time>2026-05-02T12:46:01Z</time></trkpt><trkpt lat="45.67306207199474" lon="3.762941635317118"><ele>1042.5714285714287</ele><time>2026-05-02T12:46:03Z</time></trkpt><trkpt lat="45.67310392103867" lon="3.7630212859511745"><ele>1046.7142857142858</ele><time>2026-05-02T12:46:07Z</time></trkpt><trkpt lat="45.67312870793471" lon="3.7631131495594605"><ele>1050.857142857143</ele><time>2026-05-02T12:46:12Z</time></trkpt><trkpt lat="45.67319313517497" lon="3.763141622352776"><ele>1055.0</ele><time>2026-05-02T12:46:19Z</time></trkpt><trkpt lat="45.673256141132946" lon="3.7631685949390823"><ele>1055.0</ele><time>2026-05-02T12:46:54Z</time></trkpt><trkpt lat="45.67332163568548" lon="3.763229382730535"><ele>1055.0</ele><time>2026-05-02T12:46:56Z</time></trkpt><trkpt lat="45.67339889459456" lon="3.7632581740875826"><ele>1055.0</ele><time>2026-05-02T12:48:05Z</time></trkpt><trkpt lat="45.67340282768812" lon="3.763353418248558"><ele>1055.0</ele><time>2026-05-02T12:48:07Z</time></trkpt><trkpt lat="45.673389321972095" lon="3.763449205158426"><ele>1055.0</ele><time>2026-05-02T12:48:09Z</time></trkpt><trkpt lat="45.67340128950206" lon="3.7636009445632133"><ele>1055.0</ele><time>2026-05-02T12:48:11Z</time></trkpt><trkpt lat="45.67341376190812" lon="3.7636967315512204"><ele>1055.0</ele><time>2026-05-02T12:48:12Z</time></trkpt><trkpt lat="45.67345988007384" lon="3.763862328993703"><ele>1055.0</ele><time>2026-05-02T12:48:14Z</time></trkpt><trkpt lat="45.67348174429383" lon="3.764017551653872"><ele>1055.0</ele><time>2026-05-02T12:48:16Z</time></trkpt><trkpt lat="45.67350905380726" lon="3.7640997645284675"><ele>1055.0</ele><time>2026-05-02T12:48:18Z</time></trkpt><trkpt lat="45.6735182245175" lon="3.7642005981679394"><ele>1055.0</ele><time>2026-05-02T12:48:52Z</time></trkpt><trkpt lat="45.673562173740805" lon="3.7643261587214583"><ele>1053.8333333333335</ele><time>2026-05-02T12:48:54Z</time></trkpt><trkpt lat="45.673571945683435" lon="3.7644180436810832"><ele>1052.6666666666667</ele><time>2026-05-02T12:48:55Z</time></trkpt><trkpt lat="45.67358209018172" lon="3.7645250736982456"><ele>1051.5</ele><time>2026-05-02T12:48:56Z</time></trkpt><trkpt lat="45.67359260256046" lon="3.7646281620053794"><ele>1050.3333333333333</ele><time>2026-05-02T12:48:57Z</time></trkpt><trkpt lat="45.67360413896056" lon="3.764724449984362"><ele>1049.1666666666665</ele><time>2026-05-02T12:48:58Z</time></trkpt><trkpt lat="45.67362212332082" lon="3.764812047153018"><ele>1048.0</ele><time>2026-05-02T12:48:59Z</time></trkpt><trkpt lat="45.67367756199687" lon="3.764971602554391"><ele>1055.5</ele><time>2026-05-02T12:49:01Z</time></trkpt><trkpt lat="45.67370402035494" lon="3.7650719586115806"><ele>1063.0</ele><time>2026-05-02T12:49:02Z</time></trkpt><trkpt lat="45.673722643098" lon="3.765198275318328"><ele>1070.5</ele><time>2026-05-02T12:49:03Z</time></trkpt><trkpt lat="45.673735657327526" lon="3.7653139326434415"><ele>1078.0</ele><time>2026-05-02T12:49:04Z</time></trkpt><trkpt lat="45.673738237258405" lon="3.765427567361358"><ele>1085.5</ele><time>2026-05-02T12:49:05Z</time></trkpt><trkpt lat="45.67376176688385" lon="3.7655378161900397"><ele>1093.0</ele><time>2026-05-02T12:49:06Z</time></trkpt><trkpt lat="45.673750245204985" lon="3.7656808433573614"><ele>1093.0</ele><time>2026-05-02T12:49:07Z</time></trkpt><trkpt lat="45.67375865668309" lon="3.765807401986636"><ele>1093.0</ele><time>2026-05-02T12:49:08Z</time></trkpt><trkpt lat="45.67376084179566" lon="3.7659235308204524"><ele>1093.0</ele><time>2026-05-02T12:49:09Z</time></trkpt><trkpt lat="45.67379523395196" lon="3.7660821154186146"><ele>1093.0</ele><time>2026-05-02T12:49:11Z</time></trkpt><trkpt lat="45.67380814464742" lon="3.766176397409403"><ele>1093.0</ele><time>2026-05-02T12:49:12Z</time></trkpt><trkpt lat="45.67383118214611" lon="3.766281640641023"><ele>1093.0</ele><time>2026-05-02T12:49:13Z</time></trkpt><trkpt lat="45.67385232011895" lon="3.766377058467832"><ele>1090.4</ele><time>2026-05-02T12:49:14Z</time></trkpt><trkpt lat="45.67388230215962" lon="3.7665348454026915"><ele>1087.8</ele><time>2026-05-02T12:49:16Z</time></trkpt><trkpt lat="45.67392057926316" lon="3.76663885280422"><ele>1085.2</ele><time>2026-05-02T12:49:17Z</time></trkpt><trkpt lat="45.673963222116114" lon="3.7667370002068092"><ele>1082.6</ele><time>2026-05-02T12:49:18Z</time></trkpt><trkpt lat="45.67399828902726" lon="3.766820454639113"><ele>1080.0</ele><time>2026-05-02T12:49:19Z</time></trkpt><trkpt lat="45.67408619355161" lon="3.7669501236584497"><ele>1077.8333333333333</ele><time>2026-05-02T12:49:21Z</time></trkpt><trkpt lat="45.67412653384854" lon="3.7670256541241725"><ele>1075.6666666666667</ele><time>2026-05-02T12:49:22Z</time></trkpt><trkpt lat="45.67415416481695" lon="3.767118889166604"><ele>1073.5</ele><time>2026-05-02T12:49:23Z</time></trkpt><trkpt lat="45.67419659423026" lon="3.767265143200151"><ele>1071.3333333333335</ele><time>2026-05-02T12:49:25Z</time></trkpt><trkpt lat="45.67421995610154" lon="3.7674223427522193"><ele>1069.1666666666667</ele><time>2026-05-02T12:49:27Z</time></trkpt><trkpt lat="45.674230707722565" lon="3.7675229239600285"><ele>1067.0</ele><time>2026-05-02T12:49:28Z</time></trkpt><trkpt lat="45.67425669687296" lon="3.767673146264334"><ele>1066.4</ele><time>2026-05-02T12:49:30Z</time></trkpt><trkpt lat="45.67420807722074" lon="3.767746782931833"><ele>1065.8000000000002</ele><time>2026-05-02T12:50:08Z</time></trkpt><trkpt lat="45.67422001647493" lon="3.7679484493108206"><ele>1065.2</ele><time>2026-05-02T12:50:10Z</time></trkpt><trkpt lat="45.674219821821374" lon="3.7680556063259196"><ele>1064.6000000000001</ele><time>2026-05-02T12:50:11Z</time></trkpt><trkpt lat="45.67422310735914" lon="3.7681471488145837"><ele>1064.0</ele><time>2026-05-02T12:50:12Z</time></trkpt><trkpt lat="45.674183467728206" lon="3.7682975184583127"><ele>1064.0</ele><time>2026-05-02T12:50:14Z</time></trkpt><trkpt lat="45.67418589574263" lon="3.7684012195407397"><ele>1064.0</ele><time>2026-05-02T12:50:16Z</time></trkpt><trkpt lat="45.67418314020949" lon="3.7685341593684916"><ele>1064.0</ele><time>2026-05-02T12:50:18Z</time></trkpt><trkpt lat="45.67421479560708" lon="3.7686234543357835"><ele>1064.0</ele><time>2026-05-02T12:50:20Z</time></trkpt><trkpt lat="45.674268808682534" lon="3.768708718119843"><ele>1064.0</ele><time>2026-05-02T12:50:22Z</time></trkpt><trkpt lat="45.67433226202448" lon="3.7688375558278002"><ele>1064.0</ele><time>2026-05-02T12:50:24Z</time></trkpt><trkpt lat="45.67442470584043" lon="3.7689452826601166"><ele>1065.5714285714287</ele><time>2026-05-02T12:50:26Z</time></trkpt><trkpt lat="45.67448805075652" lon="3.768987112514165"><ele>1067.142857142857</ele><time>2026-05-02T12:50:27Z</time></trkpt><trkpt lat="45.674551969718465" lon="3.769023903816626"><ele>1068.7142857142858</ele><time>2026-05-02T12:50:28Z</time></trkpt><trkpt lat="45.67462167189378" lon="3.769054236478687"><ele>1070.2857142857142</ele><time>2026-05-02T12:50:29Z</time></trkpt><trkpt lat="45.67467424070721" lon="3.7691094978819764"><ele>1071.857142857143</ele><time>2026-05-02T12:50:30Z</time></trkpt><trkpt lat="45.67472875458457" lon="3.7691862257658633"><ele>1073.4285714285716</ele><time>2026-05-02T12:50:31Z</time></trkpt><trkpt lat="45.67476342922985" lon="3.769268970623136"><ele>1075.0</ele><time>2026-05-02T12:50:32Z</time></trkpt><trkpt lat="45.674798683719914" lon="3.769382319033056"><ele>1075.5</ele><time>2026-05-02T12:50:34Z</time></trkpt><trkpt lat="45.674798175237115" lon="3.769497315654896"><ele>1076.0</ele><time>2026-05-02T12:50:37Z</time></trkpt><trkpt lat="45.67474070547392" lon="3.769544527039768"><ele>1076.5</ele><time>2026-05-02T12:50:42Z</time></trkpt><trkpt lat="45.67467276052884" lon="3.769594888754004"><ele>1077.0</ele><time>2026-05-02T12:50:44Z</time></trkpt><trkpt lat="45.67456153436444" lon="3.7695521676207835"><ele>1077.5</ele><time>2026-05-02T12:50:46Z</time></trkpt><trkpt lat="45.674491335970316" lon="3.7695046725230417"><ele>1078.0</ele><time>2026-05-02T12:50:47Z</time></trkpt><trkpt lat="45.67442089878641" lon="3.769462810855081"><ele>1078.0</ele><time>2026-05-02T12:50:48Z</time></trkpt><trkpt lat="45.67431208186118" lon="3.769393173105434"><ele>1078.0</ele><time>2026-05-02T12:50:50Z</time></trkpt><trkpt lat="45.67414014310254" lon="3.7693929925402974"><ele>1078.0</ele><time>2026-05-02T12:50:52Z</time></trkpt><trkpt lat="45.67407456139058" lon="3.7694022812040298"><ele>1078.0</ele><time>2026-05-02T12:50:53Z</time></trkpt><trkpt lat="45.67397117192965" lon="3.7693954048792992"><ele>1078.0</ele><time>2026-05-02T12:50:54Z</time></trkpt><trkpt lat="45.6738865674043" lon="3.7694331918056525"><ele>1078.0</ele><time>2026-05-02T12:50:55Z</time></trkpt><trkpt lat="45.673820639357054" lon="3.769446256446583"><ele>1078.0</ele><time>2026-05-02T12:50:56Z</time></trkpt><trkpt lat="45.673738651196025" lon="3.7694481285024097"><ele>1078.0</ele><time>2026-05-02T12:50:57Z</time></trkpt><trkpt lat="45.67365506912409" lon="3.7694587044297556"><ele>1078.0</ele><time>2026-05-02T12:50:58Z</time></trkpt><trkpt lat="45.67353456931114" lon="3.769483033027709"><ele>1078.0</ele><time>2026-05-02T12:51:00Z</time></trkpt><trkpt lat="45.67344322529197" lon="3.769505061656336"><ele>1077.6</ele><time>2026-05-02T12:51:02Z</time></trkpt><trkpt lat="45.673369015975126" lon="3.7693918977899235"><ele>1077.1999999999998</ele><time>2026-05-02T12:51:04Z</time></trkpt><trkpt lat="45.67330225841575" lon="3.7692621827290815"><ele>1076.8</ele><time>2026-05-02T12:51:06Z</time></trkpt><trkpt lat="45.673193491987895" lon="3.769173543310275"><ele>1076.3999999999999</ele><time>2026-05-02T12:51:08Z</time></trkpt><trkpt lat="45.67312920358487" lon="3.7691375863570604"><ele>1076.0</ele><time>2026-05-02T12:51:09Z</time></trkpt><trkpt lat="45.67306751419742" lon="3.7690972911805027"><ele>1078.3333333333335</ele><time>2026-05-02T12:51:10Z</time></trkpt><trkpt lat="45.67298219827875" lon="3.769019119269141"><ele>1080.6666666666667</ele><time>2026-05-02T12:51:12Z</time></trkpt><trkpt lat="45.672867527402374" lon="3.7688957002256287"><ele>1083.0</ele><time>2026-05-02T12:51:14Z</time></trkpt><trkpt lat="45.67280369429108" lon="3.7688462546465016"><ele>1085.3333333333333</ele><time>2026-05-02T12:51:15Z</time></trkpt><trkpt lat="45.67274584986739" lon="3.768800595837475"><ele>1087.6666666666665</ele><time>2026-05-02T12:51:16Z</time></trkpt><trkpt lat="45.672682374019374" lon="3.7687885440840723"><ele>1090.0</ele><time>2026-05-02T12:51:17Z</time></trkpt><trkpt lat="45.67259752050634" lon="3.7687268015426487"><ele>1090.0</ele><time>2026-05-02T12:51:19Z</time></trkpt><trkpt lat="45.67249324242755" lon="3.7686274224145446"><ele>1090.0</ele><time>2026-05-02T12:51:22Z</time></trkpt><trkpt lat="45.67238697551217" lon="3.7685703429442676"><ele>1090.0</ele><time>2026-05-02T12:51:24Z</time></trkpt><trkpt lat="45.67231399532138" lon="3.7685455096104445"><ele>1090.0</ele><time>2026-05-02T12:51:25Z</time></trkpt><trkpt lat="45.67220614366096" lon="3.768527006389942"><ele>1090.0</ele><time>2026-05-02T12:51:27Z</time></trkpt><trkpt lat="45.6721261580306" lon="3.7684786331815543"><ele>1090.6</ele><time>2026-05-02T12:51:28Z</time></trkpt><trkpt lat="45.6720553134997" lon="3.768441453072735"><ele>1091.2</ele><time>2026-05-02T12:51:29Z</time></trkpt><trkpt lat="45.671982341143746" lon="3.7684153847790927"><ele>1091.8</ele><time>2026-05-02T12:51:30Z</time></trkpt><trkpt lat="45.67187748564033" lon="3.768376323931973"><ele>1092.4</ele><time>2026-05-02T12:51:32Z</time></trkpt><trkpt lat="45.671789135657434" lon="3.7682634577521807"><ele>1093.0</ele><time>2026-05-02T12:52:52Z</time></trkpt><trkpt lat="45.67170295220756" lon="3.7681984695256654"><ele>1093.0</ele><time>2026-05-02T12:52:53Z</time></trkpt><trkpt lat="45.67162094694045" lon="3.7681617304574266"><ele>1093.0</ele><time>2026-05-02T12:52:54Z</time></trkpt><trkpt lat="45.67153382731673" lon="3.768115134089759"><ele>1093.0</ele><time>2026-05-02T12:52:55Z</time></trkpt><trkpt lat="45.671466239198686" lon="3.7680660657090264"><ele>1093.0</ele><time>2026-05-02T12:52:56Z</time></trkpt><trkpt lat="45.671396157316735" lon="3.768005342719288"><ele>1093.0</ele><time>2026-05-02T12:52:57Z</time></trkpt><trkpt lat="45.67131026626798" lon="3.7679533871150888"><ele>1093.0</ele><time>2026-05-02T12:52:58Z</time></trkpt><trkpt lat="45.67120625473762" lon="3.767917530534745"><ele>1092.6</ele><time>2026-05-02T12:52:59Z</time></trkpt><trkpt lat="45.67108174462027" lon="3.7679443447782215"><ele>1092.1999999999998</ele><time>2026-05-02T12:53:00Z</time></trkpt><trkpt lat="45.670984327802174" lon="3.767954392909086"><ele>1091.8</ele><time>2026-05-02T12:53:01Z</time></trkpt><trkpt lat="45.67089432497624" lon="3.7679617675873236"><ele>1091.3999999999999</ele><time>2026-05-02T12:53:02Z</time></trkpt><trkpt lat="45.67079175235593" lon="3.7679539832145057"><ele>1091.0</ele><time>2026-05-02T12:53:03Z</time></trkpt><trkpt lat="45.670692812038624" lon="3.7679094196026686"><ele>1091.0</ele><time>2026-05-02T12:53:04Z</time></trkpt><trkpt lat="45.67061250036015" lon="3.7678736167384472"><ele>1091.0</ele><time>2026-05-02T12:53:05Z</time></trkpt><trkpt lat="45.67054130331671" lon="3.7678444283084565"><ele>1091.0</ele><time>2026-05-02T12:53:06Z</time></trkpt><trkpt lat="45.67046812299284" lon="3.7678151959869584"><ele>1091.0</ele><time>2026-05-02T12:53:07Z</time></trkpt><trkpt lat="45.67039703083724" lon="3.7677757155300164"><ele>1091.0</ele><time>2026-05-02T12:53:08Z</time></trkpt><trkpt lat="45.67032115223473" lon="3.7677456060468333"><ele>1091.0</ele><time>2026-05-02T12:53:09Z</time></trkpt><trkpt lat="45.67023564732443" lon="3.767759532992912"><ele>1088.1666666666667</ele><time>2026-05-02T12:53:10Z</time></trkpt><trkpt lat="45.67014905300863" lon="3.767759966637846"><ele>1085.3333333333335</ele><time>2026-05-02T12:53:11Z</time></trkpt><trkpt lat="45.67007116660296" lon="3.7677587429371027"><ele>1082.5</ele><time>2026-05-02T12:53:12Z</time></trkpt><trkpt lat="45.669990688867664" lon="3.767784691322734"><ele>1079.6666666666667</ele><time>2026-05-02T12:53:13Z</time></trkpt><trkpt lat="45.66991218843467" lon="3.7678057072621765"><ele>1076.8333333333333</ele><time>2026-05-02T12:53:14Z</time></trkpt><trkpt lat="45.66982420550589" lon="3.7678347077286767"><ele>1074.0</ele><time>2026-05-02T12:53:15Z</time></trkpt><trkpt lat="45.669712791868754" lon="3.767849004592036"><ele>1074.0</ele><time>2026-05-02T12:53:16Z</time></trkpt><trkpt lat="45.66960057354763" lon="3.767891847752433"><ele>1074.0</ele><time>2026-05-02T12:53:17Z</time></trkpt><trkpt lat="45.66951792456002" lon="3.767939684960669"><ele>1074.0</ele><time>2026-05-02T12:53:18Z</time></trkpt><trkpt lat="45.66944394395236" lon="3.7679946528425297"><ele>1074.0</ele><time>2026-05-02T12:53:19Z</time></trkpt><trkpt lat="45.66937177986132" lon="3.768101641419186"><ele>1074.0</ele><time>2026-05-02T12:53:20Z</time></trkpt><trkpt lat="45.66929653116736" lon="3.768259889534381"><ele>1071.2</ele><time>2026-05-02T12:53:21Z</time></trkpt><trkpt lat="45.66920861083727" lon="3.7683569608363703"><ele>1068.4</ele><time>2026-05-02T12:53:22Z</time></trkpt><trkpt lat="45.66910502707195" lon="3.768406477677417"><ele>1065.6</ele><time>2026-05-02T12:53:23Z</time></trkpt><trkpt lat="45.669000202957236" lon="3.768406896035288"><ele>1062.8</ele><time>2026-05-02T12:53:24Z</time></trkpt><trkpt lat="45.66891811713236" lon="3.7683622656287956"><ele>1060.0</ele><time>2026-05-02T12:53:25Z</time></trkpt><trkpt lat="45.66884640163501" lon="3.7682925672083534"><ele>1060.0</ele><time>2026-05-02T12:53:26Z</time></trkpt><trkpt lat="45.66875955940498" lon="3.768227057827147"><ele>1060.0</ele><time>2026-05-02T12:53:28Z</time></trkpt><trkpt lat="45.66867143438197" lon="3.768240691314734"><ele>1060.0</ele><time>2026-05-02T12:53:29Z</time></trkpt><trkpt lat="45.668571562042914" lon="3.7683053733834306"><ele>1060.0</ele><time>2026-05-02T12:53:30Z</time></trkpt><trkpt lat="45.66847064059053" lon="3.7683564800651568"><ele>1060.0</ele><time>2026-05-02T12:53:31Z</time></trkpt><trkpt lat="45.66837861006319" lon="3.768436839298611"><ele>1060.2</ele><time>2026-05-02T12:53:32Z</time></trkpt><trkpt lat="45.668295019039626" lon="3.7684915205228102"><ele>1060.4</ele><time>2026-05-02T12:53:33Z</time></trkpt><trkpt lat="45.668168637989226" lon="3.768527813050939"><ele>1060.6</ele><time>2026-05-02T12:53:35Z</time></trkpt><trkpt lat="45.66810871918847" lon="3.7685706933482517"><ele>1060.8</ele><time>2026-05-02T12:53:36Z</time></trkpt><trkpt lat="45.66801558996677" lon="3.768662490507417"><ele>1061.0</ele><time>2026-05-02T12:53:37Z</time></trkpt><trkpt lat="45.667927477143806" lon="3.7687347899175885"><ele>1061.0</ele><time>2026-05-02T12:53:38Z</time></trkpt><trkpt lat="45.667852464158045" lon="3.7687957599183575"><ele>1061.0</ele><time>2026-05-02T12:53:39Z</time></trkpt><trkpt lat="45.667809518179496" lon="3.768871138428877"><ele>1061.0</ele><time>2026-05-02T12:53:41Z</time></trkpt><trkpt lat="45.66779353047739" lon="3.7689763914764267"><ele>1061.0</ele><time>2026-05-02T12:53:43Z</time></trkpt><trkpt lat="45.66774102538524" lon="3.769080335809752"><ele>1061.0</ele><time>2026-05-02T12:53:49Z</time></trkpt><trkpt lat="45.667689765325676" lon="3.769155463992761"><ele>1061.0</ele><time>2026-05-02T12:53:50Z</time></trkpt><trkpt lat="45.66763904043402" lon="3.7692102718870424"><ele>1062.0</ele><time>2026-05-02T12:53:51Z</time></trkpt><trkpt lat="45.667555800107515" lon="3.7693233649910165"><ele>1063.0</ele><time>2026-05-02T12:53:53Z</time></trkpt><trkpt lat="45.6674693443087" lon="3.7693923085870997"><ele>1064.0</ele><time>2026-05-02T12:53:54Z</time></trkpt><trkpt lat="45.66739134563066" lon="3.769456224845072"><ele>1065.0</ele><time>2026-05-02T12:53:55Z</time></trkpt><trkpt lat="45.66730791087431" lon="3.7695324948894275"><ele>1066.0</ele><time>2026-05-02T12:53:56Z</time></trkpt><trkpt lat="45.66721288799703" lon="3.7696104301538265"><ele>1066.0</ele><time>2026-05-02T12:53:57Z</time></trkpt><trkpt lat="45.66712541523697" lon="3.769704541618216"><ele>1066.0</ele><time>2026-05-02T12:53:58Z</time></trkpt><trkpt lat="45.66704470135624" lon="3.7697936256476243"><ele>1066.0</ele><time>2026-05-02T12:53:59Z</time></trkpt><trkpt lat="45.66697551332867" lon="3.769900324003689"><ele>1066.0</ele><time>2026-05-02T12:54:00Z</time></trkpt><trkpt lat="45.66689456912206" lon="3.7699965044030095"><ele>1066.0</ele><time>2026-05-02T12:54:02Z</time></trkpt><trkpt lat="45.66681479069642" lon="3.7701563691757114"><ele>1065.0</ele><time>2026-05-02T12:54:04Z</time></trkpt><trkpt lat="45.66672478684747" lon="3.770231716400216"><ele>1064.0</ele><time>2026-05-02T12:54:06Z</time></trkpt><trkpt lat="45.66661794329124" lon="3.7702157339808977"><ele>1063.0</ele><time>2026-05-02T12:54:08Z</time></trkpt><trkpt lat="45.66655482627606" lon="3.770171736839349"><ele>1062.0</ele><time>2026-05-02T12:54:09Z</time></trkpt><trkpt lat="45.666493784409006" lon="3.770139944058752"><ele>1061.0</ele><time>2026-05-02T12:54:10Z</time></trkpt><trkpt lat="45.666356826651764" lon="3.7701229758634947"><ele>1061.0</ele><time>2026-05-02T12:54:12Z</time></trkpt><trkpt lat="45.66626536108109" lon="3.770134394246384"><ele>1061.0</ele><time>2026-05-02T12:54:13Z</time></trkpt><trkpt lat="45.66617144790911" lon="3.7701581943004747"><ele>1061.0</ele><time>2026-05-02T12:54:14Z</time></trkpt><trkpt lat="45.66607564694369" lon="3.7701823103917143"><ele>1061.0</ele><time>2026-05-02T12:54:15Z</time></trkpt><trkpt lat="45.665977803480644" lon="3.7701965077130346"><ele>1061.0</ele><time>2026-05-02T12:54:16Z</time></trkpt><trkpt lat="45.66588565378981" lon="3.770195754760521"><ele>1059.0</ele><time>2026-05-02T12:54:17Z</time></trkpt><trkpt lat="45.66579256213973" lon="3.770184429632971"><ele>1057.0</ele><time>2026-05-02T12:54:18Z</time></trkpt><trkpt lat="45.6657054615965" lon="3.770189804736616"><ele>1055.0</ele><time>2026-05-02T12:54:19Z</time></trkpt><trkpt lat="45.66561802657436" lon="3.770191904162096"><ele>1053.0</ele><time>2026-05-02T12:54:20Z</time></trkpt><trkpt lat="45.66554149962915" lon="3.7701914427062646"><ele>1051.0</ele><time>2026-05-02T12:54:21Z</time></trkpt><trkpt lat="45.66546143877375" lon="3.7701828928091627"><ele>1049.0</ele><time>2026-05-02T12:54:22Z</time></trkpt><trkpt lat="45.66539042693894" lon="3.770158844501022"><ele>1051.75</ele><time>2026-05-02T12:54:23Z</time></trkpt><trkpt lat="45.665258357080326" lon="3.7701901527498505"><ele>1054.5</ele><time>2026-05-02T12:54:24Z</time></trkpt><trkpt lat="45.66512460549563" lon="3.770229803378254"><ele>1057.25</ele><time>2026-05-02T12:54:25Z</time></trkpt><trkpt lat="45.66499582939204" lon="3.7702717968331663"><ele>1060.0</ele><time>2026-05-02T12:54:26Z</time></trkpt><trkpt lat="45.66487718517639" lon="3.77030718866307"><ele>1060.0</ele><time>2026-05-02T12:54:27Z</time></trkpt><trkpt lat="45.6647442422002" lon="3.77032486060576"><ele>1060.0</ele><time>2026-05-02T12:54:28Z</time></trkpt><trkpt lat="45.66463021708935" lon="3.7703408502675466"><ele>1060.0</ele><time>2026-05-02T12:54:29Z</time></trkpt><trkpt lat="45.66454080349282" lon="3.770386785850856"><ele>1060.0</ele><time>2026-05-02T12:54:30Z</time></trkpt><trkpt lat="45.664465878250105" lon="3.77041389617011"><ele>1060.0</ele><time>2026-05-02T12:54:31Z</time></trkpt><trkpt lat="45.66438962894996" lon="3.770432242704165"><ele>1057.3333333333333</ele><time>2026-05-02T12:54:32Z</time></trkpt><trkpt lat="45.6643111508893" lon="3.770425287834959"><ele>1054.6666666666665</ele><time>2026-05-02T12:54:33Z</time></trkpt><trkpt lat="45.66423196266702" lon="3.7704038529677772"><ele>1052.0</ele><time>2026-05-02T12:54:34Z</time></trkpt><trkpt lat="45.664157059132236" lon="3.7704031815870507"><ele>1049.3333333333333</ele><time>2026-05-02T12:54:35Z</time></trkpt><trkpt lat="45.66409164690719" lon="3.770423584668964"><ele>1046.6666666666667</ele><time>2026-05-02T12:54:36Z</time></trkpt><trkpt lat="45.66401853742525" lon="3.7704553093686113"><ele>1044.0</ele><time>2026-05-02T12:54:37Z</time></trkpt><trkpt lat="45.663944910457005" lon="3.770493710958384"><ele>1044.0</ele><time>2026-05-02T12:54:38Z</time></trkpt><trkpt lat="45.6638645756693" lon="3.770515463155591"><ele>1044.0</ele><time>2026-05-02T12:54:39Z</time></trkpt><trkpt lat="45.66378456596181" lon="3.7705433722920363"><ele>1044.0</ele><time>2026-05-02T12:54:40Z</time></trkpt><trkpt lat="45.66369342212631" lon="3.77060087323572"><ele>1044.0</ele><time>2026-05-02T12:54:41Z</time></trkpt><trkpt lat="45.66357715020579" lon="3.7706908167763706"><ele>1044.0</ele><time>2026-05-02T12:54:42Z</time></trkpt><trkpt lat="45.66343806786264" lon="3.7707754482694895"><ele>1043.5</ele><time>2026-05-02T12:54:43Z</time></trkpt><trkpt lat="45.663317651090985" lon="3.7708594653870953"><ele>1043.0</ele><time>2026-05-02T12:54:44Z</time></trkpt><trkpt lat="45.663214480495796" lon="3.7709367162796155"><ele>1042.5</ele><time>2026-05-02T12:54:45Z</time></trkpt><trkpt lat="45.663107629165005" lon="3.7710160257449643"><ele>1042.0</ele><time>2026-05-02T12:54:46Z</time></trkpt><trkpt lat="45.66298913450534" lon="3.77102682968337"><ele>1042.0</ele><time>2026-05-02T12:54:47Z</time></trkpt><trkpt lat="45.66288437840899" lon="3.7711037958884197"><ele>1042.0</ele><time>2026-05-02T12:54:48Z</time></trkpt><trkpt lat="45.66277095749536" lon="3.7711926450353093"><ele>1042.0</ele><time>2026-05-02T12:54:49Z</time></trkpt><trkpt lat="45.66266810378868" lon="3.7712812230877213"><ele>1042.0</ele><time>2026-05-02T12:54:50Z</time></trkpt><trkpt lat="45.66259452118629" lon="3.771361205147329"><ele>1035.6</ele><time>2026-05-02T12:54:51Z</time></trkpt><trkpt lat="45.662511117270995" lon="3.771412753203649"><ele>1029.2</ele><time>2026-05-02T12:54:52Z</time></trkpt><trkpt lat="45.66245209839085" lon="3.7714995889610825"><ele>1022.8</ele><time>2026-05-02T12:54:53Z</time></trkpt><trkpt lat="45.662368821051736" lon="3.7715813567158873"><ele>1016.4</ele><time>2026-05-02T12:54:54Z</time></trkpt><trkpt lat="45.66231293324487" lon="3.7716927857101528"><ele>1010.0</ele><time>2026-05-02T12:54:55Z</time></trkpt><trkpt lat="45.66225098369025" lon="3.771765580627552"><ele>1010.0000000000001</ele><time>2026-05-02T12:54:56Z</time></trkpt><trkpt lat="45.662180179122394" lon="3.771852280963228"><ele>1010.0</ele><time>2026-05-02T12:54:57Z</time></trkpt><trkpt lat="45.662129321486134" lon="3.7719389953826084"><ele>1010.0</ele><time>2026-05-02T12:54:58Z</time></trkpt><trkpt lat="45.66209465051278" lon="3.7720263917113854"><ele>1010.0</ele><time>2026-05-02T12:54:59Z</time></trkpt><trkpt lat="45.66205568921786" lon="3.7721175550298693"><ele>1010.0000000000001</ele><time>2026-05-02T12:55:00Z</time></trkpt><trkpt lat="45.662013324517105" lon="3.7722117991071022"><ele>1010.0</ele><time>2026-05-02T12:55:01Z</time></trkpt><trkpt lat="45.66197143410399" lon="3.7723582050448874"><ele>1008.5000000000001</ele><time>2026-05-02T12:55:03Z</time></trkpt><trkpt lat="45.66189746583309" lon="3.772410417022402"><ele>1007.0</ele><time>2026-05-02T12:55:05Z</time></trkpt><trkpt lat="45.66183944930142" lon="3.772353511027043"><ele>1005.5</ele><time>2026-05-02T12:55:06Z</time></trkpt><trkpt lat="45.66177809579844" lon="3.7722912715345314"><ele>1004.0</ele><time>2026-05-02T12:55:07Z</time></trkpt><trkpt lat="45.66171669781011" lon="3.772220640023726"><ele>1002.5000000000001</ele><time>2026-05-02T12:55:08Z</time></trkpt><trkpt lat="45.66165220949949" lon="3.772156819651902"><ele>1001.0</ele><time>2026-05-02T12:55:09Z</time></trkpt><trkpt lat="45.66158268922069" lon="3.772054129984841"><ele>1001.0</ele><time>2026-05-02T12:55:10Z</time></trkpt><trkpt lat="45.661515123771224" lon="3.7719010468356524"><ele>1001.0</ele><time>2026-05-02T12:55:11Z</time></trkpt><trkpt lat="45.661429940725135" lon="3.771801754772853"><ele>1001.0</ele><time>2026-05-02T12:55:12Z</time></trkpt><trkpt lat="45.66139119985542" lon="3.7716445521625905"><ele>1001.0</ele><time>2026-05-02T12:55:13Z</time></trkpt><trkpt lat="45.661383443662594" lon="3.7714608218901393"><ele>1000.3333333333334</ele><time>2026-05-02T12:55:14Z</time></trkpt><trkpt lat="45.66136781421085" lon="3.771352328159013"><ele>999.6666666666667</ele><time>2026-05-02T12:55:15Z</time></trkpt><trkpt lat="45.661338984087585" lon="3.771235810833781"><ele>999.0</ele><time>2026-05-02T12:55:16Z</time></trkpt><trkpt lat="45.66135784004739" lon="3.771142265371904"><ele>998.3333333333333</ele><time>2026-05-02T12:55:17Z</time></trkpt><trkpt lat="45.6614021022444" lon="3.7710127884352604"><ele>997.6666666666666</ele><time>2026-05-02T12:55:19Z</time></trkpt><trkpt lat="45.66139715823307" lon="3.7708784265999498"><ele>997.0</ele><time>2026-05-02T12:57:01Z</time></trkpt><trkpt lat="45.661435991446965" lon="3.7707732283837587"><ele>997.0</ele><time>2026-05-02T12:57:02Z</time></trkpt><trkpt lat="45.6614807779258" lon="3.770659506899149"><ele>997.0</ele><time>2026-05-02T12:57:03Z</time></trkpt><trkpt lat="45.661532110465195" lon="3.7705156887041156"><ele>997.0</ele><time>2026-05-02T12:57:04Z</time></trkpt><trkpt lat="45.66158673008514" lon="3.770357009689732"><ele>997.0</ele><time>2026-05-02T12:57:05Z</time></trkpt><trkpt lat="45.661637815523385" lon="3.770168024704977"><ele>999.0</ele><time>2026-05-02T12:57:06Z</time></trkpt><trkpt lat="45.66168678134901" lon="3.76996455177668"><ele>1001.0</ele><time>2026-05-02T12:57:07Z</time></trkpt><trkpt lat="45.66175368287895" lon="3.7697697073977703"><ele>1003.0</ele><time>2026-05-02T12:57:08Z</time></trkpt><trkpt lat="45.661808341648175" lon="3.7695719313234934"><ele>1003.0</ele><time>2026-05-02T12:57:09Z</time></trkpt><trkpt lat="45.66186948646177" lon="3.7693729833294465"><ele>1003.0</ele><time>2026-05-02T12:57:10Z</time></trkpt><trkpt lat="45.66193649574291" lon="3.7691762421125663"><ele>1003.0</ele><time>2026-05-02T12:57:11Z</time></trkpt><trkpt lat="45.66199578163106" lon="3.7689631149845484"><ele>1000.3333333333333</ele><time>2026-05-02T12:57:12Z</time></trkpt><trkpt lat="45.662063245266346" lon="3.7687483331605898"><ele>997.6666666666667</ele><time>2026-05-02T12:57:13Z</time></trkpt><trkpt lat="45.66213795250649" lon="3.7685296201104643"><ele>995.0</ele><time>2026-05-02T12:57:14Z</time></trkpt><trkpt lat="45.662194677151184" lon="3.768298462409025"><ele>995.0</ele><time>2026-05-02T12:57:15Z</time></trkpt><trkpt lat="45.662261032795286" lon="3.7680637610530705"><ele>995.0</ele><time>2026-05-02T12:57:16Z</time></trkpt><trkpt lat="45.662321478542296" lon="3.76781988881698"><ele>995.0</ele><time>2026-05-02T12:57:17Z</time></trkpt><trkpt lat="45.6624014009787" lon="3.7676331015037334"><ele>996.0</ele><time>2026-05-02T12:57:18Z</time></trkpt><trkpt lat="45.6624602850106" lon="3.7674235491038544"><ele>997.0</ele><time>2026-05-02T12:57:19Z</time></trkpt><trkpt lat="45.66250959125443" lon="3.767209268625234"><ele>998.0</ele><time>2026-05-02T12:57:20Z</time></trkpt><trkpt lat="45.662577885530375" lon="3.766999537161252"><ele>999.0</ele><time>2026-05-02T12:57:21Z</time></trkpt><trkpt lat="45.66264674084215" lon="3.7667865131287686"><ele>1000.0</ele><time>2026-05-02T12:57:22Z</time></trkpt><trkpt lat="45.66270864505802" lon="3.766575692401963"><ele>1001.0</ele><time>2026-05-02T12:57:23Z</time></trkpt><trkpt lat="45.66277669316786" lon="3.7663598147635278"><ele>996.6666666666667</ele><time>2026-05-02T12:57:24Z</time></trkpt><trkpt lat="45.66283949661794" lon="3.766152175104533"><ele>992.3333333333333</ele><time>2026-05-02T12:57:25Z</time></trkpt><trkpt lat="45.66289998515961" lon="3.765960124993857"><ele>988.0</ele><time>2026-05-02T12:57:26Z</time></trkpt><trkpt lat="45.66295357547427" lon="3.7657684727118887"><ele>988.0</ele><time>2026-05-02T12:57:27Z</time></trkpt><trkpt lat="45.66299849919906" lon="3.765594132820436"><ele>988.0</ele><time>2026-05-02T12:57:28Z</time></trkpt><trkpt lat="45.66304241174315" lon="3.7654194543285797"><ele>988.0</ele><time>2026-05-02T12:57:29Z</time></trkpt><trkpt lat="45.66309072129747" lon="3.765263818558689"><ele>988.0</ele><time>2026-05-02T12:57:30Z</time></trkpt><trkpt lat="45.6631366225467" lon="3.765112957075654"><ele>987.4</ele><time>2026-05-02T12:57:31Z</time></trkpt><trkpt lat="45.663162543584235" lon="3.764954944056819"><ele>986.8</ele><time>2026-05-02T12:57:32Z</time></trkpt><trkpt lat="45.663151259275196" lon="3.7648111927168615"><ele>986.2</ele><time>2026-05-02T12:57:33Z</time></trkpt><trkpt lat="45.66313070516156" lon="3.76466824710113"><ele>985.6</ele><time>2026-05-02T12:57:34Z</time></trkpt><trkpt lat="45.66310974382324" lon="3.764534850065118"><ele>985.0</ele><time>2026-05-02T12:57:35Z</time></trkpt><trkpt lat="45.66310099990734" lon="3.7644117687039174"><ele>983.8</ele><time>2026-05-02T12:57:36Z</time></trkpt><trkpt lat="45.6631137131549" lon="3.764302378338079"><ele>982.6</ele><time>2026-05-02T12:57:37Z</time></trkpt><trkpt lat="45.66314447532034" lon="3.764216648197294"><ele>981.4000000000001</ele><time>2026-05-02T12:57:38Z</time></trkpt><trkpt lat="45.6632295859745" lon="3.7641135514664747"><ele>980.2</ele><time>2026-05-02T12:57:40Z</time></trkpt><trkpt lat="45.66326921749121" lon="3.7640011292799924"><ele>979.0</ele><time>2026-05-02T12:58:49Z</time></trkpt><trkpt lat="45.66326859761833" lon="3.7638356419422623"><ele>978.9999999999999</ele><time>2026-05-02T12:58:51Z</time></trkpt><trkpt lat="45.663266719938825" lon="3.7637263758804593"><ele>979.0</ele><time>2026-05-02T12:58:52Z</time></trkpt><trkpt lat="45.66326130031384" lon="3.763564807870795"><ele>979.0</ele><time>2026-05-02T12:58:54Z</time></trkpt><trkpt lat="45.66324606859744" lon="3.763452552645697"><ele>979.0</ele><time>2026-05-02T12:58:56Z</time></trkpt><trkpt lat="45.663231766126636" lon="3.763342170214202"><ele>978.9999999999999</ele><time>2026-05-02T12:58:59Z</time></trkpt><trkpt lat="45.66321033987642" lon="3.763253684937585"><ele>979.0</ele><time>2026-05-02T12:59:01Z</time></trkpt><trkpt lat="45.66318079621449" lon="3.763069139827659"><ele>977.75</ele><time>2026-05-02T12:59:03Z</time></trkpt><trkpt lat="45.663152018593806" lon="3.7629347348776467"><ele>976.5</ele><time>2026-05-02T12:59:04Z</time></trkpt><trkpt lat="45.66313048041211" lon="3.762784776777962"><ele>975.25</ele><time>2026-05-02T12:59:05Z</time></trkpt><trkpt lat="45.66310126740726" lon="3.76258697966845"><ele>974.0</ele><time>2026-05-02T12:59:06Z</time></trkpt><trkpt lat="45.66306787941527" lon="3.7624031111508893"><ele>974.0</ele><time>2026-05-02T12:59:07Z</time></trkpt><trkpt lat="45.6630641993614" lon="3.7622032652591595"><ele>974.0</ele><time>2026-05-02T12:59:08Z</time></trkpt><trkpt lat="45.663088883976435" lon="3.7619827035956535"><ele>974.0</ele><time>2026-05-02T12:59:09Z</time></trkpt><trkpt lat="45.66310206070746" lon="3.761737628351868"><ele>974.0</ele><time>2026-05-02T12:59:10Z</time></trkpt><trkpt lat="45.66312195866784" lon="3.761508510005389"><ele>974.0</ele><time>2026-05-02T12:59:11Z</time></trkpt><trkpt lat="45.66315724148148" lon="3.7613065326810617"><ele>974.0</ele><time>2026-05-02T12:59:12Z</time></trkpt><trkpt lat="45.66319138397306" lon="3.761117163265503"><ele>974.0</ele><time>2026-05-02T12:59:13Z</time></trkpt><trkpt lat="45.6632096400125" lon="3.7609123592101117"><ele>973.3333333333334</ele><time>2026-05-02T12:59:14Z</time></trkpt><trkpt lat="45.66322469824896" lon="3.76066542757462"><ele>972.6666666666667</ele><time>2026-05-02T12:59:15Z</time></trkpt><trkpt lat="45.66322857838515" lon="3.760404282633535"><ele>972.0</ele><time>2026-05-02T12:59:16Z</time></trkpt><trkpt lat="45.66323072665412" lon="3.760135977088895"><ele>971.6666666666667</ele><time>2026-05-02T12:59:17Z</time></trkpt><trkpt lat="45.66324454044752" lon="3.7598452686817563"><ele>971.3333333333334</ele><time>2026-05-02T12:59:18Z</time></trkpt><trkpt lat="45.66326144879119" lon="3.759556180633058"><ele>971.0</ele><time>2026-05-02T12:59:19Z</time></trkpt><trkpt lat="45.6632669973311" lon="3.7592899381055633"><ele>971.0</ele><time>2026-05-02T12:59:20Z</time></trkpt><trkpt lat="45.663247856318925" lon="3.759029981420192"><ele>971.0</ele><time>2026-05-02T12:59:21Z</time></trkpt><trkpt lat="45.66324983237192" lon="3.7587661977922013"><ele>971.0</ele><time>2026-05-02T12:59:22Z</time></trkpt><trkpt lat="45.6632691737454" lon="3.758490804103963"><ele>972.3333333333334</ele><time>2026-05-02T12:59:23Z</time></trkpt><trkpt lat="45.66328692341417" lon="3.7582353211381267"><ele>973.6666666666667</ele><time>2026-05-02T12:59:24Z</time></trkpt><trkpt lat="45.663294777548856" lon="3.7579794736708942"><ele>975.0</ele><time>2026-05-02T12:59:25Z</time></trkpt><trkpt lat="45.66329215086075" lon="3.757712965632826"><ele>977.0</ele><time>2026-05-02T12:59:26Z</time></trkpt><trkpt lat="45.66330096948789" lon="3.7574685621617094"><ele>979.0</ele><time>2026-05-02T12:59:27Z</time></trkpt><trkpt lat="45.66329539691387" lon="3.757246313731583"><ele>981.0</ele><time>2026-05-02T12:59:28Z</time></trkpt><trkpt lat="45.66327442034815" lon="3.7570374550012398"><ele>981.0</ele><time>2026-05-02T12:59:29Z</time></trkpt><trkpt lat="45.663249901042626" lon="3.7568558412992026"><ele>981.0</ele><time>2026-05-02T12:59:30Z</time></trkpt><trkpt lat="45.663202532217866" lon="3.756696257420014"><ele>981.0</ele><time>2026-05-02T12:59:31Z</time></trkpt><trkpt lat="45.663116054847364" lon="3.756518369311107"><ele>981.0</ele><time>2026-05-02T12:59:32Z</time></trkpt><trkpt lat="45.66305940965464" lon="3.756392589052383"><ele>981.0</ele><time>2026-05-02T12:59:33Z</time></trkpt><trkpt lat="45.66304225095938" lon="3.7562608748400295"><ele>981.0</ele><time>2026-05-02T12:59:34Z</time></trkpt><trkpt lat="45.66307080261974" lon="3.7561146979868303"><ele>981.0</ele><time>2026-05-02T12:59:35Z</time></trkpt><trkpt lat="45.66312007534312" lon="3.7559526197533"><ele>981.0</ele><time>2026-05-02T12:59:36Z</time></trkpt><trkpt lat="45.663190413051254" lon="3.7557837058358965"><ele>982.0</ele><time>2026-05-02T12:59:37Z</time></trkpt><trkpt lat="45.663243462045436" lon="3.755584462934926"><ele>983.0</ele><time>2026-05-02T12:59:38Z</time></trkpt><trkpt lat="45.66326315865276" lon="3.7553789463640537"><ele>984.0</ele><time>2026-05-02T12:59:39Z</time></trkpt><trkpt lat="45.663235973937724" lon="3.7551837979030394"><ele>985.0</ele><time>2026-05-02T12:59:40Z</time></trkpt><trkpt lat="45.663203121327065" lon="3.755003176350782"><ele>985.25</ele><time>2026-05-02T12:59:41Z</time></trkpt><trkpt lat="45.66316672377941" lon="3.7548561080217615"><ele>985.5</ele><time>2026-05-02T12:59:42Z</time></trkpt><trkpt lat="45.663101217034516" lon="3.754703335144513"><ele>985.75</ele><time>2026-05-02T12:59:43Z</time></trkpt><trkpt lat="45.66304714008191" lon="3.7545245840530717"><ele>986.0</ele><time>2026-05-02T12:59:44Z</time></trkpt><trkpt lat="45.66297825972509" lon="3.754343048510248"><ele>986.0</ele><time>2026-05-02T12:59:45Z</time></trkpt><trkpt lat="45.6629175820791" lon="3.7541585690178687"><ele>986.0</ele><time>2026-05-02T12:59:46Z</time></trkpt><trkpt lat="45.662857872007315" lon="3.753922202774075"><ele>986.0</ele><time>2026-05-02T12:59:47Z</time></trkpt><trkpt lat="45.662830130766395" lon="3.753699289207193"><ele>986.0</ele><time>2026-05-02T12:59:48Z</time></trkpt><trkpt lat="45.66281454396696" lon="3.7534572020708663"><ele>986.0</ele><time>2026-05-02T12:59:49Z</time></trkpt><trkpt lat="45.662799812145245" lon="3.753217920545657"><ele>986.0</ele><time>2026-05-02T12:59:50Z</time></trkpt><trkpt lat="45.66278563690682" lon="3.7529673947322046"><ele>986.0</ele><time>2026-05-02T12:59:51Z</time></trkpt><trkpt lat="45.66278549225062" lon="3.7527406566580597"><ele>986.0</ele><time>2026-05-02T12:59:52Z</time></trkpt><trkpt lat="45.66278568650594" lon="3.7525185116880078"><ele>986.0</ele><time>2026-05-02T12:59:53Z</time></trkpt><trkpt lat="45.662767019598924" lon="3.7523108324468284"><ele>990.3333333333334</ele><time>2026-05-02T12:59:54Z</time></trkpt><trkpt lat="45.66273552175138" lon="3.752102951499371"><ele>994.6666666666667</ele><time>2026-05-02T12:59:55Z</time></trkpt><trkpt lat="45.66270026417325" lon="3.751897525678813"><ele>999.0</ele><time>2026-05-02T12:59:56Z</time></trkpt><trkpt lat="45.66265263490968" lon="3.751686393165597"><ele>999.0</ele><time>2026-05-02T12:59:57Z</time></trkpt><trkpt lat="45.66259162961017" lon="3.7514624121164144"><ele>999.0</ele><time>2026-05-02T12:59:58Z</time></trkpt><trkpt lat="45.66253408753609" lon="3.7512643329127973"><ele>999.0</ele><time>2026-05-02T12:59:59Z</time></trkpt><trkpt lat="45.662476330584454" lon="3.751093547330124"><ele>995.25</ele><time>2026-05-02T13:00:00Z</time></trkpt><trkpt lat="45.66238755341255" lon="3.750927535307196"><ele>991.5</ele><time>2026-05-02T13:00:01Z</time></trkpt><trkpt lat="45.662294028643494" lon="3.750792653855438"><ele>987.75</ele><time>2026-05-02T13:00:02Z</time></trkpt><trkpt lat="45.6621867660536" lon="3.750669984112926"><ele>984.0</ele><time>2026-05-02T13:00:03Z</time></trkpt><trkpt lat="45.66205572378205" lon="3.7505448578067977"><ele>990.6666666666667</ele><time>2026-05-02T13:00:04Z</time></trkpt><trkpt lat="45.66192866990622" lon="3.7504263500610433"><ele>997.3333333333334</ele><time>2026-05-02T13:00:05Z</time></trkpt><trkpt lat="45.661802203625165" lon="3.7503135773188943"><ele>1004.0</ele><time>2026-05-02T13:00:06Z</time></trkpt><trkpt lat="45.66165607991441" lon="3.750218819690755"><ele>998.0</ele><time>2026-05-02T13:00:07Z</time></trkpt><trkpt lat="45.661504166348955" lon="3.7501258680956253"><ele>992.0</ele><time>2026-05-02T13:00:08Z</time></trkpt><trkpt lat="45.66137838421924" lon="3.7500108286845113"><ele>986.0</ele><time>2026-05-02T13:00:09Z</time></trkpt><trkpt lat="45.661274827648796" lon="3.7498614661142105"><ele>986.0</ele><time>2026-05-02T13:00:10Z</time></trkpt><trkpt lat="45.66117981152104" lon="3.7496787952395443"><ele>986.0</ele><time>2026-05-02T13:00:11Z</time></trkpt><trkpt lat="45.6610736556621" lon="3.7494760526441544"><ele>986.0</ele><time>2026-05-02T13:00:12Z</time></trkpt><trkpt lat="45.66095012007201" lon="3.7493100400961903"><ele>990.3333333333334</ele><time>2026-05-02T13:00:13Z</time></trkpt><trkpt lat="45.66081579312822" lon="3.749140270171804"><ele>994.6666666666667</ele><time>2026-05-02T13:00:14Z</time></trkpt><trkpt lat="45.660675780048834" lon="3.7489784160465764"><ele>999.0</ele><time>2026-05-02T13:00:15Z</time></trkpt><trkpt lat="45.66055867231512" lon="3.748794443129331"><ele>999.0</ele><time>2026-05-02T13:00:16Z</time></trkpt><trkpt lat="45.66044485914964" lon="3.7486164658237566"><ele>999.0</ele><time>2026-05-02T13:00:17Z</time></trkpt><trkpt lat="45.66031864260304" lon="3.748451740458704"><ele>999.0</ele><time>2026-05-02T13:00:18Z</time></trkpt><trkpt lat="45.66017783640793" lon="3.7482852707997356"><ele>1000.0</ele><time>2026-05-02T13:00:19Z</time></trkpt><trkpt lat="45.66004025244632" lon="3.748119520038076"><ele>1001.0</ele><time>2026-05-02T13:00:20Z</time></trkpt><trkpt lat="45.659890554021565" lon="3.7479665167407203"><ele>1002.0</ele><time>2026-05-02T13:00:21Z</time></trkpt><trkpt lat="45.6597431892917" lon="3.7477945257440366"><ele>999.6666666666667</ele><time>2026-05-02T13:00:22Z</time></trkpt><trkpt lat="45.65959338298709" lon="3.7476435956309344"><ele>997.3333333333334</ele><time>2026-05-02T13:00:23Z</time></trkpt><trkpt lat="45.65943958367037" lon="3.747526253204802"><ele>995.0</ele><time>2026-05-02T13:00:24Z</time></trkpt><trkpt lat="45.65926954048476" lon="3.7474373115351542"><ele>995.0</ele><time>2026-05-02T13:00:25Z</time></trkpt><trkpt lat="45.65910178240969" lon="3.7473678382512063"><ele>995.0</ele><time>2026-05-02T13:00:26Z</time></trkpt><trkpt lat="45.65894245444048" lon="3.7473200735351835"><ele>995.0</ele><time>2026-05-02T13:00:27Z</time></trkpt><trkpt lat="45.658777260263506" lon="3.747266752914735"><ele>998.0</ele><time>2026-05-02T13:00:28Z</time></trkpt><trkpt lat="45.65859688328322" lon="3.74717772378693"><ele>1001.0</ele><time>2026-05-02T13:00:29Z</time></trkpt><trkpt lat="45.65841075161856" lon="3.7470932741421406"><ele>1004.0</ele><time>2026-05-02T13:00:30Z</time></trkpt><trkpt lat="45.658223879468665" lon="3.747021411559094"><ele>1004.0</ele><time>2026-05-02T13:00:31Z</time></trkpt><trkpt lat="45.6580478696902" lon="3.7469774998290717"><ele>1004.0</ele><time>2026-05-02T13:00:32Z</time></trkpt><trkpt lat="45.657870983420814" lon="3.7469247887322297"><ele>1004.0</ele><time>2026-05-02T13:00:33Z</time></trkpt><trkpt lat="45.65771450982799" lon="3.746847582316688"><ele>1001.75</ele><time>2026-05-02T13:00:34Z</time></trkpt><trkpt lat="45.65757373039114" lon="3.7467333123507323"><ele>999.5</ele><time>2026-05-02T13:00:35Z</time></trkpt><trkpt lat="45.65746820762816" lon="3.7466414727452406"><ele>997.25</ele><time>2026-05-02T13:00:36Z</time></trkpt><trkpt lat="45.65737116913728" lon="3.7465377714634673"><ele>995.0</ele><time>2026-05-02T13:00:37Z</time></trkpt><trkpt lat="45.657304252546666" lon="3.746424096250206"><ele>995.0</ele><time>2026-05-02T13:00:38Z</time></trkpt><trkpt lat="45.65724802347336" lon="3.7462806537664046"><ele>995.0</ele><time>2026-05-02T13:00:39Z</time></trkpt><trkpt lat="45.6571904864482" lon="3.7461393662265694"><ele>995.0</ele><time>2026-05-02T13:00:40Z</time></trkpt><trkpt lat="45.65712786392817" lon="3.745971540541144"><ele>995.0</ele><time>2026-05-02T13:00:41Z</time></trkpt><trkpt lat="45.657055377040756" lon="3.7457906414535698"><ele>992.6666666666667</ele><time>2026-05-02T13:00:42Z</time></trkpt><trkpt lat="45.6569597549737" lon="3.7456202904227585"><ele>990.3333333333333</ele><time>2026-05-02T13:00:43Z</time></trkpt><trkpt lat="45.65686758159038" lon="3.745458561032129"><ele>988.0</ele><time>2026-05-02T13:00:44Z</time></trkpt><trkpt lat="45.656751034798596" lon="3.745312234601734"><ele>990.0</ele><time>2026-05-02T13:00:45Z</time></trkpt><trkpt lat="45.65664109570458" lon="3.7451924377759442"><ele>992.0</ele><time>2026-05-02T13:00:46Z</time></trkpt><trkpt lat="45.656547031837654" lon="3.7450470275770464"><ele>994.0</ele><time>2026-05-02T13:00:47Z</time></trkpt><trkpt lat="45.656421184951185" lon="3.744906584513615"><ele>996.0</ele><time>2026-05-02T13:00:48Z</time></trkpt><trkpt lat="45.65630764114038" lon="3.7448119662613393"><ele>996.0</ele><time>2026-05-02T13:00:49Z</time></trkpt><trkpt lat="45.65621750996109" lon="3.7447772189231605"><ele>995.9999999999999</ele><time>2026-05-02T13:00:50Z</time></trkpt><trkpt lat="45.65614460878997" lon="3.744702625219767"><ele>995.9999999999999</ele><time>2026-05-02T13:00:51Z</time></trkpt><trkpt lat="45.65606978545532" lon="3.7446122368518555"><ele>996.0</ele><time>2026-05-02T13:00:52Z</time></trkpt><trkpt lat="45.655999753835836" lon="3.7445043708862453"><ele>996.0</ele><time>2026-05-02T13:00:53Z</time></trkpt><trkpt lat="45.655991289308275" lon="3.744373263732457"><ele>994.5</ele><time>2026-05-02T13:00:54Z</time></trkpt><trkpt lat="45.655971500575966" lon="3.7442683207034557"><ele>993.0</ele><time>2026-05-02T13:00:55Z</time></trkpt><trkpt lat="45.655969726456064" lon="3.744162705261293"><ele>991.5</ele><time>2026-05-02T13:00:56Z</time></trkpt><trkpt lat="45.65595130563052" lon="3.744051409174818"><ele>990.0</ele><time>2026-05-02T13:00:58Z</time></trkpt><trkpt lat="45.65588309671442" lon="3.7441009772930443"><ele>988.5</ele><time>2026-05-02T13:01:47Z</time></trkpt><trkpt lat="45.65580706642863" lon="3.7441362239897984"><ele>987.0</ele><time>2026-05-02T13:01:49Z</time></trkpt><trkpt lat="45.6557317081931" lon="3.744158540563122"><ele>987.0</ele><time>2026-05-02T13:01:50Z</time></trkpt><trkpt lat="45.65563233820446" lon="3.74414659866983"><ele>987.0</ele><time>2026-05-02T13:01:51Z</time></trkpt><trkpt lat="45.655523194919056" lon="3.7441402503019345"><ele>987.0</ele><time>2026-05-02T13:01:52Z</time></trkpt><trkpt lat="45.65539541263701" lon="3.744131928927224"><ele>987.0</ele><time>2026-05-02T13:01:53Z</time></trkpt><trkpt lat="45.65527503842652" lon="3.744118938715478"><ele>986.6666666666666</ele><time>2026-05-02T13:01:54Z</time></trkpt><trkpt lat="45.655176470966744" lon="3.7441114288358617"><ele>986.3333333333333</ele><time>2026-05-02T13:01:55Z</time></trkpt><trkpt lat="45.655101263249506" lon="3.744096545976827"><ele>986.0</ele><time>2026-05-02T13:01:56Z</time></trkpt><trkpt lat="45.655038503713406" lon="3.74407802862025"><ele>985.6666666666666</ele><time>2026-05-02T13:01:57Z</time></trkpt><trkpt lat="45.65497800365497" lon="3.744038789681926"><ele>985.3333333333333</ele><time>2026-05-02T13:01:58Z</time></trkpt><trkpt lat="45.65491772202036" lon="3.744003038470745"><ele>985.0</ele><time>2026-05-02T13:01:59Z</time></trkpt><trkpt lat="45.654837320257705" lon="3.743995625152224"><ele>985.0</ele><time>2026-05-02T13:02:00Z</time></trkpt><trkpt lat="45.65476145651189" lon="3.7439908877360804"><ele>985.0</ele><time>2026-05-02T13:02:01Z</time></trkpt><trkpt lat="45.65467676265431" lon="3.7439803382466414"><ele>985.0</ele><time>2026-05-02T13:02:02Z</time></trkpt><trkpt lat="45.654593460379445" lon="3.743984028882686"><ele>985.0</ele><time>2026-05-02T13:02:03Z</time></trkpt><trkpt lat="45.65449452619241" lon="3.7439689162188854"><ele>985.0</ele><time>2026-05-02T13:02:04Z</time></trkpt><trkpt lat="45.65438306467926" lon="3.7439560463123245"><ele>984.0</ele><time>2026-05-02T13:02:05Z</time></trkpt><trkpt lat="45.654268245631776" lon="3.743942944467853"><ele>983.0</ele><time>2026-05-02T13:02:06Z</time></trkpt><trkpt lat="45.6541550271617" lon="3.7439087010933054"><ele>982.0</ele><time>2026-05-02T13:02:07Z</time></trkpt><trkpt lat="45.65402781315722" lon="3.7438526536692045"><ele>981.0</ele><time>2026-05-02T13:02:08Z</time></trkpt><trkpt lat="45.653899529883745" lon="3.743805225179155"><ele>981.0</ele><time>2026-05-02T13:02:09Z</time></trkpt><trkpt lat="45.65378431731491" lon="3.7437730986054976"><ele>981.0</ele><time>2026-05-02T13:02:10Z</time></trkpt><trkpt lat="45.65367659748093" lon="3.743717453093568"><ele>981.0</ele><time>2026-05-02T13:02:11Z</time></trkpt><trkpt lat="45.653566044309436" lon="3.7436313668444363"><ele>981.0</ele><time>2026-05-02T13:02:12Z</time></trkpt><trkpt lat="45.653424262084215" lon="3.743551323388195"><ele>975.5</ele><time>2026-05-02T13:02:13Z</time></trkpt><trkpt lat="45.653280034271226" lon="3.7434474976994325"><ele>970.0</ele><time>2026-05-02T13:02:14Z</time></trkpt><trkpt lat="45.65314833668999" lon="3.7433245281814664"><ele>964.5</ele><time>2026-05-02T13:02:15Z</time></trkpt><trkpt lat="45.6530412576283" lon="3.743234328592886"><ele>959.0</ele><time>2026-05-02T13:02:16Z</time></trkpt><trkpt lat="45.65291985409048" lon="3.74314016734836"><ele>959.0</ele><time>2026-05-02T13:02:17Z</time></trkpt><trkpt lat="45.65279746605334" lon="3.7430644570201532"><ele>959.0</ele><time>2026-05-02T13:02:18Z</time></trkpt><trkpt lat="45.65266107858131" lon="3.7430114382973527"><ele>959.0</ele><time>2026-05-02T13:02:19Z</time></trkpt><trkpt lat="45.65251328305831" lon="3.7429766313443387"><ele>959.0</ele><time>2026-05-02T13:02:20Z</time></trkpt><trkpt lat="45.65237325114379" lon="3.7429425576727717"><ele>960.75</ele><time>2026-05-02T13:02:21Z</time></trkpt><trkpt lat="45.6522435816732" lon="3.74289879199306"><ele>962.5</ele><time>2026-05-02T13:02:22Z</time></trkpt><trkpt lat="45.65211590086207" lon="3.7428287026931653"><ele>964.25</ele><time>2026-05-02T13:02:23Z</time></trkpt><trkpt lat="45.651989900748966" lon="3.7427494442791613"><ele>966.0</ele><time>2026-05-02T13:02:24Z</time></trkpt><trkpt lat="45.65189296000971" lon="3.742686157205266"><ele>962.8</ele><time>2026-05-02T13:02:25Z</time></trkpt><trkpt lat="45.65180274565947" lon="3.74263387589483"><ele>959.5999999999999</ele><time>2026-05-02T13:02:26Z</time></trkpt><trkpt lat="45.651729953670205" lon="3.7425927099797622"><ele>956.4</ele><time>2026-05-02T13:02:27Z</time></trkpt><trkpt lat="45.65164906056241" lon="3.7424878948716254"><ele>953.2</ele><time>2026-05-02T13:02:29Z</time></trkpt><trkpt lat="45.65162574321564" lon="3.742381348668655"><ele>950.0</ele><time>2026-05-02T13:02:30Z</time></trkpt><trkpt lat="45.651609435679866" lon="3.7422423804983267"><ele>950.0</ele><time>2026-05-02T13:02:31Z</time></trkpt><trkpt lat="45.65160461745065" lon="3.7420914534269976"><ele>950.0</ele><time>2026-05-02T13:02:32Z</time></trkpt><trkpt lat="45.6516006737518" lon="3.7419308440124293"><ele>950.0</ele><time>2026-05-02T13:02:33Z</time></trkpt><trkpt lat="45.65159576784255" lon="3.7417480370477434"><ele>950.0</ele><time>2026-05-02T13:02:34Z</time></trkpt><trkpt lat="45.65157619185355" lon="3.7415456871358455"><ele>949.25</ele><time>2026-05-02T13:02:35Z</time></trkpt><trkpt lat="45.651560803028225" lon="3.741348006504772"><ele>948.5</ele><time>2026-05-02T13:02:36Z</time></trkpt><trkpt lat="45.651534036247895" lon="3.7411782867037138"><ele>947.75</ele><time>2026-05-02T13:02:37Z</time></trkpt><trkpt lat="45.65150328393595" lon="3.741039545427977"><ele>947.0</ele><time>2026-05-02T13:02:38Z</time></trkpt><trkpt lat="45.651453250670464" lon="3.7409180674450786"><ele>946.4000000000001</ele><time>2026-05-02T13:02:39Z</time></trkpt><trkpt lat="45.65138861043564" lon="3.7407918234013877"><ele>945.8000000000001</ele><time>2026-05-02T13:02:40Z</time></trkpt><trkpt lat="45.65131875107978" lon="3.740651327239108"><ele>945.2</ele><time>2026-05-02T13:02:41Z</time></trkpt><trkpt lat="45.65125626001304" lon="3.74050483902907"><ele>944.6</ele><time>2026-05-02T13:02:42Z</time></trkpt><trkpt lat="45.651220722533544" lon="3.740388020950976"><ele>944.0</ele><time>2026-05-02T13:02:43Z</time></trkpt><trkpt lat="45.65116297075661" lon="3.7402738829064983"><ele>941.8000000000001</ele><time>2026-05-02T13:02:44Z</time></trkpt><trkpt lat="45.65109025106789" lon="3.740174320446775"><ele>939.6000000000001</ele><time>2026-05-02T13:02:45Z</time></trkpt><trkpt lat="45.65101213662746" lon="3.7400552997285508"><ele>937.4</ele><time>2026-05-02T13:02:46Z</time></trkpt><trkpt lat="45.650944298272485" lon="3.7399405545997304"><ele>935.2</ele><time>2026-05-02T13:02:47Z</time></trkpt><trkpt lat="45.650879572581786" lon="3.739835087472579"><ele>933.0</ele><time>2026-05-02T13:02:48Z</time></trkpt><trkpt lat="45.65080946747668" lon="3.7397325225994233"><ele>933.0</ele><time>2026-05-02T13:02:49Z</time></trkpt><trkpt lat="45.650740400010285" lon="3.73961927522109"><ele>933.0</ele><time>2026-05-02T13:02:50Z</time></trkpt><trkpt lat="45.650668279126066" lon="3.7395101453404784"><ele>933.0</ele><time>2026-05-02T13:02:51Z</time></trkpt><trkpt lat="45.65059695069674" lon="3.7394270812352857"><ele>933.0</ele><time>2026-05-02T13:02:52Z</time></trkpt><trkpt lat="45.65053085747885" lon="3.7393605878119462"><ele>933.0</ele><time>2026-05-02T13:02:53Z</time></trkpt><trkpt lat="45.650465603060624" lon="3.7392751221386256"><ele>932.6666666666666</ele><time>2026-05-02T13:02:54Z</time></trkpt><trkpt lat="45.65040429366147" lon="3.739217870238665"><ele>932.3333333333333</ele><time>2026-05-02T13:02:55Z</time></trkpt><trkpt lat="45.65032681308963" lon="3.7391772341351603"><ele>932.0</ele><time>2026-05-02T13:02:57Z</time></trkpt><trkpt lat="45.65025520655775" lon="3.739148929008836"><ele>931.6666666666666</ele><time>2026-05-02T13:02:59Z</time></trkpt><trkpt lat="45.650144113447816" lon="3.7391465301799895"><ele>931.3333333333333</ele><time>2026-05-02T13:03:01Z</time></trkpt><trkpt lat="45.650082234398425" lon="3.73919082977404"><ele>931.0</ele><time>2026-05-02T13:03:02Z</time></trkpt><trkpt lat="45.650011150936045" lon="3.7392817336731996"><ele>929.8333333333333</ele><time>2026-05-02T13:03:03Z</time></trkpt><trkpt lat="45.649945793630174" lon="3.73936944263862"><ele>928.6666666666666</ele><time>2026-05-02T13:03:04Z</time></trkpt><trkpt lat="45.64988476835012" lon="3.7394110355103463"><ele>927.5</ele><time>2026-05-02T13:03:05Z</time></trkpt><trkpt lat="45.64981605386254" lon="3.7394355761274443"><ele>926.3333333333333</ele><time>2026-05-02T13:03:06Z</time></trkpt><trkpt lat="45.64974699537469" lon="3.739448163436485"><ele>925.1666666666666</ele><time>2026-05-02T13:03:07Z</time></trkpt><trkpt lat="45.64964985688481" lon="3.7394666641927126"><ele>924.0</ele><time>2026-05-02T13:03:09Z</time></trkpt><trkpt lat="45.64958134163632" lon="3.7394962849497695"><ele>924.0</ele><time>2026-05-02T13:03:11Z</time></trkpt><trkpt lat="45.649503566908365" lon="3.7395470078635245"><ele>924.0000000000001</ele><time>2026-05-02T13:03:14Z</time></trkpt><trkpt lat="45.649388904814536" lon="3.73957461427818"><ele>924.0000000000001</ele><time>2026-05-02T13:03:16Z</time></trkpt><trkpt lat="45.6493197678584" lon="3.739581965481614"><ele>924.0</ele><time>2026-05-02T13:03:17Z</time></trkpt><trkpt lat="45.649198865165" lon="3.7396241819461444"><ele>924.0</ele><time>2026-05-02T13:03:19Z</time></trkpt><trkpt lat="45.64913058880326" lon="3.739639147686819"><ele>920.2</ele><time>2026-05-02T13:03:20Z</time></trkpt><trkpt lat="45.64898972466395" lon="3.7396399125712314"><ele>916.4000000000001</ele><time>2026-05-02T13:03:22Z</time></trkpt><trkpt lat="45.648844138505495" lon="3.739606939559118"><ele>912.6</ele><time>2026-05-02T13:03:24Z</time></trkpt><trkpt lat="45.6487649097417" lon="3.739595730152034"><ele>908.8</ele><time>2026-05-02T13:03:25Z</time></trkpt><trkpt lat="45.64869460075676" lon="3.739596106056431"><ele>905.0</ele><time>2026-05-02T13:03:26Z</time></trkpt><trkpt lat="45.64862260443449" lon="3.7395995276770195"><ele>900.6</ele><time>2026-05-02T13:03:27Z</time></trkpt><trkpt lat="45.64855443806804" lon="3.73963421713807"><ele>896.2</ele><time>2026-05-02T13:03:28Z</time></trkpt><trkpt lat="45.64847909695544" lon="3.739690486624833"><ele>891.8</ele><time>2026-05-02T13:03:29Z</time></trkpt><trkpt lat="45.64839279133321" lon="3.7397413977690244"><ele>887.4</ele><time>2026-05-02T13:03:30Z</time></trkpt><trkpt lat="45.64831121477115" lon="3.739762993944785"><ele>883.0</ele><time>2026-05-02T13:03:31Z</time></trkpt><trkpt lat="45.648193746251245" lon="3.7397385182869445"><ele>883.0</ele><time>2026-05-02T13:03:33Z</time></trkpt><trkpt lat="45.648124100829065" lon="3.7397003415619263"><ele>883.0</ele><time>2026-05-02T13:03:34Z</time></trkpt><trkpt lat="45.64802685515153" lon="3.7396539501770385"><ele>883.0</ele><time>2026-05-02T13:03:35Z</time></trkpt><trkpt lat="45.6479298726883" lon="3.7396064392992887"><ele>883.0</ele><time>2026-05-02T13:03:36Z</time></trkpt><trkpt lat="45.647843176005885" lon="3.739570389604009"><ele>883.0</ele><time>2026-05-02T13:03:37Z</time></trkpt><trkpt lat="45.64775793670515" lon="3.739542488267974"><ele>880.2</ele><time>2026-05-02T13:03:38Z</time></trkpt><trkpt lat="45.64763440651819" lon="3.7395129150595903"><ele>877.4</ele><time>2026-05-02T13:03:40Z</time></trkpt><trkpt lat="45.64756029494964" lon="3.7394877479582527"><ele>874.6000000000001</ele><time>2026-05-02T13:03:41Z</time></trkpt><trkpt lat="45.64747553583455" lon="3.7394282676044046"><ele>871.8000000000001</ele><time>2026-05-02T13:03:42Z</time></trkpt><trkpt lat="45.647391718667144" lon="3.7393755719903665"><ele>869.0</ele><time>2026-05-02T13:03:43Z</time></trkpt><trkpt lat="45.647325701617305" lon="3.7393191179037863"><ele>869.0000000000001</ele><time>2026-05-02T13:03:44Z</time></trkpt><trkpt lat="45.647246165666246" lon="3.7392762698162323"><ele>869.0</ele><time>2026-05-02T13:03:46Z</time></trkpt><trkpt lat="45.647164711270015" lon="3.7391787403641046"><ele>869.0</ele><time>2026-05-02T13:03:48Z</time></trkpt><trkpt lat="45.64709788701093" lon="3.739118516589214"><ele>869.0</ele><time>2026-05-02T13:03:50Z</time></trkpt><trkpt lat="45.64703053547052" lon="3.7390801190998477"><ele>869.0000000000001</ele><time>2026-05-02T13:03:52Z</time></trkpt><trkpt lat="45.64694386846096" lon="3.7390270684779727"><ele>869.0</ele><time>2026-05-02T13:03:54Z</time></trkpt><trkpt lat="45.64686546986084" lon="3.7389361767205647"><ele>866.2</ele><time>2026-05-02T13:04:42Z</time></trkpt><trkpt lat="45.64679848693798" lon="3.7389198935088945"><ele>863.4000000000001</ele><time>2026-05-02T13:04:43Z</time></trkpt><trkpt lat="45.646712729383346" lon="3.7388684160840344"><ele>860.6</ele><time>2026-05-02T13:04:45Z</time></trkpt><trkpt lat="45.64663667776346" lon="3.7387565678544075"><ele>857.8</ele><time>2026-05-02T13:04:47Z</time></trkpt><trkpt lat="45.64657149351256" lon="3.7386053805523747"><ele>855.0</ele><time>2026-05-02T13:04:49Z</time></trkpt><trkpt lat="45.6465184428955" lon="3.73853773947314"><ele>855.0</ele><time>2026-05-02T13:04:50Z</time></trkpt><trkpt lat="45.6464670189098" lon="3.738483682856926"><ele>855.0</ele><time>2026-05-02T13:04:51Z</time></trkpt><trkpt lat="45.64641006047534" lon="3.738442134703811"><ele>855.0</ele><time>2026-05-02T13:04:52Z</time></trkpt><trkpt lat="45.646339540852544" lon="3.7384113491631"><ele>855.0</ele><time>2026-05-02T13:04:53Z</time></trkpt><trkpt lat="45.64627719527732" lon="3.7383660602531887"><ele>855.0</ele><time>2026-05-02T13:04:54Z</time></trkpt><trkpt lat="45.646215068199794" lon="3.7383190017005563"><ele>855.0</ele><time>2026-05-02T13:04:55Z</time></trkpt><trkpt lat="45.64614490151928" lon="3.738274406105985"><ele>855.0</ele><time>2026-05-02T13:04:56Z</time></trkpt><trkpt lat="45.646060024476924" lon="3.7382389994093286"><ele>850.8333333333334</ele><time>2026-05-02T13:04:58Z</time></trkpt><trkpt lat="45.645999705160555" lon="3.738275042335671"><ele>846.6666666666667</ele><time>2026-05-02T13:04:59Z</time></trkpt><trkpt lat="45.645927333068535" lon="3.7383164378175198"><ele>842.5</ele><time>2026-05-02T13:05:00Z</time></trkpt><trkpt lat="45.6458780205023" lon="3.7383888480154783"><ele>838.3333333333334</ele><time>2026-05-02T13:05:01Z</time></trkpt><trkpt lat="45.64585149349158" lon="3.738478054712576"><ele>834.1666666666667</ele><time>2026-05-02T13:05:02Z</time></trkpt><trkpt lat="45.64584240040906" lon="3.7385676377945396"><ele>830.0</ele><time>2026-05-02T13:05:03Z</time></trkpt><trkpt lat="45.64577964659353" lon="3.738714667337967"><ele>830.0</ele><time>2026-05-02T13:05:05Z</time></trkpt><trkpt lat="45.64571103365584" lon="3.7387435984905464"><ele>830.0</ele><time>2026-05-02T13:05:06Z</time></trkpt><trkpt lat="45.645655315161775" lon="3.7386854917742975"><ele>830.0</ele><time>2026-05-02T13:05:07Z</time></trkpt><trkpt lat="45.6455941870852" lon="3.7386129007468676"><ele>830.0</ele><time>2026-05-02T13:05:08Z</time></trkpt><trkpt lat="45.645542866775" lon="3.7385422300985565"><ele>830.0</ele><time>2026-05-02T13:05:09Z</time></trkpt><trkpt lat="45.64549604645042" lon="3.738460830082164"><ele>830.0</ele><time>2026-05-02T13:05:10Z</time></trkpt><trkpt lat="45.645463469596216" lon="3.738364492535094"><ele>830.0</ele><time>2026-05-02T13:05:11Z</time></trkpt><trkpt lat="45.64542809764337" lon="3.738285787927954"><ele>830.0</ele><time>2026-05-02T13:05:12Z</time></trkpt><trkpt lat="45.64539162776975" lon="3.7381315968529463"><ele>830.0</ele><time>2026-05-02T13:05:14Z</time></trkpt><trkpt lat="45.645417118305595" lon="3.7379814447572017"><ele>830.0</ele><time>2026-05-02T13:05:15Z</time></trkpt><trkpt lat="45.645420144390435" lon="3.7378518547177717"><ele>830.0</ele><time>2026-05-02T13:05:16Z</time></trkpt><trkpt lat="45.6454089409677" lon="3.7377307281300465"><ele>830.0</ele><time>2026-05-02T13:05:17Z</time></trkpt><trkpt lat="45.645392781141695" lon="3.7376374769177607"><ele>828.6</ele><time>2026-05-02T13:05:18Z</time></trkpt><trkpt lat="45.64541762358424" lon="3.7374863487092087"><ele>827.2</ele><time>2026-05-02T13:05:20Z</time></trkpt><trkpt lat="45.64544415102109" lon="3.7373117957228135"><ele>825.8</ele><time>2026-05-02T13:05:22Z</time></trkpt><trkpt lat="45.645467512816374" lon="3.7372150888205824"><ele>824.4</ele><time>2026-05-02T13:05:23Z</time></trkpt><trkpt lat="45.64547789581499" lon="3.7370565533828244"><ele>823.0</ele><time>2026-05-02T13:05:25Z</time></trkpt><trkpt lat="45.645369764114555" lon="3.7369833969067665"><ele>818.2</ele><time>2026-05-02T13:05:27Z</time></trkpt><trkpt lat="45.64528965495898" lon="3.7370108302591496"><ele>813.4</ele><time>2026-05-02T13:05:29Z</time></trkpt><trkpt lat="45.64521154877582" lon="3.7370463641308853"><ele>808.6</ele><time>2026-05-02T13:05:30Z</time></trkpt><trkpt lat="45.64515146555727" lon="3.7370846581781056"><ele>803.8000000000001</ele><time>2026-05-02T13:05:31Z</time></trkpt><trkpt lat="45.64503783776539" lon="3.737172115266377"><ele>799.0</ele><time>2026-05-02T13:05:33Z</time></trkpt><trkpt lat="45.644934341081594" lon="3.737236787837083"><ele>799.0</ele><time>2026-05-02T13:05:35Z</time></trkpt><trkpt lat="45.64485107282294" lon="3.737313138494689"><ele>799.0</ele><time>2026-05-02T13:05:37Z</time></trkpt><trkpt lat="45.64477194952145" lon="3.737278843644041"><ele>799.0</ele><time>2026-05-02T13:05:38Z</time></trkpt><trkpt lat="45.64466057813036" lon="3.737212253793279"><ele>799.0</ele><time>2026-05-02T13:05:39Z</time></trkpt><trkpt lat="45.64455031382435" lon="3.737133932120289"><ele>799.0</ele><time>2026-05-02T13:05:40Z</time></trkpt><trkpt lat="45.64446162960635" lon="3.737062374962923"><ele>795.4999999999999</ele><time>2026-05-02T13:05:41Z</time></trkpt><trkpt lat="45.64437656568193" lon="3.736991098705697"><ele>792.0</ele><time>2026-05-02T13:05:42Z</time></trkpt><trkpt lat="45.644285953198796" lon="3.7369194066831115"><ele>788.5</ele><time>2026-05-02T13:05:43Z</time></trkpt><trkpt lat="45.64421393248491" lon="3.736852516377356"><ele>785.0</ele><time>2026-05-02T13:05:44Z</time></trkpt><trkpt lat="45.644146573893224" lon="3.7368254074196585"><ele>781.4999999999999</ele><time>2026-05-02T13:05:45Z</time></trkpt><trkpt lat="45.644055678022966" lon="3.736827168471767"><ele>778.0</ele><time>2026-05-02T13:05:46Z</time></trkpt><trkpt lat="45.6439518908316" lon="3.736830642766998"><ele>776.4999999999999</ele><time>2026-05-02T13:05:47Z</time></trkpt><trkpt lat="45.64385579035129" lon="3.7368392198154443"><ele>775.0</ele><time>2026-05-02T13:05:48Z</time></trkpt><trkpt lat="45.64376866695722" lon="3.736855409235326"><ele>773.5</ele><time>2026-05-02T13:05:49Z</time></trkpt><trkpt lat="45.64368066734447" lon="3.7368663423145883"><ele>772.0</ele><time>2026-05-02T13:05:50Z</time></trkpt><trkpt lat="45.64359909186237" lon="3.736878828757292"><ele>770.4999999999999</ele><time>2026-05-02T13:05:51Z</time></trkpt><trkpt lat="45.64351974027315" lon="3.7368761841552067"><ele>769.0</ele><time>2026-05-02T13:05:52Z</time></trkpt><trkpt lat="45.643434314754444" lon="3.7368445468801554"><ele>766.3333333333333</ele><time>2026-05-02T13:05:53Z</time></trkpt><trkpt lat="45.6433605566891" lon="3.7368020206360355"><ele>763.6666666666666</ele><time>2026-05-02T13:05:54Z</time></trkpt><trkpt lat="45.64329228646194" lon="3.7367511751100118"><ele>761.0</ele><time>2026-05-02T13:05:55Z</time></trkpt><trkpt lat="45.643227448877596" lon="3.736684748486459"><ele>758.3333333333333</ele><time>2026-05-02T13:05:56Z</time></trkpt><trkpt lat="45.64316372302808" lon="3.736604295352388"><ele>755.6666666666666</ele><time>2026-05-02T13:05:57Z</time></trkpt><trkpt lat="45.64309647407658" lon="3.736538115172532"><ele>753.0</ele><time>2026-05-02T13:05:58Z</time></trkpt><trkpt lat="45.64302614258328" lon="3.7364829083395734"><ele>753.0</ele><time>2026-05-02T13:05:59Z</time></trkpt><trkpt lat="45.64294400890589" lon="3.7364549934315123"><ele>753.0</ele><time>2026-05-02T13:06:00Z</time></trkpt><trkpt lat="45.64286073779066" lon="3.736459903900228"><ele>753.0</ele><time>2026-05-02T13:06:01Z</time></trkpt><trkpt lat="45.64279618484616" lon="3.736498110405335"><ele>753.0</ele><time>2026-05-02T13:06:02Z</time></trkpt><trkpt lat="45.64272656931047" lon="3.736534931195344"><ele>753.0</ele><time>2026-05-02T13:06:03Z</time></trkpt><trkpt lat="45.642649388154645" lon="3.736545561614164"><ele>753.0</ele><time>2026-05-02T13:06:04Z</time></trkpt><trkpt lat="45.64255662133693" lon="3.7365310660337445"><ele>750.8333333333334</ele><time>2026-05-02T13:06:05Z</time></trkpt><trkpt lat="45.64246248132063" lon="3.7365139338970264"><ele>748.6666666666666</ele><time>2026-05-02T13:06:06Z</time></trkpt><trkpt lat="45.642377154210706" lon="3.7364921632451322"><ele>746.5</ele><time>2026-05-02T13:06:07Z</time></trkpt><trkpt lat="45.64230898800441" lon="3.7364501187990586"><ele>744.3333333333333</ele><time>2026-05-02T13:06:08Z</time></trkpt><trkpt lat="45.642251173306576" lon="3.7364121978388956"><ele>742.1666666666666</ele><time>2026-05-02T13:06:09Z</time></trkpt><trkpt lat="45.642204535475756" lon="3.736351548067654"><ele>740.0</ele><time>2026-05-02T13:06:10Z</time></trkpt><trkpt lat="45.642187730556586" lon="3.7362584767566926"><ele>740.0</ele><time>2026-05-02T13:06:11Z</time></trkpt><trkpt lat="45.64219396107765" lon="3.736147922893461"><ele>740.0</ele><time>2026-05-02T13:06:12Z</time></trkpt><trkpt lat="45.6422226929163" lon="3.736029882623291"><ele>740.0</ele><time>2026-05-02T13:06:13Z</time></trkpt><trkpt lat="45.64223920137838" lon="3.735912456458133"><ele>740.0</ele><time>2026-05-02T13:06:14Z</time></trkpt><trkpt lat="45.64222208180934" lon="3.735795358219815"><ele>740.0</ele><time>2026-05-02T13:06:15Z</time></trkpt><trkpt lat="45.64218547388828" lon="3.735676497898195"><ele>740.0</ele><time>2026-05-02T13:06:16Z</time></trkpt><trkpt lat="45.642145983380416" lon="3.7355707471235324"><ele>739.6</ele><time>2026-05-02T13:06:17Z</time></trkpt><trkpt lat="45.64211259410794" lon="3.735487261091653"><ele>739.2</ele><time>2026-05-02T13:06:18Z</time></trkpt><trkpt lat="45.642077243442984" lon="3.7353878023178004"><ele>738.8</ele><time>2026-05-02T13:06:20Z</time></trkpt><trkpt lat="45.641979978893254" lon="3.7352946476107096"><ele>738.4</ele><time>2026-05-02T13:07:01Z</time></trkpt><trkpt lat="45.64188326034978" lon="3.735135644917012"><ele>738.0</ele><time>2026-05-02T13:07:03Z</time></trkpt><trkpt lat="45.64181896659757" lon="3.735005990405711"><ele>734.25</ele><time>2026-05-02T13:07:04Z</time></trkpt><trkpt lat="45.64174730069749" lon="3.7348575882297017"><ele>730.5</ele><time>2026-05-02T13:07:05Z</time></trkpt><trkpt lat="45.641682890581194" lon="3.7347163168201867"><ele>726.75</ele><time>2026-05-02T13:07:06Z</time></trkpt><trkpt lat="45.64162351206176" lon="3.73459685953704"><ele>723.0</ele><time>2026-05-02T13:07:07Z</time></trkpt><trkpt lat="45.641555322172046" lon="3.7344734707776643"><ele>722.0</ele><time>2026-05-02T13:07:08Z</time></trkpt><trkpt lat="45.64147737663444" lon="3.734368579349281"><ele>721.0</ele><time>2026-05-02T13:07:09Z</time></trkpt><trkpt lat="45.64140199270028" lon="3.734265752018425"><ele>720.0</ele><time>2026-05-02T13:07:10Z</time></trkpt><trkpt lat="45.64132803069218" lon="3.7341557204281104"><ele>719.0</ele><time>2026-05-02T13:07:11Z</time></trkpt><trkpt lat="45.6412539858527" lon="3.7340429014788605"><ele>718.0</ele><time>2026-05-02T13:07:12Z</time></trkpt><trkpt lat="45.64118481514488" lon="3.7339325735545494"><ele>715.8</ele><time>2026-05-02T13:07:13Z</time></trkpt><trkpt lat="45.64110998378563" lon="3.7338309356845016"><ele>713.5999999999999</ele><time>2026-05-02T13:07:14Z</time></trkpt><trkpt lat="45.641056845990356" lon="3.733755221616328"><ele>711.4000000000001</ele><time>2026-05-02T13:07:15Z</time></trkpt><trkpt lat="45.640976951550535" lon="3.7336309477181704"><ele>709.2</ele><time>2026-05-02T13:07:17Z</time></trkpt><trkpt lat="45.64093856081348" lon="3.733559043164526"><ele>707.0</ele><time>2026-05-02T13:07:18Z</time></trkpt><trkpt lat="45.64085912276463" lon="3.7334283007857167"><ele>706.0</ele><time>2026-05-02T13:07:20Z</time></trkpt><trkpt lat="45.64078919134374" lon="3.7332946924182666"><ele>705.0</ele><time>2026-05-02T13:07:22Z</time></trkpt><trkpt lat="45.64071775272435" lon="3.733166443422716"><ele>704.0</ele><time>2026-05-02T13:07:24Z</time></trkpt><trkpt lat="45.640672605271874" lon="3.733088679690362"><ele>703.0</ele><time>2026-05-02T13:07:25Z</time></trkpt><trkpt lat="45.64061821791141" lon="3.7329984678481987"><ele>702.0</ele><time>2026-05-02T13:07:26Z</time></trkpt><trkpt lat="45.64056410266552" lon="3.732901869955538"><ele>702.0</ele><time>2026-05-02T13:07:27Z</time></trkpt><trkpt lat="45.640509927490164" lon="3.7327989512606727"><ele>702.0</ele><time>2026-05-02T13:07:28Z</time></trkpt><trkpt lat="45.64044534284564" lon="3.7326933923609977"><ele>702.0</ele><time>2026-05-02T13:07:29Z</time></trkpt><trkpt lat="45.640350828789856" lon="3.7325983536728273"><ele>702.0</ele><time>2026-05-02T13:07:30Z</time></trkpt><trkpt lat="45.64023813559845" lon="3.7325212421413196"><ele>702.0</ele><time>2026-05-02T13:07:31Z</time></trkpt><trkpt lat="45.640135056644944" lon="3.732475022502584"><ele>700.4000000000001</ele><time>2026-05-02T13:07:32Z</time></trkpt><trkpt lat="45.640019676394125" lon="3.7324402517003206"><ele>698.8000000000001</ele><time>2026-05-02T13:07:33Z</time></trkpt><trkpt lat="45.639912688848916" lon="3.7324147903072555"><ele>697.2</ele><time>2026-05-02T13:07:34Z</time></trkpt><trkpt lat="45.6398061180551" lon="3.7323581711437464"><ele>695.6</ele><time>2026-05-02T13:07:35Z</time></trkpt><trkpt lat="45.63971243609749" lon="3.7322856124382593"><ele>694.0</ele><time>2026-05-02T13:07:36Z</time></trkpt><trkpt lat="45.639628660092846" lon="3.732177913953384"><ele>694.0</ele><time>2026-05-02T13:07:37Z</time></trkpt><trkpt lat="45.639548390223005" lon="3.7320660427051706"><ele>694.0</ele><time>2026-05-02T13:07:38Z</time></trkpt><trkpt lat="45.63946496534757" lon="3.7319493829832644"><ele>694.0</ele><time>2026-05-02T13:07:39Z</time></trkpt><trkpt lat="45.63938373898736" lon="3.731827256596653"><ele>694.0</ele><time>2026-05-02T13:07:40Z</time></trkpt><trkpt lat="45.63929723749004" lon="3.73169494697408"><ele>690.75</ele><time>2026-05-02T13:07:41Z</time></trkpt><trkpt lat="45.639202457762956" lon="3.731556454200828"><ele>687.5</ele><time>2026-05-02T13:07:42Z</time></trkpt><trkpt lat="45.63911176614058" lon="3.7314276798230757"><ele>684.25</ele><time>2026-05-02T13:07:43Z</time></trkpt><trkpt lat="45.63902893564255" lon="3.7313074344905734"><ele>681.0</ele><time>2026-05-02T13:07:44Z</time></trkpt><trkpt lat="45.638954456855565" lon="3.7312021716780652"><ele>681.0</ele><time>2026-05-02T13:07:45Z</time></trkpt><trkpt lat="45.6388827618861" lon="3.731104765878568"><ele>681.0</ele><time>2026-05-02T13:07:46Z</time></trkpt><trkpt lat="45.63880550736113" lon="3.731000529843555"><ele>681.0</ele><time>2026-05-02T13:07:47Z</time></trkpt><trkpt lat="45.638735319526894" lon="3.730898169693822"><ele>681.0</ele><time>2026-05-02T13:07:48Z</time></trkpt><trkpt lat="45.63866493905334" lon="3.730799761762015"><ele>681.0</ele><time>2026-05-02T13:07:49Z</time></trkpt><trkpt lat="45.638599542634374" lon="3.7306993760605267"><ele>678.6666666666666</ele><time>2026-05-02T13:07:50Z</time></trkpt><trkpt lat="45.638539197413735" lon="3.7305996912887984"><ele>676.3333333333334</ele><time>2026-05-02T13:07:51Z</time></trkpt><trkpt lat="45.63848281560986" lon="3.7305053110906945"><ele>674.0</ele><time>2026-05-02T13:07:52Z</time></trkpt><trkpt lat="45.63841885414676" lon="3.730436436670013"><ele>671.6666666666667</ele><time>2026-05-02T13:07:53Z</time></trkpt><trkpt lat="45.63836767154935" lon="3.7303768903322014"><ele>669.3333333333334</ele><time>2026-05-02T13:07:54Z</time></trkpt><trkpt lat="45.63827800769225" lon="3.7303415612725592"><ele>667.0</ele><time>2026-05-02T13:07:56Z</time></trkpt><trkpt lat="45.63816379670563" lon="3.7304203232779116"><ele>667.0</ele><time>2026-05-02T13:07:58Z</time></trkpt><trkpt lat="45.638085599765745" lon="3.730482433857025"><ele>667.0</ele><time>2026-05-02T13:08:00Z</time></trkpt><trkpt lat="45.638074167793434" lon="3.730596183157516"><ele>667.0</ele><time>2026-05-02T13:08:02Z</time></trkpt><trkpt lat="45.63814278090341" lon="3.730763384656774"><ele>667.0</ele><time>2026-05-02T13:08:04Z</time></trkpt><trkpt lat="45.63818386804126" lon="3.7308979600533747"><ele>667.0</ele><time>2026-05-02T13:08:05Z</time></trkpt><trkpt lat="45.638168354597894" lon="3.731074859970005"><ele>667.75</ele><time>2026-05-02T13:08:06Z</time></trkpt><trkpt lat="45.638120450054615" lon="3.731187576333128"><ele>668.5</ele><time>2026-05-02T13:08:07Z</time></trkpt><trkpt lat="45.637989994293626" lon="3.7312494724685887"><ele>669.25</ele><time>2026-05-02T13:08:08Z</time></trkpt><trkpt lat="45.63788313050523" lon="3.7313526361651705"><ele>670.0</ele><time>2026-05-02T13:08:09Z</time></trkpt><trkpt lat="45.63778196575697" lon="3.7314883249018727"><ele>669.25</ele><time>2026-05-02T13:08:10Z</time></trkpt><trkpt lat="45.63767123260991" lon="3.731585876455136"><ele>668.5</ele><time>2026-05-02T13:08:11Z</time></trkpt><trkpt lat="45.63755750711747" lon="3.731701036284927"><ele>667.75</ele><time>2026-05-02T13:08:12Z</time></trkpt><trkpt lat="45.637431824020815" lon="3.7318139749527734"><ele>667.0</ele><time>2026-05-02T13:08:13Z</time></trkpt><trkpt lat="45.63731268011501" lon="3.7319082160149057"><ele>667.0</ele><time>2026-05-02T13:08:14Z</time></trkpt><trkpt lat="45.637193273955205" lon="3.7319824880936627"><ele>667.0</ele><time>2026-05-02T13:08:15Z</time></trkpt><trkpt lat="45.637064714385446" lon="3.7320473141969797"><ele>667.0</ele><time>2026-05-02T13:08:16Z</time></trkpt><trkpt lat="45.63693021535382" lon="3.7321123664771516"><ele>667.0</ele><time>2026-05-02T13:08:17Z</time></trkpt><trkpt lat="45.63677250082958" lon="3.7321241687527285"><ele>663.6666666666667</ele><time>2026-05-02T13:08:18Z</time></trkpt><trkpt lat="45.636623801570806" lon="3.7321667007290285"><ele>660.3333333333334</ele><time>2026-05-02T13:08:19Z</time></trkpt><trkpt lat="45.636472904871724" lon="3.7322139011582016"><ele>657.0</ele><time>2026-05-02T13:08:20Z</time></trkpt><trkpt lat="45.636309743564134" lon="3.7322409907986542"><ele>657.0</ele><time>2026-05-02T13:08:21Z</time></trkpt><trkpt lat="45.63616713653316" lon="3.73228589170531"><ele>657.0</ele><time>2026-05-02T13:08:22Z</time></trkpt><trkpt lat="45.63602256364856" lon="3.732329153946692"><ele>657.0</ele><time>2026-05-02T13:08:23Z</time></trkpt><trkpt lat="45.63588847008289" lon="3.7323673086116096"><ele>657.0</ele><time>2026-05-02T13:08:24Z</time></trkpt><trkpt lat="45.63573669482956" lon="3.732406981752502"><ele>655.5</ele><time>2026-05-02T13:08:25Z</time></trkpt><trkpt lat="45.63558679609612" lon="3.7324376687319623"><ele>654.0</ele><time>2026-05-02T13:08:26Z</time></trkpt><trkpt lat="45.635455044651316" lon="3.732459051640984"><ele>652.5</ele><time>2026-05-02T13:08:27Z</time></trkpt><trkpt lat="45.63531753416916" lon="3.732465574192408"><ele>651.0</ele><time>2026-05-02T13:08:28Z</time></trkpt><trkpt lat="45.63517912397208" lon="3.7324580463710335"><ele>649.25</ele><time>2026-05-02T13:08:29Z</time></trkpt><trkpt lat="45.63502980064185" lon="3.7324439576179516"><ele>647.5</ele><time>2026-05-02T13:08:30Z</time></trkpt><trkpt lat="45.63489015941566" lon="3.7324529450100563"><ele>645.75</ele><time>2026-05-02T13:08:31Z</time></trkpt><trkpt lat="45.63476423842515" lon="3.732443270243778"><ele>644.0</ele><time>2026-05-02T13:08:32Z</time></trkpt><trkpt lat="45.63464841743034" lon="3.7324442744576327"><ele>644.0</ele><time>2026-05-02T13:08:33Z</time></trkpt><trkpt lat="45.634535141147936" lon="3.73245285768242"><ele>644.0</ele><time>2026-05-02T13:08:34Z</time></trkpt><trkpt lat="45.63442318516845" lon="3.732473135422102"><ele>644.0</ele><time>2026-05-02T13:08:35Z</time></trkpt><trkpt lat="45.63433012107149" lon="3.732522442484715"><ele>644.0</ele><time>2026-05-02T13:08:36Z</time></trkpt><trkpt lat="45.63424516592968" lon="3.7326054264494837"><ele>644.0</ele><time>2026-05-02T13:08:37Z</time></trkpt><trkpt lat="45.634175546112864" lon="3.7327143723248546"><ele>643.75</ele><time>2026-05-02T13:08:38Z</time></trkpt><trkpt lat="45.63416210808006" lon="3.7329020566256186"><ele>643.5</ele><time>2026-05-02T13:08:39Z</time></trkpt><trkpt lat="45.63415766276018" lon="3.733082592048774"><ele>643.25</ele><time>2026-05-02T13:08:40Z</time></trkpt><trkpt lat="45.63418580500597" lon="3.733271226003583"><ele>643.0</ele><time>2026-05-02T13:08:41Z</time></trkpt><trkpt lat="45.634231766390776" lon="3.7334649818625025"><ele>645.0</ele><time>2026-05-02T13:08:42Z</time></trkpt><trkpt lat="45.63428132758916" lon="3.7336580549739886"><ele>647.0</ele><time>2026-05-02T13:08:43Z</time></trkpt><trkpt lat="45.63433836572952" lon="3.733851219691954"><ele>649.0</ele><time>2026-05-02T13:08:44Z</time></trkpt><trkpt lat="45.63437187560385" lon="3.7340155135428863"><ele>651.0</ele><time>2026-05-02T13:08:45Z</time></trkpt><trkpt lat="45.63437819804144" lon="3.7341631215838293"><ele>651.0</ele><time>2026-05-02T13:08:46Z</time></trkpt><trkpt lat="45.6343464810492" lon="3.734319930654357"><ele>651.0</ele><time>2026-05-02T13:08:47Z</time></trkpt><trkpt lat="45.63431724669649" lon="3.7344893387669424"><ele>651.0</ele><time>2026-05-02T13:08:48Z</time></trkpt><trkpt lat="45.6342718979763" lon="3.7346688166680058"><ele>651.0</ele><time>2026-05-02T13:08:49Z</time></trkpt><trkpt lat="45.634223113839305" lon="3.734839467871095"><ele>653.0</ele><time>2026-05-02T13:08:50Z</time></trkpt><trkpt lat="45.63413864348222" lon="3.7349640506422253"><ele>655.0</ele><time>2026-05-02T13:08:51Z</time></trkpt><trkpt lat="45.63403044904866" lon="3.7350661453868494"><ele>657.0</ele><time>2026-05-02T13:08:52Z</time></trkpt><trkpt lat="45.6339124777556" lon="3.7351823369228243"><ele>659.0</ele><time>2026-05-02T13:08:53Z</time></trkpt><trkpt lat="45.6337822474296" lon="3.7353291362761745"><ele>660.6666666666666</ele><time>2026-05-02T13:08:54Z</time></trkpt><trkpt lat="45.63363420176798" lon="3.735479271241962"><ele>662.3333333333334</ele><time>2026-05-02T13:08:55Z</time></trkpt><trkpt lat="45.633474135400284" lon="3.7356245777954817"><ele>664.0</ele><time>2026-05-02T13:08:56Z</time></trkpt><trkpt lat="45.63334825916902" lon="3.7357523067053586"><ele>664.0</ele><time>2026-05-02T13:08:57Z</time></trkpt><trkpt lat="45.633255682774696" lon="3.735879670237457"><ele>664.0</ele><time>2026-05-02T13:08:58Z</time></trkpt><trkpt lat="45.63317482179412" lon="3.736039550814295"><ele>664.0</ele><time>2026-05-02T13:08:59Z</time></trkpt><trkpt lat="45.633121515871174" lon="3.736247715140053"><ele>664.0</ele><time>2026-05-02T13:09:00Z</time></trkpt><trkpt lat="45.63309371870888" lon="3.7364916282665037"><ele>666.6666666666667</ele><time>2026-05-02T13:09:01Z</time></trkpt><trkpt lat="45.6330672926647" lon="3.73674477716484"><ele>669.3333333333334</ele><time>2026-05-02T13:09:02Z</time></trkpt><trkpt lat="45.632966239726436" lon="3.736947947674233"><ele>672.0</ele><time>2026-05-02T13:09:03Z</time></trkpt><trkpt lat="45.63285335286314" lon="3.7371626015744077"><ele>673.6666666666666</ele><time>2026-05-02T13:09:04Z</time></trkpt><trkpt lat="45.63274218934089" lon="3.7374094181164628"><ele>675.3333333333333</ele><time>2026-05-02T13:09:05Z</time></trkpt><trkpt lat="45.63260994897683" lon="3.737649917263837"><ele>677.0</ele><time>2026-05-02T13:09:06Z</time></trkpt><trkpt lat="45.632477180179166" lon="3.737915542548289"><ele>682.0</ele><time>2026-05-02T13:09:07Z</time></trkpt><trkpt lat="45.63233869652613" lon="3.738190852274189"><ele>687.0</ele><time>2026-05-02T13:09:08Z</time></trkpt><trkpt lat="45.63220415267805" lon="3.7384762859776557"><ele>688.5</ele><time>2026-05-02T13:09:09Z</time></trkpt><trkpt lat="45.632073530610015" lon="3.7387724163705554"><ele>690.0</ele><time>2026-05-02T13:09:10Z</time></trkpt><trkpt lat="45.63194528497606" lon="3.7390564102298924"><ele>690.0</ele><time>2026-05-02T13:09:11Z</time></trkpt><trkpt lat="45.631838100308485" lon="3.7392859341297195"><ele>690.0</ele><time>2026-05-02T13:09:12Z</time></trkpt><trkpt lat="45.6317558230394" lon="3.7394576783357696"><ele>690.0</ele><time>2026-05-02T13:09:13Z</time></trkpt><trkpt lat="45.63169886163077" lon="3.739568893806158"><ele>690.0</ele><time>2026-05-02T13:09:14Z</time></trkpt><trkpt lat="45.63165165313837" lon="3.7396664139892355"><ele>692.8</ele><time>2026-05-02T13:09:16Z</time></trkpt><trkpt lat="45.63160412246997" lon="3.7397571445560764"><ele>695.6</ele><time>2026-05-02T13:09:19Z</time></trkpt><trkpt lat="45.6315939919823" lon="3.7398852619168776"><ele>698.4000000000001</ele><time>2026-05-02T13:09:20Z</time></trkpt><trkpt lat="45.631566023424995" lon="3.740008938585968"><ele>701.2</ele><time>2026-05-02T13:09:21Z</time></trkpt><trkpt lat="45.6315335485007" lon="3.7401585992339124"><ele>704.0</ele><time>2026-05-02T13:09:22Z</time></trkpt><trkpt lat="45.63148527981607" lon="3.740285418179773"><ele>707.0</ele><time>2026-05-02T13:09:23Z</time></trkpt><trkpt lat="45.631432588106975" lon="3.740425790256648"><ele>710.0</ele><time>2026-05-02T13:09:24Z</time></trkpt><trkpt lat="45.6313973524408" lon="3.7405638464021114"><ele>713.0</ele><time>2026-05-02T13:09:25Z</time></trkpt><trkpt lat="45.63137703660408" lon="3.7406807257942147"><ele>716.0</ele><time>2026-05-02T13:09:26Z</time></trkpt><trkpt lat="45.63137354033746" lon="3.7408121463940147"><ele>719.0</ele><time>2026-05-02T13:09:27Z</time></trkpt><trkpt lat="45.63138666464244" lon="3.7409427347856945"><ele>721.0</ele><time>2026-05-02T13:09:28Z</time></trkpt><trkpt lat="45.63144465809105" lon="3.7410771864516805"><ele>723.0</ele><time>2026-05-02T13:09:29Z</time></trkpt><trkpt lat="45.631470409951156" lon="3.7412356381039036"><ele>725.0</ele><time>2026-05-02T13:09:30Z</time></trkpt><trkpt lat="45.63150553186569" lon="3.741421552099162"><ele>727.0</ele><time>2026-05-02T13:09:31Z</time></trkpt><trkpt lat="45.63151680026313" lon="3.741626600989737"><ele>727.0</ele><time>2026-05-02T13:09:32Z</time></trkpt><trkpt lat="45.6315376459887" lon="3.741867693930813"><ele>727.0</ele><time>2026-05-02T13:09:33Z</time></trkpt><trkpt lat="45.63152835475597" lon="3.742039789326732"><ele>727.0</ele><time>2026-05-02T13:09:34Z</time></trkpt><trkpt lat="45.63150619499143" lon="3.7421580554340133"><ele>727.0</ele><time>2026-05-02T13:09:35Z</time></trkpt><trkpt lat="45.63147546024702" lon="3.742258055080563"><ele>732.75</ele><time>2026-05-02T13:09:36Z</time></trkpt><trkpt lat="45.63138979250087" lon="3.7422597416634664"><ele>738.5</ele><time>2026-05-02T13:09:37Z</time></trkpt><trkpt lat="45.6312779550956" lon="3.742187619505559"><ele>744.25</ele><time>2026-05-02T13:09:38Z</time></trkpt><trkpt lat="45.63114818810013" lon="3.742180198069962"><ele>750.0</ele><time>2026-05-02T13:09:39Z</time></trkpt><trkpt lat="45.631020688470784" lon="3.742213954110644"><ele>750.0</ele><time>2026-05-02T13:09:40Z</time></trkpt><trkpt lat="45.63087194939874" lon="3.7423166213910193"><ele>750.0</ele><time>2026-05-02T13:09:41Z</time></trkpt><trkpt lat="45.63071040959901" lon="3.742423693666482"><ele>750.0</ele><time>2026-05-02T13:09:42Z</time></trkpt><trkpt lat="45.63055392798342" lon="3.7425881595124575"><ele>752.3333333333334</ele><time>2026-05-02T13:09:43Z</time></trkpt><trkpt lat="45.63040214022784" lon="3.7427372272978907"><ele>754.6666666666667</ele><time>2026-05-02T13:09:44Z</time></trkpt><trkpt lat="45.630284600405965" lon="3.742894966616751"><ele>757.0</ele><time>2026-05-02T13:09:45Z</time></trkpt><trkpt lat="45.6301793848333" lon="3.7430517600940094"><ele>757.0</ele><time>2026-05-02T13:09:46Z</time></trkpt><trkpt lat="45.63008539516711" lon="3.743207085191854"><ele>757.0</ele><time>2026-05-02T13:09:47Z</time></trkpt><trkpt lat="45.630010631278736" lon="3.7433569274102405"><ele>757.0</ele><time>2026-05-02T13:09:48Z</time></trkpt><trkpt lat="45.62995046178839" lon="3.743518481604313"><ele>757.0</ele><time>2026-05-02T13:09:49Z</time></trkpt><trkpt lat="45.629896225467625" lon="3.743666277857867"><ele>760.5</ele><time>2026-05-02T13:09:50Z</time></trkpt><trkpt lat="45.629830422725355" lon="3.74381463372661"><ele>764.0</ele><time>2026-05-02T13:09:51Z</time></trkpt><trkpt lat="45.629761976927554" lon="3.7439725598896922"><ele>767.5</ele><time>2026-05-02T13:09:52Z</time></trkpt><trkpt lat="45.62970428783312" lon="3.7441532121343846"><ele>771.0</ele><time>2026-05-02T13:09:53Z</time></trkpt><trkpt lat="45.62960109623221" lon="3.744308890439139"><ele>773.25</ele><time>2026-05-02T13:09:54Z</time></trkpt><trkpt lat="45.62948943739279" lon="3.7444593165540327"><ele>775.5</ele><time>2026-05-02T13:09:55Z</time></trkpt><trkpt lat="45.62938292362618" lon="3.744597041696244"><ele>777.75</ele><time>2026-05-02T13:09:56Z</time></trkpt><trkpt lat="45.6292854960981" lon="3.7447208212131744"><ele>780.0</ele><time>2026-05-02T13:09:57Z</time></trkpt><trkpt lat="45.62919632396828" lon="3.7448697309054677"><ele>780.0</ele><time>2026-05-02T13:09:58Z</time></trkpt><trkpt lat="45.62908581527603" lon="3.745029522268558"><ele>780.0</ele><time>2026-05-02T13:09:59Z</time></trkpt><trkpt lat="45.62897855763309" lon="3.745188642641616"><ele>780.0</ele><time>2026-05-02T13:10:00Z</time></trkpt><trkpt lat="45.628868509049184" lon="3.7453307619971135"><ele>779.6666666666667</ele><time>2026-05-02T13:10:01Z</time></trkpt><trkpt lat="45.62878437254573" lon="3.745519943220414"><ele>779.3333333333334</ele><time>2026-05-02T13:10:02Z</time></trkpt><trkpt lat="45.62869213761057" lon="3.7457041431919422"><ele>779.0</ele><time>2026-05-02T13:10:03Z</time></trkpt><trkpt lat="45.628597404081084" lon="3.7459033386465315"><ele>782.6666666666667</ele><time>2026-05-02T13:10:04Z</time></trkpt><trkpt lat="45.628494992122185" lon="3.746099485677942"><ele>786.3333333333333</ele><time>2026-05-02T13:10:05Z</time></trkpt><trkpt lat="45.628387325998325" lon="3.7462844568183553"><ele>790.0</ele><time>2026-05-02T13:10:06Z</time></trkpt><trkpt lat="45.628306174384974" lon="3.746475931069181"><ele>790.0</ele><time>2026-05-02T13:10:07Z</time></trkpt><trkpt lat="45.62825626268257" lon="3.7466461306151375"><ele>790.0</ele><time>2026-05-02T13:10:08Z</time></trkpt><trkpt lat="45.628244748986276" lon="3.746815117547597"><ele>790.0</ele><time>2026-05-02T13:10:09Z</time></trkpt><trkpt lat="45.628234318500546" lon="3.7469920458050705"><ele>790.0</ele><time>2026-05-02T13:10:10Z</time></trkpt><trkpt lat="45.6282121796199" lon="3.7471489100789186"><ele>789.9999999999999</ele><time>2026-05-02T13:10:11Z</time></trkpt><trkpt lat="45.62821903972891" lon="3.7472781388356875"><ele>790.0</ele><time>2026-05-02T13:10:12Z</time></trkpt><trkpt lat="45.628218202883346" lon="3.747435491266057"><ele>790.0</ele><time>2026-05-02T13:10:14Z</time></trkpt><trkpt lat="45.62822408827018" lon="3.7475326676389042"><ele>790.0</ele><time>2026-05-02T13:10:16Z</time></trkpt><trkpt lat="45.62823645251496" lon="3.747649856587912"><ele>789.9999999999999</ele><time>2026-05-02T13:11:47Z</time></trkpt><trkpt lat="45.628253238820875" lon="3.7477393323380865"><ele>790.0</ele><time>2026-05-02T13:11:48Z</time></trkpt><trkpt lat="45.62828254993692" lon="3.7478410296775495"><ele>790.0</ele><time>2026-05-02T13:11:49Z</time></trkpt><trkpt lat="45.628321912501775" lon="3.747950047328145"><ele>790.0</ele><time>2026-05-02T13:11:50Z</time></trkpt><trkpt lat="45.628367258848904" lon="3.748060836811872"><ele>790.0</ele><time>2026-05-02T13:11:51Z</time></trkpt><trkpt lat="45.62842714538349" lon="3.748202203652708"><ele>790.0</ele><time>2026-05-02T13:11:52Z</time></trkpt><trkpt lat="45.62844830343186" lon="3.748352860339685"><ele>790.0</ele><time>2026-05-02T13:11:53Z</time></trkpt><trkpt lat="45.62847081297998" lon="3.74849684205169"><ele>790.0</ele><time>2026-05-02T13:11:54Z</time></trkpt><trkpt lat="45.62847226157007" lon="3.7486718086240147"><ele>790.0</ele><time>2026-05-02T13:11:55Z</time></trkpt><trkpt lat="45.6284835322917" lon="3.7488435662683584"><ele>790.0</ele><time>2026-05-02T13:11:56Z</time></trkpt><trkpt lat="45.62847632502866" lon="3.74901854033256"><ele>790.0</ele><time>2026-05-02T13:11:57Z</time></trkpt><trkpt lat="45.62846763758411" lon="3.7491914555009114"><ele>790.0</ele><time>2026-05-02T13:11:58Z</time></trkpt><trkpt lat="45.62844459315128" lon="3.749360888721506"><ele>790.0</ele><time>2026-05-02T13:11:59Z</time></trkpt><trkpt lat="45.62844592452159" lon="3.749516544212545"><ele>790.0</ele><time>2026-05-02T13:12:00Z</time></trkpt><trkpt lat="45.62840009635344" lon="3.7496530277514797"><ele>790.0</ele><time>2026-05-02T13:12:01Z</time></trkpt><trkpt lat="45.62836446796758" lon="3.749799614531363"><ele>790.0</ele><time>2026-05-02T13:12:02Z</time></trkpt><trkpt lat="45.62832101470078" lon="3.7499529692882207"><ele>791.8</ele><time>2026-05-02T13:12:03Z</time></trkpt><trkpt lat="45.628287244565314" lon="3.7501108597661665"><ele>793.6</ele><time>2026-05-02T13:12:04Z</time></trkpt><trkpt lat="45.62822952821045" lon="3.750233484984283"><ele>795.4000000000001</ele><time>2026-05-02T13:12:05Z</time></trkpt><trkpt lat="45.6281858408074" lon="3.7503623798952983"><ele>797.2</ele><time>2026-05-02T13:12:06Z</time></trkpt><trkpt lat="45.62815585409471" lon="3.750495027341449"><ele>799.0</ele><time>2026-05-02T13:12:07Z</time></trkpt><trkpt lat="45.628111033637026" lon="3.750629967656231"><ele>801.0</ele><time>2026-05-02T13:12:08Z</time></trkpt><trkpt lat="45.62808149699148" lon="3.750764296157489"><ele>803.0</ele><time>2026-05-02T13:12:09Z</time></trkpt><trkpt lat="45.62805532014792" lon="3.750914421928587"><ele>805.0</ele><time>2026-05-02T13:12:10Z</time></trkpt><trkpt lat="45.62800900460715" lon="3.7510477227609207"><ele>807.0</ele><time>2026-05-02T13:12:11Z</time></trkpt><trkpt lat="45.627980563947446" lon="3.751183887000637"><ele>809.0</ele><time>2026-05-02T13:12:12Z</time></trkpt><trkpt lat="45.62796959012615" lon="3.7513123463809177"><ele>810.8000000000001</ele><time>2026-05-02T13:12:13Z</time></trkpt><trkpt lat="45.62794635607842" lon="3.7514237197235833"><ele>812.6</ele><time>2026-05-02T13:12:14Z</time></trkpt><trkpt lat="45.627963062200955" lon="3.7515593544569334"><ele>814.4</ele><time>2026-05-02T13:12:15Z</time></trkpt><trkpt lat="45.62800744682436" lon="3.751701378643682"><ele>816.2</ele><time>2026-05-02T13:12:16Z</time></trkpt><trkpt lat="45.62803564830246" lon="3.7518438390515843"><ele>818.0</ele><time>2026-05-02T13:12:17Z</time></trkpt><trkpt lat="45.6280600440054" lon="3.752003984451947"><ele>818.2</ele><time>2026-05-02T13:12:18Z</time></trkpt><trkpt lat="45.62806668690708" lon="3.7521519001437538"><ele>818.4</ele><time>2026-05-02T13:12:19Z</time></trkpt><trkpt lat="45.62807067791252" lon="3.7522949282365428"><ele>818.6</ele><time>2026-05-02T13:12:20Z</time></trkpt><trkpt lat="45.62808214820467" lon="3.752430131461499"><ele>818.8000000000001</ele><time>2026-05-02T13:12:21Z</time></trkpt><trkpt lat="45.6281001508537" lon="3.75255285664248"><ele>819.0</ele><time>2026-05-02T13:12:22Z</time></trkpt><trkpt lat="45.628128745005434" lon="3.752666698717431"><ele>817.6</ele><time>2026-05-02T13:12:23Z</time></trkpt><trkpt lat="45.628183701663055" lon="3.7527599153754556"><ele>816.2</ele><time>2026-05-02T13:12:24Z</time></trkpt><trkpt lat="45.628243149421024" lon="3.7528370153344475"><ele>814.8000000000001</ele><time>2026-05-02T13:12:25Z</time></trkpt><trkpt lat="45.628290488890386" lon="3.7529252800198325"><ele>813.4000000000001</ele><time>2026-05-02T13:12:26Z</time></trkpt><trkpt lat="45.628327266126654" lon="3.7530563480412185"><ele>812.0</ele><time>2026-05-02T13:12:27Z</time></trkpt><trkpt lat="45.62839536467833" lon="3.753175399802176"><ele>812.0</ele><time>2026-05-02T13:12:28Z</time></trkpt><trkpt lat="45.62847497276902" lon="3.7533062304956775"><ele>812.0</ele><time>2026-05-02T13:12:29Z</time></trkpt><trkpt lat="45.62855562500864" lon="3.753447342871162"><ele>812.0</ele><time>2026-05-02T13:12:30Z</time></trkpt><trkpt lat="45.6286364097456" lon="3.7536048207695667"><ele>812.0</ele><time>2026-05-02T13:12:31Z</time></trkpt><trkpt lat="45.62870166935998" lon="3.753760758089352"><ele>814.4000000000001</ele><time>2026-05-02T13:12:32Z</time></trkpt><trkpt lat="45.628746412320126" lon="3.7539080271970646"><ele>816.8000000000001</ele><time>2026-05-02T13:12:33Z</time></trkpt><trkpt lat="45.62877739206611" lon="3.754046377566982"><ele>819.2</ele><time>2026-05-02T13:12:34Z</time></trkpt><trkpt lat="45.62878958140462" lon="3.754199920295657"><ele>821.6</ele><time>2026-05-02T13:12:35Z</time></trkpt><trkpt lat="45.62877912328187" lon="3.7543642873209753"><ele>824.0</ele><time>2026-05-02T13:12:36Z</time></trkpt><trkpt lat="45.62875668117564" lon="3.7545262594452997"><ele>824.0</ele><time>2026-05-02T13:12:37Z</time></trkpt><trkpt lat="45.628743001962626" lon="3.7546675031004253"><ele>824.0</ele><time>2026-05-02T13:12:38Z</time></trkpt><trkpt lat="45.62872830644115" lon="3.7547781209990023"><ele>824.0</ele><time>2026-05-02T13:12:39Z</time></trkpt><trkpt lat="45.62871170084613" lon="3.7548868582038133"><ele>824.0</ele><time>2026-05-02T13:12:40Z</time></trkpt><trkpt lat="45.62866573035579" lon="3.7549995967976155"><ele>824.0</ele><time>2026-05-02T13:12:41Z</time></trkpt><trkpt lat="45.62876431476108" lon="3.755162162763756"><ele>823.4000000000001</ele><time>2026-05-02T13:12:42Z</time></trkpt><trkpt lat="45.62876419716243" lon="3.755328631484226"><ele>822.8</ele><time>2026-05-02T13:12:43Z</time></trkpt><trkpt lat="45.628714380624196" lon="3.7554868893202147"><ele>822.2</ele><time>2026-05-02T13:12:44Z</time></trkpt><trkpt lat="45.62865392883748" lon="3.755581105541939"><ele>821.5999999999999</ele><time>2026-05-02T13:12:45Z</time></trkpt><trkpt lat="45.62854584102292" lon="3.7556337615144675"><ele>821.0</ele><time>2026-05-02T13:12:47Z</time></trkpt><trkpt lat="45.62847896274133" lon="3.7556510801841254"><ele>821.0</ele><time>2026-05-02T13:12:48Z</time></trkpt><trkpt lat="45.62841571684825" lon="3.755571519762175"><ele>821.0</ele><time>2026-05-02T13:12:49Z</time></trkpt><trkpt lat="45.62833334106086" lon="3.7555290826605385"><ele>821.0</ele><time>2026-05-02T13:12:50Z</time></trkpt><trkpt lat="45.628245209936225" lon="3.7554286414891895"><ele>821.0</ele><time>2026-05-02T13:12:51Z</time></trkpt><trkpt lat="45.62815535398928" lon="3.7553329954314205"><ele>821.0</ele><time>2026-05-02T13:12:52Z</time></trkpt><trkpt lat="45.628059663237586" lon="3.755244599501583"><ele>819.5000000000001</ele><time>2026-05-02T13:12:53Z</time></trkpt><trkpt lat="45.62797119888142" lon="3.7551721920411576"><ele>818.0</ele><time>2026-05-02T13:12:54Z</time></trkpt><trkpt lat="45.627876170121226" lon="3.7551970827646723"><ele>816.5</ele><time>2026-05-02T13:12:55Z</time></trkpt><trkpt lat="45.62778602810018" lon="3.7552325426076827"><ele>815.0</ele><time>2026-05-02T13:12:56Z</time></trkpt><trkpt lat="45.627717348788934" lon="3.755298273283468"><ele>813.5000000000001</ele><time>2026-05-02T13:12:57Z</time></trkpt><trkpt lat="45.627657301705355" lon="3.7553370790869285"><ele>812.0</ele><time>2026-05-02T13:12:58Z</time></trkpt><trkpt lat="45.62757060743766" lon="3.755388961626948"><ele>819.0</ele><time>2026-05-02T13:13:00Z</time></trkpt><trkpt lat="45.62759661093536" lon="3.755530948397757"><ele>826.0</ele><time>2026-05-02T13:13:02Z</time></trkpt><trkpt lat="45.62755654731641" lon="3.7556231675241896"><ele>833.0</ele><time>2026-05-02T13:13:04Z</time></trkpt><trkpt lat="45.627658401797525" lon="3.7555334579134567"><ele>840.0</ele><time>2026-05-02T13:13:07Z</time></trkpt><trkpt lat="45.62743686114329" lon="3.7557601604072404"><ele>840.0</ele><time>2026-05-02T13:13:13Z</time></trkpt><trkpt lat="45.627491386167485" lon="3.7558844793576274"><ele>840.0</ele><time>2026-05-02T13:13:15Z</time></trkpt><trkpt lat="45.62753317779473" lon="3.7559665415293315"><ele>840.0</ele><time>2026-05-02T13:13:16Z</time></trkpt><trkpt lat="45.62760098178126" lon="3.7560967987915177"><ele>840.0</ele><time>2026-05-02T13:13:18Z</time></trkpt><trkpt lat="45.62765675103554" lon="3.756170305295282"><ele>840.0</ele><time>2026-05-02T13:13:20Z</time></trkpt><trkpt lat="45.627721608459346" lon="3.7562864783677496"><ele>839.3333333333334</ele><time>2026-05-02T13:13:22Z</time></trkpt><trkpt lat="45.627747601877694" lon="3.756389748183323"><ele>838.6666666666667</ele><time>2026-05-02T13:13:23Z</time></trkpt><trkpt lat="45.627759692476246" lon="3.756512859950681"><ele>838.0</ele><time>2026-05-02T13:13:24Z</time></trkpt><trkpt lat="45.62778133643103" lon="3.756642207865551"><ele>837.3333333333334</ele><time>2026-05-02T13:13:25Z</time></trkpt><trkpt lat="45.62779666443348" lon="3.7567618699489693"><ele>836.6666666666667</ele><time>2026-05-02T13:13:26Z</time></trkpt><trkpt lat="45.62781445133704" lon="3.756880491203324"><ele>836.0</ele><time>2026-05-02T13:13:27Z</time></trkpt><trkpt lat="45.6276697527093" lon="3.7570446042235233"><ele>841.1999999999999</ele><time>2026-05-02T13:13:28Z</time></trkpt><trkpt lat="45.62770418132414" lon="3.757230104146747"><ele>846.4</ele><time>2026-05-02T13:13:30Z</time></trkpt><trkpt lat="45.62772052806146" lon="3.7573323257556326"><ele>851.6</ele><time>2026-05-02T13:13:31Z</time></trkpt><trkpt lat="45.62773546248805" lon="3.7574761676717374"><ele>856.8</ele><time>2026-05-02T13:13:33Z</time></trkpt><trkpt lat="45.62773503516234" lon="3.757590701458704"><ele>862.0</ele><time>2026-05-02T13:13:36Z</time></trkpt><trkpt lat="45.62777293662465" lon="3.757779940896326"><ele>857.5</ele><time>2026-05-02T13:14:01Z</time></trkpt><trkpt lat="45.62781442055189" lon="3.7579007848737036"><ele>853.0</ele><time>2026-05-02T13:14:02Z</time></trkpt><trkpt lat="45.62783455814051" lon="3.7580541607957776"><ele>848.5</ele><time>2026-05-02T13:14:03Z</time></trkpt><trkpt lat="45.62788779528842" lon="3.758222971246154"><ele>844.0</ele><time>2026-05-02T13:14:04Z</time></trkpt><trkpt lat="45.62795504577036" lon="3.7583915722668606"><ele>846.25</ele><time>2026-05-02T13:14:05Z</time></trkpt><trkpt lat="45.628039779683114" lon="3.7585955377491254"><ele>848.5</ele><time>2026-05-02T13:14:06Z</time></trkpt><trkpt lat="45.62811965706464" lon="3.7587637821139634"><ele>850.75</ele><time>2026-05-02T13:14:07Z</time></trkpt><trkpt lat="45.6282020549276" lon="3.758900947999924"><ele>853.0</ele><time>2026-05-02T13:14:08Z</time></trkpt><trkpt lat="45.62826211902193" lon="3.7590489875050674"><ele>852.9999999999999</ele><time>2026-05-02T13:14:09Z</time></trkpt><trkpt lat="45.62828269957853" lon="3.7591759974717363"><ele>853.0</ele><time>2026-05-02T13:14:10Z</time></trkpt><trkpt lat="45.62830919738291" lon="3.7592975194666565"><ele>853.0</ele><time>2026-05-02T13:14:11Z</time></trkpt><trkpt lat="45.62835973699647" lon="3.7594079683950126"><ele>853.0</ele><time>2026-05-02T13:14:12Z</time></trkpt><trkpt lat="45.62841653330417" lon="3.7594766480121695"><ele>852.9999999999999</ele><time>2026-05-02T13:14:13Z</time></trkpt><trkpt lat="45.62850918956163" lon="3.7595300631319883"><ele>853.0</ele><time>2026-05-02T13:14:14Z</time></trkpt><trkpt lat="45.628594822244615" lon="3.7595096749356656"><ele>854.3333333333333</ele><time>2026-05-02T13:14:15Z</time></trkpt><trkpt lat="45.628655685392104" lon="3.759431152981968"><ele>855.6666666666667</ele><time>2026-05-02T13:14:16Z</time></trkpt><trkpt lat="45.62870803786608" lon="3.7593116796626824"><ele>857.0</ele><time>2026-05-02T13:14:18Z</time></trkpt><trkpt lat="45.628828732110804" lon="3.759664389811161"><ele>857.0</ele><time>2026-05-02T13:14:26Z</time></trkpt><trkpt lat="45.62875920945645" lon="3.7596577075097426"><ele>857.0</ele><time>2026-05-02T13:14:29Z</time></trkpt><trkpt lat="45.62884004266603" lon="3.759410830761507"><ele>857.0</ele><time>2026-05-02T13:14:32Z</time></trkpt><trkpt lat="45.628891592963924" lon="3.759494324726306"><ele>857.0</ele><time>2026-05-02T13:14:53Z</time></trkpt><trkpt lat="45.628951879588506" lon="3.759562850095129"><ele>857.0</ele><time>2026-05-02T13:14:56Z</time></trkpt><trkpt lat="45.62902711525043" lon="3.7596479358434425"><ele>857.0</ele><time>2026-05-02T13:15:22Z</time></trkpt><trkpt lat="45.629114997390516" lon="3.7596931175947113"><ele>857.0</ele><time>2026-05-02T13:15:41Z</time></trkpt><trkpt lat="45.62904173581112" lon="3.7596680244748404"><ele>857.0</ele><time>2026-05-02T13:16:15Z</time></trkpt><trkpt lat="45.62898143430296" lon="3.759539599054547"><ele>857.0</ele><time>2026-05-02T13:16:20Z</time></trkpt><trkpt lat="45.62893512804611" lon="3.759452426920632"><ele>857.0</ele><time>2026-05-02T13:16:22Z</time></trkpt><trkpt lat="45.628852593148096" lon="3.7593723797154217"><ele>857.0000000000001</ele><time>2026-05-02T13:16:25Z</time></trkpt><trkpt lat="45.62879666021676" lon="3.7593136185683718"><ele>857.0</ele><time>2026-05-02T13:16:27Z</time></trkpt><trkpt lat="45.62873137209577" lon="3.7593029935401048"><ele>857.0</ele><time>2026-05-02T13:16:35Z</time></trkpt><trkpt lat="45.628680627526684" lon="3.7593749970063657"><ele>857.0</ele><time>2026-05-02T13:16:36Z</time></trkpt><trkpt lat="45.62861770241741" lon="3.759453392390056"><ele>857.0000000000001</ele><time>2026-05-02T13:16:37Z</time></trkpt><trkpt lat="45.62853582277552" lon="3.7594854839699803"><ele>857.0</ele><time>2026-05-02T13:16:38Z</time></trkpt><trkpt lat="45.62844926021768" lon="3.7594573351632405"><ele>856.8</ele><time>2026-05-02T13:16:39Z</time></trkpt><trkpt lat="45.628379976263275" lon="3.759372426345271"><ele>856.6</ele><time>2026-05-02T13:16:40Z</time></trkpt><trkpt lat="45.62834877956025" lon="3.7592396024615944"><ele>856.3999999999999</ele><time>2026-05-02T13:16:41Z</time></trkpt><trkpt lat="45.62831556864889" lon="3.7591138728439666"><ele>856.1999999999999</ele><time>2026-05-02T13:16:42Z</time></trkpt><trkpt lat="45.62826777389933" lon="3.75896077991773"><ele>856.0</ele><time>2026-05-02T13:16:43Z</time></trkpt><trkpt lat="45.628199683613815" lon="3.758805314434384"><ele>855.25</ele><time>2026-05-02T13:16:44Z</time></trkpt><trkpt lat="45.62813122599467" lon="3.7586574573359943"><ele>854.5</ele><time>2026-05-02T13:16:45Z</time></trkpt><trkpt lat="45.62806710853" lon="3.758497061760417"><ele>853.75</ele><time>2026-05-02T13:16:46Z</time></trkpt><trkpt lat="45.62799853324179" lon="3.7583506193086524"><ele>853.0</ele><time>2026-05-02T13:16:47Z</time></trkpt><trkpt lat="45.62793477512318" lon="3.758187408915959"><ele>850.75</ele><time>2026-05-02T13:16:48Z</time></trkpt><trkpt lat="45.62788132902063" lon="3.758032813607441"><ele>848.5</ele><time>2026-05-02T13:16:49Z</time></trkpt><trkpt lat="45.62784346909486" lon="3.7578896604649223"><ele>846.25</ele><time>2026-05-02T13:16:50Z</time></trkpt><trkpt lat="45.62779455000784" lon="3.757730995338493"><ele>844.0</ele><time>2026-05-02T13:16:51Z</time></trkpt><trkpt lat="45.627730992961006" lon="3.7575544726833687"><ele>847.6</ele><time>2026-05-02T13:16:52Z</time></trkpt><trkpt lat="45.627660618448076" lon="3.757395731861588"><ele>851.2</ele><time>2026-05-02T13:16:53Z</time></trkpt><trkpt lat="45.6276054675068" lon="3.7572484352337483"><ele>854.8000000000001</ele><time>2026-05-02T13:16:54Z</time></trkpt><trkpt lat="45.62756488724206" lon="3.757151323766984"><ele>858.4000000000001</ele><time>2026-05-02T13:16:55Z</time></trkpt><trkpt lat="45.62749162740312" lon="3.7571278097578764"><ele>862.0</ele><time>2026-05-02T13:16:57Z</time></trkpt><trkpt lat="45.627526278243515" lon="3.757023886041495"><ele>861.9999999999999</ele><time>2026-05-02T13:16:59Z</time></trkpt><trkpt lat="45.62746168321304" lon="3.757118988756595"><ele>862.0</ele><time>2026-05-02T13:18:22Z</time></trkpt><trkpt lat="45.62742157515997" lon="3.7570476417028225"><ele>862.0</ele><time>2026-05-02T13:18:25Z</time></trkpt><trkpt lat="45.62737684852684" lon="3.7569625635942216"><ele>862.0</ele><time>2026-05-02T13:18:27Z</time></trkpt><trkpt lat="45.62729554567509" lon="3.75692339529415"><ele>861.9999999999999</ele><time>2026-05-02T13:18:29Z</time></trkpt><trkpt lat="45.62719988033023" lon="3.7568994381097407"><ele>862.0</ele><time>2026-05-02T13:18:32Z</time></trkpt><trkpt lat="45.62706025507152" lon="3.756894045146736"><ele>863.25</ele><time>2026-05-02T13:18:34Z</time></trkpt><trkpt lat="45.62698569026597" lon="3.756647160031743"><ele>864.5</ele><time>2026-05-02T13:18:36Z</time></trkpt><trkpt lat="45.62687752161652" lon="3.756622606902567"><ele>865.75</ele><time>2026-05-02T13:18:38Z</time></trkpt><trkpt lat="45.62677164663377" lon="3.756602494339577"><ele>867.0</ele><time>2026-05-02T13:18:40Z</time></trkpt><trkpt lat="45.62663435761135" lon="3.756586642058209"><ele>867.0</ele><time>2026-05-02T13:18:42Z</time></trkpt><trkpt lat="45.62653129431964" lon="3.756581312331909"><ele>867.0</ele><time>2026-05-02T13:18:44Z</time></trkpt><trkpt lat="45.62645329086251" lon="3.756612491377489"><ele>867.0</ele><time>2026-05-02T13:18:47Z</time></trkpt><trkpt lat="45.626434711921185" lon="3.7569924732016795"><ele>870.0</ele><time>2026-05-02T13:18:48Z</time></trkpt><trkpt lat="45.626386705131495" lon="3.757105749598574"><ele>873.0</ele><time>2026-05-02T13:18:50Z</time></trkpt><trkpt lat="45.62635157146163" lon="3.7572054165234494"><ele>876.0</ele><time>2026-05-02T13:18:52Z</time></trkpt><trkpt lat="45.62625946443558" lon="3.757268503378226"><ele>879.0</ele><time>2026-05-02T13:18:54Z</time></trkpt><trkpt lat="45.626215111756984" lon="3.7573685424282637"><ele>882.0</ele><time>2026-05-02T13:18:57Z</time></trkpt><trkpt lat="45.626159935647756" lon="3.757454355197512"><ele>885.0</ele><time>2026-05-02T13:18:59Z</time></trkpt><trkpt lat="45.62613308470139" lon="3.7576023116911177"><ele>886.5</ele><time>2026-05-02T13:19:27Z</time></trkpt><trkpt lat="45.62606043593932" lon="3.757508482245609"><ele>888.0</ele><time>2026-05-02T13:19:36Z</time></trkpt><trkpt lat="45.62599487011597" lon="3.7574252244555137"><ele>889.5</ele><time>2026-05-02T13:19:38Z</time></trkpt><trkpt lat="45.625895358795404" lon="3.757362425678447"><ele>891.0</ele><time>2026-05-02T13:19:40Z</time></trkpt><trkpt lat="45.62582006185094" lon="3.7573271240287585"><ele>892.5</ele><time>2026-05-02T13:19:41Z</time></trkpt><trkpt lat="45.625766145716284" lon="3.7572767482260447"><ele>894.0</ele><time>2026-05-02T13:19:42Z</time></trkpt><trkpt lat="45.62570544902565" lon="3.7572352833845772"><ele>894.0</ele><time>2026-05-02T13:19:43Z</time></trkpt><trkpt lat="45.62564475457495" lon="3.7572049205645777"><ele>894.0</ele><time>2026-05-02T13:19:44Z</time></trkpt><trkpt lat="45.62553418764453" lon="3.7571728909966193"><ele>894.0</ele><time>2026-05-02T13:19:46Z</time></trkpt><trkpt lat="45.62544250294927" lon="3.7571005953656487"><ele>894.0</ele><time>2026-05-02T13:19:48Z</time></trkpt><trkpt lat="45.625381255359734" lon="3.757055968402565"><ele>894.0</ele><time>2026-05-02T13:19:49Z</time></trkpt><trkpt lat="45.62530634669636" lon="3.757024123564247"><ele>894.0</ele><time>2026-05-02T13:19:50Z</time></trkpt><trkpt lat="45.6252352297973" lon="3.7570048375743834"><ele>893.6</ele><time>2026-05-02T13:19:51Z</time></trkpt><trkpt lat="45.62512173689924" lon="3.7569884222804264"><ele>893.2</ele><time>2026-05-02T13:19:53Z</time></trkpt><trkpt lat="45.625056247159094" lon="3.756973230684139"><ele>892.8000000000001</ele><time>2026-05-02T13:19:54Z</time></trkpt><trkpt lat="45.624949708868165" lon="3.756960343839302"><ele>892.4000000000001</ele><time>2026-05-02T13:19:56Z</time></trkpt><trkpt lat="45.624844034833785" lon="3.756907543984214"><ele>892.0</ele><time>2026-05-02T13:19:58Z</time></trkpt><trkpt lat="45.62478278124098" lon="3.756936201028305"><ele>891.9999999999999</ele><time>2026-05-02T13:19:59Z</time></trkpt><trkpt lat="45.62471566179568" lon="3.7569619282544555"><ele>892.0</ele><time>2026-05-02T13:20:00Z</time></trkpt><trkpt lat="45.624645706849144" lon="3.7569771371580996"><ele>892.0</ele><time>2026-05-02T13:20:01Z</time></trkpt><trkpt lat="45.62456384537204" lon="3.7570072684163467"><ele>892.0</ele><time>2026-05-02T13:20:02Z</time></trkpt><trkpt lat="45.624474716216405" lon="3.7570454625862477"><ele>891.9999999999999</ele><time>2026-05-02T13:20:03Z</time></trkpt><trkpt lat="45.62438291578242" lon="3.757079040863878"><ele>892.0</ele><time>2026-05-02T13:20:04Z</time></trkpt><trkpt lat="45.624280288961394" lon="3.7571096672501376"><ele>891.5</ele><time>2026-05-02T13:20:05Z</time></trkpt><trkpt lat="45.624176806446556" lon="3.7571540559278915"><ele>891.0</ele><time>2026-05-02T13:20:06Z</time></trkpt><trkpt lat="45.62407165798718" lon="3.7572096571827123"><ele>890.5</ele><time>2026-05-02T13:20:07Z</time></trkpt><trkpt lat="45.62394387272433" lon="3.757266081772428"><ele>890.0</ele><time>2026-05-02T13:20:08Z</time></trkpt><trkpt lat="45.62381736588167" lon="3.757331490483084"><ele>890.0</ele><time>2026-05-02T13:20:09Z</time></trkpt><trkpt lat="45.62369448964527" lon="3.757412902185"><ele>890.0</ele><time>2026-05-02T13:20:10Z</time></trkpt><trkpt lat="45.62357085390946" lon="3.7575068358881714"><ele>890.0</ele><time>2026-05-02T13:20:11Z</time></trkpt><trkpt lat="45.623441585233756" lon="3.7576089157541155"><ele>890.0</ele><time>2026-05-02T13:20:12Z</time></trkpt><trkpt lat="45.623312930687966" lon="3.7577218825556935"><ele>896.0</ele><time>2026-05-02T13:20:13Z</time></trkpt><trkpt lat="45.6231663645066" lon="3.757827230808598"><ele>902.0</ele><time>2026-05-02T13:20:14Z</time></trkpt><trkpt lat="45.62302029348579" lon="3.757917027341514"><ele>908.0</ele><time>2026-05-02T13:20:15Z</time></trkpt><trkpt lat="45.622871498112005" lon="3.757997917238396"><ele>906.0</ele><time>2026-05-02T13:20:16Z</time></trkpt><trkpt lat="45.62272597816688" lon="3.758111389907283"><ele>904.0</ele><time>2026-05-02T13:20:17Z</time></trkpt><trkpt lat="45.622581420665" lon="3.758236526782552"><ele>902.0</ele><time>2026-05-02T13:20:18Z</time></trkpt><trkpt lat="45.622446842411385" lon="3.7583654418999566"><ele>902.0</ele><time>2026-05-02T13:20:19Z</time></trkpt><trkpt lat="45.6223118183514" lon="3.7584916267295063"><ele>902.0</ele><time>2026-05-02T13:20:20Z</time></trkpt><trkpt lat="45.622174872787454" lon="3.758611379907606"><ele>902.0</ele><time>2026-05-02T13:20:21Z</time></trkpt><trkpt lat="45.62202979387116" lon="3.758678041738374"><ele>905.3333333333334</ele><time>2026-05-02T13:20:22Z</time></trkpt><trkpt lat="45.62188793617594" lon="3.7587505094595857"><ele>908.6666666666667</ele><time>2026-05-02T13:20:23Z</time></trkpt><trkpt lat="45.62173749385541" lon="3.7588291308856574"><ele>912.0</ele><time>2026-05-02T13:20:24Z</time></trkpt><trkpt lat="45.62159588764712" lon="3.7589298575504135"><ele>912.0</ele><time>2026-05-02T13:20:25Z</time></trkpt><trkpt lat="45.621461467140705" lon="3.7590299245168657"><ele>912.0</ele><time>2026-05-02T13:20:26Z</time></trkpt><trkpt lat="45.621332351383685" lon="3.7591503449418044"><ele>912.0</ele><time>2026-05-02T13:20:27Z</time></trkpt><trkpt lat="45.621192232768244" lon="3.759238028556529"><ele>910.0</ele><time>2026-05-02T13:20:28Z</time></trkpt><trkpt lat="45.62104889619816" lon="3.7593323925209825"><ele>908.0</ele><time>2026-05-02T13:20:29Z</time></trkpt><trkpt lat="45.62090162420284" lon="3.759405922182135"><ele>906.0</ele><time>2026-05-02T13:20:30Z</time></trkpt><trkpt lat="45.620762418971815" lon="3.7595160031976413"><ele>911.3333333333333</ele><time>2026-05-02T13:20:31Z</time></trkpt><trkpt lat="45.62062177553019" lon="3.7596417116788605"><ele>916.6666666666666</ele><time>2026-05-02T13:20:32Z</time></trkpt><trkpt lat="45.62048543688298" lon="3.759781171880078"><ele>922.0</ele><time>2026-05-02T13:20:33Z</time></trkpt><trkpt lat="45.62036750080912" lon="3.7599400342526708"><ele>922.5</ele><time>2026-05-02T13:20:34Z</time></trkpt><trkpt lat="45.62024639991491" lon="3.7600933538528882"><ele>923.0</ele><time>2026-05-02T13:20:35Z</time></trkpt><trkpt lat="45.62013537466568" lon="3.760234068182782"><ele>923.5</ele><time>2026-05-02T13:20:36Z</time></trkpt><trkpt lat="45.62004547566177" lon="3.7603844741473726"><ele>924.0</ele><time>2026-05-02T13:20:37Z</time></trkpt><trkpt lat="45.6199451160458" lon="3.760533752019991"><ele>924.0</ele><time>2026-05-02T13:20:38Z</time></trkpt><trkpt lat="45.61983567449469" lon="3.7606569540527066"><ele>924.0</ele><time>2026-05-02T13:20:39Z</time></trkpt><trkpt lat="45.61972650551586" lon="3.760744231371488"><ele>924.0</ele><time>2026-05-02T13:20:40Z</time></trkpt><trkpt lat="45.61960764607517" lon="3.7607664494186177"><ele>924.0</ele><time>2026-05-02T13:20:41Z</time></trkpt><trkpt lat="45.61951068094965" lon="3.7608294403755025"><ele>925.2</ele><time>2026-05-02T13:20:42Z</time></trkpt><trkpt lat="45.6194145195808" lon="3.760878247741758"><ele>926.4000000000001</ele><time>2026-05-02T13:20:43Z</time></trkpt><trkpt lat="45.61934292139008" lon="3.761011330632748"><ele>927.6</ele><time>2026-05-02T13:20:44Z</time></trkpt><trkpt lat="45.619325730544475" lon="3.7611991196667893"><ele>928.8</ele><time>2026-05-02T13:20:45Z</time></trkpt><trkpt lat="45.6193382992751" lon="3.761335810479655"><ele>930.0</ele><time>2026-05-02T13:20:46Z</time></trkpt><trkpt lat="45.619345782130196" lon="3.761436269173998"><ele>930.0</ele><time>2026-05-02T13:20:47Z</time></trkpt><trkpt lat="45.61935591993941" lon="3.761526236019631"><ele>930.0</ele><time>2026-05-02T13:20:48Z</time></trkpt><trkpt lat="45.6191753191364" lon="3.7616599133962683"><ele>930.0</ele><time>2026-05-02T13:20:49Z</time></trkpt><trkpt lat="45.61911747761426" lon="3.7618026691808084"><ele>930.0</ele><time>2026-05-02T13:20:50Z</time></trkpt><trkpt lat="45.61905737649452" lon="3.761937343892988"><ele>933.8</ele><time>2026-05-02T13:20:51Z</time></trkpt><trkpt lat="45.619009760447454" lon="3.7620618623269273"><ele>937.6</ele><time>2026-05-02T13:20:52Z</time></trkpt><trkpt lat="45.619032441811264" lon="3.7622720729037242"><ele>941.4000000000001</ele><time>2026-05-02T13:20:53Z</time></trkpt><trkpt lat="45.618975919320846" lon="3.7623390579459532"><ele>945.2</ele><time>2026-05-02T13:20:54Z</time></trkpt><trkpt lat="45.618920260949714" lon="3.7623929223477517"><ele>949.0</ele><time>2026-05-02T13:20:55Z</time></trkpt><trkpt lat="45.61888777831464" lon="3.7624765688017563"><ele>949.0</ele><time>2026-05-02T13:20:56Z</time></trkpt><trkpt lat="45.61884246319303" lon="3.762644503665153"><ele>949.0000000000001</ele><time>2026-05-02T13:20:58Z</time></trkpt><trkpt lat="45.618812598129686" lon="3.7627434224835636"><ele>949.0000000000001</ele><time>2026-05-02T13:20:59Z</time></trkpt><trkpt lat="45.61875501369291" lon="3.762837232824049"><ele>949.0</ele><time>2026-05-02T13:21:00Z</time></trkpt><trkpt lat="45.618687428158445" lon="3.76294687964092"><ele>949.0</ele><time>2026-05-02T13:21:01Z</time></trkpt><trkpt lat="45.618615056977376" lon="3.7630628461073066"><ele>948.0</ele><time>2026-05-02T13:21:02Z</time></trkpt><trkpt lat="45.61854077764656" lon="3.763181869855407"><ele>947.0</ele><time>2026-05-02T13:21:03Z</time></trkpt><trkpt lat="45.61846201990638" lon="3.763308070034253"><ele>946.0</ele><time>2026-05-02T13:21:04Z</time></trkpt><trkpt lat="45.61837763373572" lon="3.7634415525910954"><ele>945.0</ele><time>2026-05-02T13:21:05Z</time></trkpt><trkpt lat="45.618281877601746" lon="3.7635901456083776"><ele>950.0</ele><time>2026-05-02T13:21:06Z</time></trkpt><trkpt lat="45.618192036987615" lon="3.763733601116256"><ele>955.0</ele><time>2026-05-02T13:21:07Z</time></trkpt><trkpt lat="45.61810388022171" lon="3.763886039433743"><ele>960.0</ele><time>2026-05-02T13:21:08Z</time></trkpt><trkpt lat="45.618034353747106" lon="3.7640613385261337"><ele>965.0</ele><time>2026-05-02T13:21:09Z</time></trkpt><trkpt lat="45.61796334488483" lon="3.7642184878982934"><ele>964.0</ele><time>2026-05-02T13:21:10Z</time></trkpt><trkpt lat="45.617883490232316" lon="3.7643664329842133"><ele>963.0</ele><time>2026-05-02T13:21:11Z</time></trkpt><trkpt lat="45.617816016896114" lon="3.764534973702986"><ele>962.0</ele><time>2026-05-02T13:21:12Z</time></trkpt><trkpt lat="45.61774946649888" lon="3.764703949448252"><ele>961.0</ele><time>2026-05-02T13:21:13Z</time></trkpt><trkpt lat="45.6176747094451" lon="3.764866289517776"><ele>961.0</ele><time>2026-05-02T13:21:14Z</time></trkpt><trkpt lat="45.617597232145336" lon="3.7650304851418888"><ele>961.0</ele><time>2026-05-02T13:21:15Z</time></trkpt><trkpt lat="45.61751801087857" lon="3.7652049534650436"><ele>961.0</ele><time>2026-05-02T13:21:16Z</time></trkpt><trkpt lat="45.617441449680115" lon="3.765381056541109"><ele>961.0</ele><time>2026-05-02T13:21:17Z</time></trkpt><trkpt lat="45.6173689479093" lon="3.7655647590256907"><ele>966.0</ele><time>2026-05-02T13:21:18Z</time></trkpt><trkpt lat="45.61733406896701" lon="3.7657405229049137"><ele>971.0</ele><time>2026-05-02T13:21:19Z</time></trkpt><trkpt lat="45.617283732721575" lon="3.765896910000254"><ele>976.0</ele><time>2026-05-02T13:21:20Z</time></trkpt><trkpt lat="45.61725910788237" lon="3.7660653579705485"><ele>981.0</ele><time>2026-05-02T13:21:21Z</time></trkpt><trkpt lat="45.61722960026962" lon="3.766218861562233"><ele>979.8</ele><time>2026-05-02T13:21:22Z</time></trkpt><trkpt lat="45.617215588451145" lon="3.7663549050045777"><ele>978.5999999999999</ele><time>2026-05-02T13:21:23Z</time></trkpt><trkpt lat="45.617169191451346" lon="3.7664356724567725"><ele>977.4</ele><time>2026-05-02T13:21:24Z</time></trkpt><trkpt lat="45.617055197257315" lon="3.7665199392388202"><ele>976.2</ele><time>2026-05-02T13:21:26Z</time></trkpt><trkpt lat="45.61698237368549" lon="3.7666155697307224"><ele>975.0</ele><time>2026-05-02T13:21:27Z</time></trkpt><trkpt lat="45.61689940095269" lon="3.7667116042065727"><ele>975.0</ele><time>2026-05-02T13:21:28Z</time></trkpt><trkpt lat="45.616823288600735" lon="3.766819515309553"><ele>975.0</ele><time>2026-05-02T13:21:29Z</time></trkpt><trkpt lat="45.616743134364135" lon="3.7669091132349686"><ele>975.0</ele><time>2026-05-02T13:21:30Z</time></trkpt><trkpt lat="45.61668987175071" lon="3.7670394189635643"><ele>975.0</ele><time>2026-05-02T13:21:31Z</time></trkpt><trkpt lat="45.61665526108009" lon="3.7671805303289645"><ele>975.0</ele><time>2026-05-02T13:21:32Z</time></trkpt><trkpt lat="45.61660453714424" lon="3.767295531210917"><ele>977.1666666666666</ele><time>2026-05-02T13:21:33Z</time></trkpt><trkpt lat="45.61655419787862" lon="3.7674096599444704"><ele>979.3333333333333</ele><time>2026-05-02T13:21:34Z</time></trkpt><trkpt lat="45.61650055219785" lon="3.7675312849382383"><ele>981.5</ele><time>2026-05-02T13:21:35Z</time></trkpt><trkpt lat="45.61644856009861" lon="3.7676491633099825"><ele>983.6666666666666</ele><time>2026-05-02T13:21:36Z</time></trkpt><trkpt lat="45.61642111342767" lon="3.7677327380919006"><ele>985.8333333333333</ele><time>2026-05-02T13:21:37Z</time></trkpt><trkpt lat="45.616388824546064" lon="3.767815836155498"><ele>988.0</ele><time>2026-05-02T13:21:38Z</time></trkpt><trkpt lat="45.61635558986031" lon="3.767901368361102"><ele>987.4</ele><time>2026-05-02T13:21:39Z</time></trkpt><trkpt lat="45.616315836787976" lon="3.768003676192228"><ele>986.8</ele><time>2026-05-02T13:21:40Z</time></trkpt><trkpt lat="45.61627477080458" lon="3.7681145952805166"><ele>986.2</ele><time>2026-05-02T13:21:41Z</time></trkpt><trkpt lat="45.616222133532915" lon="3.768261943345893"><ele>985.6</ele><time>2026-05-02T13:21:42Z</time></trkpt><trkpt lat="45.61616896662625" lon="3.7684102192779223"><ele>985.0</ele><time>2026-05-02T13:21:43Z</time></trkpt><trkpt lat="45.616134388371876" lon="3.7685065535110356"><ele>990.3333333333333</ele><time>2026-05-02T13:21:44Z</time></trkpt><trkpt lat="45.61610502106102" lon="3.7685883700162024"><ele>995.6666666666667</ele><time>2026-05-02T13:21:46Z</time></trkpt><trkpt lat="45.616055484044544" lon="3.76872638190706"><ele>1001.0</ele><time>2026-05-02T13:21:48Z</time></trkpt><trkpt lat="45.61539685839905" lon="3.7690838464800573"><ele>1001.0</ele><time>2026-05-02T13:22:02Z</time></trkpt><trkpt lat="45.6153450931125" lon="3.7691887473949364"><ele>1000.9999999999999</ele><time>2026-05-02T13:22:06Z</time></trkpt><trkpt lat="45.61526853908547" lon="3.7692884421290267"><ele>1000.9999999999999</ele><time>2026-05-02T13:22:08Z</time></trkpt><trkpt lat="45.61516274682311" lon="3.7693781323443973"><ele>1001.0</ele><time>2026-05-02T13:22:10Z</time></trkpt><trkpt lat="45.615101832891774" lon="3.769445138490956"><ele>1001.0</ele><time>2026-05-02T13:22:11Z</time></trkpt><trkpt lat="45.61504656811674" lon="3.76953601392712"><ele>1000.0</ele><time>2026-05-02T13:22:12Z</time></trkpt><trkpt lat="45.61497278693764" lon="3.76963720338309"><ele>998.9999999999999</ele><time>2026-05-02T13:22:13Z</time></trkpt><trkpt lat="45.614900651075565" lon="3.769736246085921"><ele>997.9999999999999</ele><time>2026-05-02T13:22:14Z</time></trkpt><trkpt lat="45.61482511976541" lon="3.769804690281945"><ele>997.0</ele><time>2026-05-02T13:22:15Z</time></trkpt><trkpt lat="45.61476752743575" lon="3.769898406286658"><ele>996.0</ele><time>2026-05-02T13:22:16Z</time></trkpt><trkpt lat="45.61472459242374" lon="3.7699894293312934"><ele>996.0</ele><time>2026-05-02T13:22:17Z</time></trkpt><trkpt lat="45.614670294865924" lon="3.770115916461005"><ele>995.9999999999999</ele><time>2026-05-02T13:22:18Z</time></trkpt><trkpt lat="45.61462479815579" lon="3.7702048555461976"><ele>995.9999999999999</ele><time>2026-05-02T13:22:19Z</time></trkpt><trkpt lat="45.614571610801136" lon="3.7703704790564925"><ele>996.0</ele><time>2026-05-02T13:22:21Z</time></trkpt><trkpt lat="45.61454215398077" lon="3.7704767875273535"><ele>996.0</ele><time>2026-05-02T13:22:22Z</time></trkpt><trkpt lat="45.61447374326416" lon="3.7705677383548344"><ele>996.0</ele><time>2026-05-02T13:22:23Z</time></trkpt><trkpt lat="45.614434501380025" lon="3.770708446772993"><ele>995.9999999999999</ele><time>2026-05-02T13:22:24Z</time></trkpt><trkpt lat="45.61441097844039" lon="3.77082847192159"><ele>995.9999999999999</ele><time>2026-05-02T13:22:25Z</time></trkpt><trkpt lat="45.614407091582414" lon="3.7709441581195953"><ele>996.0</ele><time>2026-05-02T13:22:26Z</time></trkpt><trkpt lat="45.614383099251086" lon="3.7711094400538383"><ele>996.0</ele><time>2026-05-02T13:22:28Z</time></trkpt><trkpt lat="45.614338713936895" lon="3.7711913253711127"><ele>996.0</ele><time>2026-05-02T13:22:29Z</time></trkpt><trkpt lat="45.614243584234345" lon="3.7712909338306946"><ele>995.9999999999999</ele><time>2026-05-02T13:22:31Z</time></trkpt><trkpt lat="45.61411851306452" lon="3.7713206671785175"><ele>995.9999999999999</ele><time>2026-05-02T13:22:33Z</time></trkpt><trkpt lat="45.61403026974131" lon="3.7713377132732497"><ele>996.0</ele><time>2026-05-02T13:22:34Z</time></trkpt><trkpt lat="45.613967225615184" lon="3.771364651973118"><ele>996.0</ele><time>2026-05-02T13:22:35Z</time></trkpt><trkpt lat="45.6138711144794" lon="3.7714390627192356"><ele>996.0</ele><time>2026-05-02T13:22:37Z</time></trkpt><trkpt lat="45.61380594784182" lon="3.7714660276473175"><ele>996.0</ele><time>2026-05-02T13:22:38Z</time></trkpt><trkpt lat="45.613724619123396" lon="3.771509111701629"><ele>996.0</ele><time>2026-05-02T13:22:40Z</time></trkpt><trkpt lat="45.61366139358351" lon="3.7715286430618735"><ele>996.0</ele><time>2026-05-02T13:22:42Z</time></trkpt><trkpt lat="45.613559940194385" lon="3.7714784966039487"><ele>996.0</ele><time>2026-05-02T13:22:44Z</time></trkpt><trkpt lat="45.61350506291901" lon="3.771415544335838"><ele>996.0</ele><time>2026-05-02T13:22:45Z</time></trkpt><trkpt lat="45.613444920890835" lon="3.7713271891160898"><ele>990.6666666666666</ele><time>2026-05-02T13:22:46Z</time></trkpt><trkpt lat="45.613384556343334" lon="3.7711965300534467"><ele>985.3333333333333</ele><time>2026-05-02T13:22:48Z</time></trkpt><trkpt lat="45.61332447744487" lon="3.7711217475787304"><ele>980.0</ele><time>2026-05-02T13:22:51Z</time></trkpt><trkpt lat="45.61326105723489" lon="3.771070502021362"><ele>974.6666666666666</ele><time>2026-05-02T13:22:55Z</time></trkpt><trkpt lat="45.61321084530082" lon="3.7710125507805587"><ele>969.3333333333333</ele><time>2026-05-02T13:22:58Z</time></trkpt><trkpt lat="45.61318013325631" lon="3.770919329902429"><ele>964.0</ele><time>2026-05-02T13:23:02Z</time></trkpt><trkpt lat="45.61312037919737" lon="3.77086689584904"><ele>962.6666666666666</ele><time>2026-05-02T13:23:04Z</time></trkpt><trkpt lat="45.61308028347705" lon="3.770787144512568"><ele>961.3333333333333</ele><time>2026-05-02T13:23:07Z</time></trkpt><trkpt lat="45.613021351057505" lon="3.7707278620462223"><ele>960.0</ele><time>2026-05-02T13:23:30Z</time></trkpt><trkpt lat="45.61308568450611" lon="3.770729953722395"><ele>958.6666666666667</ele><time>2026-05-02T13:28:59Z</time></trkpt><trkpt lat="45.61314212906052" lon="3.770622218755558"><ele>957.3333333333334</ele><time>2026-05-02T13:29:02Z</time></trkpt><trkpt lat="45.61313602846996" lon="3.7705017816265216"><ele>956.0</ele><time>2026-05-02T13:29:05Z</time></trkpt><trkpt lat="45.61310371911424" lon="3.7703864820972366"><ele>956.0000000000001</ele><time>2026-05-02T13:29:08Z</time></trkpt><trkpt lat="45.61308040451294" lon="3.7702860085434313"><ele>956.0</ele><time>2026-05-02T13:29:12Z</time></trkpt><trkpt lat="45.6130879857248" lon="3.7701942693128814"><ele>956.0000000000001</ele><time>2026-05-02T13:29:14Z</time></trkpt><trkpt lat="45.61308378595242" lon="3.7701041933735695"><ele>956.0000000000001</ele><time>2026-05-02T13:29:20Z</time></trkpt><trkpt lat="45.61311486972568" lon="3.770021753801994"><ele>956.0</ele><time>2026-05-02T13:29:23Z</time></trkpt><trkpt lat="45.613111549052014" lon="3.7699102519263983"><ele>956.0000000000001</ele><time>2026-05-02T13:29:26Z</time></trkpt><trkpt lat="45.6131318843506" lon="3.7698243776092895"><ele>956.0000000000001</ele><time>2026-05-02T13:29:30Z</time></trkpt><trkpt lat="45.61315806677368" lon="3.7697221381750503"><ele>955.5000000000001</ele><time>2026-05-02T13:29:33Z</time></trkpt><trkpt lat="45.61319684809111" lon="3.769627199585605"><ele>955.0</ele><time>2026-05-02T13:29:36Z</time></trkpt><trkpt lat="45.61316845408985" lon="3.7695230918077662"><ele>954.5</ele><time>2026-05-02T13:29:40Z</time></trkpt><trkpt lat="45.61315414866239" lon="3.7694058866244293"><ele>954.0</ele><time>2026-05-02T13:29:46Z</time></trkpt><trkpt lat="45.61313504252822" lon="3.7692890202639893"><ele>953.5000000000001</ele><time>2026-05-02T13:29:49Z</time></trkpt><trkpt lat="45.61309005698646" lon="3.7691810027728785"><ele>953.0</ele><time>2026-05-02T13:29:51Z</time></trkpt><trkpt lat="45.61309781169071" lon="3.7690915527053663"><ele>951.4285714285714</ele><time>2026-05-02T13:29:53Z</time></trkpt><trkpt lat="45.61311071873094" lon="3.768977334346817"><ele>949.8571428571429</ele><time>2026-05-02T13:29:55Z</time></trkpt><trkpt lat="45.61307966074551" lon="3.7688522494789285"><ele>948.2857142857143</ele><time>2026-05-02T13:29:57Z</time></trkpt><trkpt lat="45.61308457421056" lon="3.768760078457311"><ele>946.7142857142858</ele><time>2026-05-02T13:29:59Z</time></trkpt><trkpt lat="45.613064458992405" lon="3.7686646689762116"><ele>945.1428571428571</ele><time>2026-05-02T13:30:03Z</time></trkpt><trkpt lat="45.613025349216976" lon="3.76858607157588"><ele>943.5714285714287</ele><time>2026-05-02T13:30:07Z</time></trkpt><trkpt lat="45.61303308844281" lon="3.768493508845628"><ele>942.0000000000001</ele><time>2026-05-02T13:30:10Z</time></trkpt><trkpt lat="45.61299428600913" lon="3.768398370889687"><ele>938.8333333333334</ele><time>2026-05-02T13:30:13Z</time></trkpt><trkpt lat="45.612924995108834" lon="3.768324385477134"><ele>935.6666666666667</ele><time>2026-05-02T13:30:22Z</time></trkpt><trkpt lat="45.61284869381768" lon="3.7683739610451337"><ele>932.5</ele><time>2026-05-02T13:30:25Z</time></trkpt><trkpt lat="45.612775049624986" lon="3.7684433596602065"><ele>929.3333333333334</ele><time>2026-05-02T13:30:28Z</time></trkpt><trkpt lat="45.61270981124956" lon="3.7684238915555586"><ele>926.1666666666667</ele><time>2026-05-02T13:30:31Z</time></trkpt><trkpt lat="45.61267018064957" lon="3.768348155807537"><ele>923.0</ele><time>2026-05-02T13:30:34Z</time></trkpt><trkpt lat="45.61260440011343" lon="3.7682803368552507"><ele>923.0000000000001</ele><time>2026-05-02T13:30:37Z</time></trkpt><trkpt lat="45.61268520459974" lon="3.7682660796236824"><ele>923.0</ele><time>2026-05-02T13:31:01Z</time></trkpt><trkpt lat="45.61277720550992" lon="3.768277847536108"><ele>923.0</ele><time>2026-05-02T13:31:03Z</time></trkpt><trkpt lat="45.61284440805069" lon="3.7682781886102776"><ele>923.0</ele><time>2026-05-02T13:31:06Z</time></trkpt><trkpt lat="45.61290839144633" lon="3.768253035167241"><ele>923.0000000000001</ele><time>2026-05-02T13:32:10Z</time></trkpt><trkpt lat="45.61281453246717" lon="3.7682479973835283"><ele>923.0</ele><time>2026-05-02T13:32:23Z</time></trkpt><trkpt lat="45.61273350494868" lon="3.7682242957816325"><ele>919.5714285714286</ele><time>2026-05-02T13:32:26Z</time></trkpt><trkpt lat="45.6126715561834" lon="3.7682079506053543"><ele>916.1428571428571</ele><time>2026-05-02T13:32:29Z</time></trkpt><trkpt lat="45.61262336275978" lon="3.768119647545701"><ele>912.7142857142857</ele><time>2026-05-02T13:32:42Z</time></trkpt><trkpt lat="45.61260318411083" lon="3.7680245163240964"><ele>909.2857142857142</ele><time>2026-05-02T13:32:45Z</time></trkpt><trkpt lat="45.61263122928668" lon="3.7679436277406007"><ele>905.8571428571429</ele><time>2026-05-02T13:32:47Z</time></trkpt><trkpt lat="45.61268460711547" lon="3.767839580074797"><ele>902.4285714285713</ele><time>2026-05-02T13:32:50Z</time></trkpt><trkpt lat="45.61268553051705" lon="3.767739996194967"><ele>898.9999999999999</ele><time>2026-05-02T13:32:52Z</time></trkpt><trkpt lat="45.61263114594506" lon="3.767672583079289"><ele>896.8333333333334</ele><time>2026-05-02T13:32:54Z</time></trkpt><trkpt lat="45.61254426364824" lon="3.7676579991554506"><ele>894.6666666666667</ele><time>2026-05-02T13:32:56Z</time></trkpt><trkpt lat="45.61247590214309" lon="3.767614518920951"><ele>892.5</ele><time>2026-05-02T13:32:59Z</time></trkpt><trkpt lat="45.61240313245497" lon="3.7675823967883937"><ele>890.3333333333333</ele><time>2026-05-02T13:33:02Z</time></trkpt><trkpt lat="45.61235399143718" lon="3.767467915879864"><ele>888.1666666666666</ele><time>2026-05-02T13:33:06Z</time></trkpt><trkpt lat="45.61233842567682" lon="3.7673614605015664"><ele>886.0</ele><time>2026-05-02T13:33:09Z</time></trkpt><trkpt lat="45.61232407391602" lon="3.7672650906814655"><ele>885.9999999999999</ele><time>2026-05-02T13:33:11Z</time></trkpt><trkpt lat="45.6123096408293" lon="3.767150904454011"><ele>886.0</ele><time>2026-05-02T13:33:14Z</time></trkpt><trkpt lat="45.61232442985322" lon="3.7670483686456957"><ele>886.0</ele><time>2026-05-02T13:33:17Z</time></trkpt><trkpt lat="45.612332250038016" lon="3.766926009713119"><ele>886.0</ele><time>2026-05-02T13:33:20Z</time></trkpt><trkpt lat="45.61231456273011" lon="3.766830204329666"><ele>885.9999999999999</ele><time>2026-05-02T13:33:22Z</time></trkpt><trkpt lat="45.612319367043256" lon="3.7667209768437058"><ele>886.0</ele><time>2026-05-02T13:33:25Z</time></trkpt><trkpt lat="45.6122679225513" lon="3.7666520283008382"><ele>882.5999999999999</ele><time>2026-05-02T13:33:27Z</time></trkpt><trkpt lat="45.61225391925347" lon="3.766525741503028"><ele>879.1999999999999</ele><time>2026-05-02T13:33:30Z</time></trkpt><trkpt lat="45.61223090322929" lon="3.766395375652294"><ele>875.8000000000001</ele><time>2026-05-02T13:33:32Z</time></trkpt><trkpt lat="45.612188246573275" lon="3.766258070574596"><ele>872.4000000000001</ele><time>2026-05-02T13:33:34Z</time></trkpt><trkpt lat="45.612149871461305" lon="3.766113646169045"><ele>869.0</ele><time>2026-05-02T13:33:36Z</time></trkpt><trkpt lat="45.61216810692865" lon="3.7660002866348132"><ele>867.6666666666667</ele><time>2026-05-02T13:33:38Z</time></trkpt><trkpt lat="45.61222514089559" lon="3.7658979074576417"><ele>866.3333333333334</ele><time>2026-05-02T13:33:40Z</time></trkpt><trkpt lat="45.61223574278591" lon="3.7658053498974717"><ele>865.0</ele><time>2026-05-02T13:33:41Z</time></trkpt><trkpt lat="45.61223621701365" lon="3.765709100726442"><ele>863.6666666666667</ele><time>2026-05-02T13:33:42Z</time></trkpt><trkpt lat="45.61223173495339" lon="3.7656080317774276"><ele>862.3333333333334</ele><time>2026-05-02T13:33:43Z</time></trkpt><trkpt lat="45.612204547416894" lon="3.7654887501522953"><ele>861.0</ele><time>2026-05-02T13:33:44Z</time></trkpt><trkpt lat="45.61218794540952" lon="3.7653881988724613"><ele>861.0</ele><time>2026-05-02T13:33:45Z</time></trkpt><trkpt lat="45.61217130527001" lon="3.7652659793831087"><ele>861.0</ele><time>2026-05-02T13:33:47Z</time></trkpt><trkpt lat="45.61224319209975" lon="3.7652297282916662"><ele>861.0</ele><time>2026-05-02T13:34:10Z</time></trkpt><trkpt lat="45.612353770427504" lon="3.7651602663747115"><ele>861.0</ele><time>2026-05-02T13:34:12Z</time></trkpt><trkpt lat="45.612390883323975" lon="3.7650686770025095"><ele>861.0</ele><time>2026-05-02T13:34:13Z</time></trkpt><trkpt lat="45.61240798453018" lon="3.764962523337242"><ele>861.0</ele><time>2026-05-02T13:34:14Z</time></trkpt><trkpt lat="45.61246397921905" lon="3.764815856649795"><ele>858.1999999999999</ele><time>2026-05-02T13:34:16Z</time></trkpt><trkpt lat="45.61251915961571" lon="3.764665567383539"><ele>855.3999999999999</ele><time>2026-05-02T13:34:18Z</time></trkpt><trkpt lat="45.6125400831652" lon="3.7645494203230103"><ele>852.6</ele><time>2026-05-02T13:34:20Z</time></trkpt><trkpt lat="45.61257326409614" lon="3.764443015128532"><ele>849.8</ele><time>2026-05-02T13:34:29Z</time></trkpt><trkpt lat="45.61253885624387" lon="3.7646396074848796"><ele>847.0</ele><time>2026-05-02T13:34:46Z</time></trkpt><trkpt lat="45.612516449500724" lon="3.7648080360030103"><ele>847.0</ele><time>2026-05-02T13:34:48Z</time></trkpt><trkpt lat="45.612403210510884" lon="3.764978549069272"><ele>847.0</ele><time>2026-05-02T13:34:50Z</time></trkpt><trkpt lat="45.61233421476404" lon="3.765090360268861"><ele>847.0</ele><time>2026-05-02T13:34:51Z</time></trkpt><trkpt lat="45.61227581758818" lon="3.765174734235682"><ele>847.0</ele><time>2026-05-02T13:34:52Z</time></trkpt><trkpt lat="45.61221821122235" lon="3.7652993695531713"><ele>847.0</ele><time>2026-05-02T13:35:09Z</time></trkpt><trkpt lat="45.61231261768413" lon="3.7652307256223625"><ele>847.0</ele><time>2026-05-02T13:36:07Z</time></trkpt><trkpt lat="45.61239685857068" lon="3.765107401415334"><ele>847.0</ele><time>2026-05-02T13:36:09Z</time></trkpt><trkpt lat="45.6124271106426" lon="3.765003750477344"><ele>847.0</ele><time>2026-05-02T13:36:10Z</time></trkpt><trkpt lat="45.612441955931274" lon="3.764898754264207"><ele>847.0</ele><time>2026-05-02T13:36:11Z</time></trkpt><trkpt lat="45.612482512645606" lon="3.7648002318117073"><ele>846.9999999999999</ele><time>2026-05-02T13:36:12Z</time></trkpt><trkpt lat="45.61252334054337" lon="3.7647250968205914"><ele>847.0</ele><time>2026-05-02T13:36:13Z</time></trkpt><trkpt lat="45.61256161756863" lon="3.7646506501840955"><ele>847.0</ele><time>2026-05-02T13:36:14Z</time></trkpt><trkpt lat="45.61256220411491" lon="3.76446711814977"><ele>847.0</ele><time>2026-05-02T13:36:16Z</time></trkpt><trkpt lat="45.61258578117499" lon="3.7643729689516467"><ele>846.9999999999999</ele><time>2026-05-02T13:36:17Z</time></trkpt><trkpt lat="45.61261780704266" lon="3.764279999699992"><ele>847.0</ele><time>2026-05-02T13:36:18Z</time></trkpt><trkpt lat="45.612661999181014" lon="3.7641988192181928"><ele>844.9999999999999</ele><time>2026-05-02T13:36:19Z</time></trkpt><trkpt lat="45.612696692905686" lon="3.7641036303929836"><ele>843.0</ele><time>2026-05-02T13:36:20Z</time></trkpt><trkpt lat="45.61277352737339" lon="3.7639633944256086"><ele>841.0</ele><time>2026-05-02T13:36:22Z</time></trkpt><trkpt lat="45.61281649552779" lon="3.763887114633815"><ele>839.0</ele><time>2026-05-02T13:36:23Z</time></trkpt><trkpt lat="45.61287688611525" lon="3.763778054997264"><ele>836.9999999999999</ele><time>2026-05-02T13:36:25Z</time></trkpt><trkpt lat="45.61290168226479" lon="3.7636910566517"><ele>835.0</ele><time>2026-05-02T13:36:27Z</time></trkpt><trkpt lat="45.612956027541316" lon="3.763629724070009"><ele>830.6</ele><time>2026-05-02T13:36:28Z</time></trkpt><trkpt lat="45.6129864619463" lon="3.7635130434499935"><ele>826.2</ele><time>2026-05-02T13:36:30Z</time></trkpt><trkpt lat="45.61307512293894" lon="3.763380573666595"><ele>821.8</ele><time>2026-05-02T13:36:32Z</time></trkpt><trkpt lat="45.61314467887043" lon="3.7633057784681117"><ele>817.4</ele><time>2026-05-02T13:36:33Z</time></trkpt><trkpt lat="45.61320757571618" lon="3.763232537279952"><ele>813.0</ele><time>2026-05-02T13:36:34Z</time></trkpt><trkpt lat="45.613239958515074" lon="3.763143203587459"><ele>813.0</ele><time>2026-05-02T13:36:35Z</time></trkpt><trkpt lat="45.61328123448243" lon="3.763065376661794"><ele>813.0</ele><time>2026-05-02T13:36:36Z</time></trkpt><trkpt lat="45.61330621333003" lon="3.7629681032343636"><ele>813.0</ele><time>2026-05-02T13:36:37Z</time></trkpt><trkpt lat="45.61330096160454" lon="3.7628040170372863"><ele>813.0</ele><time>2026-05-02T13:36:39Z</time></trkpt><trkpt lat="45.61331190571689" lon="3.762714482866357"><ele>813.0</ele><time>2026-05-02T13:36:40Z</time></trkpt><trkpt lat="45.61334172326611" lon="3.762633657010742"><ele>813.0</ele><time>2026-05-02T13:36:41Z</time></trkpt><trkpt lat="45.61336368140746" lon="3.7624865854960143"><ele>811.2</ele><time>2026-05-02T13:36:43Z</time></trkpt><trkpt lat="45.61340897240509" lon="3.7623684672237325"><ele>809.4</ele><time>2026-05-02T13:36:44Z</time></trkpt><trkpt lat="45.61342818180336" lon="3.7622222732187374"><ele>807.6</ele><time>2026-05-02T13:36:45Z</time></trkpt><trkpt lat="45.6134425779957" lon="3.762105004641422"><ele>805.8000000000001</ele><time>2026-05-02T13:36:46Z</time></trkpt><trkpt lat="45.61346774128772" lon="3.761982867091835"><ele>804.0</ele><time>2026-05-02T13:36:47Z</time></trkpt><trkpt lat="45.613486108686395" lon="3.761838861697245"><ele>802.6666666666666</ele><time>2026-05-02T13:36:48Z</time></trkpt><trkpt lat="45.61349811728107" lon="3.7616873624663563"><ele>801.3333333333333</ele><time>2026-05-02T13:36:49Z</time></trkpt><trkpt lat="45.61348453880704" lon="3.761557700234558"><ele>800.0</ele><time>2026-05-02T13:36:50Z</time></trkpt><trkpt lat="45.61349784367872" lon="3.7614635877767593"><ele>798.6666666666666</ele><time>2026-05-02T13:36:51Z</time></trkpt><trkpt lat="45.61351452969331" lon="3.7613387079965794"><ele>797.3333333333333</ele><time>2026-05-02T13:36:53Z</time></trkpt><trkpt lat="45.6135146723408" lon="3.761239655704803"><ele>796.0</ele><time>2026-05-02T13:36:54Z</time></trkpt><trkpt lat="45.613484703110785" lon="3.7611144488622203"><ele>794.5999999999999</ele><time>2026-05-02T13:36:55Z</time></trkpt><trkpt lat="45.61348794416301" lon="3.760982968509104"><ele>793.2</ele><time>2026-05-02T13:36:56Z</time></trkpt><trkpt lat="45.61347261734856" lon="3.760829043673138"><ele>791.8</ele><time>2026-05-02T13:36:57Z</time></trkpt><trkpt lat="45.61345395344916" lon="3.7606956693681877"><ele>790.4000000000001</ele><time>2026-05-02T13:36:58Z</time></trkpt><trkpt lat="45.613426323485584" lon="3.760586650909805"><ele>789.0</ele><time>2026-05-02T13:36:59Z</time></trkpt><trkpt lat="45.61341847239091" lon="3.7604755340994394"><ele>789.0</ele><time>2026-05-02T13:37:00Z</time></trkpt><trkpt lat="45.61341207795699" lon="3.760356171992805"><ele>789.0</ele><time>2026-05-02T13:37:01Z</time></trkpt><trkpt lat="45.613411654830344" lon="3.7602282122595856"><ele>789.0</ele><time>2026-05-02T13:37:02Z</time></trkpt><trkpt lat="45.61341141585304" lon="3.7601077634445685"><ele>789.0</ele><time>2026-05-02T13:37:03Z</time></trkpt><trkpt lat="45.61342690246042" lon="3.759999249875439"><ele>789.0</ele><time>2026-05-02T13:37:04Z</time></trkpt><trkpt lat="45.61343885398418" lon="3.7598983397219543"><ele>789.0</ele><time>2026-05-02T13:37:05Z</time></trkpt><trkpt lat="45.61343333642488" lon="3.7597441658374304"><ele>786.6666666666666</ele><time>2026-05-02T13:37:07Z</time></trkpt><trkpt lat="45.61339417170202" lon="3.759587630104381"><ele>784.3333333333333</ele><time>2026-05-02T13:37:09Z</time></trkpt><trkpt lat="45.613346256108805" lon="3.7594855633686035"><ele>782.0</ele><time>2026-05-02T13:37:10Z</time></trkpt><trkpt lat="45.61329611138584" lon="3.759384990974577"><ele>779.6666666666666</ele><time>2026-05-02T13:37:11Z</time></trkpt><trkpt lat="45.61324792415565" lon="3.7593158834109546"><ele>777.3333333333333</ele><time>2026-05-02T13:37:12Z</time></trkpt><trkpt lat="45.613191013830125" lon="3.7592437164519636"><ele>775.0</ele><time>2026-05-02T13:37:13Z</time></trkpt><trkpt lat="45.613107573535025" lon="3.7591378831095215"><ele>771.0</ele><time>2026-05-02T13:37:14Z</time></trkpt><trkpt lat="45.6130452058873" lon="3.759013127980464"><ele>767.0</ele><time>2026-05-02T13:37:15Z</time></trkpt><trkpt lat="45.61295981252205" lon="3.758889398769201"><ele>763.0</ele><time>2026-05-02T13:37:16Z</time></trkpt><trkpt lat="45.612876591992496" lon="3.758774226914341"><ele>759.0</ele><time>2026-05-02T13:37:17Z</time></trkpt><trkpt lat="45.61280446894931" lon="3.758661253279018"><ele>759.0</ele><time>2026-05-02T13:37:18Z</time></trkpt><trkpt lat="45.612762458785454" lon="3.7585613562698676"><ele>759.0</ele><time>2026-05-02T13:37:19Z</time></trkpt><trkpt lat="45.61272994286208" lon="3.758441652107212"><ele>759.0</ele><time>2026-05-02T13:37:20Z</time></trkpt><trkpt lat="45.61269562405811" lon="3.758345257341417"><ele>759.0</ele><time>2026-05-02T13:37:21Z</time></trkpt><trkpt lat="45.61264898633601" lon="3.7582724048776783"><ele>759.0</ele><time>2026-05-02T13:37:22Z</time></trkpt><trkpt lat="45.61257447176806" lon="3.7581410911616002"><ele>759.0</ele><time>2026-05-02T13:37:24Z</time></trkpt><trkpt lat="45.61254079993196" lon="3.7580623862324387"><ele>756.3333333333334</ele><time>2026-05-02T13:37:26Z</time></trkpt><trkpt lat="45.61249606801327" lon="3.7579573072148733"><ele>753.6666666666666</ele><time>2026-05-02T13:37:30Z</time></trkpt><trkpt lat="45.612439756179256" lon="3.757869107274527"><ele>751.0</ele><time>2026-05-02T13:37:32Z</time></trkpt><trkpt lat="45.61240027584492" lon="3.7577694168631774"><ele>748.3333333333333</ele><time>2026-05-02T13:37:34Z</time></trkpt><trkpt lat="45.612339172637355" lon="3.75770697473845"><ele>745.6666666666666</ele><time>2026-05-02T13:37:36Z</time></trkpt><trkpt lat="45.612284521831334" lon="3.757606559388487"><ele>743.0</ele><time>2026-05-02T13:37:39Z</time></trkpt><trkpt lat="45.61225063394338" lon="3.7574530967249617"><ele>738.8333333333333</ele><time>2026-05-02T13:37:41Z</time></trkpt><trkpt lat="45.612234406448806" lon="3.7573636741202527"><ele>734.6666666666666</ele><time>2026-05-02T13:37:42Z</time></trkpt><trkpt lat="45.61223232877262" lon="3.7572129780500325"><ele>730.5</ele><time>2026-05-02T13:37:44Z</time></trkpt><trkpt lat="45.6122245274276" lon="3.757118589619755"><ele>726.3333333333334</ele><time>2026-05-02T13:37:45Z</time></trkpt><trkpt lat="45.612217737417666" lon="3.75701922195193"><ele>722.1666666666667</ele><time>2026-05-02T13:37:46Z</time></trkpt><trkpt lat="45.61219858087321" lon="3.7569184278543495"><ele>718.0</ele><time>2026-05-02T13:37:47Z</time></trkpt><trkpt lat="45.61217441989241" lon="3.756801607846845"><ele>715.0</ele><time>2026-05-02T13:37:48Z</time></trkpt><trkpt lat="45.612144543984925" lon="3.7566813888159376"><ele>712.0</ele><time>2026-05-02T13:37:49Z</time></trkpt><trkpt lat="45.612116617761046" lon="3.7565469098966067"><ele>709.0</ele><time>2026-05-02T13:37:50Z</time></trkpt><trkpt lat="45.61209556202161" lon="3.7564174544488163"><ele>706.0</ele><time>2026-05-02T13:37:51Z</time></trkpt><trkpt lat="45.61207622024609" lon="3.7562981947875507"><ele>703.0</ele><time>2026-05-02T13:37:52Z</time></trkpt><trkpt lat="45.61204768553222" lon="3.7561778852189094"><ele>703.0</ele><time>2026-05-02T13:37:53Z</time></trkpt><trkpt lat="45.61202060101139" lon="3.756069217744968"><ele>703.0</ele><time>2026-05-02T13:37:54Z</time></trkpt><trkpt lat="45.61199968701447" lon="3.7559656633749388"><ele>703.0</ele><time>2026-05-02T13:37:55Z</time></trkpt><trkpt lat="45.61197586497024" lon="3.7558506241914515"><ele>703.0</ele><time>2026-05-02T13:37:56Z</time></trkpt><trkpt lat="45.61194597599264" lon="3.7557291810994236"><ele>703.0</ele><time>2026-05-02T13:37:57Z</time></trkpt><trkpt lat="45.61191896166948" lon="3.7556059079416753"><ele>703.0</ele><time>2026-05-02T13:37:58Z</time></trkpt><trkpt lat="45.611895031148116" lon="3.755482992508669"><ele>700.5</ele><time>2026-05-02T13:37:59Z</time></trkpt><trkpt lat="45.611869205137566" lon="3.7553570349721137"><ele>698.0</ele><time>2026-05-02T13:38:00Z</time></trkpt><trkpt lat="45.61183404169532" lon="3.755242413714158"><ele>695.5</ele><time>2026-05-02T13:38:01Z</time></trkpt><trkpt lat="45.61179107454237" lon="3.755116900531791"><ele>693.0</ele><time>2026-05-02T13:38:02Z</time></trkpt><trkpt lat="45.61174616852459" lon="3.755010807685235"><ele>690.5</ele><time>2026-05-02T13:38:03Z</time></trkpt><trkpt lat="45.611706622439705" lon="3.754902762257524"><ele>688.0</ele><time>2026-05-02T13:38:04Z</time></trkpt><trkpt lat="45.61167667686547" lon="3.7548087020463377"><ele>687.3333333333334</ele><time>2026-05-02T13:38:05Z</time></trkpt><trkpt lat="45.611669271864905" lon="3.754714983982605"><ele>686.6666666666667</ele><time>2026-05-02T13:38:06Z</time></trkpt><trkpt lat="45.61166823334491" lon="3.7545944653303143"><ele>686.0</ele><time>2026-05-02T13:38:08Z</time></trkpt><trkpt lat="45.6116326844555" lon="3.754485904768006"><ele>685.3333333333334</ele><time>2026-05-02T13:38:10Z</time></trkpt><trkpt lat="45.61158186947415" lon="3.754426877673063"><ele>684.6666666666666</ele><time>2026-05-02T13:38:11Z</time></trkpt><trkpt lat="45.611516100137656" lon="3.754380479092894"><ele>684.0</ele><time>2026-05-02T13:38:12Z</time></trkpt><trkpt lat="45.61142406057291" lon="3.7543218502913014"><ele>682.6</ele><time>2026-05-02T13:38:13Z</time></trkpt><trkpt lat="45.611326706653536" lon="3.7542802396706287"><ele>681.2</ele><time>2026-05-02T13:38:14Z</time></trkpt><trkpt lat="45.61122787133973" lon="3.7542384689816806"><ele>679.8000000000001</ele><time>2026-05-02T13:38:15Z</time></trkpt><trkpt lat="45.61112827579913" lon="3.7541956265979493"><ele>678.4000000000001</ele><time>2026-05-02T13:38:16Z</time></trkpt><trkpt lat="45.611031905136585" lon="3.7541677401626914"><ele>677.0</ele><time>2026-05-02T13:38:17Z</time></trkpt><trkpt lat="45.610920965643935" lon="3.7541548286517203"><ele>675.8333333333333</ele><time>2026-05-02T13:38:18Z</time></trkpt><trkpt lat="45.610812739962235" lon="3.7541360710871854"><ele>674.6666666666666</ele><time>2026-05-02T13:38:19Z</time></trkpt><trkpt lat="45.61072658419729" lon="3.754118176909273"><ele>673.5</ele><time>2026-05-02T13:38:20Z</time></trkpt><trkpt lat="45.61064613696128" lon="3.754069210873274"><ele>672.3333333333334</ele><time>2026-05-02T13:38:21Z</time></trkpt><trkpt lat="45.610568666368664" lon="3.754055454120355"><ele>671.1666666666667</ele><time>2026-05-02T13:38:22Z</time></trkpt><trkpt lat="45.61049869233405" lon="3.754048561347905"><ele>670.0</ele><time>2026-05-02T13:38:23Z</time></trkpt><trkpt lat="45.61041852681518" lon="3.7539585978690764"><ele>670.0</ele><time>2026-05-02T13:38:25Z</time></trkpt><trkpt lat="45.61042006008225" lon="3.753822432603616"><ele>670.0</ele><time>2026-05-02T13:38:27Z</time></trkpt><trkpt lat="45.61044458031432" lon="3.7537164841028257"><ele>670.0</ele><time>2026-05-02T13:38:28Z</time></trkpt><trkpt lat="45.61048484483929" lon="3.7535900900048684"><ele>670.0</ele><time>2026-05-02T13:38:29Z</time></trkpt><trkpt lat="45.610511125773776" lon="3.753436143773393"><ele>670.0</ele><time>2026-05-02T13:38:30Z</time></trkpt><trkpt lat="45.610534817127046" lon="3.7532700197535207"><ele>669.0</ele><time>2026-05-02T13:38:31Z</time></trkpt><trkpt lat="45.610562740899155" lon="3.753108029425129"><ele>668.0</ele><time>2026-05-02T13:38:32Z</time></trkpt><trkpt lat="45.61060629248064" lon="3.752961958460134"><ele>667.0</ele><time>2026-05-02T13:38:33Z</time></trkpt><trkpt lat="45.61066566496928" lon="3.752843100886906"><ele>666.0</ele><time>2026-05-02T13:38:34Z</time></trkpt><trkpt lat="45.61073727610778" lon="3.752744736003663"><ele>665.0</ele><time>2026-05-02T13:38:35Z</time></trkpt><trkpt lat="45.61079390920628" lon="3.7526491529282224"><ele>663.8333333333333</ele><time>2026-05-02T13:38:36Z</time></trkpt><trkpt lat="45.6108205048571" lon="3.752537673257258"><ele>662.6666666666666</ele><time>2026-05-02T13:38:37Z</time></trkpt><trkpt lat="45.61081419899377" lon="3.7524119199560864"><ele>661.5</ele><time>2026-05-02T13:38:38Z</time></trkpt><trkpt lat="45.6107844045456" lon="3.752296717409338"><ele>660.3333333333334</ele><time>2026-05-02T13:38:39Z</time></trkpt><trkpt lat="45.610750601379934" lon="3.7521901807541336"><ele>659.1666666666667</ele><time>2026-05-02T13:38:40Z</time></trkpt><trkpt lat="45.61070883571283" lon="3.7521208054822828"><ele>658.0</ele><time>2026-05-02T13:38:41Z</time></trkpt><trkpt lat="45.6106530161705" lon="3.7520143433742215"><ele>657.3333333333334</ele><time>2026-05-02T13:38:43Z</time></trkpt><trkpt lat="45.61069587233073" lon="3.7518638430782607"><ele>656.6666666666667</ele><time>2026-05-02T13:38:44Z</time></trkpt><trkpt lat="45.61071962972557" lon="3.751749159035206"><ele>656.0</ele><time>2026-05-02T13:38:45Z</time></trkpt><trkpt lat="45.610738655423404" lon="3.7516334489900784"><ele>655.3333333333334</ele><time>2026-05-02T13:38:46Z</time></trkpt><trkpt lat="45.610749656862964" lon="3.7515133022457343"><ele>654.6666666666666</ele><time>2026-05-02T13:38:47Z</time></trkpt><trkpt lat="45.610754319673156" lon="3.7514234058544305"><ele>654.0</ele><time>2026-05-02T13:38:48Z</time></trkpt><trkpt lat="45.610774914034835" lon="3.7513124173755292"><ele>654.0</ele><time>2026-05-02T13:38:49Z</time></trkpt><trkpt lat="45.61080938437328" lon="3.751197579668177"><ele>654.0</ele><time>2026-05-02T13:38:50Z</time></trkpt><trkpt lat="45.61086050854896" lon="3.751096268452786"><ele>654.0</ele><time>2026-05-02T13:38:51Z</time></trkpt><trkpt lat="45.61089357930387" lon="3.750972920064071"><ele>654.0</ele><time>2026-05-02T13:38:52Z</time></trkpt><trkpt lat="45.61096556467027" lon="3.750868880759573"><ele>654.0</ele><time>2026-05-02T13:38:53Z</time></trkpt><trkpt lat="45.61103555412841" lon="3.7507514315018327"><ele>653.5</ele><time>2026-05-02T13:38:54Z</time></trkpt><trkpt lat="45.611108180156016" lon="3.7506329593481675"><ele>653.0</ele><time>2026-05-02T13:38:55Z</time></trkpt><trkpt lat="45.611168487303345" lon="3.7505014061359634"><ele>652.5</ele><time>2026-05-02T13:38:56Z</time></trkpt><trkpt lat="45.61121214685724" lon="3.7503584480382854"><ele>652.0</ele><time>2026-05-02T13:38:57Z</time></trkpt><trkpt lat="45.61124413931294" lon="3.7501862956848226"><ele>650.8</ele><time>2026-05-02T13:38:58Z</time></trkpt><trkpt lat="45.611274089370625" lon="3.750029070520875"><ele>649.6</ele><time>2026-05-02T13:38:59Z</time></trkpt><trkpt lat="45.61130900155111" lon="3.7498873940865027"><ele>648.4</ele><time>2026-05-02T13:39:00Z</time></trkpt><trkpt lat="45.611357934329504" lon="3.749766465015087"><ele>647.1999999999999</ele><time>2026-05-02T13:39:01Z</time></trkpt><trkpt lat="45.61143100971031" lon="3.7496656770551526"><ele>646.0</ele><time>2026-05-02T13:39:02Z</time></trkpt><trkpt lat="45.61152828299465" lon="3.749570366124769"><ele>646.0</ele><time>2026-05-02T13:39:03Z</time></trkpt><trkpt lat="45.6116335617887" lon="3.7494794411824017"><ele>646.0</ele><time>2026-05-02T13:39:04Z</time></trkpt><trkpt lat="45.61171741666198" lon="3.7493876966561115"><ele>646.0</ele><time>2026-05-02T13:39:05Z</time></trkpt><trkpt lat="45.611794863251916" lon="3.7493069872553"><ele>646.0</ele><time>2026-05-02T13:39:06Z</time></trkpt><trkpt lat="45.611873572206015" lon="3.74922991579149"><ele>646.0</ele><time>2026-05-02T13:39:07Z</time></trkpt><trkpt lat="45.611946835344554" lon="3.749156408865783"><ele>644.8</ele><time>2026-05-02T13:39:08Z</time></trkpt><trkpt lat="45.612016640336385" lon="3.749099851056653"><ele>643.5999999999999</ele><time>2026-05-02T13:39:09Z</time></trkpt><trkpt lat="45.61208492312843" lon="3.7490588951459984"><ele>642.4</ele><time>2026-05-02T13:39:10Z</time></trkpt><trkpt lat="45.61219392308012" lon="3.7491048871662636"><ele>641.2</ele><time>2026-05-02T13:39:11Z</time></trkpt><trkpt lat="45.61231799055664" lon="3.7491359672108215"><ele>640.0</ele><time>2026-05-02T13:39:12Z</time></trkpt><trkpt lat="45.61243528288003" lon="3.7491453027477473"><ele>640.0</ele><time>2026-05-02T13:39:13Z</time></trkpt><trkpt lat="45.6125372873853" lon="3.749136603522986"><ele>640.0</ele><time>2026-05-02T13:39:14Z</time></trkpt><trkpt lat="45.61263090190054" lon="3.749115632472927"><ele>640.0</ele><time>2026-05-02T13:39:15Z</time></trkpt><trkpt lat="45.612731829870505" lon="3.7490764251002293"><ele>640.0</ele><time>2026-05-02T13:39:16Z</time></trkpt><trkpt lat="45.612834642481296" lon="3.7490178721214744"><ele>640.0</ele><time>2026-05-02T13:39:17Z</time></trkpt><trkpt lat="45.61293461779548" lon="3.7489857404367264"><ele>639.4</ele><time>2026-05-02T13:39:18Z</time></trkpt><trkpt lat="45.613033447799275" lon="3.748947489142607"><ele>638.8</ele><time>2026-05-02T13:39:19Z</time></trkpt><trkpt lat="45.61314787907546" lon="3.7489257373391367"><ele>638.2</ele><time>2026-05-02T13:39:20Z</time></trkpt><trkpt lat="45.61323798094491" lon="3.7488638808788"><ele>637.6</ele><time>2026-05-02T13:39:21Z</time></trkpt><trkpt lat="45.61332796665757" lon="3.74879607503214"><ele>637.0</ele><time>2026-05-02T13:39:22Z</time></trkpt><trkpt lat="45.61342083389786" lon="3.7487840114122117"><ele>637.0</ele><time>2026-05-02T13:39:23Z</time></trkpt><trkpt lat="45.61351360862134" lon="3.7488102712825206"><ele>637.0</ele><time>2026-05-02T13:39:24Z</time></trkpt><trkpt lat="45.61362014316775" lon="3.7488625036605865"><ele>637.0</ele><time>2026-05-02T13:39:25Z</time></trkpt><trkpt lat="45.61370753253245" lon="3.748882844836232"><ele>637.0</ele><time>2026-05-02T13:39:26Z</time></trkpt><trkpt lat="45.61378344271601" lon="3.7488417226845105"><ele>637.0</ele><time>2026-05-02T13:39:27Z</time></trkpt><trkpt lat="45.613874213774345" lon="3.7488096883473387"><ele>634.8000000000001</ele><time>2026-05-02T13:39:28Z</time></trkpt><trkpt lat="45.61392120748017" lon="3.7486781446329895"><ele>632.6</ele><time>2026-05-02T13:39:29Z</time></trkpt><trkpt lat="45.613959119567944" lon="3.748554664976007"><ele>630.4000000000001</ele><time>2026-05-02T13:39:30Z</time></trkpt><trkpt lat="45.61397047669684" lon="3.7484389234683397"><ele>628.2</ele><time>2026-05-02T13:39:31Z</time></trkpt><trkpt lat="45.61399255136982" lon="3.748307908259266"><ele>626.0</ele><time>2026-05-02T13:39:32Z</time></trkpt><trkpt lat="45.61398250553934" lon="3.74817590232655"><ele>624.4</ele><time>2026-05-02T13:39:33Z</time></trkpt><trkpt lat="45.61398910943151" lon="3.7480426251947616"><ele>622.8</ele><time>2026-05-02T13:39:34Z</time></trkpt><trkpt lat="45.61400288414363" lon="3.7479111447329947"><ele>621.1999999999999</ele><time>2026-05-02T13:39:35Z</time></trkpt><trkpt lat="45.61399551045891" lon="3.7477614584950003"><ele>619.6</ele><time>2026-05-02T13:39:36Z</time></trkpt><trkpt lat="45.61405220754978" lon="3.7475973998007426"><ele>618.0</ele><time>2026-05-02T13:39:37Z</time></trkpt><trkpt lat="45.61405257591937" lon="3.747432593781881"><ele>618.75</ele><time>2026-05-02T13:39:38Z</time></trkpt><trkpt lat="45.614038620865585" lon="3.747260407897177"><ele>619.5</ele><time>2026-05-02T13:39:39Z</time></trkpt><trkpt lat="45.61396624962574" lon="3.7470924325190453"><ele>620.25</ele><time>2026-05-02T13:39:40Z</time></trkpt><trkpt lat="45.61390608859958" lon="3.746932692203075"><ele>621.0</ele><time>2026-05-02T13:39:41Z</time></trkpt><trkpt lat="45.613852346321295" lon="3.746775084598995"><ele>621.0</ele><time>2026-05-02T13:39:42Z</time></trkpt><trkpt lat="45.613804248468206" lon="3.746617961364102"><ele>621.0</ele><time>2026-05-02T13:39:43Z</time></trkpt><trkpt lat="45.61377257145388" lon="3.7464391213820813"><ele>621.0</ele><time>2026-05-02T13:39:44Z</time></trkpt><trkpt lat="45.61376637656423" lon="3.7462460205966344"><ele>621.0</ele><time>2026-05-02T13:39:45Z</time></trkpt><trkpt lat="45.613784355866585" lon="3.7460378098515097"><ele>621.6666666666666</ele><time>2026-05-02T13:39:46Z</time></trkpt><trkpt lat="45.613841088903946" lon="3.7458164426831804"><ele>622.3333333333333</ele><time>2026-05-02T13:39:47Z</time></trkpt><trkpt lat="45.61390097065346" lon="3.7456153016702944"><ele>623.0</ele><time>2026-05-02T13:39:48Z</time></trkpt><trkpt lat="45.61395787002505" lon="3.7454107669903003"><ele>623.0</ele><time>2026-05-02T13:39:49Z</time></trkpt><trkpt lat="45.6140082816405" lon="3.7452145058744253"><ele>623.0</ele><time>2026-05-02T13:39:50Z</time></trkpt><trkpt lat="45.61405806598497" lon="3.745021211322572"><ele>623.0</ele><time>2026-05-02T13:39:51Z</time></trkpt><trkpt lat="45.61410624525448" lon="3.7448314310935555"><ele>623.0</ele><time>2026-05-02T13:39:52Z</time></trkpt><trkpt lat="45.61416040052816" lon="3.7446465020008457"><ele>623.5</ele><time>2026-05-02T13:39:53Z</time></trkpt><trkpt lat="45.614213706451714" lon="3.744454961186583"><ele>624.0</ele><time>2026-05-02T13:39:54Z</time></trkpt><trkpt lat="45.614268084010405" lon="3.7442656323397565"><ele>624.5</ele><time>2026-05-02T13:39:55Z</time></trkpt><trkpt lat="45.61432964456172" lon="3.7440681150191786"><ele>625.0</ele><time>2026-05-02T13:39:56Z</time></trkpt><trkpt lat="45.61439398243858" lon="3.743890343981787"><ele>625.25</ele><time>2026-05-02T13:39:57Z</time></trkpt><trkpt lat="45.61446771707891" lon="3.743740469474182"><ele>625.5</ele><time>2026-05-02T13:39:58Z</time></trkpt><trkpt lat="45.61454732069573" lon="3.743620936036173"><ele>625.75</ele><time>2026-05-02T13:39:59Z</time></trkpt><trkpt lat="45.61464494411403" lon="3.7435492054251083"><ele>626.0</ele><time>2026-05-02T13:40:00Z</time></trkpt><trkpt lat="45.61476194345308" lon="3.7435391211027196"><ele>628.0</ele><time>2026-05-02T13:40:01Z</time></trkpt><trkpt lat="45.614870428524156" lon="3.743602773189373"><ele>630.0</ele><time>2026-05-02T13:40:02Z</time></trkpt><trkpt lat="45.614941525106445" lon="3.743677093334118"><ele>632.0</ele><time>2026-05-02T13:40:03Z</time></trkpt><trkpt lat="45.61499851744748" lon="3.743751240775877"><ele>634.0</ele><time>2026-05-02T13:40:04Z</time></trkpt><trkpt lat="45.61505381865068" lon="3.7438458821709917"><ele>636.0</ele><time>2026-05-02T13:40:06Z</time></trkpt><trkpt lat="45.615194026804076" lon="3.743758057425966"><ele>636.0</ele><time>2026-05-02T13:40:07Z</time></trkpt><trkpt lat="45.61528186723976" lon="3.743723464546866"><ele>636.0</ele><time>2026-05-02T13:40:08Z</time></trkpt><trkpt lat="45.615366427918126" lon="3.7437216445122807"><ele>636.0</ele><time>2026-05-02T13:40:09Z</time></trkpt><trkpt lat="45.61544208678011" lon="3.7437471178170676"><ele>636.0</ele><time>2026-05-02T13:40:10Z</time></trkpt><trkpt lat="45.615514906257836" lon="3.74380299813971"><ele>636.0</ele><time>2026-05-02T13:40:12Z</time></trkpt><trkpt lat="45.615582062747734" lon="3.7437943179417092"><ele>636.0</ele><time>2026-05-02T13:40:16Z</time></trkpt><trkpt lat="45.61559899929747" lon="3.743671099615877"><ele>636.0</ele><time>2026-05-02T13:40:17Z</time></trkpt><trkpt lat="45.61560595017292" lon="3.743569621920765"><ele>636.0</ele><time>2026-05-02T13:40:18Z</time></trkpt><trkpt lat="45.61561894256974" lon="3.7434776165693044"><ele>636.0</ele><time>2026-05-02T13:40:19Z</time></trkpt><trkpt lat="45.615632202546784" lon="3.743290299622522"><ele>636.0</ele><time>2026-05-02T13:40:21Z</time></trkpt><trkpt lat="45.61566730899269" lon="3.7431755045290647"><ele>636.0</ele><time>2026-05-02T13:40:22Z</time></trkpt><trkpt lat="45.61572344136324" lon="3.743060985513475"><ele>636.0</ele><time>2026-05-02T13:40:23Z</time></trkpt><trkpt lat="45.615771797839436" lon="3.742930118195147"><ele>636.0</ele><time>2026-05-02T13:40:24Z</time></trkpt><trkpt lat="45.615818558402076" lon="3.742784189656367"><ele>636.0</ele><time>2026-05-02T13:40:25Z</time></trkpt><trkpt lat="45.61585714107232" lon="3.742614509527051"><ele>636.0</ele><time>2026-05-02T13:40:26Z</time></trkpt><trkpt lat="45.61587677374909" lon="3.7424343055038607"><ele>638.25</ele><time>2026-05-02T13:40:27Z</time></trkpt><trkpt lat="45.61590609164554" lon="3.742223692464877"><ele>640.5</ele><time>2026-05-02T13:40:28Z</time></trkpt><trkpt lat="45.61595398321021" lon="3.7420412357487502"><ele>642.75</ele><time>2026-05-02T13:40:29Z</time></trkpt><trkpt lat="45.616021016818884" lon="3.7418440028521545"><ele>645.0</ele><time>2026-05-02T13:40:30Z</time></trkpt><trkpt lat="45.61609227435974" lon="3.74164621621"><ele>643.5</ele><time>2026-05-02T13:40:31Z</time></trkpt><trkpt lat="45.61614219392959" lon="3.741467939773749"><ele>642.0</ele><time>2026-05-02T13:40:32Z</time></trkpt><trkpt lat="45.61616799815517" lon="3.741274326775815"><ele>640.5</ele><time>2026-05-02T13:40:33Z</time></trkpt><trkpt lat="45.61617135316175" lon="3.7410873963437887"><ele>639.0</ele><time>2026-05-02T13:40:34Z</time></trkpt><trkpt lat="45.616186043764955" lon="3.740894975335525"><ele>639.0</ele><time>2026-05-02T13:40:35Z</time></trkpt><trkpt lat="45.61620844920472" lon="3.740737214174541"><ele>639.0</ele><time>2026-05-02T13:40:36Z</time></trkpt><trkpt lat="45.6162425057481" lon="3.7405894774754986"><ele>639.0</ele><time>2026-05-02T13:40:37Z</time></trkpt><trkpt lat="45.616286768542274" lon="3.7404437849908145"><ele>639.0</ele><time>2026-05-02T13:40:38Z</time></trkpt><trkpt lat="45.616321758184625" lon="3.740286741769249"><ele>639.0</ele><time>2026-05-02T13:40:39Z</time></trkpt><trkpt lat="45.61636902600403" lon="3.74014616612547"><ele>641.2</ele><time>2026-05-02T13:40:40Z</time></trkpt><trkpt lat="45.61642300735725" lon="3.740012625712801"><ele>643.4</ele><time>2026-05-02T13:40:41Z</time></trkpt><trkpt lat="45.61646614200574" lon="3.7398719233769073"><ele>645.6</ele><time>2026-05-02T13:40:42Z</time></trkpt><trkpt lat="45.61648922264733" lon="3.73973472891295"><ele>647.8</ele><time>2026-05-02T13:40:43Z</time></trkpt><trkpt lat="45.61652140182478" lon="3.7395870836232064"><ele>650.0</ele><time>2026-05-02T13:40:44Z</time></trkpt><trkpt lat="45.61656364208447" lon="3.7394121055114926"><ele>651.3333333333333</ele><time>2026-05-02T13:40:45Z</time></trkpt><trkpt lat="45.616813320240524" lon="3.739301467532181"><ele>652.6666666666666</ele><time>2026-05-02T13:40:46Z</time></trkpt><trkpt lat="45.61690829646788" lon="3.739108513625168"><ele>654.0</ele><time>2026-05-02T13:40:47Z</time></trkpt><trkpt lat="45.617004109911534" lon="3.738906049135198"><ele>654.0</ele><time>2026-05-02T13:40:48Z</time></trkpt><trkpt lat="45.61711029522177" lon="3.73870683405532"><ele>654.0</ele><time>2026-05-02T13:40:49Z</time></trkpt><trkpt lat="45.61723425571464" lon="3.7385198741651195"><ele>654.0</ele><time>2026-05-02T13:40:50Z</time></trkpt><trkpt lat="45.61736326747402" lon="3.738343112962061"><ele>655.6666666666666</ele><time>2026-05-02T13:40:51Z</time></trkpt><trkpt lat="45.617488812860906" lon="3.7381472062956247"><ele>657.3333333333333</ele><time>2026-05-02T13:40:52Z</time></trkpt><trkpt lat="45.61759514833402" lon="3.7379410397276636"><ele>659.0</ele><time>2026-05-02T13:40:53Z</time></trkpt><trkpt lat="45.61767962199811" lon="3.7377443776091948"><ele>657.25</ele><time>2026-05-02T13:40:54Z</time></trkpt><trkpt lat="45.61775150045645" lon="3.7375641765911816"><ele>655.5</ele><time>2026-05-02T13:40:55Z</time></trkpt><trkpt lat="45.617808858361144" lon="3.7374054340592355"><ele>653.75</ele><time>2026-05-02T13:40:56Z</time></trkpt><trkpt lat="45.61784605658259" lon="3.737274945292506"><ele>652.0</ele><time>2026-05-02T13:40:57Z</time></trkpt><trkpt lat="45.61786587394925" lon="3.737161494341465"><ele>652.0</ele><time>2026-05-02T13:40:58Z</time></trkpt><trkpt lat="45.61784017889114" lon="3.737012088072564"><ele>652.0</ele><time>2026-05-02T13:41:00Z</time></trkpt><trkpt lat="45.617779106533405" lon="3.736898768263171"><ele>652.0</ele><time>2026-05-02T13:41:02Z</time></trkpt><trkpt lat="45.61783239965705" lon="3.736786518872836"><ele>652.0</ele><time>2026-05-02T13:41:04Z</time></trkpt><trkpt lat="45.61787280432567" lon="3.736715069661136"><ele>652.0</ele><time>2026-05-02T13:41:05Z</time></trkpt><trkpt lat="45.61792104279975" lon="3.7366445792347545"><ele>652.0</ele><time>2026-05-02T13:41:06Z</time></trkpt><trkpt lat="45.61795319113008" lon="3.7365617292071254"><ele>650.6666666666667</ele><time>2026-05-02T13:41:07Z</time></trkpt><trkpt lat="45.617974648106134" lon="3.7364719175129677"><ele>649.3333333333334</ele><time>2026-05-02T13:41:08Z</time></trkpt><trkpt lat="45.61799714907287" lon="3.73638098759558"><ele>648.0</ele><time>2026-05-02T13:41:09Z</time></trkpt><trkpt lat="45.61802225861603" lon="3.7362928338884"><ele>646.6666666666666</ele><time>2026-05-02T13:41:10Z</time></trkpt><trkpt lat="45.618070602958504" lon="3.736136045242805"><ele>645.3333333333333</ele><time>2026-05-02T13:41:12Z</time></trkpt><trkpt lat="45.618087562444124" lon="3.7360453489760825"><ele>644.0</ele><time>2026-05-02T13:41:13Z</time></trkpt><trkpt lat="45.61810628279772" lon="3.7359559599726975"><ele>644.0</ele><time>2026-05-02T13:41:14Z</time></trkpt><trkpt lat="45.61812857234137" lon="3.7358307194244023"><ele>644.0</ele><time>2026-05-02T13:41:15Z</time></trkpt><trkpt lat="45.61813199447341" lon="3.735707353270616"><ele>644.0</ele><time>2026-05-02T13:41:16Z</time></trkpt><trkpt lat="45.61813779045351" lon="3.7355723455835723"><ele>644.0</ele><time>2026-05-02T13:41:17Z</time></trkpt><trkpt lat="45.61816786261927" lon="3.7354321218322406"><ele>644.0</ele><time>2026-05-02T13:41:18Z</time></trkpt><trkpt lat="45.618194041673505" lon="3.7352562972178105"><ele>646.0</ele><time>2026-05-02T13:41:19Z</time></trkpt><trkpt lat="45.61823954682053" lon="3.7351193361061803"><ele>648.0</ele><time>2026-05-02T13:41:20Z</time></trkpt><trkpt lat="45.61832327043929" lon="3.7349868565605835"><ele>650.0</ele><time>2026-05-02T13:41:21Z</time></trkpt><trkpt lat="45.61840328809351" lon="3.734855346220753"><ele>652.0</ele><time>2026-05-02T13:41:22Z</time></trkpt><trkpt lat="45.61850607243973" lon="3.734745780040143"><ele>652.0</ele><time>2026-05-02T13:41:23Z</time></trkpt><trkpt lat="45.61861172981278" lon="3.7346429784374267"><ele>652.0</ele><time>2026-05-02T13:41:24Z</time></trkpt><trkpt lat="45.61869177389947" lon="3.7345581649943886"><ele>652.0</ele><time>2026-05-02T13:41:25Z</time></trkpt><trkpt lat="45.61873022578345" lon="3.734483978669816"><ele>652.0</ele><time>2026-05-02T13:41:26Z</time></trkpt><trkpt lat="45.61872504910731" lon="3.734383138153959"><ele>652.0</ele><time>2026-05-02T13:41:27Z</time></trkpt><trkpt lat="45.61871349286963" lon="3.7342433132944635"><ele>647.6</ele><time>2026-05-02T13:41:28Z</time></trkpt><trkpt lat="45.61871563515182" lon="3.7340861040672704"><ele>643.2</ele><time>2026-05-02T13:41:29Z</time></trkpt><trkpt lat="45.61871311504656" lon="3.7339389898998454"><ele>638.8</ele><time>2026-05-02T13:41:30Z</time></trkpt><trkpt lat="45.61873417024993" lon="3.7337825324087515"><ele>634.4</ele><time>2026-05-02T13:41:31Z</time></trkpt><trkpt lat="45.61875523354825" lon="3.733609985258477"><ele>630.0</ele><time>2026-05-02T13:41:32Z</time></trkpt><trkpt lat="45.61877774084509" lon="3.733420750993702"><ele>630.0</ele><time>2026-05-02T13:41:33Z</time></trkpt><trkpt lat="45.6187976564275" lon="3.7332298575301914"><ele>630.0</ele><time>2026-05-02T13:41:34Z</time></trkpt><trkpt lat="45.61882193193615" lon="3.733099695848371"><ele>630.0</ele><time>2026-05-02T13:41:35Z</time></trkpt><trkpt lat="45.618833532361144" lon="3.732966306414906"><ele>630.0</ele><time>2026-05-02T13:41:36Z</time></trkpt><trkpt lat="45.61882046254937" lon="3.7327978666135837"><ele>630.0</ele><time>2026-05-02T13:41:37Z</time></trkpt><trkpt lat="45.61879955643986" lon="3.7325965387418596"><ele>628.75</ele><time>2026-05-02T13:41:38Z</time></trkpt><trkpt lat="45.61875553451241" lon="3.7323771581241276"><ele>627.5</ele><time>2026-05-02T13:41:39Z</time></trkpt><trkpt lat="45.61871946279209" lon="3.732168929275684"><ele>626.25</ele><time>2026-05-02T13:41:40Z</time></trkpt><trkpt lat="45.618715737508055" lon="3.731982763787404"><ele>625.0</ele><time>2026-05-02T13:41:41Z</time></trkpt><trkpt lat="45.61871068424277" lon="3.7318387767124457"><ele>623.5</ele><time>2026-05-02T13:41:42Z</time></trkpt><trkpt lat="45.618742794544225" lon="3.731649051863975"><ele>622.0</ele><time>2026-05-02T13:41:43Z</time></trkpt><trkpt lat="45.61877445335988" lon="3.731475277144656"><ele>620.5</ele><time>2026-05-02T13:41:44Z</time></trkpt><trkpt lat="45.61883134663949" lon="3.7313334978730226"><ele>619.0</ele><time>2026-05-02T13:41:45Z</time></trkpt><trkpt lat="45.61893614595195" lon="3.7311631159294136"><ele>619.75</ele><time>2026-05-02T13:41:46Z</time></trkpt><trkpt lat="45.619035493593906" lon="3.7309874376803482"><ele>620.5</ele><time>2026-05-02T13:41:47Z</time></trkpt><trkpt lat="45.61913366394935" lon="3.7308268275404797"><ele>621.25</ele><time>2026-05-02T13:41:48Z</time></trkpt><trkpt lat="45.61921880168405" lon="3.730691534710178"><ele>622.0</ele><time>2026-05-02T13:41:49Z</time></trkpt><trkpt lat="45.61928474535254" lon="3.7305609742936245"><ele>622.0</ele><time>2026-05-02T13:41:50Z</time></trkpt><trkpt lat="45.61933556743485" lon="3.730438883421744"><ele>622.0</ele><time>2026-05-02T13:41:51Z</time></trkpt><trkpt lat="45.61938313927603" lon="3.7303533942292466"><ele>622.0</ele><time>2026-05-02T13:41:52Z</time></trkpt><trkpt lat="45.6194219426971" lon="3.7302727839120493"><ele>622.0</ele><time>2026-05-02T13:41:53Z</time></trkpt><trkpt lat="45.619467771327336" lon="3.7301823553339704"><ele>622.0</ele><time>2026-05-02T13:41:55Z</time></trkpt><trkpt lat="45.61939184639267" lon="3.730344756039348"><ele>622.0</ele><time>2026-05-02T13:42:19Z</time></trkpt><trkpt lat="45.61933985437971" lon="3.730446367646754"><ele>622.0</ele><time>2026-05-02T13:42:20Z</time></trkpt><trkpt lat="45.61929237208796" lon="3.730551633657249"><ele>622.0</ele><time>2026-05-02T13:42:21Z</time></trkpt><trkpt lat="45.61929310154797" lon="3.7306926829144933"><ele>622.0</ele><time>2026-05-02T13:42:23Z</time></trkpt><trkpt lat="45.61929428335012" lon="3.7307906330982408"><ele>622.0</ele><time>2026-05-02T13:42:24Z</time></trkpt><trkpt lat="45.61927437507471" lon="3.7308879321646264"><ele>622.0</ele><time>2026-05-02T13:42:25Z</time></trkpt><trkpt lat="45.61925842804473" lon="3.730983736592961"><ele>621.4</ele><time>2026-05-02T13:42:26Z</time></trkpt><trkpt lat="45.61924330061456" lon="3.7311194395319647"><ele>620.8000000000001</ele><time>2026-05-02T13:42:27Z</time></trkpt><trkpt lat="45.6192168955835" lon="3.731270291188424"><ele>620.2</ele><time>2026-05-02T13:42:28Z</time></trkpt><trkpt lat="45.61917937293027" lon="3.7314079494912593"><ele>619.6</ele><time>2026-05-02T13:42:29Z</time></trkpt><trkpt lat="45.6191858893193" lon="3.731556153819291"><ele>619.0</ele><time>2026-05-02T13:42:30Z</time></trkpt><trkpt lat="45.61921071897118" lon="3.7316991973973765"><ele>619.0</ele><time>2026-05-02T13:42:31Z</time></trkpt><trkpt lat="45.619247338846165" lon="3.731860135102784"><ele>619.0</ele><time>2026-05-02T13:42:32Z</time></trkpt><trkpt lat="45.619309014130735" lon="3.7319938773155705"><ele>619.0</ele><time>2026-05-02T13:42:33Z</time></trkpt><trkpt lat="45.61938212212212" lon="3.732117547352176"><ele>619.0</ele><time>2026-05-02T13:42:34Z</time></trkpt><trkpt lat="45.61942691264013" lon="3.7322281394988153"><ele>619.0</ele><time>2026-05-02T13:42:35Z</time></trkpt><trkpt lat="45.619454534113544" lon="3.7323361606069505"><ele>620.2</ele><time>2026-05-02T13:42:36Z</time></trkpt><trkpt lat="45.619464670864055" lon="3.732480027065449"><ele>621.4</ele><time>2026-05-02T13:42:37Z</time></trkpt><trkpt lat="45.61950378641275" lon="3.732629861733011"><ele>622.6</ele><time>2026-05-02T13:42:38Z</time></trkpt><trkpt lat="45.61955373423175" lon="3.732766610741924"><ele>623.8</ele><time>2026-05-02T13:42:39Z</time></trkpt><trkpt lat="45.61958472589594" lon="3.732864206767405"><ele>625.0</ele><time>2026-05-02T13:42:40Z</time></trkpt><trkpt lat="45.61962608757252" lon="3.7329610964628883"><ele>618.4</ele><time>2026-05-02T13:42:41Z</time></trkpt><trkpt lat="45.61963505984115" lon="3.7330762405495985"><ele>611.8</ele><time>2026-05-02T13:42:42Z</time></trkpt><trkpt lat="45.619648253356836" lon="3.733199367820199"><ele>605.2</ele><time>2026-05-02T13:42:43Z</time></trkpt><trkpt lat="45.61966361075727" lon="3.7333200064180354"><ele>598.6</ele><time>2026-05-02T13:42:44Z</time></trkpt><trkpt lat="45.61967768244175" lon="3.73346583561286"><ele>592.0</ele><time>2026-05-02T13:42:45Z</time></trkpt><trkpt lat="45.61967345977909" lon="3.733615859819768"><ele>592.0</ele><time>2026-05-02T13:42:46Z</time></trkpt><trkpt lat="45.61965577044974" lon="3.7337515505063053"><ele>592.0</ele><time>2026-05-02T13:42:47Z</time></trkpt><trkpt lat="45.61962953270012" lon="3.7338610510394035"><ele>592.0</ele><time>2026-05-02T13:42:48Z</time></trkpt><trkpt lat="45.619646495408496" lon="3.7339570504350226"><ele>592.0</ele><time>2026-05-02T13:42:49Z</time></trkpt><trkpt lat="45.6196646404829" lon="3.7340918493009916"><ele>592.0</ele><time>2026-05-02T13:42:51Z</time></trkpt><trkpt lat="45.61974503430086" lon="3.734086234298113"><ele>592.0</ele><time>2026-05-02T13:42:53Z</time></trkpt><trkpt lat="45.61980820943813" lon="3.7340382844116626"><ele>592.0</ele><time>2026-05-02T13:42:54Z</time></trkpt><trkpt lat="45.6198678206071" lon="3.733967254978547"><ele>592.0</ele><time>2026-05-02T13:42:55Z</time></trkpt><trkpt lat="45.61992871713592" lon="3.733877638792619"><ele>592.0</ele><time>2026-05-02T13:42:56Z</time></trkpt><trkpt lat="45.6199903606069" lon="3.733786584571083"><ele>592.0</ele><time>2026-05-02T13:42:57Z</time></trkpt><trkpt lat="45.620053851361654" lon="3.7336619529124877"><ele>592.0</ele><time>2026-05-02T13:42:58Z</time></trkpt><trkpt lat="45.620121323656036" lon="3.7335320300816663"><ele>591.6</ele><time>2026-05-02T13:42:59Z</time></trkpt><trkpt lat="45.62018465596689" lon="3.7334178935881788"><ele>591.2</ele><time>2026-05-02T13:43:00Z</time></trkpt><trkpt lat="45.62024640217833" lon="3.733324987944813"><ele>590.8</ele><time>2026-05-02T13:43:01Z</time></trkpt><trkpt lat="45.62033047353097" lon="3.73325923864699"><ele>590.4</ele><time>2026-05-02T13:43:02Z</time></trkpt><trkpt lat="45.62043634519873" lon="3.733198209565107"><ele>590.0</ele><time>2026-05-02T13:43:03Z</time></trkpt><trkpt lat="45.62054516574629" lon="3.733126556409259"><ele>589.0</ele><time>2026-05-02T13:43:04Z</time></trkpt><trkpt lat="45.62065187182623" lon="3.733019221351258"><ele>588.0</ele><time>2026-05-02T13:43:05Z</time></trkpt><trkpt lat="45.6207495815056" lon="3.7328729827959486"><ele>587.0</ele><time>2026-05-02T13:43:06Z</time></trkpt><trkpt lat="45.62083184645422" lon="3.7326895994140177"><ele>586.0</ele><time>2026-05-02T13:43:07Z</time></trkpt><trkpt lat="45.62088467587492" lon="3.7324824086085"><ele>586.0</ele><time>2026-05-02T13:43:08Z</time></trkpt><trkpt lat="45.62095734951308" lon="3.7323220090054305"><ele>586.0</ele><time>2026-05-02T13:43:09Z</time></trkpt><trkpt lat="45.62101117090076" lon="3.7321893999174627"><ele>586.0</ele><time>2026-05-02T13:43:10Z</time></trkpt><trkpt lat="45.62108051183693" lon="3.7321049769047727"><ele>586.0</ele><time>2026-05-02T13:43:11Z</time></trkpt><trkpt lat="45.62117470953939" lon="3.7320814187751465"><ele>586.0</ele><time>2026-05-02T13:43:12Z</time></trkpt><trkpt lat="45.6212714438756" lon="3.732053649366104"><ele>587.8333333333334</ele><time>2026-05-02T13:43:13Z</time></trkpt><trkpt lat="45.62136785231471" lon="3.7319748738244334"><ele>589.6666666666667</ele><time>2026-05-02T13:43:14Z</time></trkpt><trkpt lat="45.6214394002947" lon="3.7319535290203776"><ele>591.5</ele><time>2026-05-02T13:43:15Z</time></trkpt><trkpt lat="45.621485830675326" lon="3.732043647213461"><ele>593.3333333333334</ele><time>2026-05-02T13:43:17Z</time></trkpt><trkpt lat="45.62154759133964" lon="3.7320952175650612"><ele>595.1666666666666</ele><time>2026-05-02T13:43:18Z</time></trkpt><trkpt lat="45.621653496085955" lon="3.732104502567593"><ele>597.0</ele><time>2026-05-02T13:43:19Z</time></trkpt><trkpt lat="45.62177258290395" lon="3.7321268087888035"><ele>597.0</ele><time>2026-05-02T13:43:20Z</time></trkpt><trkpt lat="45.621904998581094" lon="3.7321579932500235"><ele>597.0</ele><time>2026-05-02T13:43:21Z</time></trkpt><trkpt lat="45.622038630922944" lon="3.7321710870197147"><ele>597.0</ele><time>2026-05-02T13:43:22Z</time></trkpt><trkpt lat="45.62216856153991" lon="3.732147006215319"><ele>597.0</ele><time>2026-05-02T13:43:23Z</time></trkpt><trkpt lat="45.622288231601516" lon="3.732121666882846"><ele>596.75</ele><time>2026-05-02T13:43:24Z</time></trkpt><trkpt lat="45.62240865862024" lon="3.7321031722126614"><ele>596.5</ele><time>2026-05-02T13:43:25Z</time></trkpt><trkpt lat="45.62252984811602" lon="3.7320811515308665"><ele>596.25</ele><time>2026-05-02T13:43:26Z</time></trkpt><trkpt lat="45.62265021331389" lon="3.7320605544694843"><ele>596.0</ele><time>2026-05-02T13:43:27Z</time></trkpt><trkpt lat="45.62276173490546" lon="3.732062058252587"><ele>596.0</ele><time>2026-05-02T13:43:28Z</time></trkpt><trkpt lat="45.62286474315874" lon="3.7320701988104847"><ele>596.0</ele><time>2026-05-02T13:43:29Z</time></trkpt><trkpt lat="45.62297276349767" lon="3.732055732946653"><ele>596.0</ele><time>2026-05-02T13:43:30Z</time></trkpt><trkpt lat="45.62306880800104" lon="3.732023696726189"><ele>596.0</ele><time>2026-05-02T13:43:31Z</time></trkpt><trkpt lat="45.623151372074986" lon="3.7319962134382303"><ele>596.0</ele><time>2026-05-02T13:43:32Z</time></trkpt><trkpt lat="45.62322603305546" lon="3.731980584126854"><ele>596.0</ele><time>2026-05-02T13:43:33Z</time></trkpt><trkpt lat="45.62330335967993" lon="3.731980115453351"><ele>596.0</ele><time>2026-05-02T13:43:34Z</time></trkpt><trkpt lat="45.62338878729765" lon="3.7320229294348763"><ele>596.0</ele><time>2026-05-02T13:43:36Z</time></trkpt><trkpt lat="45.6234485404869" lon="3.7320764874131527"><ele>596.0</ele><time>2026-05-02T13:43:38Z</time></trkpt><trkpt lat="45.6235544976212" lon="3.73218206833051"><ele>596.0</ele><time>2026-05-02T13:43:40Z</time></trkpt><trkpt lat="45.62364016243407" lon="3.7322683480532546"><ele>597.0</ele><time>2026-05-02T13:43:42Z</time></trkpt><trkpt lat="45.62366462837911" lon="3.732379955839541"><ele>598.0</ele><time>2026-05-02T13:43:44Z</time></trkpt><trkpt lat="45.62366558906643" lon="3.732495570336409"><ele>599.0</ele><time>2026-05-02T13:43:45Z</time></trkpt><trkpt lat="45.62367818994207" lon="3.732618537776283"><ele>600.0</ele><time>2026-05-02T13:43:46Z</time></trkpt><trkpt lat="45.623737249119934" lon="3.7327246616811207"><ele>601.0</ele><time>2026-05-02T13:43:48Z</time></trkpt><trkpt lat="45.62386494312273" lon="3.732622102380028"><ele>601.0</ele><time>2026-05-02T13:43:50Z</time></trkpt><trkpt lat="45.623920001158304" lon="3.732484665955801"><ele>601.0</ele><time>2026-05-02T13:43:51Z</time></trkpt><trkpt lat="45.624005868563934" lon="3.7323290626355323"><ele>601.0</ele><time>2026-05-02T13:43:52Z</time></trkpt><trkpt lat="45.624101229481305" lon="3.732157304912389"><ele>601.0</ele><time>2026-05-02T13:43:53Z</time></trkpt><trkpt lat="45.62418483118555" lon="3.7320031263350764"><ele>601.0</ele><time>2026-05-02T13:43:54Z</time></trkpt><trkpt lat="45.62425580682781" lon="3.7319002196037"><ele>601.0</ele><time>2026-05-02T13:43:55Z</time></trkpt><trkpt lat="45.624314703070276" lon="3.7317919129592925"><ele>601.0</ele><time>2026-05-02T13:43:56Z</time></trkpt><trkpt lat="45.62438243267762" lon="3.7317163056519105"><ele>601.0</ele><time>2026-05-02T13:43:57Z</time></trkpt><trkpt lat="45.6244774780885" lon="3.731651879523988"><ele>601.0</ele><time>2026-05-02T13:43:58Z</time></trkpt><trkpt lat="45.624569991110185" lon="3.7316009620975854"><ele>602.8</ele><time>2026-05-02T13:43:59Z</time></trkpt><trkpt lat="45.624678643486334" lon="3.7315676560678557"><ele>604.6</ele><time>2026-05-02T13:44:00Z</time></trkpt><trkpt lat="45.6247818513867" lon="3.7315426634941415"><ele>606.4</ele><time>2026-05-02T13:44:01Z</time></trkpt><trkpt lat="45.62489461353883" lon="3.731531274026785"><ele>608.2</ele><time>2026-05-02T13:44:02Z</time></trkpt><trkpt lat="45.62501013965974" lon="3.7314882134284497"><ele>610.0</ele><time>2026-05-02T13:44:03Z</time></trkpt><trkpt lat="45.62511237460701" lon="3.7314599558028663"><ele>610.0</ele><time>2026-05-02T13:44:04Z</time></trkpt><trkpt lat="45.62522796441206" lon="3.731440203546073"><ele>610.0</ele><time>2026-05-02T13:44:05Z</time></trkpt><trkpt lat="45.625348398761105" lon="3.731414603212247"><ele>610.0</ele><time>2026-05-02T13:44:06Z</time></trkpt><trkpt lat="45.62546664479549" lon="3.731416483386145"><ele>610.0</ele><time>2026-05-02T13:44:07Z</time></trkpt><trkpt lat="45.625564242602955" lon="3.7314214587430183"><ele>610.75</ele><time>2026-05-02T13:44:08Z</time></trkpt><trkpt lat="45.625659537375554" lon="3.7314223422479214"><ele>611.5</ele><time>2026-05-02T13:44:09Z</time></trkpt><trkpt lat="45.62576480627978" lon="3.7315247911790053"><ele>612.25</ele><time>2026-05-02T13:44:11Z</time></trkpt><trkpt lat="45.625858308925" lon="3.731661191977844"><ele>613.0</ele><time>2026-05-02T13:44:12Z</time></trkpt><trkpt lat="45.62595273880769" lon="3.731760662743413"><ele>613.0</ele><time>2026-05-02T13:44:13Z</time></trkpt><trkpt lat="45.626044574650045" lon="3.7318711307816756"><ele>613.0</ele><time>2026-05-02T13:44:14Z</time></trkpt><trkpt lat="45.626123076334835" lon="3.7319908553557757"><ele>613.0</ele><time>2026-05-02T13:44:15Z</time></trkpt><trkpt lat="45.6261784572793" lon="3.7321014268419415"><ele>613.0</ele><time>2026-05-02T13:44:16Z</time></trkpt><trkpt lat="45.6262091776401" lon="3.732222407330082"><ele>613.0</ele><time>2026-05-02T13:44:17Z</time></trkpt><trkpt lat="45.62623722005448" lon="3.7323462531018703"><ele>612.1999999999999</ele><time>2026-05-02T13:44:18Z</time></trkpt><trkpt lat="45.626262607849135" lon="3.7324490872280545"><ele>611.4</ele><time>2026-05-02T13:44:19Z</time></trkpt><trkpt lat="45.62629917097878" lon="3.732607778832532"><ele>610.5999999999999</ele><time>2026-05-02T13:44:21Z</time></trkpt><trkpt lat="45.626336758311915" lon="3.7327465711105074"><ele>609.8</ele><time>2026-05-02T13:44:23Z</time></trkpt><trkpt lat="45.62644960267086" lon="3.7327425121170745"><ele>609.0</ele><time>2026-05-02T13:47:05Z</time></trkpt><trkpt lat="45.626555773402934" lon="3.73273943036329"><ele>610.5</ele><time>2026-05-02T13:47:07Z</time></trkpt><trkpt lat="45.62662688909279" lon="3.732759005296095"><ele>612.0</ele><time>2026-05-02T13:47:08Z</time></trkpt><trkpt lat="45.62673592839577" lon="3.7328326826091183"><ele>613.5</ele><time>2026-05-02T13:47:10Z</time></trkpt><trkpt lat="45.62679628578612" lon="3.7328907689914943"><ele>615.0</ele><time>2026-05-02T13:47:11Z</time></trkpt><trkpt lat="45.626868651022704" lon="3.732952272637614"><ele>616.5</ele><time>2026-05-02T13:47:12Z</time></trkpt><trkpt lat="45.62693649358458" lon="3.7330469942888236"><ele>618.0</ele><time>2026-05-02T13:47:13Z</time></trkpt><trkpt lat="45.62699418453864" lon="3.733133436677848"><ele>618.3333333333334</ele><time>2026-05-02T13:47:14Z</time></trkpt><trkpt lat="45.62705769992158" lon="3.7331778859862506"><ele>618.6666666666666</ele><time>2026-05-02T13:47:15Z</time></trkpt><trkpt lat="45.62714252329507" lon="3.7331560323067356"><ele>619.0</ele><time>2026-05-02T13:47:16Z</time></trkpt><trkpt lat="45.627250950852634" lon="3.7331232169719013"><ele>619.3333333333333</ele><time>2026-05-02T13:47:17Z</time></trkpt><trkpt lat="45.62734174168559" lon="3.7331192159159134"><ele>619.6666666666666</ele><time>2026-05-02T13:47:18Z</time></trkpt><trkpt lat="45.62743199833493" lon="3.73313205263574"><ele>620.0</ele><time>2026-05-02T13:47:19Z</time></trkpt><trkpt lat="45.62756338598206" lon="3.7332111969291626"><ele>620.0</ele><time>2026-05-02T13:47:21Z</time></trkpt><trkpt lat="45.627664171211585" lon="3.7332832723367617"><ele>620.0</ele><time>2026-05-02T13:47:22Z</time></trkpt><trkpt lat="45.62775281768641" lon="3.7333676036409686"><ele>620.0</ele><time>2026-05-02T13:47:23Z</time></trkpt><trkpt lat="45.62783262794876" lon="3.7334407031635233"><ele>620.0</ele><time>2026-05-02T13:47:24Z</time></trkpt><trkpt lat="45.6279171720959" lon="3.733452338041351"><ele>620.0</ele><time>2026-05-02T13:47:25Z</time></trkpt><trkpt lat="45.62801792432852" lon="3.733445539525065"><ele>620.6</ele><time>2026-05-02T13:47:26Z</time></trkpt><trkpt lat="45.628120775038695" lon="3.73346595983531"><ele>621.2</ele><time>2026-05-02T13:47:27Z</time></trkpt><trkpt lat="45.62822197623727" lon="3.7335201444710298"><ele>621.8</ele><time>2026-05-02T13:47:28Z</time></trkpt><trkpt lat="45.628324231571725" lon="3.7335961999101546"><ele>622.4</ele><time>2026-05-02T13:47:29Z</time></trkpt><trkpt lat="45.62843260365502" lon="3.733643252183861"><ele>623.0</ele><time>2026-05-02T13:47:30Z</time></trkpt><trkpt lat="45.628518080426055" lon="3.7336774681361478"><ele>623.0</ele><time>2026-05-02T13:47:31Z</time></trkpt><trkpt lat="45.62858092586952" lon="3.7337120468022906"><ele>623.0</ele><time>2026-05-02T13:47:32Z</time></trkpt><trkpt lat="45.628654736336465" lon="3.733734447886718"><ele>623.0</ele><time>2026-05-02T13:47:33Z</time></trkpt><trkpt lat="45.62875950164024" lon="3.733685023965721"><ele>623.0</ele><time>2026-05-02T13:47:35Z</time></trkpt><trkpt lat="45.62879262908087" lon="3.7335876109845314"><ele>623.0</ele><time>2026-05-02T13:47:36Z</time></trkpt><trkpt lat="45.628817194037964" lon="3.7334720860625334"><ele>623.0</ele><time>2026-05-02T13:47:37Z</time></trkpt><trkpt lat="45.62883251726022" lon="3.7333448674105663"><ele>622.4285714285714</ele><time>2026-05-02T13:47:38Z</time></trkpt><trkpt lat="45.62882418261231" lon="3.733242235594966"><ele>621.8571428571429</ele><time>2026-05-02T13:47:39Z</time></trkpt><trkpt lat="45.6288068284509" lon="3.7331346118813467"><ele>621.2857142857142</ele><time>2026-05-02T13:47:40Z</time></trkpt><trkpt lat="45.62879568174475" lon="3.7330218142343954"><ele>620.7142857142858</ele><time>2026-05-02T13:47:41Z</time></trkpt><trkpt lat="45.6287941921655" lon="3.7329110052055303"><ele>620.1428571428571</ele><time>2026-05-02T13:47:42Z</time></trkpt><trkpt lat="45.628804511726834" lon="3.732818861183155"><ele>619.5714285714286</ele><time>2026-05-02T13:47:43Z</time></trkpt><trkpt lat="45.62881582744345" lon="3.7327258205732257"><ele>619.0</ele><time>2026-05-02T13:47:44Z</time></trkpt><trkpt lat="45.628821362602714" lon="3.7326317668950786"><ele>619.0</ele><time>2026-05-02T13:47:45Z</time></trkpt><trkpt lat="45.62881248281843" lon="3.7325249600486274"><ele>619.0</ele><time>2026-05-02T13:47:46Z</time></trkpt><trkpt lat="45.62880165503115" lon="3.732400119263544"><ele>619.0</ele><time>2026-05-02T13:47:47Z</time></trkpt><trkpt lat="45.628806772342884" lon="3.732289431010471"><ele>619.0</ele><time>2026-05-02T13:47:48Z</time></trkpt><trkpt lat="45.62884098380388" lon="3.7321875949209122"><ele>619.0</ele><time>2026-05-02T13:47:49Z</time></trkpt><trkpt lat="45.6288998687823" lon="3.732104772647479"><ele>619.0</ele><time>2026-05-02T13:47:50Z</time></trkpt><trkpt lat="45.62897284840767" lon="3.7320555904713135"><ele>619.0</ele><time>2026-05-02T13:47:51Z</time></trkpt><trkpt lat="45.6290423171632" lon="3.732053922588484"><ele>619.0</ele><time>2026-05-02T13:47:52Z</time></trkpt><trkpt lat="45.629146338991355" lon="3.732160044762642"><ele>619.0</ele><time>2026-05-02T13:47:54Z</time></trkpt><trkpt lat="45.62918693616199" lon="3.732255008114566"><ele>619.0</ele><time>2026-05-02T13:47:55Z</time></trkpt><trkpt lat="45.62923149612328" lon="3.73233109225386"><ele>619.0</ele><time>2026-05-02T13:47:56Z</time></trkpt><trkpt lat="45.62935334695825" lon="3.7323542539021664"><ele>619.0</ele><time>2026-05-02T13:47:58Z</time></trkpt><trkpt lat="45.629421406295215" lon="3.7322986341666224"><ele>619.0</ele><time>2026-05-02T13:47:59Z</time></trkpt><trkpt lat="45.62949968333458" lon="3.732211595605255"><ele>619.0</ele><time>2026-05-02T13:48:00Z</time></trkpt><trkpt lat="45.629587240278525" lon="3.7321187021244526"><ele>619.0</ele><time>2026-05-02T13:48:01Z</time></trkpt><trkpt lat="45.629685904292366" lon="3.7320245507229783"><ele>619.0</ele><time>2026-05-02T13:48:02Z</time></trkpt><trkpt lat="45.62979310957459" lon="3.731925349324617"><ele>619.0</ele><time>2026-05-02T13:48:03Z</time></trkpt><trkpt lat="45.62990580414879" lon="3.7318231790688947"><ele>619.0</ele><time>2026-05-02T13:48:04Z</time></trkpt><trkpt lat="45.63001821231136" lon="3.7317397923144435"><ele>619.0</ele><time>2026-05-02T13:48:05Z</time></trkpt><trkpt lat="45.630131653594006" lon="3.731674300161381"><ele>619.0</ele><time>2026-05-02T13:48:06Z</time></trkpt><trkpt lat="45.630248958688995" lon="3.7316200687716954"><ele>618.75</ele><time>2026-05-02T13:48:07Z</time></trkpt><trkpt lat="45.63037309660298" lon="3.7315610332254034"><ele>618.5</ele><time>2026-05-02T13:48:08Z</time></trkpt><trkpt lat="45.6304979476203" lon="3.731479230916605"><ele>618.25</ele><time>2026-05-02T13:48:09Z</time></trkpt><trkpt lat="45.63062274096175" lon="3.7313923296524236"><ele>618.0</ele><time>2026-05-02T13:48:10Z</time></trkpt><trkpt lat="45.63073677160646" lon="3.731296700121358"><ele>618.0</ele><time>2026-05-02T13:48:11Z</time></trkpt><trkpt lat="45.63084257157746" lon="3.731199428068005"><ele>618.0</ele><time>2026-05-02T13:48:12Z</time></trkpt><trkpt lat="45.63095851485133" lon="3.7311081781889848"><ele>618.0</ele><time>2026-05-02T13:48:13Z</time></trkpt><trkpt lat="45.631079408074314" lon="3.7310066716560573"><ele>618.0</ele><time>2026-05-02T13:48:14Z</time></trkpt><trkpt lat="45.631175815705745" lon="3.730916304941908"><ele>617.1666666666666</ele><time>2026-05-02T13:48:15Z</time></trkpt><trkpt lat="45.63125762881967" lon="3.730859311892823"><ele>616.3333333333334</ele><time>2026-05-02T13:48:16Z</time></trkpt><trkpt lat="45.63132081536267" lon="3.7308282233517813"><ele>615.5</ele><time>2026-05-02T13:48:17Z</time></trkpt><trkpt lat="45.63138596575655" lon="3.730825947842388"><ele>614.6666666666667</ele><time>2026-05-02T13:48:18Z</time></trkpt><trkpt lat="45.63146961148163" lon="3.730848945598333"><ele>613.8333333333334</ele><time>2026-05-02T13:48:19Z</time></trkpt><trkpt lat="45.631549008680715" lon="3.7308855641575196"><ele>613.0</ele><time>2026-05-02T13:48:20Z</time></trkpt><trkpt lat="45.63163044440867" lon="3.7308848765701303"><ele>613.0</ele><time>2026-05-02T13:48:21Z</time></trkpt><trkpt lat="45.63169375629164" lon="3.7308305644125657"><ele>613.0</ele><time>2026-05-02T13:48:22Z</time></trkpt><trkpt lat="45.63174117064625" lon="3.730754694705277"><ele>613.0</ele><time>2026-05-02T13:48:23Z</time></trkpt><trkpt lat="45.631763405237145" lon="3.7306517667589207"><ele>613.0</ele><time>2026-05-02T13:48:24Z</time></trkpt><trkpt lat="45.63175699010873" lon="3.73051478007503"><ele>613.0</ele><time>2026-05-02T13:48:25Z</time></trkpt><trkpt lat="45.63173412247029" lon="3.730347113967615"><ele>613.0</ele><time>2026-05-02T13:48:26Z</time></trkpt><trkpt lat="45.63171195034933" lon="3.7301715479856385"><ele>613.3333333333334</ele><time>2026-05-02T13:48:27Z</time></trkpt><trkpt lat="45.6317040465475" lon="3.7300380336888566"><ele>613.6666666666667</ele><time>2026-05-02T13:48:28Z</time></trkpt><trkpt lat="45.63171316748882" lon="3.729932625242406"><ele>614.0</ele><time>2026-05-02T13:48:29Z</time></trkpt><trkpt lat="45.631745214648696" lon="3.729837443845601"><ele>614.3333333333334</ele><time>2026-05-02T13:48:30Z</time></trkpt><trkpt lat="45.63180720341193" lon="3.7297535674933053"><ele>614.6666666666666</ele><time>2026-05-02T13:48:31Z</time></trkpt><trkpt lat="45.63189316996705" lon="3.729634314332271"><ele>615.0</ele><time>2026-05-02T13:48:32Z</time></trkpt><trkpt lat="45.63197817266928" lon="3.7294949485744797"><ele>613.1666666666666</ele><time>2026-05-02T13:48:33Z</time></trkpt><trkpt lat="45.63206238471658" lon="3.7293707890007637"><ele>611.3333333333334</ele><time>2026-05-02T13:48:34Z</time></trkpt><trkpt lat="45.63213699692659" lon="3.7293060708957175"><ele>609.5</ele><time>2026-05-02T13:48:35Z</time></trkpt><trkpt lat="45.632187484073214" lon="3.7292508557167374"><ele>607.6666666666667</ele><time>2026-05-02T13:48:36Z</time></trkpt><trkpt lat="45.632213078444934" lon="3.7291669192796086"><ele>605.8333333333334</ele><time>2026-05-02T13:48:37Z</time></trkpt><trkpt lat="45.63221960368365" lon="3.729034546262554"><ele>604.0</ele><time>2026-05-02T13:48:38Z</time></trkpt><trkpt lat="45.63223731443317" lon="3.7288811587606827"><ele>604.0</ele><time>2026-05-02T13:48:39Z</time></trkpt><trkpt lat="45.63228798956765" lon="3.728756409033321"><ele>604.0</ele><time>2026-05-02T13:48:40Z</time></trkpt><trkpt lat="45.63234147015233" lon="3.72865578774958"><ele>604.0</ele><time>2026-05-02T13:48:41Z</time></trkpt><trkpt lat="45.6323827085966" lon="3.728554180278307"><ele>604.0</ele><time>2026-05-02T13:48:42Z</time></trkpt><trkpt lat="45.63242253906286" lon="3.728459149985866"><ele>604.0</ele><time>2026-05-02T13:48:43Z</time></trkpt><trkpt lat="45.63245483789352" lon="3.7283501035718833"><ele>604.0</ele><time>2026-05-02T13:48:45Z</time></trkpt><trkpt lat="45.63235644565452" lon="3.728244602628666"><ele>603.5714285714287</ele><time>2026-05-02T13:48:48Z</time></trkpt><trkpt lat="45.63228477308461" lon="3.7281913587908035"><ele>603.1428571428571</ele><time>2026-05-02T13:48:49Z</time></trkpt><trkpt lat="45.63223130154143" lon="3.72812824293474"><ele>602.7142857142858</ele><time>2026-05-02T13:48:50Z</time></trkpt><trkpt lat="45.63219956479395" lon="3.728046786950886"><ele>602.2857142857143</ele><time>2026-05-02T13:48:51Z</time></trkpt><trkpt lat="45.632210039956576" lon="3.7279509330012366"><ele>601.8571428571429</ele><time>2026-05-02T13:48:52Z</time></trkpt><trkpt lat="45.63220573280333" lon="3.72784523263549"><ele>601.4285714285714</ele><time>2026-05-02T13:48:53Z</time></trkpt><trkpt lat="45.63222421882784" lon="3.7277265924166487"><ele>601.0</ele><time>2026-05-02T13:48:54Z</time></trkpt><trkpt lat="45.6322464765649" lon="3.7275956947136555"><ele>600.4</ele><time>2026-05-02T13:48:55Z</time></trkpt><trkpt lat="45.63228231233553" lon="3.7274934936467914"><ele>599.8</ele><time>2026-05-02T13:48:56Z</time></trkpt><trkpt lat="45.63232723753373" lon="3.727406537100374"><ele>599.1999999999999</ele><time>2026-05-02T13:48:57Z</time></trkpt><trkpt lat="45.63237063851379" lon="3.7272913937362295"><ele>598.6</ele><time>2026-05-02T13:48:58Z</time></trkpt><trkpt lat="45.632409397517115" lon="3.7271478428928297"><ele>598.0</ele><time>2026-05-02T13:48:59Z</time></trkpt><trkpt lat="45.63242847380891" lon="3.7269953231602235"><ele>597.0</ele><time>2026-05-02T13:49:00Z</time></trkpt><trkpt lat="45.63241401958072" lon="3.726825845497015"><ele>596.0</ele><time>2026-05-02T13:49:01Z</time></trkpt><trkpt lat="45.63236889964739" lon="3.7266428670221297"><ele>595.0</ele><time>2026-05-02T13:49:02Z</time></trkpt><trkpt lat="45.63230554539723" lon="3.7264596092418607"><ele>594.0</ele><time>2026-05-02T13:49:03Z</time></trkpt><trkpt lat="45.6322343731068" lon="3.72627347206591"><ele>594.0</ele><time>2026-05-02T13:49:04Z</time></trkpt><trkpt lat="45.63215768681923" lon="3.726089119468116"><ele>594.0</ele><time>2026-05-02T13:49:05Z</time></trkpt><trkpt lat="45.63208101326828" lon="3.725896004260914"><ele>594.0</ele><time>2026-05-02T13:49:06Z</time></trkpt><trkpt lat="45.63197952021222" lon="3.725725582600506"><ele>591.75</ele><time>2026-05-02T13:49:07Z</time></trkpt><trkpt lat="45.63189567255151" lon="3.7255426445459556"><ele>589.5</ele><time>2026-05-02T13:49:08Z</time></trkpt><trkpt lat="45.63181124240072" lon="3.7253813068850183"><ele>587.25</ele><time>2026-05-02T13:49:09Z</time></trkpt><trkpt lat="45.631724435052" lon="3.725225964094515"><ele>585.0</ele><time>2026-05-02T13:49:10Z</time></trkpt><trkpt lat="45.631643040565166" lon="3.725053770618666"><ele>584.75</ele><time>2026-05-02T13:49:11Z</time></trkpt><trkpt lat="45.63153608892696" lon="3.7249232084424873"><ele>584.5</ele><time>2026-05-02T13:49:12Z</time></trkpt><trkpt lat="45.63142762938584" lon="3.724835895802076"><ele>584.25</ele><time>2026-05-02T13:49:13Z</time></trkpt><trkpt lat="45.63133778523009" lon="3.7247286668563877"><ele>584.0</ele><time>2026-05-02T13:49:14Z</time></trkpt><trkpt lat="45.631257780191866" lon="3.7246157633235915"><ele>584.0</ele><time>2026-05-02T13:49:15Z</time></trkpt><trkpt lat="45.63118788999997" lon="3.7245014993069385"><ele>584.0</ele><time>2026-05-02T13:49:16Z</time></trkpt><trkpt lat="45.63112355877682" lon="3.7243944829195863"><ele>584.0</ele><time>2026-05-02T13:49:17Z</time></trkpt><trkpt lat="45.631074286792554" lon="3.724298400831804"><ele>584.0</ele><time>2026-05-02T13:49:18Z</time></trkpt><trkpt lat="45.631037341908566" lon="3.724158897054604"><ele>584.0</ele><time>2026-05-02T13:49:20Z</time></trkpt><trkpt lat="45.63119302306633" lon="3.7240175619247515"><ele>582.8</ele><time>2026-05-02T13:49:23Z</time></trkpt><trkpt lat="45.63128261897702" lon="3.7239887804612994"><ele>581.5999999999999</ele><time>2026-05-02T13:49:24Z</time></trkpt><trkpt lat="45.63138025781781" lon="3.723939192764286"><ele>580.4</ele><time>2026-05-02T13:49:25Z</time></trkpt><trkpt lat="45.631487116174775" lon="3.7238720301640047"><ele>579.1999999999999</ele><time>2026-05-02T13:49:26Z</time></trkpt><trkpt lat="45.63159683788314" lon="3.7237927308741696"><ele>578.0</ele><time>2026-05-02T13:49:27Z</time></trkpt><trkpt lat="45.6317056247477" lon="3.7236970140056984"><ele>578.0</ele><time>2026-05-02T13:49:28Z</time></trkpt><trkpt lat="45.631794525129045" lon="3.723588330654327"><ele>578.0</ele><time>2026-05-02T13:49:29Z</time></trkpt><trkpt lat="45.631854802704964" lon="3.723470889804239"><ele>578.0</ele><time>2026-05-02T13:49:30Z</time></trkpt><trkpt lat="45.631898130128704" lon="3.723345470618355"><ele>578.0</ele><time>2026-05-02T13:49:31Z</time></trkpt><trkpt lat="45.631936096633225" lon="3.7232129922479573"><ele>578.0</ele><time>2026-05-02T13:49:32Z</time></trkpt><trkpt lat="45.631967450262145" lon="3.723078644327766"><ele>578.1999999999999</ele><time>2026-05-02T13:49:33Z</time></trkpt><trkpt lat="45.63197891871391" lon="3.7229519355446334"><ele>578.4</ele><time>2026-05-02T13:49:34Z</time></trkpt><trkpt lat="45.63198492479765" lon="3.7228377714458283"><ele>578.5999999999999</ele><time>2026-05-02T13:49:35Z</time></trkpt><trkpt lat="45.631995563191865" lon="3.722746213770354"><ele>578.8</ele><time>2026-05-02T13:49:36Z</time></trkpt><trkpt lat="45.632027180751244" lon="3.7225902005077707"><ele>579.0</ele><time>2026-05-02T13:49:38Z</time></trkpt><trkpt lat="45.63205700249843" lon="3.7224272860399004"><ele>578.5</ele><time>2026-05-02T13:49:40Z</time></trkpt><trkpt lat="45.632084040028346" lon="3.7223442045752475"><ele>578.0</ele><time>2026-05-02T13:49:41Z</time></trkpt><trkpt lat="45.632121326348354" lon="3.72225907619982"><ele>577.5</ele><time>2026-05-02T13:49:42Z</time></trkpt><trkpt lat="45.632164042632304" lon="3.7221698848953926"><ele>577.0</ele><time>2026-05-02T13:49:43Z</time></trkpt><trkpt lat="45.63222049108569" lon="3.722084301572448"><ele>576.5</ele><time>2026-05-02T13:49:44Z</time></trkpt><trkpt lat="45.63228599946119" lon="3.7220069499519606"><ele>576.0</ele><time>2026-05-02T13:49:45Z</time></trkpt><trkpt lat="45.632355112503575" lon="3.72192974966827"><ele>575.5</ele><time>2026-05-02T13:49:46Z</time></trkpt><trkpt lat="45.632430998554746" lon="3.7218535003408126"><ele>575.0</ele><time>2026-05-02T13:49:47Z</time></trkpt><trkpt lat="45.63248410459" lon="3.7217260269140335"><ele>574.5</ele><time>2026-05-02T13:49:48Z</time></trkpt><trkpt lat="45.63255450397797" lon="3.7216425357693965"><ele>574.0</ele><time>2026-05-02T13:49:49Z</time></trkpt><trkpt lat="45.63262506765058" lon="3.721578593765156"><ele>573.5</ele><time>2026-05-02T13:49:50Z</time></trkpt><trkpt lat="45.63268464707474" lon="3.7215283988985077"><ele>573.0</ele><time>2026-05-02T13:49:51Z</time></trkpt><trkpt lat="45.632784271036236" lon="3.721481675176982"><ele>573.0</ele><time>2026-05-02T13:49:53Z</time></trkpt><trkpt lat="45.63287459738456" lon="3.7215612869930594"><ele>573.0</ele><time>2026-05-02T13:49:55Z</time></trkpt><trkpt lat="45.63298515747494" lon="3.7216850556252576"><ele>573.0</ele><time>2026-05-02T13:49:57Z</time></trkpt><trkpt lat="45.63305477139645" lon="3.721767525257485"><ele>573.0</ele><time>2026-05-02T13:49:58Z</time></trkpt><trkpt lat="45.63310435378617" lon="3.721867892896321"><ele>573.0</ele><time>2026-05-02T13:49:59Z</time></trkpt><trkpt lat="45.63314953082008" lon="3.7219625613189384"><ele>573.0</ele><time>2026-05-02T13:50:00Z</time></trkpt><trkpt lat="45.63319084216774" lon="3.722055266583677"><ele>573.0</ele><time>2026-05-02T13:50:01Z</time></trkpt><trkpt lat="45.633226476353464" lon="3.722134751562649"><ele>573.0</ele><time>2026-05-02T13:50:02Z</time></trkpt><trkpt lat="45.633273600240486" lon="3.722196368829235"><ele>573.0</ele><time>2026-05-02T13:50:03Z</time></trkpt><trkpt lat="45.633339886736934" lon="3.722322728060795"><ele>573.0</ele><time>2026-05-02T13:50:05Z</time></trkpt><trkpt lat="45.633434633781384" lon="3.722382199366085"><ele>573.0</ele><time>2026-05-02T13:50:07Z</time></trkpt><trkpt lat="45.633527830237625" lon="3.722348017144046"><ele>573.0</ele><time>2026-05-02T13:50:09Z</time></trkpt><trkpt lat="45.633598596059684" lon="3.7221950303080886"><ele>573.0</ele><time>2026-05-02T13:50:11Z</time></trkpt><trkpt lat="45.63361917706631" lon="3.7220889607114094"><ele>573.0</ele><time>2026-05-02T13:50:12Z</time></trkpt><trkpt lat="45.63364393042907" lon="3.721978160593006"><ele>573.0</ele><time>2026-05-02T13:50:13Z</time></trkpt><trkpt lat="45.63368326357002" lon="3.72186551636572"><ele>573.0</ele><time>2026-05-02T13:50:14Z</time></trkpt><trkpt lat="45.63373625300953" lon="3.7217566868041323"><ele>571.6</ele><time>2026-05-02T13:50:15Z</time></trkpt><trkpt lat="45.633795904949274" lon="3.7216447193451896"><ele>570.1999999999999</ele><time>2026-05-02T13:50:16Z</time></trkpt><trkpt lat="45.633853431019496" lon="3.7215202019150624"><ele>568.8</ele><time>2026-05-02T13:50:17Z</time></trkpt><trkpt lat="45.633920276506835" lon="3.72139640260676"><ele>567.4</ele><time>2026-05-02T13:50:18Z</time></trkpt><trkpt lat="45.633985859849076" lon="3.7212516379340865"><ele>566.0</ele><time>2026-05-02T13:50:19Z</time></trkpt><trkpt lat="45.63405405401685" lon="3.7210965240419"><ele>563.6666666666666</ele><time>2026-05-02T13:50:20Z</time></trkpt><trkpt lat="45.63412958929687" lon="3.720930437700351"><ele>561.3333333333334</ele><time>2026-05-02T13:50:21Z</time></trkpt><trkpt lat="45.63421832174076" lon="3.7207439146826977"><ele>559.0</ele><time>2026-05-02T13:50:22Z</time></trkpt><trkpt lat="45.634313927381775" lon="3.720567638173575"><ele>559.0</ele><time>2026-05-02T13:50:23Z</time></trkpt><trkpt lat="45.63440841756028" lon="3.7204240938662174"><ele>559.0</ele><time>2026-05-02T13:50:24Z</time></trkpt><trkpt lat="45.63451392460215" lon="3.720308357061885"><ele>559.0</ele><time>2026-05-02T13:50:25Z</time></trkpt><trkpt lat="45.63463300774225" lon="3.7202245146728896"><ele>559.0</ele><time>2026-05-02T13:50:26Z</time></trkpt><trkpt lat="45.63476782387334" lon="3.7201489849608156"><ele>560.75</ele><time>2026-05-02T13:50:27Z</time></trkpt><trkpt lat="45.63491801814696" lon="3.7200746632434467"><ele>562.5</ele><time>2026-05-02T13:50:28Z</time></trkpt><trkpt lat="45.63504101263559" lon="3.720045892798095"><ele>564.25</ele><time>2026-05-02T13:50:29Z</time></trkpt><trkpt lat="45.635152464265474" lon="3.720019638648224"><ele>566.0</ele><time>2026-05-02T13:50:30Z</time></trkpt><trkpt lat="45.63525520473228" lon="3.7199834350777965"><ele>565.5</ele><time>2026-05-02T13:50:31Z</time></trkpt><trkpt lat="45.63536210004036" lon="3.720030980706854"><ele>565.0</ele><time>2026-05-02T13:50:32Z</time></trkpt><trkpt lat="45.635469327626474" lon="3.7201167460033964"><ele>564.5</ele><time>2026-05-02T13:50:33Z</time></trkpt><trkpt lat="45.63555469179684" lon="3.720261190377904"><ele>564.0</ele><time>2026-05-02T13:50:34Z</time></trkpt><trkpt lat="45.63563735535825" lon="3.720420730526642"><ele>564.0</ele><time>2026-05-02T13:50:35Z</time></trkpt><trkpt lat="45.635698238800124" lon="3.7205266598309286"><ele>564.0</ele><time>2026-05-02T13:50:36Z</time></trkpt><trkpt lat="45.63579659747658" lon="3.720562689466202"><ele>564.0</ele><time>2026-05-02T13:50:38Z</time></trkpt><trkpt lat="45.63586898213064" lon="3.720492151464991"><ele>564.0</ele><time>2026-05-02T13:50:39Z</time></trkpt><trkpt lat="45.63592051813217" lon="3.720353346224915"><ele>564.0</ele><time>2026-05-02T13:50:40Z</time></trkpt><trkpt lat="45.635929764113534" lon="3.720148936434863"><ele>564.0</ele><time>2026-05-02T13:50:41Z</time></trkpt><trkpt lat="45.63592527780116" lon="3.7199222161714856"><ele>564.0</ele><time>2026-05-02T13:50:42Z</time></trkpt><trkpt lat="45.635945111191525" lon="3.7196778627490117"><ele>564.0</ele><time>2026-05-02T13:50:43Z</time></trkpt><trkpt lat="45.63598513537009" lon="3.7194607631928935"><ele>563.25</ele><time>2026-05-02T13:50:44Z</time></trkpt><trkpt lat="45.63604443554359" lon="3.719287155315803"><ele>562.5</ele><time>2026-05-02T13:50:45Z</time></trkpt><trkpt lat="45.63614252028105" lon="3.7191355014567593"><ele>561.75</ele><time>2026-05-02T13:50:46Z</time></trkpt><trkpt lat="45.63625289850448" lon="3.7190180044615055"><ele>561.0</ele><time>2026-05-02T13:50:47Z</time></trkpt><trkpt lat="45.63637850420306" lon="3.7188965858554823"><ele>563.5</ele><time>2026-05-02T13:50:48Z</time></trkpt><trkpt lat="45.63649050769299" lon="3.718802870078905"><ele>566.0</ele><time>2026-05-02T13:50:49Z</time></trkpt><trkpt lat="45.63661047398881" lon="3.7187362656357323"><ele>568.5</ele><time>2026-05-02T13:50:50Z</time></trkpt><trkpt lat="45.636756878696104" lon="3.7186972542830565"><ele>571.0</ele><time>2026-05-02T13:50:51Z</time></trkpt><trkpt lat="45.636904042382746" lon="3.71868648028432"><ele>572.25</ele><time>2026-05-02T13:50:52Z</time></trkpt><trkpt lat="45.63703131518221" lon="3.7187156348878596"><ele>573.5</ele><time>2026-05-02T13:50:53Z</time></trkpt><trkpt lat="45.637161282218564" lon="3.7187936991702157"><ele>574.75</ele><time>2026-05-02T13:50:54Z</time></trkpt><trkpt lat="45.63728370556608" lon="3.7188993232668897"><ele>576.0</ele><time>2026-05-02T13:50:55Z</time></trkpt><trkpt lat="45.63737196738982" lon="3.718973539261093"><ele>576.0</ele><time>2026-05-02T13:50:56Z</time></trkpt><trkpt lat="45.63746366317954" lon="3.7190010158569953"><ele>576.0</ele><time>2026-05-02T13:50:57Z</time></trkpt><trkpt lat="45.637546129015604" lon="3.7189492428463304"><ele>576.0</ele><time>2026-05-02T13:50:58Z</time></trkpt><trkpt lat="45.63761331907756" lon="3.7188576047635764"><ele>576.0</ele><time>2026-05-02T13:50:59Z</time></trkpt><trkpt lat="45.6376555532889" lon="3.718681893847616"><ele>576.0</ele><time>2026-05-02T13:51:00Z</time></trkpt><trkpt lat="45.63766389609089" lon="3.7184743070772663"><ele>576.0</ele><time>2026-05-02T13:51:01Z</time></trkpt><trkpt lat="45.63768687373675" lon="3.7182555759117655"><ele>576.0</ele><time>2026-05-02T13:51:02Z</time></trkpt><trkpt lat="45.63773277382635" lon="3.7181132457099126"><ele>576.0</ele><time>2026-05-02T13:51:03Z</time></trkpt><trkpt lat="45.63780940808655" lon="3.7180148903825168"><ele>576.0</ele><time>2026-05-02T13:51:04Z</time></trkpt><trkpt lat="45.63791787812027" lon="3.717949447468882"><ele>576.0</ele><time>2026-05-02T13:51:05Z</time></trkpt><trkpt lat="45.63805538526533" lon="3.7179112444747604"><ele>576.0</ele><time>2026-05-02T13:51:06Z</time></trkpt><trkpt lat="45.63819832974464" lon="3.7178551001028763"><ele>576.0</ele><time>2026-05-02T13:51:07Z</time></trkpt><trkpt lat="45.63832875064691" lon="3.7177408948198116"><ele>576.0</ele><time>2026-05-02T13:51:08Z</time></trkpt><trkpt lat="45.638441667748225" lon="3.7175751991809527"><ele>574.75</ele><time>2026-05-02T13:51:09Z</time></trkpt><trkpt lat="45.638535042850684" lon="3.7173843044930974"><ele>573.5</ele><time>2026-05-02T13:51:10Z</time></trkpt><trkpt lat="45.63860878735194" lon="3.717238503894165"><ele>572.25</ele><time>2026-05-02T13:51:11Z</time></trkpt><trkpt lat="45.638696527848204" lon="3.7171504945466194"><ele>571.0</ele><time>2026-05-02T13:51:12Z</time></trkpt><trkpt lat="45.63883255803839" lon="3.7170829738879703"><ele>571.0</ele><time>2026-05-02T13:51:13Z</time></trkpt><trkpt lat="45.63899132420245" lon="3.717019170469169"><ele>571.0</ele><time>2026-05-02T13:51:14Z</time></trkpt><trkpt lat="45.639107446807365" lon="3.716942797478287"><ele>571.0</ele><time>2026-05-02T13:51:15Z</time></trkpt><trkpt lat="45.63917964494387" lon="3.716842806493984"><ele>571.0</ele><time>2026-05-02T13:51:16Z</time></trkpt><trkpt lat="45.63922066237404" lon="3.7167126282284713"><ele>567.5</ele><time>2026-05-02T13:51:17Z</time></trkpt><trkpt lat="45.63923457269205" lon="3.7165301629575764"><ele>564.0</ele><time>2026-05-02T13:51:18Z</time></trkpt><trkpt lat="45.63925507042982" lon="3.7163070989606832"><ele>560.5</ele><time>2026-05-02T13:51:19Z</time></trkpt><trkpt lat="45.63929747386104" lon="3.7161012912043336"><ele>557.0</ele><time>2026-05-02T13:51:20Z</time></trkpt><trkpt lat="45.63935649215022" lon="3.7159093085371593"><ele>557.75</ele><time>2026-05-02T13:51:21Z</time></trkpt><trkpt lat="45.63942119762783" lon="3.7157230888826795"><ele>558.5</ele><time>2026-05-02T13:51:22Z</time></trkpt><trkpt lat="45.639478114734935" lon="3.715572910853288"><ele>559.25</ele><time>2026-05-02T13:51:23Z</time></trkpt><trkpt lat="45.63954427110197" lon="3.715468780479099"><ele>560.0</ele><time>2026-05-02T13:51:24Z</time></trkpt><trkpt lat="45.639630907547314" lon="3.715397036469716"><ele>560.0</ele><time>2026-05-02T13:51:25Z</time></trkpt><trkpt lat="45.63972438751815" lon="3.7153497566844926"><ele>560.0</ele><time>2026-05-02T13:51:26Z</time></trkpt><trkpt lat="45.63982723757627" lon="3.7152876142959688"><ele>560.0</ele><time>2026-05-02T13:51:27Z</time></trkpt><trkpt lat="45.639944710000805" lon="3.715223180189438"><ele>560.0</ele><time>2026-05-02T13:51:28Z</time></trkpt><trkpt lat="45.64005362835235" lon="3.7151701367169516"><ele>559.6</ele><time>2026-05-02T13:51:29Z</time></trkpt><trkpt lat="45.64015423723518" lon="3.7151186388233906"><ele>559.2</ele><time>2026-05-02T13:51:30Z</time></trkpt><trkpt lat="45.64026151387919" lon="3.715048477657233"><ele>558.8</ele><time>2026-05-02T13:51:31Z</time></trkpt><trkpt lat="45.64035630419828" lon="3.7149545361875655"><ele>558.4</ele><time>2026-05-02T13:51:32Z</time></trkpt><trkpt lat="45.64041615355624" lon="3.714835712820439"><ele>558.0</ele><time>2026-05-02T13:51:33Z</time></trkpt><trkpt lat="45.64046495364362" lon="3.7147002635829307"><ele>558.0</ele><time>2026-05-02T13:51:34Z</time></trkpt><trkpt lat="45.64051301581114" lon="3.7145485304751378"><ele>558.0</ele><time>2026-05-02T13:51:35Z</time></trkpt><trkpt lat="45.640572843736805" lon="3.714409542372463"><ele>558.0</ele><time>2026-05-02T13:51:36Z</time></trkpt><trkpt lat="45.6406408621773" lon="3.714266451529416"><ele>558.0</ele><time>2026-05-02T13:51:37Z</time></trkpt><trkpt lat="45.64071663108349" lon="3.714108479926937"><ele>556.75</ele><time>2026-05-02T13:51:38Z</time></trkpt><trkpt lat="45.6407922405112" lon="3.7139562677156635"><ele>555.5</ele><time>2026-05-02T13:51:39Z</time></trkpt><trkpt lat="45.64085830585013" lon="3.7138138387528135"><ele>554.25</ele><time>2026-05-02T13:51:40Z</time></trkpt><trkpt lat="45.64089918377282" lon="3.7136768249866505"><ele>553.0</ele><time>2026-05-02T13:51:41Z</time></trkpt><trkpt lat="45.640911305889986" lon="3.713531054295036"><ele>552.25</ele><time>2026-05-02T13:51:42Z</time></trkpt><trkpt lat="45.640908173499284" lon="3.7133732742152024"><ele>551.5</ele><time>2026-05-02T13:51:43Z</time></trkpt><trkpt lat="45.6408773649415" lon="3.7131894972289157"><ele>550.75</ele><time>2026-05-02T13:51:44Z</time></trkpt><trkpt lat="45.64084054546602" lon="3.712996253417659"><ele>550.0</ele><time>2026-05-02T13:51:45Z</time></trkpt><trkpt lat="45.64080273000633" lon="3.712787941631118"><ele>548.0</ele><time>2026-05-02T13:51:46Z</time></trkpt><trkpt lat="45.64075968408597" lon="3.712566296212903"><ele>546.0</ele><time>2026-05-02T13:51:47Z</time></trkpt><trkpt lat="45.640718746466334" lon="3.7123308585590866"><ele>544.0</ele><time>2026-05-02T13:51:48Z</time></trkpt><trkpt lat="45.64067438744117" lon="3.7120768524602514"><ele>542.6666666666667</ele><time>2026-05-02T13:51:49Z</time></trkpt><trkpt lat="45.64062911308379" lon="3.7118148896144403"><ele>541.3333333333334</ele><time>2026-05-02T13:51:50Z</time></trkpt><trkpt lat="45.64058856499761" lon="3.7115881073467816"><ele>540.0</ele><time>2026-05-02T13:51:51Z</time></trkpt><trkpt lat="45.6405484922774" lon="3.7113681056966055"><ele>540.0</ele><time>2026-05-02T13:51:52Z</time></trkpt><trkpt lat="45.64050989374065" lon="3.711156510515017"><ele>540.0</ele><time>2026-05-02T13:51:53Z</time></trkpt><trkpt lat="45.64046111987055" lon="3.7109559535844827"><ele>540.0</ele><time>2026-05-02T13:51:54Z</time></trkpt><trkpt lat="45.640396904062804" lon="3.7107456407194643"><ele>537.6666666666666</ele><time>2026-05-02T13:51:55Z</time></trkpt><trkpt lat="45.6403205679" lon="3.7105318316711666"><ele>535.3333333333333</ele><time>2026-05-02T13:51:56Z</time></trkpt><trkpt lat="45.64024585203074" lon="3.7103204291217606"><ele>533.0</ele><time>2026-05-02T13:51:57Z</time></trkpt><trkpt lat="45.64017246948023" lon="3.710111647635556"><ele>529.3333333333333</ele><time>2026-05-02T13:51:58Z</time></trkpt><trkpt lat="45.64010718534738" lon="3.7099126448030098"><ele>525.6666666666666</ele><time>2026-05-02T13:51:59Z</time></trkpt><trkpt lat="45.64003950081472" lon="3.7097176273460244"><ele>522.0</ele><time>2026-05-02T13:52:00Z</time></trkpt><trkpt lat="45.6399742704572" lon="3.7095256059635764"><ele>520.75</ele><time>2026-05-02T13:52:01Z</time></trkpt><trkpt lat="45.63991310180294" lon="3.7093399892596"><ele>519.5</ele><time>2026-05-02T13:52:02Z</time></trkpt><trkpt lat="45.63985957976998" lon="3.7091616281811968"><ele>518.25</ele><time>2026-05-02T13:52:03Z</time></trkpt><trkpt lat="45.63982069958836" lon="3.7089885112954657"><ele>517.0</ele><time>2026-05-02T13:52:04Z</time></trkpt><trkpt lat="45.63981122405866" lon="3.7088010974663064"><ele>517.0</ele><time>2026-05-02T13:52:05Z</time></trkpt><trkpt lat="45.63983629727535" lon="3.7085975238130557"><ele>517.0</ele><time>2026-05-02T13:52:06Z</time></trkpt><trkpt lat="45.63985988452378" lon="3.7084045710877156"><ele>517.0</ele><time>2026-05-02T13:52:07Z</time></trkpt><trkpt lat="45.639853308309505" lon="3.708210160086837"><ele>517.0</ele><time>2026-05-02T13:52:08Z</time></trkpt><trkpt lat="45.63981999321299" lon="3.7080035805128895"><ele>515.5</ele><time>2026-05-02T13:52:09Z</time></trkpt><trkpt lat="45.6397750861584" lon="3.7078088801030824"><ele>514.0</ele><time>2026-05-02T13:52:10Z</time></trkpt><trkpt lat="45.63973983686448" lon="3.70762709237942"><ele>512.5</ele><time>2026-05-02T13:52:11Z</time></trkpt><trkpt lat="45.63973152606991" lon="3.707443350376993"><ele>511.0</ele><time>2026-05-02T13:52:12Z</time></trkpt><trkpt lat="45.639752256666405" lon="3.707266473341688"><ele>509.6</ele><time>2026-05-02T13:52:13Z</time></trkpt><trkpt lat="45.63979491161522" lon="3.7071305471267992"><ele>508.20000000000005</ele><time>2026-05-02T13:52:14Z</time></trkpt><trkpt lat="45.639868221617974" lon="3.7070427200448095"><ele>506.79999999999995</ele><time>2026-05-02T13:52:15Z</time></trkpt><trkpt lat="45.63996061799907" lon="3.7070113231246404"><ele>505.4</ele><time>2026-05-02T13:52:16Z</time></trkpt><trkpt lat="45.64008120334215" lon="3.7070210524991896"><ele>504.0</ele><time>2026-05-02T13:52:17Z</time></trkpt><trkpt lat="45.64020973656641" lon="3.707052151012552"><ele>504.33333333333337</ele><time>2026-05-02T13:52:18Z</time></trkpt><trkpt lat="45.64035382411881" lon="3.707058764243555"><ele>504.6666666666667</ele><time>2026-05-02T13:52:19Z</time></trkpt><trkpt lat="45.64051270384027" lon="3.707058965554979"><ele>505.0</ele><time>2026-05-02T13:52:20Z</time></trkpt><trkpt lat="45.64068237094002" lon="3.7070608830054494"><ele>505.0</ele><time>2026-05-02T13:52:21Z</time></trkpt><trkpt lat="45.64084709257679" lon="3.707067658709397"><ele>505.0</ele><time>2026-05-02T13:52:22Z</time></trkpt><trkpt lat="45.640989750455105" lon="3.7070745048507865"><ele>505.0</ele><time>2026-05-02T13:52:23Z</time></trkpt><trkpt lat="45.641124660615446" lon="3.707080978050424"><ele>505.0</ele><time>2026-05-02T13:52:24Z</time></trkpt><trkpt lat="45.64125141829266" lon="3.70709392315468"><ele>504.8</ele><time>2026-05-02T13:52:25Z</time></trkpt><trkpt lat="45.64136535850917" lon="3.7071147546219145"><ele>504.6</ele><time>2026-05-02T13:52:26Z</time></trkpt><trkpt lat="45.64146894413408" lon="3.7071275265403982"><ele>504.4</ele><time>2026-05-02T13:52:27Z</time></trkpt><trkpt lat="45.641559643603266" lon="3.707125551178097"><ele>504.2</ele><time>2026-05-02T13:52:28Z</time></trkpt><trkpt lat="45.64163962615951" lon="3.707119534955079"><ele>504.0</ele><time>2026-05-02T13:52:29Z</time></trkpt><trkpt lat="45.64172545123033" lon="3.707117526334541"><ele>504.0</ele><time>2026-05-02T13:52:31Z</time></trkpt><trkpt lat="45.64173966519071" lon="3.706947121638785"><ele>504.0</ele><time>2026-05-02T13:52:32Z</time></trkpt><trkpt lat="45.64175099789148" lon="3.7068092006515982"><ele>499.0</ele><time>2026-05-02T13:52:34Z</time></trkpt><trkpt lat="45.641766623006475" lon="3.7067066030812192"><ele>499.0</ele><time>2026-05-02T13:52:36Z</time></trkpt></trkseg></trk></gpx>